<?xml version='1.0' encoding='UTF-8'?><gpx version="1.1" creator="JPX - https://github.com/jenetics/jpx" xmlns="http://www.topografix.com/GPX/1/1"><trk><trkseg><trkpt lat="46.211624117440216" lon="10.161707912204063"><ele>423.0</ele><time>2026-04-27T12:19:00Z</time></trkpt><trkpt lat="46.21168602634194" lon="10.16178041490027"><ele>423.0</ele><time>2026-04-27T12:19:12.999Z</time></trkpt><trkpt lat="46.21172073896417" lon="10.161889011093141"><ele>423.0</ele><time>2026-04-27T12:19:14.999Z</time></trkpt><trkpt lat="46.21177152059481" lon="10.162000887611566"><ele>423.0</ele><time>2026-04-27T12:19:16.999Z</time></trkpt><trkpt lat="46.21182391164083" lon="10.162100130550021"><ele>423.0</ele><time>2026-04-27T12:19:18.999Z</time></trkpt><trkpt lat="46.21187273669146" lon="10.162206058420074"><ele>423.0</ele><time>2026-04-27T12:19:20.999Z</time></trkpt><trkpt lat="46.211919796383256" lon="10.162302419310127"><ele>423.3333333333333</ele><time>2026-04-27T12:19:22.999Z</time></trkpt><trkpt lat="46.211976697840875" lon="10.162430084249847"><ele>423.66666666666663</ele><time>2026-04-27T12:19:24.999Z</time></trkpt><trkpt lat="46.2120182007072" lon="10.162504331388545"><ele>424.0</ele><time>2026-04-27T12:19:25.999Z</time></trkpt><trkpt lat="46.21206678089702" lon="10.162585011592677"><ele>424.3333333333333</ele><time>2026-04-27T12:19:26.999Z</time></trkpt><trkpt lat="46.21211615909577" lon="10.162663869552077"><ele>424.66666666666663</ele><time>2026-04-27T12:19:27.999Z</time></trkpt><trkpt lat="46.21215644207985" lon="10.162754263693632"><ele>425.0</ele><time>2026-04-27T12:19:28.999Z</time></trkpt><trkpt lat="46.21219491924876" lon="10.162841950625657"><ele>425.0</ele><time>2026-04-27T12:19:29.999Z</time></trkpt><trkpt lat="46.21225170489661" lon="10.16297430142148"><ele>425.0</ele><time>2026-04-27T12:19:31.999Z</time></trkpt><trkpt lat="46.212292044234765" lon="10.163055767032066"><ele>425.0</ele><time>2026-04-27T12:20:32Z</time></trkpt><trkpt lat="46.2123350509654" lon="10.16314435739434"><ele>425.0</ele><time>2026-04-27T12:20:36Z</time></trkpt><trkpt lat="46.212240093152275" lon="10.163192383739268"><ele>425.0</ele><time>2026-04-27T12:20:39Z</time></trkpt><trkpt lat="46.21215417704899" lon="10.163293020128538"><ele>425.0</ele><time>2026-04-27T12:20:40.999Z</time></trkpt><trkpt lat="46.21210020420557" lon="10.163356240332327"><ele>425.0</ele><time>2026-04-27T12:20:41.999Z</time></trkpt><trkpt lat="46.21203093059779" lon="10.163437382839533"><ele>425.0</ele><time>2026-04-27T12:20:42.999Z</time></trkpt><trkpt lat="46.21194900443809" lon="10.163533345666771"><ele>425.0</ele><time>2026-04-27T12:20:43.999Z</time></trkpt><trkpt lat="46.21186159214026" lon="10.16363573471487"><ele>425.0</ele><time>2026-04-27T12:20:44.999Z</time></trkpt><trkpt lat="46.21178178607356" lon="10.163729214183723"><ele>424.99999999999994</ele><time>2026-04-27T12:20:45.999Z</time></trkpt><trkpt lat="46.211713800848585" lon="10.16380884759907"><ele>425.0</ele><time>2026-04-27T12:20:46.999Z</time></trkpt><trkpt lat="46.211658104476726" lon="10.163871808943618"><ele>425.0</ele><time>2026-04-27T12:20:47.999Z</time></trkpt><trkpt lat="46.21158970345345" lon="10.163958632801664"><ele>425.0</ele><time>2026-04-27T12:20:49.999Z</time></trkpt><trkpt lat="46.21152317910737" lon="10.164022592652383"><ele>424.99999999999994</ele><time>2026-04-27T12:21:25.999Z</time></trkpt><trkpt lat="46.211471744187996" lon="10.164088925868798"><ele>425.0</ele><time>2026-04-27T12:21:28.999Z</time></trkpt><trkpt lat="46.211397071264386" lon="10.164190559067753"><ele>424.66666666666663</ele><time>2026-04-27T12:21:30.999Z</time></trkpt><trkpt lat="46.21131562757623" lon="10.164277935665504"><ele>424.3333333333333</ele><time>2026-04-27T12:21:32.999Z</time></trkpt><trkpt lat="46.211264459074506" lon="10.164344774125654"><ele>424.0</ele><time>2026-04-27T12:21:35.999Z</time></trkpt><trkpt lat="46.2112814038187" lon="10.164482870791016"><ele>423.66666666666663</ele><time>2026-04-27T12:21:38.999Z</time></trkpt><trkpt lat="46.21133871010949" lon="10.164573207601336"><ele>423.3333333333333</ele><time>2026-04-27T12:21:39.999Z</time></trkpt><trkpt lat="46.21139269323316" lon="10.164661514659898"><ele>423.0</ele><time>2026-04-27T12:21:40.999Z</time></trkpt><trkpt lat="46.21145417491805" lon="10.16476990079281"><ele>423.75</ele><time>2026-04-27T12:21:41.999Z</time></trkpt><trkpt lat="46.211529982231085" lon="10.164899089594448"><ele>424.5</ele><time>2026-04-27T12:21:42.999Z</time></trkpt><trkpt lat="46.21160217207241" lon="10.165029265555436"><ele>425.25</ele><time>2026-04-27T12:21:43.999Z</time></trkpt><trkpt lat="46.21168127853042" lon="10.16516816110641"><ele>426.0</ele><time>2026-04-27T12:21:44.999Z</time></trkpt><trkpt lat="46.21176546897012" lon="10.16531267026165"><ele>426.0</ele><time>2026-04-27T12:21:45.999Z</time></trkpt><trkpt lat="46.21185410356198" lon="10.165465493860887"><ele>426.0</ele><time>2026-04-27T12:21:46.999Z</time></trkpt><trkpt lat="46.211947874355396" lon="10.165621908256966"><ele>426.0</ele><time>2026-04-27T12:21:47.999Z</time></trkpt><trkpt lat="46.21204223880499" lon="10.165788603951825"><ele>426.0</ele><time>2026-04-27T12:21:48.999Z</time></trkpt><trkpt lat="46.21213269155751" lon="10.165943275641988"><ele>426.0</ele><time>2026-04-27T12:21:49.999Z</time></trkpt><trkpt lat="46.2122181305271" lon="10.166102429169772"><ele>426.0</ele><time>2026-04-27T12:21:50.999Z</time></trkpt><trkpt lat="46.21230912718184" lon="10.166264652990302"><ele>426.0</ele><time>2026-04-27T12:21:51.999Z</time></trkpt><trkpt lat="46.2123999147794" lon="10.166430497113051"><ele>426.0</ele><time>2026-04-27T12:21:53Z</time></trkpt><trkpt lat="46.21249159948148" lon="10.166594412119995"><ele>426.33333333333337</ele><time>2026-04-27T12:21:54Z</time></trkpt><trkpt lat="46.2125880715248" lon="10.166758816178891"><ele>426.6666666666667</ele><time>2026-04-27T12:21:55Z</time></trkpt><trkpt lat="46.21268520176937" lon="10.166928863797319"><ele>427.0</ele><time>2026-04-27T12:21:56Z</time></trkpt><trkpt lat="46.212782391871364" lon="10.167095942454171"><ele>427.0</ele><time>2026-04-27T12:21:57Z</time></trkpt><trkpt lat="46.21288258908722" lon="10.167266683115123"><ele>427.0</ele><time>2026-04-27T12:21:58Z</time></trkpt><trkpt lat="46.212985638355875" lon="10.167438471490339"><ele>427.0</ele><time>2026-04-27T12:21:59Z</time></trkpt><trkpt lat="46.213083231377446" lon="10.167613557013707"><ele>427.25</ele><time>2026-04-27T12:22:00Z</time></trkpt><trkpt lat="46.213176474246154" lon="10.167787747124418"><ele>427.5</ele><time>2026-04-27T12:22:01Z</time></trkpt><trkpt lat="46.21327559650549" lon="10.167953366509208"><ele>427.75</ele><time>2026-04-27T12:22:02Z</time></trkpt><trkpt lat="46.213364181257255" lon="10.168115766181213"><ele>428.0</ele><time>2026-04-27T12:22:03Z</time></trkpt><trkpt lat="46.21345223246252" lon="10.16827104765886"><ele>428.5</ele><time>2026-04-27T12:22:04Z</time></trkpt><trkpt lat="46.213536211967615" lon="10.168422187346376"><ele>429.0</ele><time>2026-04-27T12:22:05Z</time></trkpt><trkpt lat="46.21361920620166" lon="10.168568545373287"><ele>429.5</ele><time>2026-04-27T12:22:06Z</time></trkpt><trkpt lat="46.213702769558175" lon="10.168712314093673"><ele>430.0</ele><time>2026-04-27T12:22:07Z</time></trkpt><trkpt lat="46.21378891925647" lon="10.168858552918914"><ele>430.0</ele><time>2026-04-27T12:22:08Z</time></trkpt><trkpt lat="46.21386556667998" lon="10.168984481175311"><ele>430.0</ele><time>2026-04-27T12:22:09Z</time></trkpt><trkpt lat="46.213938169900686" lon="10.169110307810673"><ele>430.0</ele><time>2026-04-27T12:22:10Z</time></trkpt><trkpt lat="46.214010415266706" lon="10.169240784558747"><ele>430.0</ele><time>2026-04-27T12:22:11Z</time></trkpt><trkpt lat="46.21408273317946" lon="10.169375562962497"><ele>429.75</ele><time>2026-04-27T12:22:12Z</time></trkpt><trkpt lat="46.21416479253897" lon="10.169516894024506"><ele>429.5</ele><time>2026-04-27T12:22:13Z</time></trkpt><trkpt lat="46.214250165013745" lon="10.169656515137905"><ele>429.25</ele><time>2026-04-27T12:22:14Z</time></trkpt><trkpt lat="46.21433885082911" lon="10.169801264784601"><ele>429.0</ele><time>2026-04-27T12:22:15Z</time></trkpt><trkpt lat="46.214426072526905" lon="10.16995351538682"><ele>429.5</ele><time>2026-04-27T12:22:16Z</time></trkpt><trkpt lat="46.21451543978878" lon="10.170104697934226"><ele>430.0</ele><time>2026-04-27T12:22:17Z</time></trkpt><trkpt lat="46.21460329773652" lon="10.170262639346165"><ele>430.5</ele><time>2026-04-27T12:22:18Z</time></trkpt><trkpt lat="46.21469363675039" lon="10.17042000600595"><ele>431.0</ele><time>2026-04-27T12:22:19Z</time></trkpt><trkpt lat="46.214791069500485" lon="10.170579244075741"><ele>431.75</ele><time>2026-04-27T12:22:20Z</time></trkpt><trkpt lat="46.21488217794803" lon="10.170737256210582"><ele>432.5</ele><time>2026-04-27T12:22:21Z</time></trkpt><trkpt lat="46.21497673794181" lon="10.170897592880998"><ele>433.25</ele><time>2026-04-27T12:22:22Z</time></trkpt><trkpt lat="46.21506520861021" lon="10.171047888574654"><ele>434.0</ele><time>2026-04-27T12:22:23Z</time></trkpt><trkpt lat="46.215149531634246" lon="10.171179211576144"><ele>434.0</ele><time>2026-04-27T12:22:24Z</time></trkpt><trkpt lat="46.215220731111884" lon="10.171293493378753"><ele>434.0</ele><time>2026-04-27T12:22:25Z</time></trkpt><trkpt lat="46.21528526266969" lon="10.171389366156603"><ele>434.0</ele><time>2026-04-27T12:22:26Z</time></trkpt><trkpt lat="46.215340971171" lon="10.171480300750213"><ele>434.0</ele><time>2026-04-27T12:22:27Z</time></trkpt><trkpt lat="46.215391009739704" lon="10.17157059921396"><ele>434.0</ele><time>2026-04-27T12:22:28Z</time></trkpt><trkpt lat="46.21544010702677" lon="10.171685281570868"><ele>434.6</ele><time>2026-04-27T12:22:30Z</time></trkpt><trkpt lat="46.215419330869175" lon="10.171779960032977"><ele>435.2</ele><time>2026-04-27T12:22:34Z</time></trkpt><trkpt lat="46.21533966860848" lon="10.171891339986463"><ele>435.80000000000007</ele><time>2026-04-27T12:22:36Z</time></trkpt><trkpt lat="46.21527470430454" lon="10.17197204062285"><ele>436.40000000000003</ele><time>2026-04-27T12:22:37Z</time></trkpt><trkpt lat="46.215204794324876" lon="10.17205700274179"><ele>437.0</ele><time>2026-04-27T12:22:38Z</time></trkpt><trkpt lat="46.21512428919635" lon="10.172161352820568"><ele>437.0</ele><time>2026-04-27T12:22:39Z</time></trkpt><trkpt lat="46.215032480841586" lon="10.172270658055414"><ele>437.0</ele><time>2026-04-27T12:22:40Z</time></trkpt><trkpt lat="46.21494752269067" lon="10.172386659763717"><ele>437.0</ele><time>2026-04-27T12:22:41Z</time></trkpt><trkpt lat="46.21485930816976" lon="10.17250807089051"><ele>437.0</ele><time>2026-04-27T12:22:42Z</time></trkpt><trkpt lat="46.214780994712285" lon="10.172647632885829"><ele>437.0</ele><time>2026-04-27T12:22:43Z</time></trkpt><trkpt lat="46.21470588828846" lon="10.172793750567445"><ele>437.0</ele><time>2026-04-27T12:22:44Z</time></trkpt><trkpt lat="46.21463978915471" lon="10.17295092837034"><ele>437.0</ele><time>2026-04-27T12:22:45Z</time></trkpt><trkpt lat="46.21457907958776" lon="10.173110116295929"><ele>437.0</ele><time>2026-04-27T12:22:46Z</time></trkpt><trkpt lat="46.2145297831919" lon="10.173286345694947"><ele>437.75</ele><time>2026-04-27T12:22:47Z</time></trkpt><trkpt lat="46.21448991607787" lon="10.173462068765934"><ele>438.5</ele><time>2026-04-27T12:22:48Z</time></trkpt><trkpt lat="46.21444814597705" lon="10.173632240405771"><ele>439.25</ele><time>2026-04-27T12:22:49Z</time></trkpt><trkpt lat="46.21440588271705" lon="10.173805011851604"><ele>440.0</ele><time>2026-04-27T12:22:50Z</time></trkpt><trkpt lat="46.214367399707484" lon="10.173974540667574"><ele>440.25</ele><time>2026-04-27T12:22:51Z</time></trkpt><trkpt lat="46.214329434005826" lon="10.174138878068442"><ele>440.5</ele><time>2026-04-27T12:22:52Z</time></trkpt><trkpt lat="46.21428709733692" lon="10.174305913424456"><ele>440.75</ele><time>2026-04-27T12:22:53Z</time></trkpt><trkpt lat="46.21424515989007" lon="10.17446765522799"><ele>441.0</ele><time>2026-04-27T12:22:54Z</time></trkpt><trkpt lat="46.214207933416006" lon="10.174625690645486"><ele>441.0</ele><time>2026-04-27T12:22:55Z</time></trkpt><trkpt lat="46.21417425071211" lon="10.174781099419198"><ele>441.0</ele><time>2026-04-27T12:22:56Z</time></trkpt><trkpt lat="46.21413610898685" lon="10.17493691712902"><ele>441.0</ele><time>2026-04-27T12:22:57Z</time></trkpt><trkpt lat="46.21409724144932" lon="10.17509027480862"><ele>441.0</ele><time>2026-04-27T12:22:58Z</time></trkpt><trkpt lat="46.21405971577087" lon="10.175244299845668"><ele>440.75</ele><time>2026-04-27T12:22:59Z</time></trkpt><trkpt lat="46.21402047557741" lon="10.175396272806116"><ele>440.5</ele><time>2026-04-27T12:23:00Z</time></trkpt><trkpt lat="46.21398602688402" lon="10.175554829011102"><ele>440.25</ele><time>2026-04-27T12:23:01Z</time></trkpt><trkpt lat="46.213939875067865" lon="10.175728971594364"><ele>440.0</ele><time>2026-04-27T12:23:02Z</time></trkpt><trkpt lat="46.21389515296973" lon="10.175918883912257"><ele>441.75</ele><time>2026-04-27T12:23:03Z</time></trkpt><trkpt lat="46.21385213043359" lon="10.176093969448988"><ele>443.5</ele><time>2026-04-27T12:23:04Z</time></trkpt><trkpt lat="46.21380727095602" lon="10.176270500863856"><ele>445.25</ele><time>2026-04-27T12:23:05Z</time></trkpt><trkpt lat="46.21376330225392" lon="10.176442634156864"><ele>447.0</ele><time>2026-04-27T12:23:06Z</time></trkpt><trkpt lat="46.213725336035864" lon="10.17660079914687"><ele>446.99999999999994</ele><time>2026-04-27T12:23:07Z</time></trkpt><trkpt lat="46.21369057579148" lon="10.176724693578615"><ele>447.0</ele><time>2026-04-27T12:23:08Z</time></trkpt><trkpt lat="46.213662629046205" lon="10.176820328133967"><ele>447.0</ele><time>2026-04-27T12:23:09Z</time></trkpt><trkpt lat="46.21361617761224" lon="10.176885363273698"><ele>447.0</ele><time>2026-04-27T12:23:10Z</time></trkpt><trkpt lat="46.213554072847835" lon="10.176925528524922"><ele>447.0</ele><time>2026-04-27T12:23:11Z</time></trkpt><trkpt lat="46.21349337073074" lon="10.176973966176638"><ele>446.99999999999994</ele><time>2026-04-27T12:23:12Z</time></trkpt><trkpt lat="46.213430192374574" lon="10.177033550966577"><ele>447.0</ele><time>2026-04-27T12:23:12.998Z</time></trkpt><trkpt lat="46.21331811931986" lon="10.177014364236314"><ele>447.0</ele><time>2026-04-27T12:23:13.998Z</time></trkpt><trkpt lat="46.21323979123549" lon="10.177086450900253"><ele>447.00000000000006</ele><time>2026-04-27T12:23:14.998Z</time></trkpt><trkpt lat="46.21316443661463" lon="10.177178836074045"><ele>447.00000000000006</ele><time>2026-04-27T12:23:15.998Z</time></trkpt><trkpt lat="46.21309703255836" lon="10.17729206447045"><ele>447.0</ele><time>2026-04-27T12:23:16.999Z</time></trkpt><trkpt lat="46.2130405819648" lon="10.17741989265832"><ele>447.0</ele><time>2026-04-27T12:23:17.999Z</time></trkpt><trkpt lat="46.21299956664058" lon="10.177565902757244"><ele>452.75</ele><time>2026-04-27T12:23:18.999Z</time></trkpt><trkpt lat="46.21297090313089" lon="10.177716964977943"><ele>458.5</ele><time>2026-04-27T12:23:19.999Z</time></trkpt><trkpt lat="46.212964422611364" lon="10.177876347729601"><ele>464.25</ele><time>2026-04-27T12:23:20.999Z</time></trkpt><trkpt lat="46.21297186905674" lon="10.178042033746932"><ele>470.0</ele><time>2026-04-27T12:23:21.999Z</time></trkpt><trkpt lat="46.2129886861948" lon="10.178218163053621"><ele>472.75</ele><time>2026-04-27T12:23:22.999Z</time></trkpt><trkpt lat="46.21301987640532" lon="10.178405184022655"><ele>475.5</ele><time>2026-04-27T12:23:23.999Z</time></trkpt><trkpt lat="46.213061557898854" lon="10.178586101915505"><ele>478.25</ele><time>2026-04-27T12:23:24.999Z</time></trkpt><trkpt lat="46.21309227594024" lon="10.178764129702456"><ele>481.0</ele><time>2026-04-27T12:23:25.999Z</time></trkpt><trkpt lat="46.21312620153101" lon="10.178943506801755"><ele>484.75</ele><time>2026-04-27T12:23:26.999Z</time></trkpt><trkpt lat="46.2131528122767" lon="10.179130697123822"><ele>488.5</ele><time>2026-04-27T12:23:27.999Z</time></trkpt><trkpt lat="46.21318424482501" lon="10.179313368720486"><ele>492.25</ele><time>2026-04-27T12:23:28.999Z</time></trkpt><trkpt lat="46.213218544168775" lon="10.179494367265033"><ele>496.0</ele><time>2026-04-27T12:23:29.999Z</time></trkpt><trkpt lat="46.21325181992922" lon="10.179671825384093"><ele>489.0</ele><time>2026-04-27T12:23:30.999Z</time></trkpt><trkpt lat="46.21328195169214" lon="10.179848815583677"><ele>482.0</ele><time>2026-04-27T12:23:31.999Z</time></trkpt><trkpt lat="46.21331586664531" lon="10.180025546298815"><ele>475.0</ele><time>2026-04-27T12:23:32.999Z</time></trkpt><trkpt lat="46.21335091292359" lon="10.18020855707396"><ele>468.0</ele><time>2026-04-27T12:23:33.999Z</time></trkpt><trkpt lat="46.213382177093635" lon="10.180394722491004"><ele>468.0</ele><time>2026-04-27T12:23:34.999Z</time></trkpt><trkpt lat="46.21341542838504" lon="10.180584096427344"><ele>468.0</ele><time>2026-04-27T12:23:35.999Z</time></trkpt><trkpt lat="46.213448872803" lon="10.180761531860904"><ele>468.0</ele><time>2026-04-27T12:23:36.999Z</time></trkpt><trkpt lat="46.21348306978726" lon="10.180949068578524"><ele>468.0</ele><time>2026-04-27T12:23:37.999Z</time></trkpt><trkpt lat="46.21351940798172" lon="10.181139220232039"><ele>471.0</ele><time>2026-04-27T12:23:38.999Z</time></trkpt><trkpt lat="46.21355980304477" lon="10.181335666248135"><ele>474.0</ele><time>2026-04-27T12:23:39.999Z</time></trkpt><trkpt lat="46.21360584436804" lon="10.1815416933969"><ele>477.0</ele><time>2026-04-27T12:23:40.999Z</time></trkpt><trkpt lat="46.21364723227185" lon="10.181745857256967"><ele>480.0</ele><time>2026-04-27T12:23:41.999Z</time></trkpt><trkpt lat="46.21371299390571" lon="10.181935220798577"><ele>485.33333333333337</ele><time>2026-04-27T12:23:42.999Z</time></trkpt><trkpt lat="46.21378434304114" lon="10.182128577784203"><ele>490.6666666666667</ele><time>2026-04-27T12:23:43.999Z</time></trkpt><trkpt lat="46.21385685956302" lon="10.182328314502323"><ele>496.0</ele><time>2026-04-27T12:23:44.999Z</time></trkpt><trkpt lat="46.21392987855942" lon="10.182525618956525"><ele>493.0</ele><time>2026-04-27T12:23:45.999Z</time></trkpt><trkpt lat="46.21400298170247" lon="10.182724936213905"><ele>490.0</ele><time>2026-04-27T12:23:46.999Z</time></trkpt><trkpt lat="46.214079715371824" lon="10.18292515340532"><ele>487.0</ele><time>2026-04-27T12:23:47.999Z</time></trkpt><trkpt lat="46.214153664393116" lon="10.183116715278768"><ele>490.5</ele><time>2026-04-27T12:23:48.999Z</time></trkpt><trkpt lat="46.214228075896976" lon="10.183288208577636"><ele>494.0</ele><time>2026-04-27T12:23:49.999Z</time></trkpt><trkpt lat="46.21429831831729" lon="10.183440183084908"><ele>497.5</ele><time>2026-04-27T12:23:51Z</time></trkpt><trkpt lat="46.214373452168594" lon="10.183584105848176"><ele>501.0</ele><time>2026-04-27T12:23:52Z</time></trkpt><trkpt lat="46.21446233913034" lon="10.183719168064192"><ele>501.0</ele><time>2026-04-27T12:23:53Z</time></trkpt><trkpt lat="46.21455716573329" lon="10.18384372765738"><ele>501.0</ele><time>2026-04-27T12:23:54Z</time></trkpt><trkpt lat="46.21464990909024" lon="10.183956260005365"><ele>501.0</ele><time>2026-04-27T12:23:55Z</time></trkpt><trkpt lat="46.21475289774459" lon="10.184068910397352"><ele>501.0</ele><time>2026-04-27T12:23:56Z</time></trkpt><trkpt lat="46.214871768908374" lon="10.184181108286484"><ele>500.33333333333337</ele><time>2026-04-27T12:23:57Z</time></trkpt><trkpt lat="46.21499478955199" lon="10.18429969317995"><ele>499.6666666666667</ele><time>2026-04-27T12:23:58Z</time></trkpt><trkpt lat="46.21512265218509" lon="10.18442713515071"><ele>499.0</ele><time>2026-04-27T12:23:59Z</time></trkpt><trkpt lat="46.215251643372525" lon="10.184555704240585"><ele>499.0</ele><time>2026-04-27T12:24:00Z</time></trkpt><trkpt lat="46.21538362339519" lon="10.184689897475598"><ele>499.0</ele><time>2026-04-27T12:24:01Z</time></trkpt><trkpt lat="46.21551670514806" lon="10.18482602848436"><ele>499.0</ele><time>2026-04-27T12:24:02Z</time></trkpt><trkpt lat="46.21564999167336" lon="10.184960788136067"><ele>501.0</ele><time>2026-04-27T12:24:03Z</time></trkpt><trkpt lat="46.21578141833339" lon="10.185100849446581"><ele>503.0</ele><time>2026-04-27T12:24:04Z</time></trkpt><trkpt lat="46.21591479774826" lon="10.185246161838766"><ele>505.0</ele><time>2026-04-27T12:24:05Z</time></trkpt><trkpt lat="46.21604735760688" lon="10.185388842664638"><ele>505.0</ele><time>2026-04-27T12:24:06Z</time></trkpt><trkpt lat="46.216157465136114" lon="10.185503914114353"><ele>505.0</ele><time>2026-04-27T12:24:07Z</time></trkpt><trkpt lat="46.21624451889466" lon="10.185600366901511"><ele>505.0</ele><time>2026-04-27T12:24:08Z</time></trkpt><trkpt lat="46.216304530248294" lon="10.185668375506165"><ele>505.0</ele><time>2026-04-27T12:24:09Z</time></trkpt><trkpt lat="46.21634592259071" lon="10.185749797580714"><ele>505.0</ele><time>2026-04-27T12:24:11Z</time></trkpt><trkpt lat="46.216279064107646" lon="10.185852797971227"><ele>507.0</ele><time>2026-04-27T12:24:14Z</time></trkpt><trkpt lat="46.21621300634478" lon="10.185865679664092"><ele>509.0</ele><time>2026-04-27T12:24:15Z</time></trkpt><trkpt lat="46.21612807674104" lon="10.185878111530037"><ele>511.0</ele><time>2026-04-27T12:24:16Z</time></trkpt><trkpt lat="46.21603834649773" lon="10.185899134719135"><ele>513.0</ele><time>2026-04-27T12:24:17Z</time></trkpt><trkpt lat="46.21593714302404" lon="10.185943857185636"><ele>515.0</ele><time>2026-04-27T12:24:18Z</time></trkpt><trkpt lat="46.215831141799185" lon="10.185985337330234"><ele>515.0</ele><time>2026-04-27T12:24:19Z</time></trkpt><trkpt lat="46.21572439582447" lon="10.186056733745232"><ele>515.0</ele><time>2026-04-27T12:24:20Z</time></trkpt><trkpt lat="46.2156256275701" lon="10.186160350881398"><ele>515.0</ele><time>2026-04-27T12:24:21Z</time></trkpt><trkpt lat="46.215532926724975" lon="10.186272428012044"><ele>515.0</ele><time>2026-04-27T12:24:22Z</time></trkpt><trkpt lat="46.21543585576291" lon="10.186374717344163"><ele>515.3333333333333</ele><time>2026-04-27T12:24:23Z</time></trkpt><trkpt lat="46.21532571409031" lon="10.186437059571182"><ele>515.6666666666666</ele><time>2026-04-27T12:24:24Z</time></trkpt><trkpt lat="46.2152531521077" lon="10.18653228477845"><ele>516.0</ele><time>2026-04-27T12:24:25Z</time></trkpt><trkpt lat="46.21519881194208" lon="10.186598915800879"><ele>516.3333333333334</ele><time>2026-04-27T12:24:26Z</time></trkpt><trkpt lat="46.2151624688602" lon="10.186675328970507"><ele>516.6666666666667</ele><time>2026-04-27T12:24:27Z</time></trkpt><trkpt lat="46.21512197693651" lon="10.186758347093424"><ele>517.0</ele><time>2026-04-27T12:24:28Z</time></trkpt><trkpt lat="46.21511097582457" lon="10.186868563102363"><ele>519.1666666666667</ele><time>2026-04-27T12:24:29Z</time></trkpt><trkpt lat="46.21515057576845" lon="10.186981105199166"><ele>521.3333333333334</ele><time>2026-04-27T12:24:30Z</time></trkpt><trkpt lat="46.21518291121964" lon="10.187083086738852"><ele>523.5</ele><time>2026-04-27T12:24:31Z</time></trkpt><trkpt lat="46.215197246070886" lon="10.187205145783105"><ele>525.6666666666666</ele><time>2026-04-27T12:24:32Z</time></trkpt><trkpt lat="46.215229277914865" lon="10.187328880915258"><ele>527.8333333333333</ele><time>2026-04-27T12:24:33Z</time></trkpt><trkpt lat="46.21526169245006" lon="10.187454094332116"><ele>530.0</ele><time>2026-04-27T12:24:34Z</time></trkpt><trkpt lat="46.21528953297763" lon="10.187571464428439"><ele>533.1666666666666</ele><time>2026-04-27T12:24:35Z</time></trkpt><trkpt lat="46.21530326421292" lon="10.187682189007331"><ele>536.3333333333333</ele><time>2026-04-27T12:24:36Z</time></trkpt><trkpt lat="46.2152884447092" lon="10.187783933261377"><ele>539.5</ele><time>2026-04-27T12:24:37Z</time></trkpt><trkpt lat="46.21525968012805" lon="10.187885646642862"><ele>542.6666666666666</ele><time>2026-04-27T12:24:38Z</time></trkpt><trkpt lat="46.215231607471665" lon="10.188005154873347"><ele>545.8333333333334</ele><time>2026-04-27T12:24:39Z</time></trkpt><trkpt lat="46.21521167142018" lon="10.188150923582315"><ele>549.0</ele><time>2026-04-27T12:24:40Z</time></trkpt><trkpt lat="46.21522705355239" lon="10.188279458668193"><ele>552.2</ele><time>2026-04-27T12:24:41Z</time></trkpt><trkpt lat="46.21525318533302" lon="10.188397065225267"><ele>555.4</ele><time>2026-04-27T12:24:42Z</time></trkpt><trkpt lat="46.21529496667954" lon="10.188512188487067"><ele>558.6</ele><time>2026-04-27T12:24:43Z</time></trkpt><trkpt lat="46.21534643093297" lon="10.18863451804676"><ele>561.8</ele><time>2026-04-27T12:24:44Z</time></trkpt><trkpt lat="46.2153996796853" lon="10.188775089472704"><ele>565.0</ele><time>2026-04-27T12:24:45Z</time></trkpt><trkpt lat="46.21542309317558" lon="10.188910975732771"><ele>569.4</ele><time>2026-04-27T12:24:46Z</time></trkpt><trkpt lat="46.21546556083552" lon="10.189015483019643"><ele>573.8</ele><time>2026-04-27T12:24:47Z</time></trkpt><trkpt lat="46.21548449604171" lon="10.189141813824877"><ele>578.2</ele><time>2026-04-27T12:24:48Z</time></trkpt><trkpt lat="46.21548238805444" lon="10.189285577015486"><ele>582.6</ele><time>2026-04-27T12:24:49Z</time></trkpt><trkpt lat="46.215482855842794" lon="10.18942564806209"><ele>587.0</ele><time>2026-04-27T12:24:50Z</time></trkpt><trkpt lat="46.21548520066956" lon="10.189576037838327"><ele>587.0</ele><time>2026-04-27T12:24:51Z</time></trkpt><trkpt lat="46.215512427759116" lon="10.189726936993878"><ele>587.0</ele><time>2026-04-27T12:24:52Z</time></trkpt><trkpt lat="46.21554442319984" lon="10.189881052766328"><ele>587.0</ele><time>2026-04-27T12:24:53Z</time></trkpt><trkpt lat="46.21557347370897" lon="10.190034701316483"><ele>587.0</ele><time>2026-04-27T12:24:54Z</time></trkpt><trkpt lat="46.21562530591112" lon="10.190188957301233"><ele>587.0</ele><time>2026-04-27T12:24:55Z</time></trkpt><trkpt lat="46.21567865159941" lon="10.190362801752547"><ele>587.0</ele><time>2026-04-27T12:24:56Z</time></trkpt><trkpt lat="46.21573436892116" lon="10.190539736530686"><ele>587.0</ele><time>2026-04-27T12:24:57Z</time></trkpt><trkpt lat="46.21578090239392" lon="10.190695231085446"><ele>587.0</ele><time>2026-04-27T12:24:58Z</time></trkpt><trkpt lat="46.215828210156644" lon="10.190874660418627"><ele>587.0</ele><time>2026-04-27T12:24:59Z</time></trkpt><trkpt lat="46.21588446062668" lon="10.19104051298875"><ele>587.0</ele><time>2026-04-27T12:25:00Z</time></trkpt><trkpt lat="46.215960276172005" lon="10.191187686466009"><ele>587.0</ele><time>2026-04-27T12:25:01Z</time></trkpt><trkpt lat="46.216030386409194" lon="10.191334095520427"><ele>587.0</ele><time>2026-04-27T12:25:02Z</time></trkpt><trkpt lat="46.21607111223256" lon="10.191496048259005"><ele>587.0</ele><time>2026-04-27T12:25:03Z</time></trkpt><trkpt lat="46.2161485879782" lon="10.191642475801876"><ele>593.0</ele><time>2026-04-27T12:25:04Z</time></trkpt><trkpt lat="46.216238498019635" lon="10.191759143976558"><ele>599.0</ele><time>2026-04-27T12:25:05Z</time></trkpt><trkpt lat="46.216319369512185" lon="10.191879907062376"><ele>605.0</ele><time>2026-04-27T12:25:06Z</time></trkpt><trkpt lat="46.216392460520375" lon="10.192003489991958"><ele>611.0</ele><time>2026-04-27T12:25:07Z</time></trkpt><trkpt lat="46.21644152066762" lon="10.192154576889914"><ele>607.5</ele><time>2026-04-27T12:25:08Z</time></trkpt><trkpt lat="46.216541246377915" lon="10.192296397863462"><ele>604.0</ele><time>2026-04-27T12:25:09Z</time></trkpt><trkpt lat="46.21660761167843" lon="10.192479271308038"><ele>600.5</ele><time>2026-04-27T12:25:10Z</time></trkpt><trkpt lat="46.216681966349476" lon="10.19263684825431"><ele>597.0</ele><time>2026-04-27T12:25:11Z</time></trkpt><trkpt lat="46.21675123678388" lon="10.192753359063534"><ele>597.0</ele><time>2026-04-27T12:25:12Z</time></trkpt><trkpt lat="46.21678615079043" lon="10.19287036237323"><ele>597.0</ele><time>2026-04-27T12:25:13Z</time></trkpt><trkpt lat="46.21683206355381" lon="10.19296328266666"><ele>597.0</ele><time>2026-04-27T12:25:15Z</time></trkpt><trkpt lat="46.216884119613354" lon="10.19307852999098"><ele>597.0</ele><time>2026-04-27T12:25:17Z</time></trkpt><trkpt lat="46.21691903626184" lon="10.193161687181718"><ele>597.0</ele><time>2026-04-27T12:25:18Z</time></trkpt><trkpt lat="46.216958713804324" lon="10.193256755788536"><ele>597.0</ele><time>2026-04-27T12:25:18.999Z</time></trkpt><trkpt lat="46.217014353595395" lon="10.193352602070354"><ele>603.2</ele><time>2026-04-27T12:25:19.999Z</time></trkpt><trkpt lat="46.217049053242164" lon="10.193481525292697"><ele>609.4000000000001</ele><time>2026-04-27T12:25:20.999Z</time></trkpt><trkpt lat="46.21709093530093" lon="10.19363420307473"><ele>615.5999999999999</ele><time>2026-04-27T12:25:21.999Z</time></trkpt><trkpt lat="46.217143015809405" lon="10.193783498118057"><ele>621.8</ele><time>2026-04-27T12:25:22.999Z</time></trkpt><trkpt lat="46.21717841988717" lon="10.1939351090607"><ele>628.0</ele><time>2026-04-27T12:25:23.999Z</time></trkpt><trkpt lat="46.217214884879944" lon="10.194102046964629"><ele>624.8</ele><time>2026-04-27T12:25:24.999Z</time></trkpt><trkpt lat="46.21724067075567" lon="10.194264605801314"><ele>621.5999999999999</ele><time>2026-04-27T12:25:25.999Z</time></trkpt><trkpt lat="46.217280251275746" lon="10.194423929297027"><ele>618.4000000000001</ele><time>2026-04-27T12:25:26.999Z</time></trkpt><trkpt lat="46.21730702478304" lon="10.19454680834109"><ele>615.2</ele><time>2026-04-27T12:25:27.999Z</time></trkpt><trkpt lat="46.21735115755927" lon="10.194638777106277"><ele>612.0</ele><time>2026-04-27T12:25:28.999Z</time></trkpt><trkpt lat="46.21740225884799" lon="10.1947411221173"><ele>614.8333333333334</ele><time>2026-04-27T12:25:30.999Z</time></trkpt><trkpt lat="46.217441553634956" lon="10.19485945633656"><ele>617.6666666666666</ele><time>2026-04-27T12:25:32.999Z</time></trkpt><trkpt lat="46.21747528215147" lon="10.194946252990706"><ele>620.5</ele><time>2026-04-27T12:25:33.999Z</time></trkpt><trkpt lat="46.217507878343376" lon="10.19504073263912"><ele>623.3333333333333</ele><time>2026-04-27T12:25:34.999Z</time></trkpt><trkpt lat="46.21754619811039" lon="10.19513569584158"><ele>626.1666666666666</ele><time>2026-04-27T12:25:35.999Z</time></trkpt><trkpt lat="46.2175854929976" lon="10.195231875556939"><ele>629.0</ele><time>2026-04-27T12:25:36.999Z</time></trkpt><trkpt lat="46.21763610585791" lon="10.195311986618309"><ele>629.0</ele><time>2026-04-27T12:25:37.999Z</time></trkpt><trkpt lat="46.21769461404489" lon="10.195416796321485"><ele>629.0</ele><time>2026-04-27T12:25:39.999Z</time></trkpt><trkpt lat="46.21761649227139" lon="10.195512539740099"><ele>629.0</ele><time>2026-04-27T12:25:43.999Z</time></trkpt><trkpt lat="46.21754004624538" lon="10.195461629378594"><ele>629.0</ele><time>2026-04-27T12:25:45.999Z</time></trkpt><trkpt lat="46.21750843725816" lon="10.195368576596808"><ele>629.0</ele><time>2026-04-27T12:25:46.999Z</time></trkpt><trkpt lat="46.217451392098546" lon="10.195302772910086"><ele>629.0</ele><time>2026-04-27T12:25:47.999Z</time></trkpt><trkpt lat="46.21739181709863" lon="10.195237816998018"><ele>633.0</ele><time>2026-04-27T12:25:48.999Z</time></trkpt><trkpt lat="46.21730873845214" lon="10.195148875643152"><ele>637.0</ele><time>2026-04-27T12:25:49.999Z</time></trkpt><trkpt lat="46.217224875064275" lon="10.195068560357875"><ele>641.0</ele><time>2026-04-27T12:25:50.999Z</time></trkpt><trkpt lat="46.21712869371594" lon="10.1949769332123"><ele>645.0</ele><time>2026-04-27T12:25:51.999Z</time></trkpt><trkpt lat="46.217045225717975" lon="10.19486349230225"><ele>649.0</ele><time>2026-04-27T12:25:53Z</time></trkpt><trkpt lat="46.21698237497253" lon="10.19472854831084"><ele>649.0</ele><time>2026-04-27T12:25:54Z</time></trkpt><trkpt lat="46.21691214413718" lon="10.194614895272172"><ele>649.0</ele><time>2026-04-27T12:25:55Z</time></trkpt><trkpt lat="46.216846514844356" lon="10.194515024702426"><ele>649.0</ele><time>2026-04-27T12:25:56Z</time></trkpt><trkpt lat="46.2168063481315" lon="10.19442953879556"><ele>649.0</ele><time>2026-04-27T12:25:57Z</time></trkpt><trkpt lat="46.21678489956281" lon="10.194250463471608"><ele>649.0</ele><time>2026-04-27T12:25:59Z</time></trkpt><trkpt lat="46.21675592677867" lon="10.194114851786997"><ele>644.8000000000001</ele><time>2026-04-27T12:26:00Z</time></trkpt><trkpt lat="46.216718091819374" lon="10.193986846852589"><ele>640.6</ele><time>2026-04-27T12:26:01Z</time></trkpt><trkpt lat="46.2166665064665" lon="10.193871693895252"><ele>636.4</ele><time>2026-04-27T12:26:02Z</time></trkpt><trkpt lat="46.21658771577718" lon="10.193788891273005"><ele>632.2</ele><time>2026-04-27T12:26:03Z</time></trkpt><trkpt lat="46.21652850379968" lon="10.193673816640624"><ele>628.0</ele><time>2026-04-27T12:26:04Z</time></trkpt><trkpt lat="46.216438486476704" lon="10.193594434260707"><ele>630.75</ele><time>2026-04-27T12:26:05Z</time></trkpt><trkpt lat="46.21635482182992" lon="10.193473826153399"><ele>633.5</ele><time>2026-04-27T12:26:06Z</time></trkpt><trkpt lat="46.21625639908672" lon="10.193372315673338"><ele>636.25</ele><time>2026-04-27T12:26:07Z</time></trkpt><trkpt lat="46.21613982514272" lon="10.1932901540628"><ele>639.0</ele><time>2026-04-27T12:26:08Z</time></trkpt><trkpt lat="46.21602836157249" lon="10.193164172759067"><ele>639.0</ele><time>2026-04-27T12:26:09Z</time></trkpt><trkpt lat="46.215900320543895" lon="10.193059479952751"><ele>639.0</ele><time>2026-04-27T12:26:10Z</time></trkpt><trkpt lat="46.215781234920684" lon="10.192990694902017"><ele>639.0</ele><time>2026-04-27T12:26:11Z</time></trkpt><trkpt lat="46.21570313199976" lon="10.192927810070778"><ele>639.0</ele><time>2026-04-27T12:26:12Z</time></trkpt><trkpt lat="46.215658197693266" lon="10.192848909419826"><ele>639.0</ele><time>2026-04-27T12:26:13Z</time></trkpt><trkpt lat="46.21560661832333" lon="10.19274727145942"><ele>644.0</ele><time>2026-04-27T12:26:14Z</time></trkpt><trkpt lat="46.215533505585896" lon="10.192635744690572"><ele>649.0</ele><time>2026-04-27T12:26:15Z</time></trkpt><trkpt lat="46.21544905249788" lon="10.192544766300625"><ele>654.0</ele><time>2026-04-27T12:26:16Z</time></trkpt><trkpt lat="46.21537857089124" lon="10.192421094782995"><ele>659.0</ele><time>2026-04-27T12:26:17Z</time></trkpt><trkpt lat="46.2152837976382" lon="10.192323732396773"><ele>664.0</ele><time>2026-04-27T12:26:18Z</time></trkpt><trkpt lat="46.21521183838198" lon="10.19221126073186"><ele>664.0</ele><time>2026-04-27T12:26:19Z</time></trkpt><trkpt lat="46.21513815444292" lon="10.192099521432"><ele>664.0</ele><time>2026-04-27T12:26:20Z</time></trkpt><trkpt lat="46.215062020329135" lon="10.19196962463758"><ele>664.0</ele><time>2026-04-27T12:26:21Z</time></trkpt><trkpt lat="46.21500160536663" lon="10.191808678077688"><ele>664.0</ele><time>2026-04-27T12:26:22Z</time></trkpt><trkpt lat="46.2149060854637" lon="10.191663173167141"><ele>658.75</ele><time>2026-04-27T12:26:23Z</time></trkpt><trkpt lat="46.214832026101554" lon="10.191504062628207"><ele>653.5</ele><time>2026-04-27T12:26:24Z</time></trkpt><trkpt lat="46.21473791999735" lon="10.191356751111046"><ele>648.25</ele><time>2026-04-27T12:26:25Z</time></trkpt><trkpt lat="46.21464040775339" lon="10.191202331748766"><ele>643.0</ele><time>2026-04-27T12:26:26Z</time></trkpt><trkpt lat="46.21454936462911" lon="10.19104453372936"><ele>652.25</ele><time>2026-04-27T12:26:27Z</time></trkpt><trkpt lat="46.21446179725305" lon="10.190897529942617"><ele>661.5</ele><time>2026-04-27T12:26:28Z</time></trkpt><trkpt lat="46.214380355711754" lon="10.190784976785022"><ele>670.75</ele><time>2026-04-27T12:26:29Z</time></trkpt><trkpt lat="46.21432807600342" lon="10.190664058666966"><ele>680.0</ele><time>2026-04-27T12:26:30Z</time></trkpt><trkpt lat="46.2142874515257" lon="10.190515109741794"><ele>680.0</ele><time>2026-04-27T12:26:31Z</time></trkpt><trkpt lat="46.214235699244774" lon="10.190370777859922"><ele>680.0</ele><time>2026-04-27T12:26:32Z</time></trkpt><trkpt lat="46.21416373462122" lon="10.190257451974045"><ele>680.0</ele><time>2026-04-27T12:26:33Z</time></trkpt><trkpt lat="46.21408077137342" lon="10.190167920014416"><ele>680.0</ele><time>2026-04-27T12:26:34Z</time></trkpt><trkpt lat="46.21398154701415" lon="10.190098788124864"><ele>680.0</ele><time>2026-04-27T12:26:35Z</time></trkpt><trkpt lat="46.21387304504131" lon="10.190045669002634"><ele>684.8</ele><time>2026-04-27T12:26:36Z</time></trkpt><trkpt lat="46.213764611396186" lon="10.189985899692328"><ele>689.6</ele><time>2026-04-27T12:26:37Z</time></trkpt><trkpt lat="46.21365881783399" lon="10.189919799721293"><ele>694.4000000000001</ele><time>2026-04-27T12:26:38Z</time></trkpt><trkpt lat="46.213600939583785" lon="10.189809080561485"><ele>699.2</ele><time>2026-04-27T12:26:39Z</time></trkpt><trkpt lat="46.21352400381637" lon="10.189734157362356"><ele>704.0</ele><time>2026-04-27T12:26:40Z</time></trkpt><trkpt lat="46.213453686307645" lon="10.18964972933935"><ele>704.0</ele><time>2026-04-27T12:26:41Z</time></trkpt><trkpt lat="46.213415467506444" lon="10.189553045964093"><ele>704.0</ele><time>2026-04-27T12:26:42Z</time></trkpt><trkpt lat="46.21335813166206" lon="10.189442281349928"><ele>704.0</ele><time>2026-04-27T12:26:43Z</time></trkpt><trkpt lat="46.21329837897183" lon="10.189357983329135"><ele>704.0</ele><time>2026-04-27T12:26:44Z</time></trkpt><trkpt lat="46.213252976025174" lon="10.189258157492535"><ele>704.0</ele><time>2026-04-27T12:26:45Z</time></trkpt><trkpt lat="46.21325015204366" lon="10.18913317272098"><ele>704.0</ele><time>2026-04-27T12:26:46Z</time></trkpt><trkpt lat="46.2132270390586" lon="10.189003200495856"><ele>701.2</ele><time>2026-04-27T12:26:47Z</time></trkpt><trkpt lat="46.21319155857995" lon="10.188871366631977"><ele>698.4000000000001</ele><time>2026-04-27T12:26:48Z</time></trkpt><trkpt lat="46.213144908000714" lon="10.188764134022977"><ele>695.6</ele><time>2026-04-27T12:26:49Z</time></trkpt><trkpt lat="46.21309205317224" lon="10.188639605303793"><ele>692.8</ele><time>2026-04-27T12:26:50Z</time></trkpt><trkpt lat="46.21302643868006" lon="10.18852847741673"><ele>690.0</ele><time>2026-04-27T12:26:51Z</time></trkpt><trkpt lat="46.21295711126894" lon="10.188390974330156"><ele>695.8</ele><time>2026-04-27T12:26:52Z</time></trkpt><trkpt lat="46.21289629261605" lon="10.188264616985197"><ele>701.6</ele><time>2026-04-27T12:26:53Z</time></trkpt><trkpt lat="46.212817677922274" lon="10.188163188815171"><ele>707.4000000000001</ele><time>2026-04-27T12:26:54Z</time></trkpt><trkpt lat="46.21274530201759" lon="10.188074907378239"><ele>713.2</ele><time>2026-04-27T12:26:55Z</time></trkpt><trkpt lat="46.21266300083173" lon="10.188008691487473"><ele>719.0</ele><time>2026-04-27T12:26:56Z</time></trkpt><trkpt lat="46.212567290844696" lon="10.187941490057058"><ele>719.0</ele><time>2026-04-27T12:26:57Z</time></trkpt><trkpt lat="46.212463258825295" lon="10.187866207300225"><ele>719.0</ele><time>2026-04-27T12:26:58Z</time></trkpt><trkpt lat="46.21236407032232" lon="10.187788882302069"><ele>719.0</ele><time>2026-04-27T12:26:59Z</time></trkpt><trkpt lat="46.212264280876205" lon="10.187725688878446"><ele>719.0</ele><time>2026-04-27T12:27:00Z</time></trkpt><trkpt lat="46.21216003662219" lon="10.187678616237308"><ele>719.0</ele><time>2026-04-27T12:27:01Z</time></trkpt><trkpt lat="46.212041865045244" lon="10.187644437433741"><ele>724.25</ele><time>2026-04-27T12:27:02Z</time></trkpt><trkpt lat="46.211908131617925" lon="10.187601532967452"><ele>729.5</ele><time>2026-04-27T12:27:03Z</time></trkpt><trkpt lat="46.21177985428173" lon="10.187549963914456"><ele>734.75</ele><time>2026-04-27T12:27:04Z</time></trkpt><trkpt lat="46.21165934202486" lon="10.187488152774797"><ele>740.0</ele><time>2026-04-27T12:27:05Z</time></trkpt><trkpt lat="46.21155009963488" lon="10.18743616333407"><ele>742.0</ele><time>2026-04-27T12:27:06Z</time></trkpt><trkpt lat="46.211472713740484" lon="10.187415596157186"><ele>744.0</ele><time>2026-04-27T12:27:07Z</time></trkpt><trkpt lat="46.21139887473088" lon="10.187437410856099"><ele>746.0</ele><time>2026-04-27T12:27:08Z</time></trkpt><trkpt lat="46.21133699376112" lon="10.187512715940844"><ele>748.0</ele><time>2026-04-27T12:27:09Z</time></trkpt><trkpt lat="46.211236109570706" lon="10.187567152873509"><ele>750.0</ele><time>2026-04-27T12:27:10Z</time></trkpt><trkpt lat="46.2111373042576" lon="10.187639232015012"><ele>750.0</ele><time>2026-04-27T12:27:11Z</time></trkpt><trkpt lat="46.211042661309186" lon="10.187687424340018"><ele>750.0</ele><time>2026-04-27T12:27:12Z</time></trkpt><trkpt lat="46.21096669257321" lon="10.187702888696293"><ele>750.0</ele><time>2026-04-27T12:27:13.001Z</time></trkpt><trkpt lat="46.210900948922266" lon="10.187681218168219"><ele>750.0</ele><time>2026-04-27T12:27:14.001Z</time></trkpt><trkpt lat="46.210811322209295" lon="10.187647776402082"><ele>750.0</ele><time>2026-04-27T12:27:15.001Z</time></trkpt><trkpt lat="46.21076631511642" lon="10.187535817733577"><ele>750.0</ele><time>2026-04-27T12:27:16.001Z</time></trkpt><trkpt lat="46.21067948832501" lon="10.187465398181388"><ele>752.8</ele><time>2026-04-27T12:27:17.001Z</time></trkpt><trkpt lat="46.21057845117401" lon="10.187422987811972"><ele>755.6</ele><time>2026-04-27T12:27:18.001Z</time></trkpt><trkpt lat="46.21048527467796" lon="10.187355269895768"><ele>758.4000000000001</ele><time>2026-04-27T12:27:19.001Z</time></trkpt><trkpt lat="46.210388789894175" lon="10.18734353230311"><ele>761.2</ele><time>2026-04-27T12:27:20.001Z</time></trkpt><trkpt lat="46.21032622933956" lon="10.187325337643287"><ele>764.0</ele><time>2026-04-27T12:27:21.001Z</time></trkpt><trkpt lat="46.21029937243191" lon="10.18743432162662"><ele>769.25</ele><time>2026-04-27T12:27:24.001Z</time></trkpt><trkpt lat="46.21038011542629" lon="10.187587811032579"><ele>774.5</ele><time>2026-04-27T12:27:25.999Z</time></trkpt><trkpt lat="46.21043958508259" lon="10.187697404886968"><ele>779.75</ele><time>2026-04-27T12:27:26.999Z</time></trkpt><trkpt lat="46.21051057412055" lon="10.187806312604875"><ele>785.0</ele><time>2026-04-27T12:27:27.999Z</time></trkpt><trkpt lat="46.21054847800933" lon="10.187967736787277"><ele>785.0</ele><time>2026-04-27T12:27:28.999Z</time></trkpt><trkpt lat="46.21062167684623" lon="10.188115811080449"><ele>785.0</ele><time>2026-04-27T12:27:29.999Z</time></trkpt><trkpt lat="46.21069746771691" lon="10.188265965115932"><ele>785.0</ele><time>2026-04-27T12:27:30.999Z</time></trkpt><trkpt lat="46.21077756317542" lon="10.188410508835162"><ele>785.0</ele><time>2026-04-27T12:27:31.999Z</time></trkpt><trkpt lat="46.21084192020965" lon="10.188564658468339"><ele>782.6</ele><time>2026-04-27T12:27:32.999Z</time></trkpt><trkpt lat="46.21089850973672" lon="10.18869697112397"><ele>780.2</ele><time>2026-04-27T12:27:33.999Z</time></trkpt><trkpt lat="46.210959133437484" lon="10.188808085802668"><ele>777.8</ele><time>2026-04-27T12:27:34.999Z</time></trkpt><trkpt lat="46.21102610801214" lon="10.188922067630122"><ele>775.4</ele><time>2026-04-27T12:27:35.999Z</time></trkpt><trkpt lat="46.21113480840061" lon="10.189012935427092"><ele>773.0</ele><time>2026-04-27T12:27:36.999Z</time></trkpt><trkpt lat="46.211232722299464" lon="10.189107346336813"><ele>777.5000000000001</ele><time>2026-04-27T12:27:37.999Z</time></trkpt><trkpt lat="46.21132107573131" lon="10.189149980757831"><ele>782.0</ele><time>2026-04-27T12:27:38.999Z</time></trkpt><trkpt lat="46.21138131464804" lon="10.1892176393591"><ele>786.5</ele><time>2026-04-27T12:27:39.999Z</time></trkpt><trkpt lat="46.21143247516251" lon="10.189296717355225"><ele>791.0</ele><time>2026-04-27T12:27:40.999Z</time></trkpt><trkpt lat="46.211472082954444" lon="10.189385461773483"><ele>795.5000000000001</ele><time>2026-04-27T12:27:41.999Z</time></trkpt><trkpt lat="46.211486833164074" lon="10.18947585436158"><ele>800.0</ele><time>2026-04-27T12:27:42.999Z</time></trkpt><trkpt lat="46.211489666252426" lon="10.189645736867353"><ele>800.0000000000001</ele><time>2026-04-27T12:27:44.999Z</time></trkpt><trkpt lat="46.21144350690015" lon="10.189797782561278"><ele>800.0</ele><time>2026-04-27T12:27:46.999Z</time></trkpt><trkpt lat="46.211398990456296" lon="10.189873195964104"><ele>800.0</ele><time>2026-04-27T12:27:47.999Z</time></trkpt><trkpt lat="46.21135366310857" lon="10.189963679186718"><ele>800.0</ele><time>2026-04-27T12:27:48.999Z</time></trkpt><trkpt lat="46.211326891389874" lon="10.190065953937989"><ele>800.0000000000001</ele><time>2026-04-27T12:27:49.999Z</time></trkpt><trkpt lat="46.21131142214176" lon="10.19017641536792"><ele>800.0</ele><time>2026-04-27T12:27:50.999Z</time></trkpt><trkpt lat="46.211323096728094" lon="10.190290032758435"><ele>799.8</ele><time>2026-04-27T12:27:52Z</time></trkpt><trkpt lat="46.211373569331876" lon="10.190389888159768"><ele>799.6</ele><time>2026-04-27T12:27:53Z</time></trkpt><trkpt lat="46.21144438468563" lon="10.19049824771473"><ele>799.4000000000001</ele><time>2026-04-27T12:27:54Z</time></trkpt><trkpt lat="46.211499481237915" lon="10.190628040695762"><ele>799.2</ele><time>2026-04-27T12:27:55Z</time></trkpt><trkpt lat="46.21158651463153" lon="10.19075162738851"><ele>799.0</ele><time>2026-04-27T12:27:56Z</time></trkpt><trkpt lat="46.21165362589623" lon="10.190898002937857"><ele>799.0</ele><time>2026-04-27T12:27:57Z</time></trkpt><trkpt lat="46.21173737292051" lon="10.191044783752844"><ele>799.0</ele><time>2026-04-27T12:27:58Z</time></trkpt><trkpt lat="46.21179979467221" lon="10.191196485230241"><ele>799.0</ele><time>2026-04-27T12:27:59Z</time></trkpt><trkpt lat="46.21187670783996" lon="10.191286067668068"><ele>799.0</ele><time>2026-04-27T12:28:00Z</time></trkpt><trkpt lat="46.21193471859695" lon="10.191383831573473"><ele>799.0</ele><time>2026-04-27T12:28:01Z</time></trkpt><trkpt lat="46.211993141620944" lon="10.191429433216847"><ele>804.4000000000001</ele><time>2026-04-27T12:28:02Z</time></trkpt><trkpt lat="46.21206925763786" lon="10.191565548819902"><ele>809.8</ele><time>2026-04-27T12:28:04Z</time></trkpt><trkpt lat="46.212097756946484" lon="10.191689368410554"><ele>815.2</ele><time>2026-04-27T12:28:05Z</time></trkpt><trkpt lat="46.21214698717174" lon="10.191828981713988"><ele>820.5999999999999</ele><time>2026-04-27T12:28:06Z</time></trkpt><trkpt lat="46.21220888340642" lon="10.191958602826576"><ele>826.0</ele><time>2026-04-27T12:28:07Z</time></trkpt><trkpt lat="46.21228233323267" lon="10.192104486131493"><ele>826.4</ele><time>2026-04-27T12:28:08Z</time></trkpt><trkpt lat="46.21234949659048" lon="10.192242239236023"><ele>826.8</ele><time>2026-04-27T12:28:09Z</time></trkpt><trkpt lat="46.212424231589594" lon="10.19237287910924"><ele>827.1999999999999</ele><time>2026-04-27T12:28:10Z</time></trkpt><trkpt lat="46.212487607419014" lon="10.19249092344052"><ele>827.5999999999999</ele><time>2026-04-27T12:28:11Z</time></trkpt><trkpt lat="46.21251397055227" lon="10.19259843234715"><ele>828.0</ele><time>2026-04-27T12:28:12Z</time></trkpt><trkpt lat="46.21254386130939" lon="10.192733280010119"><ele>828.0</ele><time>2026-04-27T12:28:13Z</time></trkpt><trkpt lat="46.21259307359535" lon="10.192921042901023"><ele>828.0</ele><time>2026-04-27T12:28:14Z</time></trkpt><trkpt lat="46.21262703250732" lon="10.193014964241113"><ele>828.0</ele><time>2026-04-27T12:28:15Z</time></trkpt><trkpt lat="46.21268814346588" lon="10.19310459249359"><ele>828.0</ele><time>2026-04-27T12:28:16Z</time></trkpt><trkpt lat="46.2127613467949" lon="10.193182293959167"><ele>828.0</ele><time>2026-04-27T12:28:17Z</time></trkpt><trkpt lat="46.21283894550785" lon="10.193276534661145"><ele>832.1666666666666</ele><time>2026-04-27T12:28:18Z</time></trkpt><trkpt lat="46.21288121444923" lon="10.193389071468445"><ele>836.3333333333333</ele><time>2026-04-27T12:28:19Z</time></trkpt><trkpt lat="46.21291659109516" lon="10.193468298804444"><ele>840.5</ele><time>2026-04-27T12:28:20Z</time></trkpt><trkpt lat="46.212924598332464" lon="10.193577317962346"><ele>844.6666666666666</ele><time>2026-04-27T12:28:21Z</time></trkpt><trkpt lat="46.212938685744426" lon="10.193707896697193"><ele>848.8333333333333</ele><time>2026-04-27T12:28:22Z</time></trkpt><trkpt lat="46.21295058421689" lon="10.193840950313371"><ele>853.0</ele><time>2026-04-27T12:28:23Z</time></trkpt><trkpt lat="46.21297278534093" lon="10.19398988076282"><ele>850.2</ele><time>2026-04-27T12:28:24Z</time></trkpt><trkpt lat="46.21303028287434" lon="10.194106373044315"><ele>847.4</ele><time>2026-04-27T12:28:25Z</time></trkpt><trkpt lat="46.21311321371916" lon="10.194193231529638"><ele>844.6</ele><time>2026-04-27T12:28:26Z</time></trkpt><trkpt lat="46.213149939543335" lon="10.194287922297669"><ele>841.8000000000001</ele><time>2026-04-27T12:28:27Z</time></trkpt><trkpt lat="46.21315020277477" lon="10.194421093264861"><ele>839.0</ele><time>2026-04-27T12:28:28Z</time></trkpt><trkpt lat="46.213175837545606" lon="10.194551006698523"><ele>839.0</ele><time>2026-04-27T12:28:29Z</time></trkpt><trkpt lat="46.21322995802458" lon="10.194669622867234"><ele>839.0</ele><time>2026-04-27T12:28:30Z</time></trkpt><trkpt lat="46.21328199492103" lon="10.194777931712458"><ele>839.0</ele><time>2026-04-27T12:28:31Z</time></trkpt><trkpt lat="46.21334642775362" lon="10.194891363687248"><ele>839.0</ele><time>2026-04-27T12:28:32Z</time></trkpt><trkpt lat="46.213405741132355" lon="10.194992013485805"><ele>839.0</ele><time>2026-04-27T12:28:33Z</time></trkpt><trkpt lat="46.21344244581112" lon="10.195091342485412"><ele>843.0000000000001</ele><time>2026-04-27T12:28:34Z</time></trkpt><trkpt lat="46.21345400837707" lon="10.195187574845958"><ele>847.0</ele><time>2026-04-27T12:28:35Z</time></trkpt><trkpt lat="46.213435292542044" lon="10.195303134953319"><ele>851.0</ele><time>2026-04-27T12:28:36Z</time></trkpt><trkpt lat="46.213427556354084" lon="10.195410358475927"><ele>855.0</ele><time>2026-04-27T12:28:37Z</time></trkpt><trkpt lat="46.213443829705454" lon="10.195499366550727"><ele>859.0000000000001</ele><time>2026-04-27T12:28:38Z</time></trkpt><trkpt lat="46.21349311117062" lon="10.195570528930219"><ele>863.0</ele><time>2026-04-27T12:28:39Z</time></trkpt><trkpt lat="46.2135893741499" lon="10.195664596168792"><ele>866.6666666666667</ele><time>2026-04-27T12:28:40Z</time></trkpt><trkpt lat="46.213638681482735" lon="10.195783331845574"><ele>870.3333333333334</ele><time>2026-04-27T12:28:41Z</time></trkpt><trkpt lat="46.21367943061921" lon="10.195871562687781"><ele>874.0</ele><time>2026-04-27T12:28:42Z</time></trkpt><trkpt lat="46.21371024237305" lon="10.19597343062668"><ele>877.6666666666667</ele><time>2026-04-27T12:28:43Z</time></trkpt><trkpt lat="46.213753673316305" lon="10.196066273128135"><ele>881.3333333333334</ele><time>2026-04-27T12:28:44Z</time></trkpt><trkpt lat="46.213776466046475" lon="10.196176282899993"><ele>885.0</ele><time>2026-04-27T12:28:45Z</time></trkpt><trkpt lat="46.21374817995093" lon="10.196301143532231"><ele>885.0</ele><time>2026-04-27T12:28:46Z</time></trkpt><trkpt lat="46.213732472748774" lon="10.196444976645747"><ele>885.0</ele><time>2026-04-27T12:28:47Z</time></trkpt><trkpt lat="46.21371591322532" lon="10.196611274587259"><ele>885.0</ele><time>2026-04-27T12:28:48Z</time></trkpt><trkpt lat="46.21376215312687" lon="10.19676816452694"><ele>885.0</ele><time>2026-04-27T12:28:49Z</time></trkpt><trkpt lat="46.21381792406947" lon="10.196949361346388"><ele>890.0</ele><time>2026-04-27T12:28:50Z</time></trkpt><trkpt lat="46.21385785715202" lon="10.197134372283609"><ele>895.0</ele><time>2026-04-27T12:28:51Z</time></trkpt><trkpt lat="46.213903694516205" lon="10.197333483952217"><ele>900.0</ele><time>2026-04-27T12:28:52.001Z</time></trkpt><trkpt lat="46.21393122630973" lon="10.197536656285562"><ele>905.0</ele><time>2026-04-27T12:28:53.001Z</time></trkpt><trkpt lat="46.2139536599221" lon="10.197745921278578"><ele>900.3333333333334</ele><time>2026-04-27T12:28:54.001Z</time></trkpt><trkpt lat="46.21398297443776" lon="10.197962982385548"><ele>895.6666666666667</ele><time>2026-04-27T12:28:55.001Z</time></trkpt><trkpt lat="46.214000046241" lon="10.198177823519687"><ele>891.0</ele><time>2026-04-27T12:28:56.001Z</time></trkpt><trkpt lat="46.21401903127467" lon="10.198393961752357"><ele>891.0</ele><time>2026-04-27T12:28:57.001Z</time></trkpt><trkpt lat="46.21404698208338" lon="10.19860512696458"><ele>891.0</ele><time>2026-04-27T12:28:58.001Z</time></trkpt><trkpt lat="46.21407344002832" lon="10.198850239841649"><ele>891.0</ele><time>2026-04-27T12:28:59.001Z</time></trkpt><trkpt lat="46.214097239147925" lon="10.199074891677617"><ele>894.0</ele><time>2026-04-27T12:29:00.001Z</time></trkpt><trkpt lat="46.214121688008284" lon="10.199277774640164"><ele>897.0</ele><time>2026-04-27T12:29:01.001Z</time></trkpt><trkpt lat="46.21413254037547" lon="10.199479005183715"><ele>900.0</ele><time>2026-04-27T12:29:02.001Z</time></trkpt><trkpt lat="46.21415289754742" lon="10.199685575927878"><ele>903.0</ele><time>2026-04-27T12:29:03.001Z</time></trkpt><trkpt lat="46.21419583885871" lon="10.19989802544811"><ele>907.0</ele><time>2026-04-27T12:29:04.001Z</time></trkpt><trkpt lat="46.214247311068426" lon="10.200084144409963"><ele>911.0</ele><time>2026-04-27T12:29:05.001Z</time></trkpt><trkpt lat="46.21430695221106" lon="10.200263861643856"><ele>915.0</ele><time>2026-04-27T12:29:06.001Z</time></trkpt><trkpt lat="46.21437185903188" lon="10.200436576689116"><ele>919.0</ele><time>2026-04-27T12:29:07.001Z</time></trkpt><trkpt lat="46.21443813343657" lon="10.200615777166021"><ele>924.25</ele><time>2026-04-27T12:29:08.001Z</time></trkpt><trkpt lat="46.21448668704388" lon="10.200790139518794"><ele>929.5</ele><time>2026-04-27T12:29:09.001Z</time></trkpt><trkpt lat="46.21453789736236" lon="10.20097297928041"><ele>934.75</ele><time>2026-04-27T12:29:10.001Z</time></trkpt><trkpt lat="46.21458814556736" lon="10.20115240291161"><ele>940.0</ele><time>2026-04-27T12:29:11.001Z</time></trkpt><trkpt lat="46.21464176434722" lon="10.201326276488087"><ele>940.0</ele><time>2026-04-27T12:29:12.001Z</time></trkpt><trkpt lat="46.21467001106393" lon="10.201485622167546"><ele>940.0</ele><time>2026-04-27T12:29:13.001Z</time></trkpt><trkpt lat="46.21470456302598" lon="10.201631117638604"><ele>940.0</ele><time>2026-04-27T12:29:14.001Z</time></trkpt><trkpt lat="46.214739457812435" lon="10.201789709958488"><ele>940.0</ele><time>2026-04-27T12:29:15.001Z</time></trkpt><trkpt lat="46.21475310796808" lon="10.201951753327869"><ele>940.0</ele><time>2026-04-27T12:29:16.001Z</time></trkpt><trkpt lat="46.214747864164735" lon="10.202131556154571"><ele>943.8</ele><time>2026-04-27T12:29:17.001Z</time></trkpt><trkpt lat="46.21475260484095" lon="10.202317853666187"><ele>947.6</ele><time>2026-04-27T12:29:18.001Z</time></trkpt><trkpt lat="46.214763178895446" lon="10.20248642026719"><ele>951.4000000000001</ele><time>2026-04-27T12:29:19.001Z</time></trkpt><trkpt lat="46.21478163719205" lon="10.202614802849942"><ele>955.2</ele><time>2026-04-27T12:29:20.001Z</time></trkpt><trkpt lat="46.214808438895304" lon="10.202700261286855"><ele>959.0</ele><time>2026-04-27T12:29:21.001Z</time></trkpt><trkpt lat="46.21481400780308" lon="10.202803354523143"><ele>959.0</ele><time>2026-04-27T12:29:23.001Z</time></trkpt><trkpt lat="46.214790218091686" lon="10.202651813699436"><ele>959.0</ele><time>2026-04-27T12:29:28.001Z</time></trkpt><trkpt lat="46.21476638943421" lon="10.202485656538817"><ele>959.0</ele><time>2026-04-27T12:29:29.001Z</time></trkpt><trkpt lat="46.21471298066783" lon="10.202331407213316"><ele>959.0</ele><time>2026-04-27T12:29:30.001Z</time></trkpt><trkpt lat="46.214705255362865" lon="10.202132273771944"><ele>959.0</ele><time>2026-04-27T12:29:31Z</time></trkpt><trkpt lat="46.21472609001488" lon="10.201957062814728"><ele>959.0</ele><time>2026-04-27T12:29:32Z</time></trkpt><trkpt lat="46.21452517786635" lon="10.201793332792896"><ele>959.0</ele><time>2026-04-27T12:29:33Z</time></trkpt><trkpt lat="46.21446187745118" lon="10.201606848747899"><ele>952.6666666666667</ele><time>2026-04-27T12:29:34Z</time></trkpt><trkpt lat="46.214369258829414" lon="10.201445653145411"><ele>946.3333333333333</ele><time>2026-04-27T12:29:35Z</time></trkpt><trkpt lat="46.21425078451621" lon="10.201286619745465"><ele>940.0</ele><time>2026-04-27T12:29:36Z</time></trkpt><trkpt lat="46.21413614984454" lon="10.20111338115185"><ele>940.0</ele><time>2026-04-27T12:29:37Z</time></trkpt><trkpt lat="46.21401704861427" lon="10.200963227324976"><ele>940.0</ele><time>2026-04-27T12:29:38Z</time></trkpt><trkpt lat="46.21392733083554" lon="10.20084774444383"><ele>940.0</ele><time>2026-04-27T12:29:39Z</time></trkpt><trkpt lat="46.213855159072985" lon="10.200738210684264"><ele>940.0</ele><time>2026-04-27T12:29:40Z</time></trkpt><trkpt lat="46.21375754174718" lon="10.200667713286835"><ele>946.2</ele><time>2026-04-27T12:29:41Z</time></trkpt><trkpt lat="46.2136938221476" lon="10.200571974467643"><ele>952.4</ele><time>2026-04-27T12:29:42Z</time></trkpt><trkpt lat="46.213651013634795" lon="10.200426714859026"><ele>958.5999999999999</ele><time>2026-04-27T12:29:43Z</time></trkpt><trkpt lat="46.21361015011351" lon="10.200271172731892"><ele>964.8</ele><time>2026-04-27T12:29:44Z</time></trkpt><trkpt lat="46.21356038115739" lon="10.200095751120074"><ele>971.0</ele><time>2026-04-27T12:29:45Z</time></trkpt><trkpt lat="46.213518629955765" lon="10.19990872213525"><ele>968.75</ele><time>2026-04-27T12:29:46Z</time></trkpt><trkpt lat="46.213461025189474" lon="10.19972132334222"><ele>966.5</ele><time>2026-04-27T12:29:47Z</time></trkpt><trkpt lat="46.21337480389099" lon="10.199545200757528"><ele>964.25</ele><time>2026-04-27T12:29:48Z</time></trkpt><trkpt lat="46.213306223851205" lon="10.199359156404062"><ele>962.0</ele><time>2026-04-27T12:29:49Z</time></trkpt><trkpt lat="46.21323986592654" lon="10.199174015109511"><ele>957.75</ele><time>2026-04-27T12:29:50Z</time></trkpt><trkpt lat="46.213161169931226" lon="10.198998747830636"><ele>953.5</ele><time>2026-04-27T12:29:51Z</time></trkpt><trkpt lat="46.21308261874482" lon="10.198829850458015"><ele>949.25</ele><time>2026-04-27T12:29:52Z</time></trkpt><trkpt lat="46.212995366203735" lon="10.198663110019888"><ele>945.0</ele><time>2026-04-27T12:29:53Z</time></trkpt><trkpt lat="46.21293710751777" lon="10.198540278061301"><ele>953.8</ele><time>2026-04-27T12:29:54Z</time></trkpt><trkpt lat="46.212912634969996" lon="10.198437410812417"><ele>962.6</ele><time>2026-04-27T12:29:55Z</time></trkpt><trkpt lat="46.212856043145685" lon="10.198333620269256"><ele>971.4000000000001</ele><time>2026-04-27T12:29:57Z</time></trkpt><trkpt lat="46.21275690140152" lon="10.1984315187913"><ele>980.2</ele><time>2026-04-27T12:30:00Z</time></trkpt><trkpt lat="46.21275385915846" lon="10.198551456505193"><ele>989.0</ele><time>2026-04-27T12:30:01Z</time></trkpt><trkpt lat="46.21282920020501" lon="10.198673445512235"><ele>989.0</ele><time>2026-04-27T12:30:02Z</time></trkpt><trkpt lat="46.21286322613536" lon="10.198809575885107"><ele>989.0</ele><time>2026-04-27T12:30:03Z</time></trkpt><trkpt lat="46.212886320724635" lon="10.198961808240377"><ele>989.0</ele><time>2026-04-27T12:30:04Z</time></trkpt><trkpt lat="46.21290419399571" lon="10.199139792177006"><ele>989.0</ele><time>2026-04-27T12:30:05Z</time></trkpt><trkpt lat="46.212919320182635" lon="10.199342688823332"><ele>993.0</ele><time>2026-04-27T12:30:06Z</time></trkpt><trkpt lat="46.21292886712156" lon="10.199550241613652"><ele>997.0</ele><time>2026-04-27T12:30:07Z</time></trkpt><trkpt lat="46.21292216208127" lon="10.199746693906699"><ele>1001.0</ele><time>2026-04-27T12:30:08Z</time></trkpt><trkpt lat="46.212913459189366" lon="10.199943252934801"><ele>1005.0</ele><time>2026-04-27T12:30:09Z</time></trkpt><trkpt lat="46.21293783714894" lon="10.200106457149168"><ele>1009.5</ele><time>2026-04-27T12:30:10Z</time></trkpt><trkpt lat="46.212965490523224" lon="10.200273033006905"><ele>1014.0</ele><time>2026-04-27T12:30:11Z</time></trkpt><trkpt lat="46.2129893821573" lon="10.200436463915072"><ele>1018.5</ele><time>2026-04-27T12:30:12Z</time></trkpt><trkpt lat="46.21302480386423" lon="10.200606922632952"><ele>1023.0</ele><time>2026-04-27T12:30:13Z</time></trkpt><trkpt lat="46.213064473326796" lon="10.200786233320448"><ele>1023.0</ele><time>2026-04-27T12:30:14Z</time></trkpt><trkpt lat="46.213110264364886" lon="10.20091239415155"><ele>1023.0</ele><time>2026-04-27T12:30:15Z</time></trkpt><trkpt lat="46.21311345609297" lon="10.201010301669065"><ele>1023.0</ele><time>2026-04-27T12:30:16Z</time></trkpt><trkpt lat="46.21304154667181" lon="10.200940072741009"><ele>1023.0</ele><time>2026-04-27T12:30:22Z</time></trkpt><trkpt lat="46.21302244383977" lon="10.200803710682889"><ele>1023.0</ele><time>2026-04-27T12:30:24.001Z</time></trkpt><trkpt lat="46.21300094829047" lon="10.200706743123787"><ele>1023.0</ele><time>2026-04-27T12:30:25.001Z</time></trkpt><trkpt lat="46.212924845300925" lon="10.20054451703728"><ele>1023.0</ele><time>2026-04-27T12:30:27.001Z</time></trkpt><trkpt lat="46.2128636850864" lon="10.200449660373142"><ele>1023.0</ele><time>2026-04-27T12:30:28.001Z</time></trkpt><trkpt lat="46.21280432888954" lon="10.200309312187455"><ele>1023.0</ele><time>2026-04-27T12:30:29.001Z</time></trkpt><trkpt lat="46.212733763880806" lon="10.200151152960595"><ele>1023.0</ele><time>2026-04-27T12:30:30.001Z</time></trkpt><trkpt lat="46.212665322981074" lon="10.200005912433298"><ele>1023.0</ele><time>2026-04-27T12:30:31.001Z</time></trkpt><trkpt lat="46.21259361908185" lon="10.1998480411282"><ele>1023.0</ele><time>2026-04-27T12:30:32.001Z</time></trkpt><trkpt lat="46.2125200872358" lon="10.199685659090676"><ele>1023.0</ele><time>2026-04-27T12:30:33.001Z</time></trkpt><trkpt lat="46.212446954119166" lon="10.199521447462875"><ele>1023.0</ele><time>2026-04-27T12:30:34.001Z</time></trkpt><trkpt lat="46.21236887926484" lon="10.199351898742462"><ele>1023.5</ele><time>2026-04-27T12:30:35.001Z</time></trkpt><trkpt lat="46.212281321590616" lon="10.199193155814703"><ele>1024.0</ele><time>2026-04-27T12:30:36.001Z</time></trkpt><trkpt lat="46.21220462880986" lon="10.199046519080921"><ele>1024.5</ele><time>2026-04-27T12:30:37.001Z</time></trkpt><trkpt lat="46.21211986911762" lon="10.198907695380957"><ele>1025.0</ele><time>2026-04-27T12:30:38.001Z</time></trkpt><trkpt lat="46.21204060164466" lon="10.198801470268206"><ele>1025.0</ele><time>2026-04-27T12:30:39.001Z</time></trkpt><trkpt lat="46.21195942789557" lon="10.198711355054478"><ele>1025.0</ele><time>2026-04-27T12:30:40.001Z</time></trkpt><trkpt lat="46.21185986912972" lon="10.198641797461367"><ele>1025.0</ele><time>2026-04-27T12:30:41.001Z</time></trkpt><trkpt lat="46.21174772910297" lon="10.198568637523408"><ele>1025.0</ele><time>2026-04-27T12:30:42.001Z</time></trkpt><trkpt lat="46.211635848664685" lon="10.198453725351794"><ele>1025.0</ele><time>2026-04-27T12:30:43.001Z</time></trkpt><trkpt lat="46.21152469428679" lon="10.19831179835066"><ele>1025.0</ele><time>2026-04-27T12:30:44.001Z</time></trkpt><trkpt lat="46.21139975994921" lon="10.198171567897852"><ele>1025.0</ele><time>2026-04-27T12:30:45.001Z</time></trkpt><trkpt lat="46.211290190261494" lon="10.198026414701644"><ele>1028.8</ele><time>2026-04-27T12:30:46.001Z</time></trkpt><trkpt lat="46.211180141959964" lon="10.197911661590904"><ele>1032.6</ele><time>2026-04-27T12:30:47.001Z</time></trkpt><trkpt lat="46.21109594133462" lon="10.197817334210345"><ele>1036.4</ele><time>2026-04-27T12:30:48.001Z</time></trkpt><trkpt lat="46.21100620340524" lon="10.197774710760696"><ele>1040.2</ele><time>2026-04-27T12:30:49.001Z</time></trkpt><trkpt lat="46.21095578084191" lon="10.197709181852382"><ele>1044.0</ele><time>2026-04-27T12:30:50.001Z</time></trkpt><trkpt lat="46.2109043222066" lon="10.197591493273336"><ele>1044.0</ele><time>2026-04-27T12:30:51.001Z</time></trkpt><trkpt lat="46.2108817841542" lon="10.197473118828523"><ele>1044.0</ele><time>2026-04-27T12:30:52.001Z</time></trkpt><trkpt lat="46.210816670701625" lon="10.19733493004225"><ele>1044.0</ele><time>2026-04-27T12:30:53.001Z</time></trkpt><trkpt lat="46.2107597684104" lon="10.197207786527747"><ele>1044.0</ele><time>2026-04-27T12:30:54.001Z</time></trkpt><trkpt lat="46.210681581014796" lon="10.197045017912721"><ele>1044.0</ele><time>2026-04-27T12:30:55.001Z</time></trkpt><trkpt lat="46.21058923047928" lon="10.1968518134569"><ele>1047.25</ele><time>2026-04-27T12:30:56.001Z</time></trkpt><trkpt lat="46.210532529692145" lon="10.196666989684058"><ele>1050.5</ele><time>2026-04-27T12:30:57.001Z</time></trkpt><trkpt lat="46.210481295242346" lon="10.196493644339462"><ele>1053.75</ele><time>2026-04-27T12:30:58.001Z</time></trkpt><trkpt lat="46.210423314240025" lon="10.196361183622004"><ele>1057.0</ele><time>2026-04-27T12:30:59.001Z</time></trkpt><trkpt lat="46.210375068786675" lon="10.196242999185646"><ele>1057.0</ele><time>2026-04-27T12:31:00.001Z</time></trkpt><trkpt lat="46.21032747205015" lon="10.196138295685635"><ele>1057.0</ele><time>2026-04-27T12:31:01.001Z</time></trkpt><trkpt lat="46.21024596107464" lon="10.19604848010821"><ele>1057.0</ele><time>2026-04-27T12:31:02.001Z</time></trkpt><trkpt lat="46.21014873576797" lon="10.195952251519833"><ele>1057.0</ele><time>2026-04-27T12:31:03.001Z</time></trkpt><trkpt lat="46.21005383928153" lon="10.195820833443408"><ele>1057.0</ele><time>2026-04-27T12:31:04.001Z</time></trkpt><trkpt lat="46.20996829580375" lon="10.195709933750216"><ele>1059.2</ele><time>2026-04-27T12:31:05.001Z</time></trkpt><trkpt lat="46.209885939376036" lon="10.195584323300885"><ele>1061.4</ele><time>2026-04-27T12:31:06.001Z</time></trkpt><trkpt lat="46.20985096772655" lon="10.195433480134831"><ele>1063.6</ele><time>2026-04-27T12:31:07.001Z</time></trkpt><trkpt lat="46.20980340162608" lon="10.195286783396929"><ele>1065.8</ele><time>2026-04-27T12:31:08.001Z</time></trkpt><trkpt lat="46.2097685177743" lon="10.195148512177964"><ele>1068.0</ele><time>2026-04-27T12:31:09.001Z</time></trkpt><trkpt lat="46.20971787397257" lon="10.195040422023759"><ele>1068.0</ele><time>2026-04-27T12:31:10.001Z</time></trkpt><trkpt lat="46.20965536739135" lon="10.194916697624128"><ele>1068.0</ele><time>2026-04-27T12:31:11.001Z</time></trkpt><trkpt lat="46.2095793476552" lon="10.194808566010837"><ele>1068.0</ele><time>2026-04-27T12:31:12.001Z</time></trkpt><trkpt lat="46.20949063760598" lon="10.194708512047729"><ele>1068.0</ele><time>2026-04-27T12:31:13.001Z</time></trkpt><trkpt lat="46.20937820931029" lon="10.194604668202803"><ele>1069.5</ele><time>2026-04-27T12:31:14.001Z</time></trkpt><trkpt lat="46.209264997250834" lon="10.194515717018833"><ele>1071.0</ele><time>2026-04-27T12:31:15.001Z</time></trkpt><trkpt lat="46.20915502031786" lon="10.194422803664112"><ele>1072.5</ele><time>2026-04-27T12:31:16.001Z</time></trkpt><trkpt lat="46.209049254789754" lon="10.19432683712852"><ele>1074.0</ele><time>2026-04-27T12:31:17.001Z</time></trkpt><trkpt lat="46.208972319808964" lon="10.19426394652803"><ele>1074.0</ele><time>2026-04-27T12:31:18.001Z</time></trkpt><trkpt lat="46.20888744904021" lon="10.19423248907133"><ele>1074.0</ele><time>2026-04-27T12:31:19.001Z</time></trkpt><trkpt lat="46.20879502750682" lon="10.194202297178151"><ele>1074.0</ele><time>2026-04-27T12:31:20.001Z</time></trkpt><trkpt lat="46.20872204701868" lon="10.19414776889287"><ele>1074.0</ele><time>2026-04-27T12:31:21.001Z</time></trkpt><trkpt lat="46.208648131299725" lon="10.194045794093151"><ele>1074.0</ele><time>2026-04-27T12:31:23.001Z</time></trkpt><trkpt lat="46.20857706520703" lon="10.194033815803849"><ele>1074.0</ele><time>2026-04-27T12:31:25.001Z</time></trkpt><trkpt lat="46.208530136268614" lon="10.194121673999936"><ele>1074.0</ele><time>2026-04-27T12:31:27.001Z</time></trkpt><trkpt lat="46.20856158927274" lon="10.19424906736862"><ele>1074.0</ele><time>2026-04-27T12:31:28.001Z</time></trkpt><trkpt lat="46.2086107478713" lon="10.194346681505342"><ele>1074.0</ele><time>2026-04-27T12:31:29.001Z</time></trkpt><trkpt lat="46.20865816572563" lon="10.194437760003545"><ele>1074.0</ele><time>2026-04-27T12:31:30.001Z</time></trkpt><trkpt lat="46.20872962897811" lon="10.194517872373822"><ele>1074.0</ele><time>2026-04-27T12:31:31.001Z</time></trkpt><trkpt lat="46.20883850871749" lon="10.194536526384898"><ele>1074.0</ele><time>2026-04-27T12:31:32.001Z</time></trkpt><trkpt lat="46.208918263351954" lon="10.194578668371385"><ele>1074.0</ele><time>2026-04-27T12:31:33.001Z</time></trkpt><trkpt lat="46.20895219297146" lon="10.194669058702422"><ele>1074.0</ele><time>2026-04-27T12:31:34.001Z</time></trkpt><trkpt lat="46.20898978826792" lon="10.194750383328977"><ele>1074.0</ele><time>2026-04-27T12:31:35.001Z</time></trkpt><trkpt lat="46.20904332383883" lon="10.194862292023869"><ele>1074.0</ele><time>2026-04-27T12:31:36.001Z</time></trkpt><trkpt lat="46.209103360994064" lon="10.195002091162564"><ele>1074.0</ele><time>2026-04-27T12:31:37Z</time></trkpt><trkpt lat="46.20916521075918" lon="10.19516690554319"><ele>1072.5</ele><time>2026-04-27T12:31:38Z</time></trkpt><trkpt lat="46.2092161191042" lon="10.195311379203936"><ele>1071.0</ele><time>2026-04-27T12:31:39Z</time></trkpt><trkpt lat="46.20927105956412" lon="10.19547710350714"><ele>1069.5</ele><time>2026-04-27T12:31:40Z</time></trkpt><trkpt lat="46.20932338618407" lon="10.195650861515965"><ele>1068.0</ele><time>2026-04-27T12:31:41Z</time></trkpt><trkpt lat="46.20936583729279" lon="10.195823119971408"><ele>1073.0</ele><time>2026-04-27T12:31:42Z</time></trkpt><trkpt lat="46.20939451325595" lon="10.195994907938362"><ele>1078.0</ele><time>2026-04-27T12:31:43Z</time></trkpt><trkpt lat="46.20943007324896" lon="10.196188692576236"><ele>1083.0</ele><time>2026-04-27T12:31:44Z</time></trkpt><trkpt lat="46.209465840505224" lon="10.196374112905941"><ele>1088.0</ele><time>2026-04-27T12:31:45Z</time></trkpt><trkpt lat="46.20952305830139" lon="10.19656217103036"><ele>1092.4</ele><time>2026-04-27T12:31:46Z</time></trkpt><trkpt lat="46.20956585779128" lon="10.19672832629334"><ele>1096.8</ele><time>2026-04-27T12:31:47Z</time></trkpt><trkpt lat="46.20963592966475" lon="10.196867077899457"><ele>1101.2</ele><time>2026-04-27T12:31:48Z</time></trkpt><trkpt lat="46.20967418244471" lon="10.196990210062657"><ele>1105.6</ele><time>2026-04-27T12:31:49Z</time></trkpt><trkpt lat="46.209701383889474" lon="10.197113445670448"><ele>1110.0</ele><time>2026-04-27T12:31:50Z</time></trkpt><trkpt lat="46.20969664942521" lon="10.1972487313901"><ele>1105.0</ele><time>2026-04-27T12:31:51Z</time></trkpt><trkpt lat="46.209731579811134" lon="10.197433217752602"><ele>1100.0</ele><time>2026-04-27T12:31:52Z</time></trkpt><trkpt lat="46.20980018820838" lon="10.19759080298696"><ele>1095.0</ele><time>2026-04-27T12:31:53Z</time></trkpt><trkpt lat="46.20984346664546" lon="10.197766169091848"><ele>1090.0</ele><time>2026-04-27T12:31:54Z</time></trkpt><trkpt lat="46.20987272013375" lon="10.197936639757659"><ele>1090.0</ele><time>2026-04-27T12:31:55Z</time></trkpt><trkpt lat="46.20991081967855" lon="10.198089195929166"><ele>1090.0</ele><time>2026-04-27T12:31:56Z</time></trkpt><trkpt lat="46.20998667680119" lon="10.198180391919125"><ele>1090.0</ele><time>2026-04-27T12:31:57Z</time></trkpt><trkpt lat="46.210009585522904" lon="10.198280108671984"><ele>1090.0</ele><time>2026-04-27T12:31:59Z</time></trkpt><trkpt lat="46.209980190834706" lon="10.198365006724801"><ele>1090.0</ele><time>2026-04-27T12:32:02Z</time></trkpt><trkpt lat="46.20989165048915" lon="10.198291069958346"><ele>1090.0</ele><time>2026-04-27T12:32:05.001Z</time></trkpt><trkpt lat="46.20989017958218" lon="10.198176280532625"><ele>1090.0</ele><time>2026-04-27T12:32:06.001Z</time></trkpt><trkpt lat="46.209838418165845" lon="10.198052522976235"><ele>1090.0</ele><time>2026-04-27T12:32:07.001Z</time></trkpt><trkpt lat="46.20977500185785" lon="10.197963470479845"><ele>1090.0</ele><time>2026-04-27T12:32:08.001Z</time></trkpt><trkpt lat="46.20968280850593" lon="10.197881062876505"><ele>1090.0</ele><time>2026-04-27T12:32:09.001Z</time></trkpt><trkpt lat="46.20959531289972" lon="10.197749282395318"><ele>1094.0</ele><time>2026-04-27T12:32:10.001Z</time></trkpt><trkpt lat="46.209518807606656" lon="10.197615484345157"><ele>1098.0</ele><time>2026-04-27T12:32:11.001Z</time></trkpt><trkpt lat="46.20944933582692" lon="10.197483214924558"><ele>1102.0</ele><time>2026-04-27T12:32:12.001Z</time></trkpt><trkpt lat="46.20938371245478" lon="10.19736110830293"><ele>1106.0</ele><time>2026-04-27T12:32:13.001Z</time></trkpt><trkpt lat="46.20932464565291" lon="10.197267612525605"><ele>1110.0</ele><time>2026-04-27T12:32:14.001Z</time></trkpt><trkpt lat="46.209259836443664" lon="10.197183728970433"><ele>1110.0</ele><time>2026-04-27T12:32:15.001Z</time></trkpt><trkpt lat="46.209171682183495" lon="10.197087391520325"><ele>1110.0</ele><time>2026-04-27T12:32:16.001Z</time></trkpt><trkpt lat="46.20908328596562" lon="10.196993150388199"><ele>1110.0</ele><time>2026-04-27T12:32:17.001Z</time></trkpt><trkpt lat="46.20898090271672" lon="10.196908283986353"><ele>1110.0</ele><time>2026-04-27T12:32:18.001Z</time></trkpt><trkpt lat="46.20888379519036" lon="10.196803673187269"><ele>1113.0</ele><time>2026-04-27T12:32:19.001Z</time></trkpt><trkpt lat="46.20881507117163" lon="10.196717741665143"><ele>1116.0</ele><time>2026-04-27T12:32:20.001Z</time></trkpt><trkpt lat="46.20876580501271" lon="10.19656946978191"><ele>1119.0</ele><time>2026-04-27T12:32:21.001Z</time></trkpt><trkpt lat="46.208705512655015" lon="10.196482870262306"><ele>1122.0</ele><time>2026-04-27T12:32:22.001Z</time></trkpt><trkpt lat="46.20859087931105" lon="10.196343455827744"><ele>1125.0</ele><time>2026-04-27T12:32:24.001Z</time></trkpt><trkpt lat="46.20846685383185" lon="10.196194620953719"><ele>1125.0</ele><time>2026-04-27T12:32:25.001Z</time></trkpt><trkpt lat="46.208390278423224" lon="10.196053608737433"><ele>1125.0</ele><time>2026-04-27T12:32:26.001Z</time></trkpt><trkpt lat="46.2083306662976" lon="10.195939311193344"><ele>1125.0</ele><time>2026-04-27T12:32:27.001Z</time></trkpt><trkpt lat="46.20826482459987" lon="10.195859351677736"><ele>1125.0</ele><time>2026-04-27T12:32:28.001Z</time></trkpt><trkpt lat="46.20816854261567" lon="10.195820109994417"><ele>1125.0</ele><time>2026-04-27T12:32:29.001Z</time></trkpt><trkpt lat="46.208074861884654" lon="10.1957780743767"><ele>1128.6</ele><time>2026-04-27T12:32:30.001Z</time></trkpt><trkpt lat="46.20798132896584" lon="10.195719409782782"><ele>1132.2</ele><time>2026-04-27T12:32:31.001Z</time></trkpt><trkpt lat="46.20791693763205" lon="10.195631154708124"><ele>1135.8</ele><time>2026-04-27T12:32:32.001Z</time></trkpt><trkpt lat="46.207848810151376" lon="10.195493223686883"><ele>1139.4</ele><time>2026-04-27T12:32:33.001Z</time></trkpt><trkpt lat="46.20777063864001" lon="10.195356273373427"><ele>1143.0</ele><time>2026-04-27T12:32:34.001Z</time></trkpt><trkpt lat="46.207678240566075" lon="10.195227643337839"><ele>1143.0</ele><time>2026-04-27T12:32:35.001Z</time></trkpt><trkpt lat="46.20758156270424" lon="10.19508505764863"><ele>1143.0</ele><time>2026-04-27T12:32:36.001Z</time></trkpt><trkpt lat="46.20748683535204" lon="10.194950341789507"><ele>1143.0</ele><time>2026-04-27T12:32:37.001Z</time></trkpt><trkpt lat="46.20737517747282" lon="10.194814045706869"><ele>1143.0</ele><time>2026-04-27T12:32:38.001Z</time></trkpt><trkpt lat="46.2072521460044" lon="10.194656184288958"><ele>1145.5</ele><time>2026-04-27T12:32:39.001Z</time></trkpt><trkpt lat="46.207139897905364" lon="10.194516997059893"><ele>1148.0</ele><time>2026-04-27T12:32:40.001Z</time></trkpt><trkpt lat="46.20701462492241" lon="10.194397796416576"><ele>1150.5</ele><time>2026-04-27T12:32:41.001Z</time></trkpt><trkpt lat="46.206894894994726" lon="10.19427244855501"><ele>1153.0</ele><time>2026-04-27T12:32:42.001Z</time></trkpt><trkpt lat="46.20681739489402" lon="10.194131217998649"><ele>1153.0</ele><time>2026-04-27T12:32:43.001Z</time></trkpt><trkpt lat="46.206712338547796" lon="10.194062283123804"><ele>1153.0</ele><time>2026-04-27T12:32:44.001Z</time></trkpt><trkpt lat="46.20660980241665" lon="10.193977381151369"><ele>1153.0</ele><time>2026-04-27T12:32:45.001Z</time></trkpt><trkpt lat="46.20649113730292" lon="10.193899626540919"><ele>1153.0</ele><time>2026-04-27T12:32:46.001Z</time></trkpt><trkpt lat="46.20640263092327" lon="10.193760541543206"><ele>1152.2</ele><time>2026-04-27T12:32:47.001Z</time></trkpt><trkpt lat="46.20632213577183" lon="10.193690484080115"><ele>1151.4</ele><time>2026-04-27T12:32:48.001Z</time></trkpt><trkpt lat="46.20624778707653" lon="10.193664672750657"><ele>1150.6000000000001</ele><time>2026-04-27T12:32:49.001Z</time></trkpt><trkpt lat="46.20615294864002" lon="10.193613999759355"><ele>1149.8</ele><time>2026-04-27T12:32:50.001Z</time></trkpt><trkpt lat="46.20605716218967" lon="10.193524964835726"><ele>1149.0</ele><time>2026-04-27T12:32:51.001Z</time></trkpt><trkpt lat="46.205953920199505" lon="10.19346565290147"><ele>1149.0</ele><time>2026-04-27T12:32:52.001Z</time></trkpt><trkpt lat="46.2058736614442" lon="10.193463714656332"><ele>1149.0</ele><time>2026-04-27T12:32:53.001Z</time></trkpt><trkpt lat="46.20575527934138" lon="10.193489762509605"><ele>1149.0</ele><time>2026-04-27T12:32:55.001Z</time></trkpt><trkpt lat="46.205693983334655" lon="10.193550298096802"><ele>1149.0</ele><time>2026-04-27T12:32:56.001Z</time></trkpt><trkpt lat="46.20563591558023" lon="10.193608847185319"><ele>1149.0</ele><time>2026-04-27T12:32:57.001Z</time></trkpt><trkpt lat="46.205566228638006" lon="10.193623974995099"><ele>1149.0</ele><time>2026-04-27T12:32:58.001Z</time></trkpt><trkpt lat="46.205499680520475" lon="10.193610932178474"><ele>1148.8</ele><time>2026-04-27T12:32:59.001Z</time></trkpt><trkpt lat="46.20542674530335" lon="10.193539745240606"><ele>1148.6000000000001</ele><time>2026-04-27T12:33:00.001Z</time></trkpt><trkpt lat="46.2053973438577" lon="10.193431506773997"><ele>1148.4</ele><time>2026-04-27T12:33:01.001Z</time></trkpt><trkpt lat="46.20531068204511" lon="10.193293462600577"><ele>1148.2</ele><time>2026-04-27T12:33:03.001Z</time></trkpt><trkpt lat="46.2052418106133" lon="10.19318358570624"><ele>1148.0</ele><time>2026-04-27T12:33:04.001Z</time></trkpt><trkpt lat="46.205188456566084" lon="10.193101024524081"><ele>1148.0</ele><time>2026-04-27T12:33:05.001Z</time></trkpt><trkpt lat="46.205119653726186" lon="10.193033087636444"><ele>1148.0</ele><time>2026-04-27T12:33:07.001Z</time></trkpt><trkpt lat="46.20507236850685" lon="10.193122245022279"><ele>1148.0</ele><time>2026-04-27T12:33:09.001Z</time></trkpt><trkpt lat="46.20509852853935" lon="10.193238894481846"><ele>1148.0</ele><time>2026-04-27T12:33:11.001Z</time></trkpt><trkpt lat="46.20515567343911" lon="10.193308124320389"><ele>1148.0</ele><time>2026-04-27T12:33:12.001Z</time></trkpt><trkpt lat="46.20521694079043" lon="10.19340273820731"><ele>1148.0</ele><time>2026-04-27T12:33:13.001Z</time></trkpt><trkpt lat="46.205284495453824" lon="10.193510950935442"><ele>1154.6</ele><time>2026-04-27T12:33:14.001Z</time></trkpt><trkpt lat="46.20535566413792" lon="10.19364775981076"><ele>1161.1999999999998</ele><time>2026-04-27T12:33:15.001Z</time></trkpt><trkpt lat="46.20540317003106" lon="10.193781540029088"><ele>1167.8</ele><time>2026-04-27T12:33:16.001Z</time></trkpt><trkpt lat="46.20544359761267" lon="10.193876303412912"><ele>1174.3999999999999</ele><time>2026-04-27T12:33:17.001Z</time></trkpt><trkpt lat="46.20550252554127" lon="10.1939431581902"><ele>1181.0</ele><time>2026-04-27T12:33:18.001Z</time></trkpt><trkpt lat="46.20557690370771" lon="10.193964313456185"><ele>1181.0</ele><time>2026-04-27T12:33:19.002Z</time></trkpt><trkpt lat="46.20566065838434" lon="10.193969507714398"><ele>1181.0</ele><time>2026-04-27T12:33:20.002Z</time></trkpt><trkpt lat="46.20573311023321" lon="10.193991429437608"><ele>1181.0</ele><time>2026-04-27T12:33:21.002Z</time></trkpt><trkpt lat="46.20583368776" lon="10.194053890258509"><ele>1181.0</ele><time>2026-04-27T12:33:23.002Z</time></trkpt><trkpt lat="46.20589261283295" lon="10.194159964670762"><ele>1181.0</ele><time>2026-04-27T12:33:24.002Z</time></trkpt><trkpt lat="46.20592450078048" lon="10.194280103360462"><ele>1180.8333333333335</ele><time>2026-04-27T12:33:25.002Z</time></trkpt><trkpt lat="46.20598460362739" lon="10.194380505817431"><ele>1180.6666666666667</ele><time>2026-04-27T12:33:26.002Z</time></trkpt><trkpt lat="46.20601703827858" lon="10.194523123020407"><ele>1180.5</ele><time>2026-04-27T12:33:27.002Z</time></trkpt><trkpt lat="46.206072543600705" lon="10.194629359149294"><ele>1180.3333333333333</ele><time>2026-04-27T12:33:28.002Z</time></trkpt><trkpt lat="46.2061202296622" lon="10.194713573429313"><ele>1180.1666666666665</ele><time>2026-04-27T12:33:29.002Z</time></trkpt><trkpt lat="46.2061526895336" lon="10.194801727533408"><ele>1180.0</ele><time>2026-04-27T12:33:30.002Z</time></trkpt><trkpt lat="46.20622742331515" lon="10.194810345662113"><ele>1180.75</ele><time>2026-04-27T12:33:31.002Z</time></trkpt><trkpt lat="46.206303844958455" lon="10.194866982935185"><ele>1181.5</ele><time>2026-04-27T12:33:32.002Z</time></trkpt><trkpt lat="46.20639042628301" lon="10.194999630704123"><ele>1182.25</ele><time>2026-04-27T12:33:33.002Z</time></trkpt><trkpt lat="46.20648944229421" lon="10.195142996262982"><ele>1183.0</ele><time>2026-04-27T12:33:34.002Z</time></trkpt><trkpt lat="46.20657566306776" lon="10.195288092104759"><ele>1183.0</ele><time>2026-04-27T12:33:35.002Z</time></trkpt><trkpt lat="46.20666455682195" lon="10.195428633234732"><ele>1183.0</ele><time>2026-04-27T12:33:36.002Z</time></trkpt><trkpt lat="46.2067326958861" lon="10.195596057964524"><ele>1183.0</ele><time>2026-04-27T12:33:37.002Z</time></trkpt><trkpt lat="46.20681741696622" lon="10.19575041583404"><ele>1183.0</ele><time>2026-04-27T12:33:38.002Z</time></trkpt><trkpt lat="46.206893196915665" lon="10.195906667748325"><ele>1190.75</ele><time>2026-04-27T12:33:39.002Z</time></trkpt><trkpt lat="46.206930721696104" lon="10.196069843714195"><ele>1198.5</ele><time>2026-04-27T12:33:40.002Z</time></trkpt><trkpt lat="46.2069851820486" lon="10.196211492990455"><ele>1206.25</ele><time>2026-04-27T12:33:41.002Z</time></trkpt><trkpt lat="46.20703942019337" lon="10.196372533373404"><ele>1214.0</ele><time>2026-04-27T12:33:42.002Z</time></trkpt><trkpt lat="46.207108457158995" lon="10.196556882459408"><ele>1217.8</ele><time>2026-04-27T12:33:43.001Z</time></trkpt><trkpt lat="46.207151293256544" lon="10.196714455701965"><ele>1221.6000000000001</ele><time>2026-04-27T12:33:44.001Z</time></trkpt><trkpt lat="46.207189301186155" lon="10.19686626743785"><ele>1225.4</ele><time>2026-04-27T12:33:45.001Z</time></trkpt><trkpt lat="46.207209974705115" lon="10.197007747917786"><ele>1229.2</ele><time>2026-04-27T12:33:46.001Z</time></trkpt><trkpt lat="46.20721714939163" lon="10.197166067603536"><ele>1233.0</ele><time>2026-04-27T12:33:47.001Z</time></trkpt><trkpt lat="46.207236104569944" lon="10.197324345823393"><ele>1235.5</ele><time>2026-04-27T12:33:48.001Z</time></trkpt><trkpt lat="46.207274134374444" lon="10.197486678572616"><ele>1238.0</ele><time>2026-04-27T12:33:49.001Z</time></trkpt><trkpt lat="46.207332936574396" lon="10.197641464978984"><ele>1240.5</ele><time>2026-04-27T12:33:50.001Z</time></trkpt><trkpt lat="46.207400802523566" lon="10.197788713977483"><ele>1243.0</ele><time>2026-04-27T12:33:51.001Z</time></trkpt><trkpt lat="46.20748301189231" lon="10.197928940554842"><ele>1238.6666666666665</ele><time>2026-04-27T12:33:52.001Z</time></trkpt><trkpt lat="46.2075348226869" lon="10.198038277382663"><ele>1234.3333333333333</ele><time>2026-04-27T12:33:53.001Z</time></trkpt><trkpt lat="46.207566667131445" lon="10.198130011978717"><ele>1230.0</ele><time>2026-04-27T12:33:54.001Z</time></trkpt><trkpt lat="46.2075756922845" lon="10.198252156489232"><ele>1225.6666666666667</ele><time>2026-04-27T12:33:55.001Z</time></trkpt><trkpt lat="46.207603288427215" lon="10.198396869862362"><ele>1221.3333333333335</ele><time>2026-04-27T12:33:56.001Z</time></trkpt><trkpt lat="46.20762859231455" lon="10.198530612033457"><ele>1217.0</ele><time>2026-04-27T12:33:57.001Z</time></trkpt><trkpt lat="46.20767135944464" lon="10.198636207670999"><ele>1217.0</ele><time>2026-04-27T12:33:58.001Z</time></trkpt><trkpt lat="46.207728416278556" lon="10.198757692152487"><ele>1217.0</ele><time>2026-04-27T12:33:59.001Z</time></trkpt><trkpt lat="46.20780324580656" lon="10.198850554215452"><ele>1217.0</ele><time>2026-04-27T12:34:00.001Z</time></trkpt><trkpt lat="46.207889201567134" lon="10.19893212449205"><ele>1217.0</ele><time>2026-04-27T12:34:01.001Z</time></trkpt><trkpt lat="46.20800275194454" lon="10.199046413107556"><ele>1217.0</ele><time>2026-04-27T12:34:02.001Z</time></trkpt><trkpt lat="46.20810776978637" lon="10.199177587756955"><ele>1216.5</ele><time>2026-04-27T12:34:03.001Z</time></trkpt><trkpt lat="46.20819936995204" lon="10.199309960124614"><ele>1216.0</ele><time>2026-04-27T12:34:04.001Z</time></trkpt><trkpt lat="46.20827580416825" lon="10.199429592575925"><ele>1215.5</ele><time>2026-04-27T12:34:05.001Z</time></trkpt><trkpt lat="46.208326310537835" lon="10.19955475338126"><ele>1215.0</ele><time>2026-04-27T12:34:06.001Z</time></trkpt><trkpt lat="46.20838751976061" lon="10.199695669833037"><ele>1218.25</ele><time>2026-04-27T12:34:07.001Z</time></trkpt><trkpt lat="46.208444542877295" lon="10.19984219304163"><ele>1221.5</ele><time>2026-04-27T12:34:08.001Z</time></trkpt><trkpt lat="46.208499883803064" lon="10.199997308415556"><ele>1224.75</ele><time>2026-04-27T12:34:09.001Z</time></trkpt><trkpt lat="46.208555462637825" lon="10.200153433845314"><ele>1228.0</ele><time>2026-04-27T12:34:10.001Z</time></trkpt><trkpt lat="46.208609331310925" lon="10.200326700363009"><ele>1228.0</ele><time>2026-04-27T12:34:11.001Z</time></trkpt><trkpt lat="46.208621052029066" lon="10.20052822557532"><ele>1228.0</ele><time>2026-04-27T12:34:12.001Z</time></trkpt><trkpt lat="46.20867208552275" lon="10.20070816605435"><ele>1228.0</ele><time>2026-04-27T12:34:13.001Z</time></trkpt><trkpt lat="46.20870815257922" lon="10.200891327517247"><ele>1228.0</ele><time>2026-04-27T12:34:14.001Z</time></trkpt><trkpt lat="46.208761466335" lon="10.201071233664198"><ele>1228.25</ele><time>2026-04-27T12:34:15.001Z</time></trkpt><trkpt lat="46.20881945427211" lon="10.201247290107052"><ele>1228.5</ele><time>2026-04-27T12:34:16.001Z</time></trkpt><trkpt lat="46.208889505988886" lon="10.201440517765604"><ele>1228.75</ele><time>2026-04-27T12:34:17.001Z</time></trkpt><trkpt lat="46.208928673175265" lon="10.201629394943792"><ele>1229.0</ele><time>2026-04-27T12:34:18.001Z</time></trkpt><trkpt lat="46.208995366425" lon="10.201784847477024"><ele>1229.0</ele><time>2026-04-27T12:34:19.001Z</time></trkpt><trkpt lat="46.209060214670146" lon="10.201948212718099"><ele>1229.0</ele><time>2026-04-27T12:34:20.001Z</time></trkpt><trkpt lat="46.209113429400325" lon="10.202121699890434"><ele>1229.0</ele><time>2026-04-27T12:34:21.001Z</time></trkpt><trkpt lat="46.209176153972756" lon="10.202279913699597"><ele>1229.0</ele><time>2026-04-27T12:34:22.001Z</time></trkpt><trkpt lat="46.209233279032546" lon="10.202440455697587"><ele>1231.75</ele><time>2026-04-27T12:34:23.001Z</time></trkpt><trkpt lat="46.20928259236122" lon="10.202603338086984"><ele>1234.5</ele><time>2026-04-27T12:34:24.001Z</time></trkpt><trkpt lat="46.20931489233106" lon="10.20278460477799"><ele>1237.25</ele><time>2026-04-27T12:34:25.001Z</time></trkpt><trkpt lat="46.20936196905003" lon="10.202966336031102"><ele>1240.0</ele><time>2026-04-27T12:34:26.001Z</time></trkpt><trkpt lat="46.20939634340618" lon="10.203192882475316"><ele>1245.3333333333333</ele><time>2026-04-27T12:34:27.001Z</time></trkpt><trkpt lat="46.20944102107842" lon="10.203413704896473"><ele>1250.6666666666667</ele><time>2026-04-27T12:34:28.001Z</time></trkpt><trkpt lat="46.209480780305455" lon="10.203635774734206"><ele>1256.0</ele><time>2026-04-27T12:34:29.001Z</time></trkpt><trkpt lat="46.20952310052516" lon="10.203823238476366"><ele>1256.0</ele><time>2026-04-27T12:34:30.001Z</time></trkpt><trkpt lat="46.209542875556885" lon="10.203963367089504"><ele>1256.0</ele><time>2026-04-27T12:34:31.001Z</time></trkpt><trkpt lat="46.20956159349643" lon="10.204061672822851"><ele>1256.0</ele><time>2026-04-27T12:34:32.001Z</time></trkpt><trkpt lat="46.20953717256787" lon="10.204172760242097"><ele>1256.0</ele><time>2026-04-27T12:34:34.001Z</time></trkpt><trkpt lat="46.20946757515362" lon="10.20416316638248"><ele>1256.0</ele><time>2026-04-27T12:34:37.001Z</time></trkpt><trkpt lat="46.2094453118388" lon="10.204075247662738"><ele>1256.0</ele><time>2026-04-27T12:34:39.001Z</time></trkpt><trkpt lat="46.209395454900594" lon="10.203865533531737"><ele>1256.0</ele><time>2026-04-27T12:34:41.001Z</time></trkpt><trkpt lat="46.20936076124652" lon="10.20369733948153"><ele>1256.0</ele><time>2026-04-27T12:34:42.001Z</time></trkpt><trkpt lat="46.20928700865082" lon="10.20358372888718"><ele>1256.0</ele><time>2026-04-27T12:34:43.001Z</time></trkpt><trkpt lat="46.20923100408618" lon="10.203461012597458"><ele>1256.0</ele><time>2026-04-27T12:34:44.001Z</time></trkpt><trkpt lat="46.20914519300834" lon="10.203314684887648"><ele>1256.0</ele><time>2026-04-27T12:34:45.001Z</time></trkpt><trkpt lat="46.20907704725508" lon="10.203172053451416"><ele>1256.0</ele><time>2026-04-27T12:34:46.001Z</time></trkpt><trkpt lat="46.20901527760849" lon="10.20302195204124"><ele>1256.0</ele><time>2026-04-27T12:34:47.001Z</time></trkpt><trkpt lat="46.20895297137435" lon="10.202879162162397"><ele>1256.0</ele><time>2026-04-27T12:34:48.001Z</time></trkpt><trkpt lat="46.20885672391289" lon="10.202758632556431"><ele>1254.3333333333335</ele><time>2026-04-27T12:34:49.001Z</time></trkpt><trkpt lat="46.20875948463004" lon="10.202620969299085"><ele>1252.6666666666667</ele><time>2026-04-27T12:34:50.001Z</time></trkpt><trkpt lat="46.208634054807845" lon="10.20245711845693"><ele>1251.0</ele><time>2026-04-27T12:34:51.001Z</time></trkpt><trkpt lat="46.20851202663901" lon="10.202303826452539"><ele>1251.0</ele><time>2026-04-27T12:34:52.001Z</time></trkpt><trkpt lat="46.208421338560406" lon="10.202200116225514"><ele>1251.0</ele><time>2026-04-27T12:34:53.001Z</time></trkpt><trkpt lat="46.2083388413376" lon="10.202060567748896"><ele>1251.0</ele><time>2026-04-27T12:34:54.001Z</time></trkpt><trkpt lat="46.20827306096015" lon="10.201926959373116"><ele>1251.0</ele><time>2026-04-27T12:34:55.001Z</time></trkpt><trkpt lat="46.20822049360291" lon="10.201816957332678"><ele>1251.0</ele><time>2026-04-27T12:34:56.001Z</time></trkpt><trkpt lat="46.2081351058645" lon="10.201664521356665"><ele>1258.75</ele><time>2026-04-27T12:34:57.001Z</time></trkpt><trkpt lat="46.20806520554749" lon="10.201517744740427"><ele>1266.5</ele><time>2026-04-27T12:34:58.001Z</time></trkpt><trkpt lat="46.20799124370771" lon="10.201376594685852"><ele>1274.25</ele><time>2026-04-27T12:34:59.001Z</time></trkpt><trkpt lat="46.20792056233871" lon="10.201229126047217"><ele>1282.0</ele><time>2026-04-27T12:35:00.001Z</time></trkpt><trkpt lat="46.2078472390631" lon="10.201089800252223"><ele>1282.0</ele><time>2026-04-27T12:35:01.001Z</time></trkpt><trkpt lat="46.207764472829055" lon="10.200977161921298"><ele>1282.0</ele><time>2026-04-27T12:35:02.001Z</time></trkpt><trkpt lat="46.20768379391231" lon="10.200847828719857"><ele>1282.0</ele><time>2026-04-27T12:35:03.001Z</time></trkpt><trkpt lat="46.20759390076584" lon="10.200733327043455"><ele>1282.0</ele><time>2026-04-27T12:35:04.001Z</time></trkpt><trkpt lat="46.20749532856599" lon="10.200623148338558"><ele>1285.75</ele><time>2026-04-27T12:35:05.001Z</time></trkpt><trkpt lat="46.20739505882111" lon="10.200525437228459"><ele>1289.5</ele><time>2026-04-27T12:35:06.001Z</time></trkpt><trkpt lat="46.2072878791734" lon="10.2004013299949"><ele>1293.25</ele><time>2026-04-27T12:35:07.001Z</time></trkpt><trkpt lat="46.20717579488747" lon="10.20031981789304"><ele>1297.0</ele><time>2026-04-27T12:35:08.001Z</time></trkpt><trkpt lat="46.20707258143331" lon="10.200226811774616"><ele>1297.0</ele><time>2026-04-27T12:35:09.001Z</time></trkpt><trkpt lat="46.20694639198631" lon="10.2001606324996"><ele>1297.0</ele><time>2026-04-27T12:35:10.001Z</time></trkpt><trkpt lat="46.20683677695739" lon="10.20009789793632"><ele>1297.0</ele><time>2026-04-27T12:35:11.001Z</time></trkpt><trkpt lat="46.2067558625781" lon="10.200027583250852"><ele>1297.0</ele><time>2026-04-27T12:35:12.001Z</time></trkpt><trkpt lat="46.20668841213839" lon="10.199954009840518"><ele>1297.0</ele><time>2026-04-27T12:35:13.001Z</time></trkpt><trkpt lat="46.206614203947105" lon="10.199854742907162"><ele>1301.0</ele><time>2026-04-27T12:35:14.001Z</time></trkpt><trkpt lat="46.20654932209245" lon="10.199728950793867"><ele>1305.0</ele><time>2026-04-27T12:35:15.001Z</time></trkpt><trkpt lat="46.20648049591001" lon="10.199602723803324"><ele>1309.0</ele><time>2026-04-27T12:35:16.001Z</time></trkpt><trkpt lat="46.20643208016578" lon="10.19945853046614"><ele>1313.0</ele><time>2026-04-27T12:35:17.001Z</time></trkpt><trkpt lat="46.20636522831728" lon="10.199324169317057"><ele>1317.0</ele><time>2026-04-27T12:35:18.001Z</time></trkpt><trkpt lat="46.20628240297953" lon="10.199206736365518"><ele>1317.0</ele><time>2026-04-27T12:35:19.001Z</time></trkpt><trkpt lat="46.20620011802571" lon="10.199079726938507"><ele>1317.0</ele><time>2026-04-27T12:35:20.001Z</time></trkpt><trkpt lat="46.20610360771351" lon="10.19896893367656"><ele>1317.0</ele><time>2026-04-27T12:35:21.001Z</time></trkpt><trkpt lat="46.20602907710247" lon="10.198838672837368"><ele>1317.0</ele><time>2026-04-27T12:35:22.001Z</time></trkpt><trkpt lat="46.205945105663275" lon="10.19871831015976"><ele>1311.5</ele><time>2026-04-27T12:35:23.001Z</time></trkpt><trkpt lat="46.20585898447262" lon="10.198570988769475"><ele>1306.0</ele><time>2026-04-27T12:35:24.001Z</time></trkpt><trkpt lat="46.20575946794995" lon="10.198430078755626"><ele>1300.5</ele><time>2026-04-27T12:35:25.001Z</time></trkpt><trkpt lat="46.20565730890257" lon="10.198310967599076"><ele>1295.0</ele><time>2026-04-27T12:35:26.001Z</time></trkpt><trkpt lat="46.20556410682847" lon="10.198172421291972"><ele>1301.25</ele><time>2026-04-27T12:35:27.001Z</time></trkpt><trkpt lat="46.20548700755269" lon="10.198017446758001"><ele>1307.5</ele><time>2026-04-27T12:35:28.001Z</time></trkpt><trkpt lat="46.20540688122657" lon="10.197861323831297"><ele>1313.75</ele><time>2026-04-27T12:35:29.001Z</time></trkpt><trkpt lat="46.20532665687534" lon="10.197715597784143"><ele>1320.0</ele><time>2026-04-27T12:35:30.002Z</time></trkpt><trkpt lat="46.205243127637274" lon="10.197576650404171"><ele>1320.0</ele><time>2026-04-27T12:35:31.002Z</time></trkpt><trkpt lat="46.20516545031925" lon="10.197450412415918"><ele>1320.0</ele><time>2026-04-27T12:35:32.002Z</time></trkpt><trkpt lat="46.205094788730754" lon="10.197352056092376"><ele>1320.0</ele><time>2026-04-27T12:35:33.002Z</time></trkpt><trkpt lat="46.204998749660476" lon="10.1972721069966"><ele>1320.0</ele><time>2026-04-27T12:35:34.002Z</time></trkpt><trkpt lat="46.20490070355529" lon="10.197184395728701"><ele>1320.0</ele><time>2026-04-27T12:35:35.002Z</time></trkpt><trkpt lat="46.204788663976885" lon="10.197086959898291"><ele>1323.5</ele><time>2026-04-27T12:35:36.002Z</time></trkpt><trkpt lat="46.2046687854466" lon="10.196982759638841"><ele>1327.0</ele><time>2026-04-27T12:35:37.002Z</time></trkpt><trkpt lat="46.20454526909839" lon="10.19686822147299"><ele>1330.5</ele><time>2026-04-27T12:35:38.002Z</time></trkpt><trkpt lat="46.20444114108363" lon="10.196749696690746"><ele>1334.0</ele><time>2026-04-27T12:35:39.002Z</time></trkpt><trkpt lat="46.20432654768529" lon="10.196632937732028"><ele>1332.25</ele><time>2026-04-27T12:35:40.002Z</time></trkpt><trkpt lat="46.20421043114314" lon="10.19649944367246"><ele>1330.5</ele><time>2026-04-27T12:35:41.002Z</time></trkpt><trkpt lat="46.204115311189156" lon="10.19634631122655"><ele>1328.75</ele><time>2026-04-27T12:35:42.002Z</time></trkpt><trkpt lat="46.20402130466025" lon="10.19621015555454"><ele>1327.0</ele><time>2026-04-27T12:35:43.002Z</time></trkpt><trkpt lat="46.203934875073486" lon="10.196076045765071"><ele>1327.0</ele><time>2026-04-27T12:35:44.002Z</time></trkpt><trkpt lat="46.20384699529036" lon="10.195959003705259"><ele>1327.0</ele><time>2026-04-27T12:35:45.002Z</time></trkpt><trkpt lat="46.20377957461011" lon="10.195868456501499"><ele>1327.0</ele><time>2026-04-27T12:35:46.002Z</time></trkpt><trkpt lat="46.20371149531039" lon="10.195805451518362"><ele>1327.0</ele><time>2026-04-27T12:35:48.002Z</time></trkpt><trkpt lat="46.20364933091018" lon="10.195880975472848"><ele>1327.0</ele><time>2026-04-27T12:35:50.001Z</time></trkpt><trkpt lat="46.203683035497825" lon="10.19602339855123"><ele>1327.0</ele><time>2026-04-27T12:35:52.001Z</time></trkpt><trkpt lat="46.203776904838634" lon="10.196162521015884"><ele>1327.0</ele><time>2026-04-27T12:35:54.001Z</time></trkpt><trkpt lat="46.20383100397369" lon="10.196260267386252"><ele>1327.0</ele><time>2026-04-27T12:35:55.001Z</time></trkpt><trkpt lat="46.20391503670544" lon="10.196348940691554"><ele>1327.0</ele><time>2026-04-27T12:35:56.001Z</time></trkpt><trkpt lat="46.20396105512146" lon="10.196458314164593"><ele>1327.0</ele><time>2026-04-27T12:35:57.001Z</time></trkpt><trkpt lat="46.20398249391316" lon="10.196567746272951"><ele>1328.1666666666665</ele><time>2026-04-27T12:35:58.001Z</time></trkpt><trkpt lat="46.20397358825895" lon="10.196688602448132"><ele>1329.3333333333333</ele><time>2026-04-27T12:35:59.001Z</time></trkpt><trkpt lat="46.204009255345326" lon="10.196799623448033"><ele>1330.5</ele><time>2026-04-27T12:36:00.001Z</time></trkpt><trkpt lat="46.20402294909253" lon="10.196913130606198"><ele>1331.6666666666667</ele><time>2026-04-27T12:36:01.001Z</time></trkpt><trkpt lat="46.20407697799692" lon="10.197002151334193"><ele>1332.8333333333335</ele><time>2026-04-27T12:36:02.001Z</time></trkpt><trkpt lat="46.20416414588122" lon="10.19708227995526"><ele>1334.0</ele><time>2026-04-27T12:36:03.001Z</time></trkpt><trkpt lat="46.20422900997182" lon="10.19717524351281"><ele>1334.0</ele><time>2026-04-27T12:36:04.001Z</time></trkpt><trkpt lat="46.20428417299702" lon="10.197293992191177"><ele>1334.0</ele><time>2026-04-27T12:36:05.001Z</time></trkpt><trkpt lat="46.20432191265461" lon="10.197445142843542"><ele>1334.0</ele><time>2026-04-27T12:36:06.001Z</time></trkpt><trkpt lat="46.20437942061869" lon="10.197598528073268"><ele>1334.0</ele><time>2026-04-27T12:36:07.001Z</time></trkpt><trkpt lat="46.20445274012467" lon="10.19773933698012"><ele>1340.0</ele><time>2026-04-27T12:36:08.001Z</time></trkpt><trkpt lat="46.204545818035164" lon="10.197861722301583"><ele>1346.0</ele><time>2026-04-27T12:36:09.001Z</time></trkpt><trkpt lat="46.204639288387284" lon="10.197979080627213"><ele>1352.0</ele><time>2026-04-27T12:36:10.001Z</time></trkpt><trkpt lat="46.204719799587494" lon="10.198105417169817"><ele>1358.0</ele><time>2026-04-27T12:36:11.001Z</time></trkpt><trkpt lat="46.20479938415299" lon="10.198219571511707"><ele>1354.25</ele><time>2026-04-27T12:36:12.001Z</time></trkpt><trkpt lat="46.204849881860454" lon="10.198353275278015"><ele>1350.5</ele><time>2026-04-27T12:36:13.001Z</time></trkpt><trkpt lat="46.204896521491676" lon="10.198511875011112"><ele>1346.75</ele><time>2026-04-27T12:36:14.001Z</time></trkpt><trkpt lat="46.204957058009214" lon="10.19867943119519"><ele>1343.0</ele><time>2026-04-27T12:36:15.001Z</time></trkpt><trkpt lat="46.20502175800549" lon="10.1988629299781"><ele>1351.0</ele><time>2026-04-27T12:36:16.001Z</time></trkpt><trkpt lat="46.205094455629656" lon="10.199068635219158"><ele>1359.0</ele><time>2026-04-27T12:36:17.001Z</time></trkpt><trkpt lat="46.20514745578742" lon="10.199299005252557"><ele>1367.0</ele><time>2026-04-27T12:36:18.001Z</time></trkpt><trkpt lat="46.205217178672946" lon="10.199513249661589"><ele>1367.0</ele><time>2026-04-27T12:36:19.001Z</time></trkpt><trkpt lat="46.205299029397246" lon="10.199735660521691"><ele>1367.0</ele><time>2026-04-27T12:36:20.001Z</time></trkpt><trkpt lat="46.205362725641166" lon="10.199961760504413"><ele>1367.0</ele><time>2026-04-27T12:36:21.001Z</time></trkpt><trkpt lat="46.20544376080181" lon="10.200184511962316"><ele>1368.0</ele><time>2026-04-27T12:36:22.001Z</time></trkpt><trkpt lat="46.2055387243303" lon="10.200396392972022"><ele>1369.0</ele><time>2026-04-27T12:36:23.001Z</time></trkpt><trkpt lat="46.20563144344242" lon="10.200613190644544"><ele>1370.0</ele><time>2026-04-27T12:36:24.001Z</time></trkpt><trkpt lat="46.205727252174874" lon="10.20083652739005"><ele>1370.0</ele><time>2026-04-27T12:36:25.001Z</time></trkpt><trkpt lat="46.20582337166283" lon="10.201055456535045"><ele>1370.0</ele><time>2026-04-27T12:36:26.001Z</time></trkpt><trkpt lat="46.205926054322845" lon="10.201265823301826"><ele>1370.0</ele><time>2026-04-27T12:36:27.001Z</time></trkpt><trkpt lat="46.2060317974005" lon="10.201460484291133"><ele>1380.0</ele><time>2026-04-27T12:36:28.001Z</time></trkpt><trkpt lat="46.206143570589354" lon="10.201680843888294"><ele>1390.0</ele><time>2026-04-27T12:36:29.001Z</time></trkpt><trkpt lat="46.206246981930576" lon="10.201890579997707"><ele>1400.0</ele><time>2026-04-27T12:36:30.001Z</time></trkpt><trkpt lat="46.20634297838529" lon="10.202088675212595"><ele>1400.0</ele><time>2026-04-27T12:36:31.001Z</time></trkpt><trkpt lat="46.20642401879554" lon="10.202267271261789"><ele>1400.0</ele><time>2026-04-27T12:36:32.001Z</time></trkpt><trkpt lat="46.20648238537912" lon="10.202447116553333"><ele>1400.0</ele><time>2026-04-27T12:36:33.001Z</time></trkpt><trkpt lat="46.20655404146117" lon="10.202637622940827"><ele>1400.0</ele><time>2026-04-27T12:36:34.001Z</time></trkpt><trkpt lat="46.206628812082776" lon="10.20283160259052"><ele>1399.6666666666667</ele><time>2026-04-27T12:36:35.001Z</time></trkpt><trkpt lat="46.20669499181485" lon="10.202992336387135"><ele>1399.3333333333335</ele><time>2026-04-27T12:36:36.001Z</time></trkpt><trkpt lat="46.20674744164088" lon="10.203106603557252"><ele>1399.0</ele><time>2026-04-27T12:36:37.001Z</time></trkpt><trkpt lat="46.206792469934435" lon="10.203181796262962"><ele>1398.6666666666667</ele><time>2026-04-27T12:36:38.001Z</time></trkpt><trkpt lat="46.20682063366754" lon="10.20327121947372"><ele>1398.3333333333333</ele><time>2026-04-27T12:36:40.001Z</time></trkpt><trkpt lat="46.206742661925006" lon="10.203308819699323"><ele>1398.0</ele><time>2026-04-27T12:36:43.001Z</time></trkpt><trkpt lat="46.206705589436055" lon="10.203170182428847"><ele>1392.0</ele><time>2026-04-27T12:36:45.001Z</time></trkpt><trkpt lat="46.20664925750616" lon="10.203063794712198"><ele>1386.0</ele><time>2026-04-27T12:36:46.001Z</time></trkpt><trkpt lat="46.206560954798356" lon="10.202937245187561"><ele>1380.0</ele><time>2026-04-27T12:36:47.001Z</time></trkpt><trkpt lat="46.20647120493725" lon="10.20276201360181"><ele>1374.0</ele><time>2026-04-27T12:36:48.001Z</time></trkpt><trkpt lat="46.20637408037973" lon="10.202600221766644"><ele>1380.5</ele><time>2026-04-27T12:36:49.001Z</time></trkpt><trkpt lat="46.20627004301285" lon="10.202412626572206"><ele>1387.0</ele><time>2026-04-27T12:36:50.001Z</time></trkpt><trkpt lat="46.20618500177054" lon="10.202258004226575"><ele>1393.5</ele><time>2026-04-27T12:36:51.001Z</time></trkpt><trkpt lat="46.20610910157671" lon="10.20211322607116"><ele>1400.0</ele><time>2026-04-27T12:36:52.001Z</time></trkpt><trkpt lat="46.20601462154471" lon="10.20196531632956"><ele>1400.0</ele><time>2026-04-27T12:36:53.001Z</time></trkpt><trkpt lat="46.20592205727909" lon="10.201814915123366"><ele>1400.0</ele><time>2026-04-27T12:36:54.001Z</time></trkpt><trkpt lat="46.20581865704868" lon="10.201663004246841"><ele>1400.0</ele><time>2026-04-27T12:36:55.001Z</time></trkpt><trkpt lat="46.20572507674819" lon="10.201515587709567"><ele>1400.0</ele><time>2026-04-27T12:36:56.001Z</time></trkpt><trkpt lat="46.20563704947021" lon="10.201404481977713"><ele>1406.5</ele><time>2026-04-27T12:36:57.001Z</time></trkpt><trkpt lat="46.20553410755114" lon="10.2013204009061"><ele>1413.0</ele><time>2026-04-27T12:36:58.001Z</time></trkpt><trkpt lat="46.20544779355891" lon="10.201196423801063"><ele>1419.5</ele><time>2026-04-27T12:36:59.001Z</time></trkpt><trkpt lat="46.20536446455237" lon="10.201060487811397"><ele>1426.0</ele><time>2026-04-27T12:37:00.001Z</time></trkpt><trkpt lat="46.20529671207672" lon="10.200905286023117"><ele>1426.0</ele><time>2026-04-27T12:37:01.001Z</time></trkpt><trkpt lat="46.20521736468298" lon="10.20075465836842"><ele>1426.0</ele><time>2026-04-27T12:37:02.001Z</time></trkpt><trkpt lat="46.205122176462105" lon="10.200613848716584"><ele>1426.0</ele><time>2026-04-27T12:37:03.001Z</time></trkpt><trkpt lat="46.20503417314461" lon="10.200511798144186"><ele>1426.0</ele><time>2026-04-27T12:37:04.001Z</time></trkpt><trkpt lat="46.20495245712564" lon="10.200404710596386"><ele>1426.75</ele><time>2026-04-27T12:37:05.001Z</time></trkpt><trkpt lat="46.204864635620126" lon="10.20030430046391"><ele>1427.5</ele><time>2026-04-27T12:37:06.001Z</time></trkpt><trkpt lat="46.2047783117682" lon="10.200204694181807"><ele>1428.25</ele><time>2026-04-27T12:37:07.001Z</time></trkpt><trkpt lat="46.204684727370285" lon="10.200104517045805"><ele>1429.0</ele><time>2026-04-27T12:37:08.001Z</time></trkpt><trkpt lat="46.20459277166762" lon="10.200002067941545"><ele>1429.0</ele><time>2026-04-27T12:37:09.001Z</time></trkpt><trkpt lat="46.20450718089422" lon="10.199882577736078"><ele>1429.0</ele><time>2026-04-27T12:37:10.001Z</time></trkpt><trkpt lat="46.20444045157685" lon="10.199755210233686"><ele>1429.0</ele><time>2026-04-27T12:37:11.001Z</time></trkpt><trkpt lat="46.20439871013785" lon="10.19966772741279"><ele>1429.0</ele><time>2026-04-27T12:37:12.001Z</time></trkpt><trkpt lat="46.20432422317238" lon="10.1996074318084"><ele>1429.0</ele><time>2026-04-27T12:37:13.001Z</time></trkpt><trkpt lat="46.20418469328729" lon="10.199459648925131"><ele>1432.75</ele><time>2026-04-27T12:37:14.001Z</time></trkpt><trkpt lat="46.20407241533072" lon="10.199343751802465"><ele>1436.5</ele><time>2026-04-27T12:37:15.001Z</time></trkpt><trkpt lat="46.20395546517583" lon="10.199220085826004"><ele>1440.25</ele><time>2026-04-27T12:37:16.001Z</time></trkpt><trkpt lat="46.203844410361846" lon="10.199065109494482"><ele>1444.0</ele><time>2026-04-27T12:37:17.001Z</time></trkpt><trkpt lat="46.20373693435583" lon="10.19894016654896"><ele>1435.0</ele><time>2026-04-27T12:37:18.001Z</time></trkpt><trkpt lat="46.20360305658335" lon="10.19879781113018"><ele>1426.0</ele><time>2026-04-27T12:37:19.001Z</time></trkpt><trkpt lat="46.20348765556009" lon="10.198676131503444"><ele>1417.0</ele><time>2026-04-27T12:37:20.001Z</time></trkpt><trkpt lat="46.20338999039114" lon="10.19855939282257"><ele>1408.0</ele><time>2026-04-27T12:37:21.001Z</time></trkpt><trkpt lat="46.203295274793135" lon="10.198449879255636"><ele>1408.0</ele><time>2026-04-27T12:37:22.001Z</time></trkpt><trkpt lat="46.2031949551472" lon="10.198342189554435"><ele>1408.0</ele><time>2026-04-27T12:37:23.001Z</time></trkpt><trkpt lat="46.20311919631817" lon="10.198226498664946"><ele>1408.0</ele><time>2026-04-27T12:37:24.001Z</time></trkpt><trkpt lat="46.2030283860621" lon="10.198149572960903"><ele>1408.0</ele><time>2026-04-27T12:37:26.001Z</time></trkpt><trkpt lat="46.202945121142584" lon="10.198183737468378"><ele>1408.0</ele><time>2026-04-27T12:37:29.001Z</time></trkpt><trkpt lat="46.20293051149072" lon="10.198317635533154"><ele>1408.0</ele><time>2026-04-27T12:37:31.001Z</time></trkpt><trkpt lat="46.20297628453874" lon="10.198385198128532"><ele>1408.0</ele><time>2026-04-27T12:37:32.001Z</time></trkpt><trkpt lat="46.20305630257995" lon="10.198425473589593"><ele>1408.0</ele><time>2026-04-27T12:37:33.001Z</time></trkpt><trkpt lat="46.203128579976244" lon="10.198487075047336"><ele>1408.0</ele><time>2026-04-27T12:37:34.001Z</time></trkpt><trkpt lat="46.20318778857123" lon="10.198565394553027"><ele>1408.0</ele><time>2026-04-27T12:37:35.001Z</time></trkpt><trkpt lat="46.2032560932594" lon="10.198671188233767"><ele>1408.0</ele><time>2026-04-27T12:37:36.001Z</time></trkpt><trkpt lat="46.20332949456484" lon="10.198795704809111"><ele>1408.0</ele><time>2026-04-27T12:37:37.001Z</time></trkpt><trkpt lat="46.20340710943562" lon="10.198925156837932"><ele>1408.0</ele><time>2026-04-27T12:37:38.001Z</time></trkpt><trkpt lat="46.20349679694303" lon="10.19903988976434"><ele>1408.0</ele><time>2026-04-27T12:37:39.001Z</time></trkpt><trkpt lat="46.20357109785159" lon="10.19917019268257"><ele>1408.0</ele><time>2026-04-27T12:37:40.001Z</time></trkpt><trkpt lat="46.20362898084975" lon="10.199312937850994"><ele>1417.0</ele><time>2026-04-27T12:37:41.001Z</time></trkpt><trkpt lat="46.20369342309978" lon="10.199451428270821"><ele>1426.0</ele><time>2026-04-27T12:37:42.001Z</time></trkpt><trkpt lat="46.203766085091814" lon="10.199595846842497"><ele>1435.0</ele><time>2026-04-27T12:37:43.001Z</time></trkpt><trkpt lat="46.20385095775584" lon="10.199726971534739"><ele>1444.0</ele><time>2026-04-27T12:37:44.001Z</time></trkpt><trkpt lat="46.20393424087988" lon="10.199845970351259"><ele>1440.25</ele><time>2026-04-27T12:37:45.001Z</time></trkpt><trkpt lat="46.204034186921874" lon="10.19993887319023"><ele>1436.5</ele><time>2026-04-27T12:37:46.001Z</time></trkpt><trkpt lat="46.20410936551797" lon="10.200072146569724"><ele>1432.75</ele><time>2026-04-27T12:37:47.001Z</time></trkpt><trkpt lat="46.20421979565699" lon="10.20016109475142"><ele>1429.0</ele><time>2026-04-27T12:37:48.001Z</time></trkpt><trkpt lat="46.20430456607662" lon="10.20030979559086"><ele>1429.0</ele><time>2026-04-27T12:37:49.001Z</time></trkpt><trkpt lat="46.20441763461801" lon="10.200445194005995"><ele>1429.0</ele><time>2026-04-27T12:37:50.001Z</time></trkpt><trkpt lat="46.2045060143456" lon="10.200596093495639"><ele>1429.0</ele><time>2026-04-27T12:37:51.001Z</time></trkpt><trkpt lat="46.20460998136105" lon="10.200737808796296"><ele>1429.0</ele><time>2026-04-27T12:37:52.001Z</time></trkpt><trkpt lat="46.204696640544164" lon="10.200876709064897"><ele>1428.25</ele><time>2026-04-27T12:37:53.001Z</time></trkpt><trkpt lat="46.20478538864779" lon="10.201009069839893"><ele>1427.5</ele><time>2026-04-27T12:37:54.001Z</time></trkpt><trkpt lat="46.20484972750153" lon="10.201141018080238"><ele>1426.75</ele><time>2026-04-27T12:37:55.001Z</time></trkpt><trkpt lat="46.204907156117315" lon="10.201286982351801"><ele>1426.0</ele><time>2026-04-27T12:37:56.001Z</time></trkpt><trkpt lat="46.20495952944841" lon="10.20144071122169"><ele>1430.8333333333333</ele><time>2026-04-27T12:37:57.001Z</time></trkpt><trkpt lat="46.20499630054883" lon="10.201581948117765"><ele>1435.6666666666665</ele><time>2026-04-27T12:37:58.001Z</time></trkpt><trkpt lat="46.205031599353994" lon="10.20168459675678"><ele>1440.5</ele><time>2026-04-27T12:37:59.001Z</time></trkpt><trkpt lat="46.20506251839344" lon="10.20176740094062"><ele>1445.3333333333333</ele><time>2026-04-27T12:38:00.001Z</time></trkpt><trkpt lat="46.205077347369844" lon="10.201881199660317"><ele>1450.1666666666667</ele><time>2026-04-27T12:38:03.001Z</time></trkpt><trkpt lat="46.20500294880106" lon="10.201893480796466"><ele>1455.0</ele><time>2026-04-27T12:38:06.001Z</time></trkpt><trkpt lat="46.204991308358764" lon="10.201734792535813"><ele>1455.0</ele><time>2026-04-27T12:38:09.001Z</time></trkpt><trkpt lat="46.204967247276734" lon="10.2016351469363"><ele>1455.0</ele><time>2026-04-27T12:38:10.001Z</time></trkpt><trkpt lat="46.20493879745489" lon="10.201549875148887"><ele>1455.0</ele><time>2026-04-27T12:38:11.001Z</time></trkpt><trkpt lat="46.20490864048218" lon="10.201469608758718"><ele>1455.0</ele><time>2026-04-27T12:38:12.001Z</time></trkpt><trkpt lat="46.204863702722314" lon="10.201377397808097"><ele>1455.0</ele><time>2026-04-27T12:38:13.001Z</time></trkpt><trkpt lat="46.20480541346492" lon="10.201284366147691"><ele>1455.0</ele><time>2026-04-27T12:38:14.001Z</time></trkpt><trkpt lat="46.20474118413062" lon="10.201190093875434"><ele>1457.0</ele><time>2026-04-27T12:38:15.001Z</time></trkpt><trkpt lat="46.20466117290695" lon="10.201119756835874"><ele>1459.0</ele><time>2026-04-27T12:38:16.001Z</time></trkpt><trkpt lat="46.20457015035458" lon="10.201065097392737"><ele>1461.0</ele><time>2026-04-27T12:38:17.001Z</time></trkpt><trkpt lat="46.204461810109336" lon="10.201008234072871"><ele>1463.0</ele><time>2026-04-27T12:38:18.001Z</time></trkpt><trkpt lat="46.20435835772582" lon="10.200954160956776"><ele>1465.0</ele><time>2026-04-27T12:38:19.001Z</time></trkpt><trkpt lat="46.20423793824921" lon="10.200889168756122"><ele>1465.0</ele><time>2026-04-27T12:38:20.001Z</time></trkpt><trkpt lat="46.204132216914" lon="10.200801985567846"><ele>1465.0</ele><time>2026-04-27T12:38:21.001Z</time></trkpt><trkpt lat="46.204016255488476" lon="10.200706538874378"><ele>1465.0</ele><time>2026-04-27T12:38:22.001Z</time></trkpt><trkpt lat="46.20391141752093" lon="10.200606442709196"><ele>1465.0</ele><time>2026-04-27T12:38:23.001Z</time></trkpt><trkpt lat="46.20382215502243" lon="10.200499805354942"><ele>1467.8</ele><time>2026-04-27T12:38:24.001Z</time></trkpt><trkpt lat="46.20374817787171" lon="10.200387520567697"><ele>1470.6</ele><time>2026-04-27T12:38:25.001Z</time></trkpt><trkpt lat="46.203672534864026" lon="10.20023385875495"><ele>1473.4</ele><time>2026-04-27T12:38:26.001Z</time></trkpt><trkpt lat="46.20360794060525" lon="10.20010354611262"><ele>1476.2</ele><time>2026-04-27T12:38:27.001Z</time></trkpt><trkpt lat="46.20353501506257" lon="10.200014157476557"><ele>1479.0</ele><time>2026-04-27T12:38:28.001Z</time></trkpt><trkpt lat="46.20345656687453" lon="10.199943420717442"><ele>1479.0</ele><time>2026-04-27T12:38:29.001Z</time></trkpt><trkpt lat="46.20336668274509" lon="10.199877279489556"><ele>1479.0</ele><time>2026-04-27T12:38:30.001Z</time></trkpt><trkpt lat="46.203268482994865" lon="10.199831554600859"><ele>1479.0</ele><time>2026-04-27T12:38:31.001Z</time></trkpt><trkpt lat="46.20317930893821" lon="10.199788539123237"><ele>1479.0</ele><time>2026-04-27T12:38:32.001Z</time></trkpt><trkpt lat="46.20308223922337" lon="10.199764071716647"><ele>1479.0</ele><time>2026-04-27T12:38:33.001Z</time></trkpt><trkpt lat="46.20298722832464" lon="10.199748514822403"><ele>1476.4</ele><time>2026-04-27T12:38:34.001Z</time></trkpt><trkpt lat="46.20288245813784" lon="10.19973849591006"><ele>1473.8000000000002</ele><time>2026-04-27T12:38:35.001Z</time></trkpt><trkpt lat="46.20278173092575" lon="10.199685439645062"><ele>1471.1999999999998</ele><time>2026-04-27T12:38:36.001Z</time></trkpt><trkpt lat="46.20269755673709" lon="10.199605568452014"><ele>1468.6</ele><time>2026-04-27T12:38:37.001Z</time></trkpt><trkpt lat="46.20261550621621" lon="10.199514316650966"><ele>1466.0</ele><time>2026-04-27T12:38:38.001Z</time></trkpt><trkpt lat="46.20252816381807" lon="10.199463508777967"><ele>1466.0</ele><time>2026-04-27T12:38:39.001Z</time></trkpt><trkpt lat="46.202442382617576" lon="10.199447910864114"><ele>1466.0</ele><time>2026-04-27T12:38:40.001Z</time></trkpt><trkpt lat="46.20237005263291" lon="10.199430666056562"><ele>1466.0</ele><time>2026-04-27T12:38:41.001Z</time></trkpt><trkpt lat="46.20232263317971" lon="10.19937010481487"><ele>1466.0</ele><time>2026-04-27T12:38:42.001Z</time></trkpt><trkpt lat="46.2022473500432" lon="10.199278296656919"><ele>1466.0</ele><time>2026-04-27T12:38:44.001Z</time></trkpt><trkpt lat="46.20219448943052" lon="10.199228414921015"><ele>1466.0</ele><time>2026-04-27T12:38:46.001Z</time></trkpt><trkpt lat="46.20212734394948" lon="10.199284539771382"><ele>1468.0</ele><time>2026-04-27T12:38:47.001Z</time></trkpt><trkpt lat="46.20200310026818" lon="10.199387719567717"><ele>1470.0</ele><time>2026-04-27T12:38:49.001Z</time></trkpt><trkpt lat="46.20193307938296" lon="10.199455684759739"><ele>1472.0</ele><time>2026-04-27T12:38:50.001Z</time></trkpt><trkpt lat="46.20185956204982" lon="10.199520808039795"><ele>1474.0</ele><time>2026-04-27T12:38:51.001Z</time></trkpt><trkpt lat="46.201776254250454" lon="10.199579025754542"><ele>1476.0</ele><time>2026-04-27T12:38:52.001Z</time></trkpt><trkpt lat="46.201692911304" lon="10.199638639876111"><ele>1476.0</ele><time>2026-04-27T12:38:53.001Z</time></trkpt><trkpt lat="46.201623948696664" lon="10.199684307628088"><ele>1476.0</ele><time>2026-04-27T12:38:54.001Z</time></trkpt><trkpt lat="46.20151394951302" lon="10.199706381173803"><ele>1476.0</ele><time>2026-04-27T12:38:56.001Z</time></trkpt><trkpt lat="46.20142587167572" lon="10.199604283964478"><ele>1476.0</ele><time>2026-04-27T12:38:58.001Z</time></trkpt><trkpt lat="46.201383698504536" lon="10.19953033274411"><ele>1476.0</ele><time>2026-04-27T12:38:59.001Z</time></trkpt><trkpt lat="46.20133996653071" lon="10.19945841914563"><ele>1476.0</ele><time>2026-04-27T12:39:00.001Z</time></trkpt><trkpt lat="46.20130749695119" lon="10.199369771917462"><ele>1482.1999999999998</ele><time>2026-04-27T12:39:01.001Z</time></trkpt><trkpt lat="46.201267374453764" lon="10.199277448791175"><ele>1488.3999999999999</ele><time>2026-04-27T12:39:02.001Z</time></trkpt><trkpt lat="46.20123013758055" lon="10.199193567367358"><ele>1494.6</ele><time>2026-04-27T12:39:03.001Z</time></trkpt><trkpt lat="46.20114465460487" lon="10.199069087884645"><ele>1500.8</ele><time>2026-04-27T12:39:05.001Z</time></trkpt><trkpt lat="46.20104376728953" lon="10.198940715594722"><ele>1507.0</ele><time>2026-04-27T12:39:07.001Z</time></trkpt><trkpt lat="46.20100184334475" lon="10.198829072738974"><ele>1507.0</ele><time>2026-04-27T12:39:08.001Z</time></trkpt><trkpt lat="46.20097875846322" lon="10.198737757311697"><ele>1507.0</ele><time>2026-04-27T12:39:09.001Z</time></trkpt><trkpt lat="46.2009576535564" lon="10.198647291076064"><ele>1507.0</ele><time>2026-04-27T12:39:11.001Z</time></trkpt><trkpt lat="46.20090501581629" lon="10.198519500432793"><ele>1507.0</ele><time>2026-04-27T12:39:25.001Z</time></trkpt><trkpt lat="46.200897155966324" lon="10.19841891327323"><ele>1507.0</ele><time>2026-04-27T12:39:26.001Z</time></trkpt><trkpt lat="46.200893206525826" lon="10.198296499454905"><ele>1507.0</ele><time>2026-04-27T12:39:27.001Z</time></trkpt><trkpt lat="46.200902335821205" lon="10.198161178337394"><ele>1505.1999999999998</ele><time>2026-04-27T12:39:28.001Z</time></trkpt><trkpt lat="46.200887492842355" lon="10.197986381547725"><ele>1503.4</ele><time>2026-04-27T12:39:29.001Z</time></trkpt><trkpt lat="46.200909900232205" lon="10.19783049524271"><ele>1501.6</ele><time>2026-04-27T12:39:30.001Z</time></trkpt><trkpt lat="46.20092480938957" lon="10.197686047370011"><ele>1499.8000000000002</ele><time>2026-04-27T12:39:31.001Z</time></trkpt><trkpt lat="46.20094444989842" lon="10.197582112150844"><ele>1498.0</ele><time>2026-04-27T12:39:32.001Z</time></trkpt><trkpt lat="46.200918070817465" lon="10.197393107811333"><ele>1497.2</ele><time>2026-04-27T12:39:34.001Z</time></trkpt><trkpt lat="46.20088636392668" lon="10.197281576487875"><ele>1496.4</ele><time>2026-04-27T12:39:35.001Z</time></trkpt><trkpt lat="46.20085702923799" lon="10.197166633893618"><ele>1495.6000000000001</ele><time>2026-04-27T12:39:36.001Z</time></trkpt><trkpt lat="46.200836863450995" lon="10.197045478425501"><ele>1494.8000000000002</ele><time>2026-04-27T12:39:37.001Z</time></trkpt><trkpt lat="46.200805389241616" lon="10.196904216436849"><ele>1494.0</ele><time>2026-04-27T12:39:38.001Z</time></trkpt><trkpt lat="46.20082005083169" lon="10.196762908958847"><ele>1494.0</ele><time>2026-04-27T12:39:39.001Z</time></trkpt><trkpt lat="46.200805716073994" lon="10.196617725831477"><ele>1494.0</ele><time>2026-04-27T12:39:40.001Z</time></trkpt><trkpt lat="46.200800130783506" lon="10.196502099560654"><ele>1494.0</ele><time>2026-04-27T12:39:41.001Z</time></trkpt><trkpt lat="46.20078690076178" lon="10.196398021687429"><ele>1494.0</ele><time>2026-04-27T12:39:42.001Z</time></trkpt><trkpt lat="46.20076789882262" lon="10.196287479779013"><ele>1494.0</ele><time>2026-04-27T12:39:43.001Z</time></trkpt><trkpt lat="46.20073022392186" lon="10.196167244343265"><ele>1494.0</ele><time>2026-04-27T12:39:44.001Z</time></trkpt><trkpt lat="46.20068861647186" lon="10.196036561616626"><ele>1496.25</ele><time>2026-04-27T12:39:45.001Z</time></trkpt><trkpt lat="46.20064299263528" lon="10.195877285636879"><ele>1498.5</ele><time>2026-04-27T12:39:46.001Z</time></trkpt><trkpt lat="46.2006063774751" lon="10.19574126388923"><ele>1500.75</ele><time>2026-04-27T12:39:47.001Z</time></trkpt><trkpt lat="46.20055578475232" lon="10.195606725981023"><ele>1503.0</ele><time>2026-04-27T12:39:48.001Z</time></trkpt><trkpt lat="46.20048500487386" lon="10.195443380269932"><ele>1503.0</ele><time>2026-04-27T12:39:49.001Z</time></trkpt><trkpt lat="46.20042406453891" lon="10.195276338425064"><ele>1503.0</ele><time>2026-04-27T12:39:50.001Z</time></trkpt><trkpt lat="46.20038523531094" lon="10.195135294776316"><ele>1503.0</ele><time>2026-04-27T12:39:51.001Z</time></trkpt><trkpt lat="46.20033550923868" lon="10.195026835852515"><ele>1503.0</ele><time>2026-04-27T12:39:52.001Z</time></trkpt><trkpt lat="46.20028738277158" lon="10.194935398439622"><ele>1503.0</ele><time>2026-04-27T12:39:53.001Z</time></trkpt><trkpt lat="46.200215127309754" lon="10.194851865857885"><ele>1498.75</ele><time>2026-04-27T12:39:54.001Z</time></trkpt><trkpt lat="46.20012979562824" lon="10.194761076162559"><ele>1494.5</ele><time>2026-04-27T12:39:55.001Z</time></trkpt><trkpt lat="46.200074708935055" lon="10.194623389082373"><ele>1490.25</ele><time>2026-04-27T12:39:56.001Z</time></trkpt><trkpt lat="46.20000094452055" lon="10.194493716263949"><ele>1486.0</ele><time>2026-04-27T12:39:57.001Z</time></trkpt><trkpt lat="46.19994926657364" lon="10.194326036954033"><ele>1486.0</ele><time>2026-04-27T12:39:58.001Z</time></trkpt><trkpt lat="46.199882470688586" lon="10.1941698317481"><ele>1486.0</ele><time>2026-04-27T12:39:59.001Z</time></trkpt><trkpt lat="46.199805456598426" lon="10.194032574314384"><ele>1486.0</ele><time>2026-04-27T12:40:00.001Z</time></trkpt><trkpt lat="46.19971808607853" lon="10.193879107361719"><ele>1486.0</ele><time>2026-04-27T12:40:01.001Z</time></trkpt><trkpt lat="46.19962970558589" lon="10.19372077936517"><ele>1494.25</ele><time>2026-04-27T12:40:02.001Z</time></trkpt><trkpt lat="46.199543771420544" lon="10.1935512673386"><ele>1502.5</ele><time>2026-04-27T12:40:03.001Z</time></trkpt><trkpt lat="46.19946000873517" lon="10.193393179698628"><ele>1510.75</ele><time>2026-04-27T12:40:04.001Z</time></trkpt><trkpt lat="46.19940900931342" lon="10.193297144167003"><ele>1519.0</ele><time>2026-04-27T12:40:05.001Z</time></trkpt><trkpt lat="46.19934971183091" lon="10.193206776676114"><ele>1520.0</ele><time>2026-04-27T12:40:06.001Z</time></trkpt><trkpt lat="46.19928634971751" lon="10.193147474864661"><ele>1521.0</ele><time>2026-04-27T12:40:07.001Z</time></trkpt><trkpt lat="46.19921290650726" lon="10.193054874100122"><ele>1522.0</ele><time>2026-04-27T12:40:08.001Z</time></trkpt><trkpt lat="46.19915002833786" lon="10.193038585201187"><ele>1523.0</ele><time>2026-04-27T12:40:09.001Z</time></trkpt><trkpt lat="46.19906370822325" lon="10.193006915620396"><ele>1524.0</ele><time>2026-04-27T12:40:10Z</time></trkpt><trkpt lat="46.19892578079379" lon="10.192917127105892"><ele>1524.0</ele><time>2026-04-27T12:40:12Z</time></trkpt><trkpt lat="46.19885149746503" lon="10.192816552293978"><ele>1524.0</ele><time>2026-04-27T12:40:13Z</time></trkpt><trkpt lat="46.19880282183316" lon="10.192712196908934"><ele>1524.0</ele><time>2026-04-27T12:40:14Z</time></trkpt><trkpt lat="46.19876600860968" lon="10.192583950906606"><ele>1524.0</ele><time>2026-04-27T12:40:15Z</time></trkpt><trkpt lat="46.198716672864705" lon="10.192498130558135"><ele>1524.0</ele><time>2026-04-27T12:40:16Z</time></trkpt><trkpt lat="46.19865169321269" lon="10.192422584581005"><ele>1524.0</ele><time>2026-04-27T12:40:17Z</time></trkpt><trkpt lat="46.198563102752445" lon="10.192344784625968"><ele>1521.8000000000002</ele><time>2026-04-27T12:40:18Z</time></trkpt><trkpt lat="46.19848099120123" lon="10.192248213918225"><ele>1519.6000000000001</ele><time>2026-04-27T12:40:19Z</time></trkpt><trkpt lat="46.198434533812645" lon="10.192127115433554"><ele>1517.4</ele><time>2026-04-27T12:40:20Z</time></trkpt><trkpt lat="46.19835944219764" lon="10.19203750325071"><ele>1515.2</ele><time>2026-04-27T12:40:21Z</time></trkpt><trkpt lat="46.19828312136755" lon="10.191900075099253"><ele>1513.0</ele><time>2026-04-27T12:40:22Z</time></trkpt><trkpt lat="46.19823141275004" lon="10.191742120534986"><ele>1515.0</ele><time>2026-04-27T12:40:23Z</time></trkpt><trkpt lat="46.19814446411451" lon="10.19157848174524"><ele>1517.0</ele><time>2026-04-27T12:40:24Z</time></trkpt><trkpt lat="46.19806900474454" lon="10.191454896496541"><ele>1519.0</ele><time>2026-04-27T12:40:25Z</time></trkpt><trkpt lat="46.197950269419266" lon="10.19130234592191"><ele>1521.0</ele><time>2026-04-27T12:40:26Z</time></trkpt><trkpt lat="46.197832846145424" lon="10.191151663064856"><ele>1521.0</ele><time>2026-04-27T12:40:27Z</time></trkpt><trkpt lat="46.197704682194576" lon="10.19099573890675"><ele>1521.0</ele><time>2026-04-27T12:40:28Z</time></trkpt><trkpt lat="46.197574780757144" lon="10.190832324971291"><ele>1521.0</ele><time>2026-04-27T12:40:29Z</time></trkpt><trkpt lat="46.19744548440954" lon="10.190679749301616"><ele>1524.6666666666667</ele><time>2026-04-27T12:40:30Z</time></trkpt><trkpt lat="46.19732731257677" lon="10.190538952665612"><ele>1528.3333333333335</ele><time>2026-04-27T12:40:31Z</time></trkpt><trkpt lat="46.19719755871155" lon="10.190413848670975"><ele>1532.0</ele><time>2026-04-27T12:40:32Z</time></trkpt><trkpt lat="46.1970305384174" lon="10.190320754805173"><ele>1532.0</ele><time>2026-04-27T12:40:33Z</time></trkpt><trkpt lat="46.19685431444204" lon="10.190201685664956"><ele>1532.0</ele><time>2026-04-27T12:40:34Z</time></trkpt><trkpt lat="46.196687140827464" lon="10.190086876957574"><ele>1532.0</ele><time>2026-04-27T12:40:35Z</time></trkpt><trkpt lat="46.196526292090454" lon="10.18996129244382"><ele>1538.3333333333335</ele><time>2026-04-27T12:40:36Z</time></trkpt><trkpt lat="46.19639919428794" lon="10.189796041851327"><ele>1544.6666666666667</ele><time>2026-04-27T12:40:37Z</time></trkpt><trkpt lat="46.19626073625784" lon="10.189660857856978"><ele>1551.0</ele><time>2026-04-27T12:40:38Z</time></trkpt><trkpt lat="46.19613024946653" lon="10.189498431631991"><ele>1551.0</ele><time>2026-04-27T12:40:39Z</time></trkpt><trkpt lat="46.196015090837555" lon="10.189321176343853"><ele>1551.0</ele><time>2026-04-27T12:40:40Z</time></trkpt><trkpt lat="46.195903070887546" lon="10.189155749324991"><ele>1551.0</ele><time>2026-04-27T12:40:41Z</time></trkpt><trkpt lat="46.19579705680337" lon="10.188985819807513"><ele>1544.6666666666667</ele><time>2026-04-27T12:40:42Z</time></trkpt><trkpt lat="46.195705793131935" lon="10.18880024019218"><ele>1538.3333333333335</ele><time>2026-04-27T12:40:43Z</time></trkpt><trkpt lat="46.195616614556215" lon="10.188607701329316"><ele>1532.0</ele><time>2026-04-27T12:40:44Z</time></trkpt><trkpt lat="46.19551557369987" lon="10.188424062328869"><ele>1542.6666666666667</ele><time>2026-04-27T12:40:45Z</time></trkpt><trkpt lat="46.19545420045911" lon="10.18819933367692"><ele>1553.3333333333335</ele><time>2026-04-27T12:40:46Z</time></trkpt><trkpt lat="46.19538274250878" lon="10.187977715195329"><ele>1564.0</ele><time>2026-04-27T12:40:47Z</time></trkpt><trkpt lat="46.19531047487764" lon="10.187750718466742"><ele>1564.0</ele><time>2026-04-27T12:40:48Z</time></trkpt><trkpt lat="46.19522239566117" lon="10.187547664754222"><ele>1564.0</ele><time>2026-04-27T12:40:49Z</time></trkpt><trkpt lat="46.19516152402585" lon="10.187353583279155"><ele>1564.0</ele><time>2026-04-27T12:40:50Z</time></trkpt><trkpt lat="46.195076776034554" lon="10.187189450454374"><ele>1559.6666666666667</ele><time>2026-04-27T12:40:51Z</time></trkpt><trkpt lat="46.19495709818697" lon="10.187009616549155"><ele>1555.3333333333335</ele><time>2026-04-27T12:40:52Z</time></trkpt><trkpt lat="46.19483606123268" lon="10.18679696677903"><ele>1551.0</ele><time>2026-04-27T12:40:53Z</time></trkpt><trkpt lat="46.19468065166434" lon="10.186591090231039"><ele>1560.3333333333335</ele><time>2026-04-27T12:40:54Z</time></trkpt><trkpt lat="46.19454152825647" lon="10.186372916761686"><ele>1569.6666666666667</ele><time>2026-04-27T12:40:55Z</time></trkpt><trkpt lat="46.194408525850996" lon="10.18615228576697"><ele>1579.0</ele><time>2026-04-27T12:40:56Z</time></trkpt><trkpt lat="46.19430537929758" lon="10.185985598958842"><ele>1579.0</ele><time>2026-04-27T12:40:57Z</time></trkpt><trkpt lat="46.19421796497744" lon="10.185827524943333"><ele>1579.0</ele><time>2026-04-27T12:40:58Z</time></trkpt><trkpt lat="46.19414487053627" lon="10.18563558591761"><ele>1579.0</ele><time>2026-04-27T12:40:59Z</time></trkpt><trkpt lat="46.194074333248444" lon="10.185428194882615"><ele>1578.75</ele><time>2026-04-27T12:41:00Z</time></trkpt><trkpt lat="46.19401147584927" lon="10.185230764033784"><ele>1578.5</ele><time>2026-04-27T12:41:01Z</time></trkpt><trkpt lat="46.19393576068607" lon="10.185040142549589"><ele>1578.25</ele><time>2026-04-27T12:41:02Z</time></trkpt><trkpt lat="46.19387869339203" lon="10.1848642567218"><ele>1578.0</ele><time>2026-04-27T12:41:03Z</time></trkpt><trkpt lat="46.19380696184103" lon="10.184728745624506"><ele>1578.0</ele><time>2026-04-27T12:41:04Z</time></trkpt><trkpt lat="46.19371897518005" lon="10.184614386230253"><ele>1578.0</ele><time>2026-04-27T12:41:05Z</time></trkpt><trkpt lat="46.19360597438004" lon="10.184528792974024"><ele>1578.0</ele><time>2026-04-27T12:41:06Z</time></trkpt><trkpt lat="46.19349761854639" lon="10.184447219971267"><ele>1578.0</ele><time>2026-04-27T12:41:07Z</time></trkpt><trkpt lat="46.19338449851352" lon="10.184366375438714"><ele>1578.0</ele><time>2026-04-27T12:41:08.001Z</time></trkpt><trkpt lat="46.19326295194426" lon="10.184283767511372"><ele>1578.0</ele><time>2026-04-27T12:41:09.001Z</time></trkpt><trkpt lat="46.193183344062504" lon="10.184186398677786"><ele>1578.0</ele><time>2026-04-27T12:41:10.001Z</time></trkpt><trkpt lat="46.19311188596121" lon="10.184073343192555"><ele>1578.0</ele><time>2026-04-27T12:41:11.001Z</time></trkpt><trkpt lat="46.19305003575439" lon="10.183929519846405"><ele>1585.75</ele><time>2026-04-27T12:41:12.001Z</time></trkpt><trkpt lat="46.19297321296902" lon="10.183764512256761"><ele>1593.5</ele><time>2026-04-27T12:41:13.001Z</time></trkpt><trkpt lat="46.19289939428047" lon="10.183579027027946"><ele>1601.25</ele><time>2026-04-27T12:41:14.001Z</time></trkpt><trkpt lat="46.19283574804468" lon="10.18339203947871"><ele>1609.0</ele><time>2026-04-27T12:41:15.001Z</time></trkpt><trkpt lat="46.192784401405184" lon="10.183198263707308"><ele>1606.0</ele><time>2026-04-27T12:41:16.001Z</time></trkpt><trkpt lat="46.19274098659832" lon="10.18298949823371"><ele>1603.0</ele><time>2026-04-27T12:41:17.001Z</time></trkpt><trkpt lat="46.192696062258655" lon="10.18276267962405"><ele>1600.0</ele><time>2026-04-27T12:41:18.001Z</time></trkpt><trkpt lat="46.19265040624283" lon="10.182514223448916"><ele>1595.6666666666667</ele><time>2026-04-27T12:41:19.001Z</time></trkpt><trkpt lat="46.19260130135895" lon="10.182268035005086"><ele>1591.3333333333335</ele><time>2026-04-27T12:41:20.001Z</time></trkpt><trkpt lat="46.19254752529612" lon="10.182033588860962"><ele>1587.0</ele><time>2026-04-27T12:41:21.001Z</time></trkpt><trkpt lat="46.19248243785127" lon="10.18183344712773"><ele>1587.0</ele><time>2026-04-27T12:41:22.001Z</time></trkpt><trkpt lat="46.19244377980072" lon="10.181619500603162"><ele>1587.0</ele><time>2026-04-27T12:41:23.001Z</time></trkpt><trkpt lat="46.19241071306786" lon="10.181366117144844"><ele>1587.0</ele><time>2026-04-27T12:41:24.001Z</time></trkpt><trkpt lat="46.19237622875523" lon="10.181100381685338"><ele>1596.6666666666665</ele><time>2026-04-27T12:41:25.001Z</time></trkpt><trkpt lat="46.192334969240946" lon="10.180827011280247"><ele>1606.3333333333333</ele><time>2026-04-27T12:41:26.001Z</time></trkpt><trkpt lat="46.192282924827715" lon="10.180544632182553"><ele>1616.0</ele><time>2026-04-27T12:41:27.001Z</time></trkpt><trkpt lat="46.19222104767748" lon="10.180250769158734"><ele>1616.0</ele><time>2026-04-27T12:41:28.001Z</time></trkpt><trkpt lat="46.19216201298149" lon="10.179954255235977"><ele>1616.0</ele><time>2026-04-27T12:41:29.001Z</time></trkpt><trkpt lat="46.19209920699498" lon="10.179658015851684"><ele>1616.0</ele><time>2026-04-27T12:41:30.001Z</time></trkpt><trkpt lat="46.192045568334436" lon="10.17939149394381"><ele>1610.3333333333333</ele><time>2026-04-27T12:41:31.001Z</time></trkpt><trkpt lat="46.19197928625475" lon="10.179161404812254"><ele>1604.6666666666665</ele><time>2026-04-27T12:41:32.001Z</time></trkpt><trkpt lat="46.19192888098083" lon="10.178959756011864"><ele>1599.0</ele><time>2026-04-27T12:41:33.001Z</time></trkpt><trkpt lat="46.191929333676484" lon="10.178765241582093"><ele>1595.5</ele><time>2026-04-27T12:41:34.001Z</time></trkpt><trkpt lat="46.191889397809" lon="10.178596932230942"><ele>1592.0</ele><time>2026-04-27T12:41:35.001Z</time></trkpt><trkpt lat="46.19184960963847" lon="10.178449956151724"><ele>1588.5</ele><time>2026-04-27T12:41:36.001Z</time></trkpt><trkpt lat="46.19179112475068" lon="10.178317242737231"><ele>1585.0</ele><time>2026-04-27T12:41:37.001Z</time></trkpt><trkpt lat="46.19171397056839" lon="10.178190835096174"><ele>1585.0</ele><time>2026-04-27T12:41:38.001Z</time></trkpt><trkpt lat="46.19162316077122" lon="10.178094796949454"><ele>1585.0</ele><time>2026-04-27T12:41:39.001Z</time></trkpt><trkpt lat="46.19152701014186" lon="10.178046600953891"><ele>1585.0</ele><time>2026-04-27T12:41:40.001Z</time></trkpt><trkpt lat="46.191430284016676" lon="10.17803991549567"><ele>1585.0</ele><time>2026-04-27T12:41:41.001Z</time></trkpt><trkpt lat="46.191339373639444" lon="10.178043231803056"><ele>1585.0</ele><time>2026-04-27T12:41:42.001Z</time></trkpt><trkpt lat="46.19126560267802" lon="10.17811825154118"><ele>1586.2</ele><time>2026-04-27T12:41:43.001Z</time></trkpt><trkpt lat="46.19118271520023" lon="10.178250643270168"><ele>1587.4</ele><time>2026-04-27T12:41:44.001Z</time></trkpt><trkpt lat="46.19112327704853" lon="10.178387221789098"><ele>1588.6</ele><time>2026-04-27T12:41:45.001Z</time></trkpt><trkpt lat="46.19107074195284" lon="10.178530743038468"><ele>1589.8</ele><time>2026-04-27T12:41:46.001Z</time></trkpt><trkpt lat="46.19099730651066" lon="10.178617723829166"><ele>1591.0</ele><time>2026-04-27T12:41:47.001Z</time></trkpt><trkpt lat="46.190935254422534" lon="10.178688871904392"><ele>1591.0</ele><time>2026-04-27T12:41:48.001Z</time></trkpt><trkpt lat="46.19080415256395" lon="10.178673380746702"><ele>1591.0</ele><time>2026-04-27T12:41:50.001Z</time></trkpt><trkpt lat="46.19072644009131" lon="10.178654303519107"><ele>1591.0</ele><time>2026-04-27T12:41:51.001Z</time></trkpt><trkpt lat="46.19067855396485" lon="10.178551406195806"><ele>1591.0</ele><time>2026-04-27T12:41:52.001Z</time></trkpt><trkpt lat="46.19063001520005" lon="10.178446990483705"><ele>1591.0</ele><time>2026-04-27T12:41:53.001Z</time></trkpt><trkpt lat="46.19056912664842" lon="10.178359620599496"><ele>1592.1999999999998</ele><time>2026-04-27T12:41:54.001Z</time></trkpt><trkpt lat="46.190478702452346" lon="10.178310823584864"><ele>1593.3999999999999</ele><time>2026-04-27T12:41:55.001Z</time></trkpt><trkpt lat="46.19038285167941" lon="10.178284719725912"><ele>1594.6</ele><time>2026-04-27T12:41:56.001Z</time></trkpt><trkpt lat="46.19029729083647" lon="10.178296043361875"><ele>1595.8</ele><time>2026-04-27T12:41:57.001Z</time></trkpt><trkpt lat="46.19020613583154" lon="10.178311516159743"><ele>1597.0</ele><time>2026-04-27T12:41:58.001Z</time></trkpt><trkpt lat="46.19010618457526" lon="10.17835952558481"><ele>1597.0</ele><time>2026-04-27T12:41:59.001Z</time></trkpt><trkpt lat="46.18999683819135" lon="10.178412397263314"><ele>1597.0</ele><time>2026-04-27T12:42:00.001Z</time></trkpt><trkpt lat="46.18987828248243" lon="10.178472882300268"><ele>1597.0</ele><time>2026-04-27T12:42:01.001Z</time></trkpt><trkpt lat="46.18975825219215" lon="10.178544219707677"><ele>1597.0</ele><time>2026-04-27T12:42:02.001Z</time></trkpt><trkpt lat="46.18963765964175" lon="10.17858535495743"><ele>1596.5</ele><time>2026-04-27T12:42:03.001Z</time></trkpt><trkpt lat="46.189508042078984" lon="10.17860884685295"><ele>1596.0</ele><time>2026-04-27T12:42:04.001Z</time></trkpt><trkpt lat="46.18936284264859" lon="10.178616158675656"><ele>1595.5</ele><time>2026-04-27T12:42:05.001Z</time></trkpt><trkpt lat="46.18920994616135" lon="10.178604960420136"><ele>1595.0</ele><time>2026-04-27T12:42:06.001Z</time></trkpt><trkpt lat="46.1890493923725" lon="10.178579752219532"><ele>1596.6666666666665</ele><time>2026-04-27T12:42:07.001Z</time></trkpt><trkpt lat="46.18888878680069" lon="10.178512507415665"><ele>1598.3333333333335</ele><time>2026-04-27T12:42:08.001Z</time></trkpt><trkpt lat="46.188728151287556" lon="10.178449971116356"><ele>1600.0</ele><time>2026-04-27T12:42:09.001Z</time></trkpt><trkpt lat="46.18855176011662" lon="10.178392989191243"><ele>1600.0</ele><time>2026-04-27T12:42:10.001Z</time></trkpt><trkpt lat="46.188367235715276" lon="10.178361468721269"><ele>1600.0</ele><time>2026-04-27T12:42:11.001Z</time></trkpt><trkpt lat="46.18818101895553" lon="10.17832719078606"><ele>1600.0</ele><time>2026-04-27T12:42:12.001Z</time></trkpt><trkpt lat="46.188017525887986" lon="10.1783099453391"><ele>1599.75</ele><time>2026-04-27T12:42:13.001Z</time></trkpt><trkpt lat="46.18786529113281" lon="10.178308229940592"><ele>1599.5</ele><time>2026-04-27T12:42:14.001Z</time></trkpt><trkpt lat="46.187719657796436" lon="10.17830530249077"><ele>1599.25</ele><time>2026-04-27T12:42:15.001Z</time></trkpt><trkpt lat="46.187593488608364" lon="10.178268844638675"><ele>1599.0</ele><time>2026-04-27T12:42:16.001Z</time></trkpt><trkpt lat="46.18747239913705" lon="10.178228606946226"><ele>1598.5</ele><time>2026-04-27T12:42:17.001Z</time></trkpt><trkpt lat="46.18733794161735" lon="10.178154442417313"><ele>1598.0</ele><time>2026-04-27T12:42:18.001Z</time></trkpt><trkpt lat="46.1872002993021" lon="10.17807230226053"><ele>1597.5</ele><time>2026-04-27T12:42:19.001Z</time></trkpt><trkpt lat="46.18706936827087" lon="10.178038479872512"><ele>1597.0</ele><time>2026-04-27T12:42:20.001Z</time></trkpt><trkpt lat="46.18692860528608" lon="10.178003352306296"><ele>1597.0</ele><time>2026-04-27T12:42:21.001Z</time></trkpt><trkpt lat="46.18676658638484" lon="10.178011060291695"><ele>1597.0</ele><time>2026-04-27T12:42:22.001Z</time></trkpt><trkpt lat="46.18661058887692" lon="10.178036290165483"><ele>1597.0</ele><time>2026-04-27T12:42:23.001Z</time></trkpt><trkpt lat="46.18644535032067" lon="10.178081625607946"><ele>1596.0</ele><time>2026-04-27T12:42:24.001Z</time></trkpt><trkpt lat="46.18626910523759" lon="10.178144131848564"><ele>1595.0</ele><time>2026-04-27T12:42:25.001Z</time></trkpt><trkpt lat="46.18609101212999" lon="10.178204476254992"><ele>1594.0</ele><time>2026-04-27T12:42:26.001Z</time></trkpt><trkpt lat="46.18592797902868" lon="10.178263756026512"><ele>1594.0</ele><time>2026-04-27T12:42:27.001Z</time></trkpt><trkpt lat="46.18578419676057" lon="10.17833152238081"><ele>1594.0</ele><time>2026-04-27T12:42:28.001Z</time></trkpt><trkpt lat="46.185661875865264" lon="10.178414738039875"><ele>1594.0</ele><time>2026-04-27T12:42:29.001Z</time></trkpt><trkpt lat="46.185544546982555" lon="10.178526193294664"><ele>1594.0</ele><time>2026-04-27T12:42:30.001Z</time></trkpt><trkpt lat="46.18540647281805" lon="10.178633627516456"><ele>1593.3333333333335</ele><time>2026-04-27T12:42:31.001Z</time></trkpt><trkpt lat="46.185269237456694" lon="10.178769537365298"><ele>1592.6666666666665</ele><time>2026-04-27T12:42:32Z</time></trkpt><trkpt lat="46.18513944724954" lon="10.178929584654894"><ele>1592.0</ele><time>2026-04-27T12:42:33Z</time></trkpt><trkpt lat="46.1850123433884" lon="10.179037984920955"><ele>1592.0</ele><time>2026-04-27T12:42:34Z</time></trkpt><trkpt lat="46.18491815030325" lon="10.17918481505398"><ele>1592.0</ele><time>2026-04-27T12:42:35Z</time></trkpt><trkpt lat="46.18484891198306" lon="10.179336664326572"><ele>1592.0</ele><time>2026-04-27T12:42:36Z</time></trkpt><trkpt lat="46.18480741407347" lon="10.179520891492047"><ele>1592.0</ele><time>2026-04-27T12:42:37Z</time></trkpt><trkpt lat="46.184772398597374" lon="10.179719944196668"><ele>1593.5</ele><time>2026-04-27T12:42:38Z</time></trkpt><trkpt lat="46.18472245565492" lon="10.179919948274751"><ele>1595.0</ele><time>2026-04-27T12:42:39Z</time></trkpt><trkpt lat="46.18469913213819" lon="10.180134526168956"><ele>1596.5</ele><time>2026-04-27T12:42:40Z</time></trkpt><trkpt lat="46.18465844934227" lon="10.180321591495776"><ele>1598.0</ele><time>2026-04-27T12:42:41Z</time></trkpt><trkpt lat="46.184624320248695" lon="10.180490061536014"><ele>1598.0</ele><time>2026-04-27T12:42:42Z</time></trkpt><trkpt lat="46.18459259366893" lon="10.180636897657987"><ele>1598.0</ele><time>2026-04-27T12:42:43Z</time></trkpt><trkpt lat="46.184567755059675" lon="10.180745404934322"><ele>1598.0</ele><time>2026-04-27T12:42:44Z</time></trkpt><trkpt lat="46.18455128102611" lon="10.180869433861561"><ele>1598.0</ele><time>2026-04-27T12:42:46Z</time></trkpt><trkpt lat="46.184570831460036" lon="10.18097068314081"><ele>1598.0</ele><time>2026-04-27T12:42:49Z</time></trkpt><trkpt lat="46.184718298004476" lon="10.180847034011437"><ele>1597.9999999999998</ele><time>2026-04-27T12:42:52Z</time></trkpt><trkpt lat="46.18476612350172" lon="10.180770826083029"><ele>1598.0</ele><time>2026-04-27T12:42:53Z</time></trkpt><trkpt lat="46.1848271101861" lon="10.180705343700554"><ele>1598.0</ele><time>2026-04-27T12:42:54Z</time></trkpt><trkpt lat="46.18489892749753" lon="10.180663795515873"><ele>1598.0</ele><time>2026-04-27T12:42:55Z</time></trkpt><trkpt lat="46.18498960765554" lon="10.18062821661141"><ele>1597.9999999999998</ele><time>2026-04-27T12:42:56Z</time></trkpt><trkpt lat="46.185078991838076" lon="10.180619668366257"><ele>1598.0</ele><time>2026-04-27T12:42:57Z</time></trkpt><trkpt lat="46.18517393250976" lon="10.180637789052806"><ele>1598.0</ele><time>2026-04-27T12:42:58Z</time></trkpt><trkpt lat="46.18528118698418" lon="10.180669761261173"><ele>1598.0</ele><time>2026-04-27T12:42:59Z</time></trkpt><trkpt lat="46.1853918003959" lon="10.180689770718228"><ele>1598.0</ele><time>2026-04-27T12:43:00Z</time></trkpt><trkpt lat="46.185499507258456" lon="10.18067569350247"><ele>1598.0</ele><time>2026-04-27T12:43:01Z</time></trkpt><trkpt lat="46.1856015476797" lon="10.180640810293466"><ele>1598.0</ele><time>2026-04-27T12:43:02Z</time></trkpt><trkpt lat="46.18570545005345" lon="10.180587434196722"><ele>1600.75</ele><time>2026-04-27T12:43:03Z</time></trkpt><trkpt lat="46.18581641541402" lon="10.180509919325969"><ele>1603.5</ele><time>2026-04-27T12:43:04Z</time></trkpt><trkpt lat="46.18592101917947" lon="10.180428520843451"><ele>1606.25</ele><time>2026-04-27T12:43:05Z</time></trkpt><trkpt lat="46.186021322195536" lon="10.180338582858473"><ele>1609.0</ele><time>2026-04-27T12:43:06Z</time></trkpt><trkpt lat="46.186123182805666" lon="10.180246338747606"><ele>1609.0</ele><time>2026-04-27T12:43:07.001Z</time></trkpt><trkpt lat="46.18620834507566" lon="10.180140004848868"><ele>1609.0</ele><time>2026-04-27T12:43:08.001Z</time></trkpt><trkpt lat="46.186305158084096" lon="10.180048336325507"><ele>1609.0</ele><time>2026-04-27T12:43:09.001Z</time></trkpt><trkpt lat="46.18637320646668" lon="10.179970702824725"><ele>1609.0</ele><time>2026-04-27T12:43:10.001Z</time></trkpt><trkpt lat="46.186439963283526" lon="10.179959752212879"><ele>1609.0</ele><time>2026-04-27T12:43:11.001Z</time></trkpt><trkpt lat="46.186506248136176" lon="10.17993675068522"><ele>1611.8333333333335</ele><time>2026-04-27T12:43:12.001Z</time></trkpt><trkpt lat="46.18657820594529" lon="10.179950627486486"><ele>1614.6666666666667</ele><time>2026-04-27T12:43:13.001Z</time></trkpt><trkpt lat="46.18664983643491" lon="10.179980063567529"><ele>1617.5</ele><time>2026-04-27T12:43:14.001Z</time></trkpt><trkpt lat="46.18672582206628" lon="10.180049346379265"><ele>1620.3333333333335</ele><time>2026-04-27T12:43:15.001Z</time></trkpt><trkpt lat="46.18680091516483" lon="10.18013218956894"><ele>1623.1666666666667</ele><time>2026-04-27T12:43:16.001Z</time></trkpt><trkpt lat="46.186885314079575" lon="10.18022521163517"><ele>1626.0</ele><time>2026-04-27T12:43:17.001Z</time></trkpt><trkpt lat="46.18697857174311" lon="10.180308132871513"><ele>1626.0</ele><time>2026-04-27T12:43:18.001Z</time></trkpt><trkpt lat="46.18708339258167" lon="10.18041173364732"><ele>1626.0</ele><time>2026-04-27T12:43:19.001Z</time></trkpt><trkpt lat="46.18717854501169" lon="10.180525290269417"><ele>1626.0</ele><time>2026-04-27T12:43:20.001Z</time></trkpt><trkpt lat="46.18728982443709" lon="10.180627323724178"><ele>1626.0</ele><time>2026-04-27T12:43:21.001Z</time></trkpt><trkpt lat="46.187426516646475" lon="10.18071029534732"><ele>1630.5</ele><time>2026-04-27T12:43:22.001Z</time></trkpt><trkpt lat="46.187569673107674" lon="10.180776249818576"><ele>1635.0</ele><time>2026-04-27T12:43:23.001Z</time></trkpt><trkpt lat="46.18768847268367" lon="10.18084825289918"><ele>1639.5</ele><time>2026-04-27T12:43:24.001Z</time></trkpt><trkpt lat="46.18776964544535" lon="10.180923602211019"><ele>1644.0</ele><time>2026-04-27T12:43:25.001Z</time></trkpt><trkpt lat="46.18784700842765" lon="10.181004807666366"><ele>1644.0</ele><time>2026-04-27T12:43:26.001Z</time></trkpt><trkpt lat="46.18789667771573" lon="10.181151257740185"><ele>1644.0</ele><time>2026-04-27T12:43:28.001Z</time></trkpt><trkpt lat="46.187908920221744" lon="10.181254367167506"><ele>1644.0</ele><time>2026-04-27T12:43:29.001Z</time></trkpt><trkpt lat="46.187920714298464" lon="10.181363582449661"><ele>1644.0</ele><time>2026-04-27T12:43:30.001Z</time></trkpt><trkpt lat="46.18792934509277" lon="10.181501687644221"><ele>1644.0</ele><time>2026-04-27T12:43:31.001Z</time></trkpt><trkpt lat="46.1879341020074" lon="10.181680463318003"><ele>1647.25</ele><time>2026-04-27T12:43:32.001Z</time></trkpt><trkpt lat="46.187940033958895" lon="10.181852246204308"><ele>1650.5</ele><time>2026-04-27T12:43:33.001Z</time></trkpt><trkpt lat="46.187944846271286" lon="10.182032789812164"><ele>1653.75</ele><time>2026-04-27T12:43:34.001Z</time></trkpt><trkpt lat="46.187954744681505" lon="10.182224380306968"><ele>1657.0</ele><time>2026-04-27T12:43:35.001Z</time></trkpt><trkpt lat="46.18796590742562" lon="10.182422014580814"><ele>1658.75</ele><time>2026-04-27T12:43:36.001Z</time></trkpt><trkpt lat="46.18797189512333" lon="10.182616660598379"><ele>1660.5</ele><time>2026-04-27T12:43:37.001Z</time></trkpt><trkpt lat="46.18799472085831" lon="10.182815729847679"><ele>1662.25</ele><time>2026-04-27T12:43:38.001Z</time></trkpt><trkpt lat="46.18800253312192" lon="10.183014320708434"><ele>1664.0</ele><time>2026-04-27T12:43:39.001Z</time></trkpt><trkpt lat="46.18801625144439" lon="10.183207743124369"><ele>1664.0</ele><time>2026-04-27T12:43:40.001Z</time></trkpt><trkpt lat="46.188034573835196" lon="10.183398826325945"><ele>1664.0</ele><time>2026-04-27T12:43:41.001Z</time></trkpt><trkpt lat="46.18804943614302" lon="10.18358615704656"><ele>1664.0</ele><time>2026-04-27T12:43:42.001Z</time></trkpt><trkpt lat="46.188075665574296" lon="10.18375958529474"><ele>1664.0</ele><time>2026-04-27T12:43:43.001Z</time></trkpt><trkpt lat="46.18809490350754" lon="10.183925178401338"><ele>1662.75</ele><time>2026-04-27T12:43:44.001Z</time></trkpt><trkpt lat="46.18814897962277" lon="10.184095356443672"><ele>1661.5</ele><time>2026-04-27T12:43:45.001Z</time></trkpt><trkpt lat="46.188179417015526" lon="10.184266616185687"><ele>1660.25</ele><time>2026-04-27T12:43:46.001Z</time></trkpt><trkpt lat="46.188217666602924" lon="10.184435993770746"><ele>1659.0</ele><time>2026-04-27T12:43:47.001Z</time></trkpt><trkpt lat="46.18824454690052" lon="10.184582822984279"><ele>1658.8000000000002</ele><time>2026-04-27T12:43:48.001Z</time></trkpt><trkpt lat="46.188238160900205" lon="10.184720920538421"><ele>1658.6000000000001</ele><time>2026-04-27T12:43:49.001Z</time></trkpt><trkpt lat="46.18821921384315" lon="10.184862391273391"><ele>1658.4</ele><time>2026-04-27T12:43:50.001Z</time></trkpt><trkpt lat="46.18819929430937" lon="10.185032694799649"><ele>1658.2</ele><time>2026-04-27T12:43:51.001Z</time></trkpt><trkpt lat="46.188192421547726" lon="10.185196422128902"><ele>1658.0</ele><time>2026-04-27T12:43:52.001Z</time></trkpt><trkpt lat="46.18817546202004" lon="10.18533694958215"><ele>1657.4</ele><time>2026-04-27T12:43:53.001Z</time></trkpt><trkpt lat="46.188164444117234" lon="10.18546944684601"><ele>1656.8000000000002</ele><time>2026-04-27T12:43:54.001Z</time></trkpt><trkpt lat="46.188166672976756" lon="10.185603908429501"><ele>1656.2</ele><time>2026-04-27T12:43:55.001Z</time></trkpt><trkpt lat="46.18816909578696" lon="10.185716478151297"><ele>1655.6</ele><time>2026-04-27T12:43:56.001Z</time></trkpt><trkpt lat="46.18820633772946" lon="10.185839549054418"><ele>1655.0</ele><time>2026-04-27T12:43:57.001Z</time></trkpt><trkpt lat="46.18825546920886" lon="10.185959244583811"><ele>1656.2</ele><time>2026-04-27T12:43:58.001Z</time></trkpt><trkpt lat="46.188301222223764" lon="10.186073874780659"><ele>1657.4</ele><time>2026-04-27T12:43:59.001Z</time></trkpt><trkpt lat="46.18834736193132" lon="10.18620019536532"><ele>1658.6</ele><time>2026-04-27T12:44:00.001Z</time></trkpt><trkpt lat="46.18839109189046" lon="10.186332622871006"><ele>1659.8</ele><time>2026-04-27T12:44:01.001Z</time></trkpt><trkpt lat="46.188431965269444" lon="10.186466964020196"><ele>1661.0</ele><time>2026-04-27T12:44:02.001Z</time></trkpt><trkpt lat="46.18847785889625" lon="10.186595897158266"><ele>1661.6666666666665</ele><time>2026-04-27T12:44:03.001Z</time></trkpt><trkpt lat="46.18851359204733" lon="10.186702942990244"><ele>1662.3333333333333</ele><time>2026-04-27T12:44:04.001Z</time></trkpt><trkpt lat="46.18854936372823" lon="10.186815756687722"><ele>1663.0</ele><time>2026-04-27T12:44:05.001Z</time></trkpt><trkpt lat="46.18857536097881" lon="10.186928424975775"><ele>1663.6666666666665</ele><time>2026-04-27T12:44:06.001Z</time></trkpt><trkpt lat="46.18859166762304" lon="10.1870229441233"><ele>1664.3333333333333</ele><time>2026-04-27T12:44:07.001Z</time></trkpt><trkpt lat="46.18859877563307" lon="10.187127970987834"><ele>1665.0</ele><time>2026-04-27T12:44:08.001Z</time></trkpt><trkpt lat="46.18858973621722" lon="10.187246284614082"><ele>1665.5</ele><time>2026-04-27T12:44:09.001Z</time></trkpt><trkpt lat="46.18857086070865" lon="10.187384803017085"><ele>1666.0</ele><time>2026-04-27T12:44:10.001Z</time></trkpt><trkpt lat="46.188553698245094" lon="10.187531775831523"><ele>1666.5</ele><time>2026-04-27T12:44:11.001Z</time></trkpt><trkpt lat="46.18850899662216" lon="10.187728274105078"><ele>1667.0</ele><time>2026-04-27T12:44:12.001Z</time></trkpt><trkpt lat="46.18849343820638" lon="10.187895202279776"><ele>1667.0</ele><time>2026-04-27T12:44:13.001Z</time></trkpt><trkpt lat="46.18846169499972" lon="10.188050098904865"><ele>1667.0</ele><time>2026-04-27T12:44:14.001Z</time></trkpt><trkpt lat="46.18843615551174" lon="10.188240975212558"><ele>1667.0</ele><time>2026-04-27T12:44:15.001Z</time></trkpt><trkpt lat="46.18838846706795" lon="10.188428433555739"><ele>1667.0</ele><time>2026-04-27T12:44:16.001Z</time></trkpt><trkpt lat="46.18833631522523" lon="10.188626555059662"><ele>1667.3999999999999</ele><time>2026-04-27T12:44:17.001Z</time></trkpt><trkpt lat="46.18829175151066" lon="10.1887976608347"><ele>1667.8</ele><time>2026-04-27T12:44:18.001Z</time></trkpt><trkpt lat="46.18826125543352" lon="10.188956942649327"><ele>1668.2</ele><time>2026-04-27T12:44:19.001Z</time></trkpt><trkpt lat="46.188246198829134" lon="10.18909868125342"><ele>1668.6</ele><time>2026-04-27T12:44:20.001Z</time></trkpt><trkpt lat="46.188251467841496" lon="10.189243929126441"><ele>1669.0</ele><time>2026-04-27T12:44:21.001Z</time></trkpt><trkpt lat="46.18828969258913" lon="10.189403622522097"><ele>1670.0</ele><time>2026-04-27T12:44:22.001Z</time></trkpt><trkpt lat="46.1883172978106" lon="10.18952832081264"><ele>1671.0</ele><time>2026-04-27T12:44:23.001Z</time></trkpt><trkpt lat="46.1883455069285" lon="10.189673438398051"><ele>1672.0</ele><time>2026-04-27T12:44:24.001Z</time></trkpt><trkpt lat="46.188371622879906" lon="10.189829211673167"><ele>1673.0</ele><time>2026-04-27T12:44:25.001Z</time></trkpt><trkpt lat="46.18839352721528" lon="10.18998631623184"><ele>1674.0</ele><time>2026-04-27T12:44:26.001Z</time></trkpt><trkpt lat="46.188419491809356" lon="10.190143601785538"><ele>1675.6</ele><time>2026-04-27T12:44:27.001Z</time></trkpt><trkpt lat="46.18843608220859" lon="10.19030581929908"><ele>1677.2</ele><time>2026-04-27T12:44:28.001Z</time></trkpt><trkpt lat="46.18844471160712" lon="10.190449392455893"><ele>1678.8</ele><time>2026-04-27T12:44:29Z</time></trkpt><trkpt lat="46.18840975574064" lon="10.190569169557033"><ele>1680.3999999999999</ele><time>2026-04-27T12:44:30Z</time></trkpt><trkpt lat="46.18839785375153" lon="10.190728437819574"><ele>1682.0</ele><time>2026-04-27T12:44:31Z</time></trkpt><trkpt lat="46.18836639136694" lon="10.190892215624448"><ele>1683.3999999999999</ele><time>2026-04-27T12:44:32Z</time></trkpt><trkpt lat="46.18832257823874" lon="10.191048451412307"><ele>1684.8</ele><time>2026-04-27T12:44:33Z</time></trkpt><trkpt lat="46.18827754153014" lon="10.191212083032308"><ele>1686.2</ele><time>2026-04-27T12:44:34Z</time></trkpt><trkpt lat="46.18823692743183" lon="10.191372271047607"><ele>1687.6</ele><time>2026-04-27T12:44:35Z</time></trkpt><trkpt lat="46.1882007398384" lon="10.191495207718814"><ele>1689.0</ele><time>2026-04-27T12:44:36Z</time></trkpt><trkpt lat="46.18817609349807" lon="10.191601888756837"><ele>1691.0</ele><time>2026-04-27T12:44:37Z</time></trkpt><trkpt lat="46.18820295463776" lon="10.191767349838397"><ele>1693.0</ele><time>2026-04-27T12:44:39Z</time></trkpt><trkpt lat="46.188257709356044" lon="10.191844906139764"><ele>1695.0</ele><time>2026-04-27T12:44:40Z</time></trkpt><trkpt lat="46.18832366596673" lon="10.191902075065986"><ele>1697.0</ele><time>2026-04-27T12:44:41Z</time></trkpt><trkpt lat="46.188396062738185" lon="10.191953732345693"><ele>1699.0</ele><time>2026-04-27T12:44:42Z</time></trkpt><trkpt lat="46.188455852800594" lon="10.192029097754839"><ele>1701.0</ele><time>2026-04-27T12:44:43Z</time></trkpt><trkpt lat="46.188504700275374" lon="10.192119494910088"><ele>1701.0</ele><time>2026-04-27T12:44:44Z</time></trkpt><trkpt lat="46.18853479908779" lon="10.192226571058695"><ele>1701.0</ele><time>2026-04-27T12:44:45Z</time></trkpt><trkpt lat="46.18854560807233" lon="10.192343013211211"><ele>1701.0</ele><time>2026-04-27T12:44:46Z</time></trkpt><trkpt lat="46.18854548179937" lon="10.192470081440906"><ele>1701.0</ele><time>2026-04-27T12:44:47Z</time></trkpt><trkpt lat="46.1885406600171" lon="10.192599083281456"><ele>1701.0</ele><time>2026-04-27T12:44:48Z</time></trkpt><trkpt lat="46.18853090562736" lon="10.19272649233841"><ele>1701.0</ele><time>2026-04-27T12:44:49Z</time></trkpt><trkpt lat="46.18851789240971" lon="10.192855064965466"><ele>1702.4</ele><time>2026-04-27T12:44:50Z</time></trkpt><trkpt lat="46.188510488735986" lon="10.19298584968462"><ele>1703.8</ele><time>2026-04-27T12:44:51Z</time></trkpt><trkpt lat="46.188505277113414" lon="10.193123171837916"><ele>1705.2000000000003</ele><time>2026-04-27T12:44:52Z</time></trkpt><trkpt lat="46.18849876953999" lon="10.193261426148188"><ele>1706.6000000000001</ele><time>2026-04-27T12:44:53Z</time></trkpt><trkpt lat="46.18848347864549" lon="10.19339993690158"><ele>1708.0</ele><time>2026-04-27T12:44:54Z</time></trkpt><trkpt lat="46.18846392273353" lon="10.193542121026928"><ele>1709.2</ele><time>2026-04-27T12:44:55Z</time></trkpt><trkpt lat="46.1884402078248" lon="10.193683480624227"><ele>1710.4</ele><time>2026-04-27T12:44:56Z</time></trkpt><trkpt lat="46.18841671646044" lon="10.193822710388602"><ele>1711.6000000000001</ele><time>2026-04-27T12:44:57Z</time></trkpt><trkpt lat="46.188397395909405" lon="10.193966740281683"><ele>1712.8000000000002</ele><time>2026-04-27T12:44:58Z</time></trkpt><trkpt lat="46.188383110710824" lon="10.194108649009154"><ele>1714.0</ele><time>2026-04-27T12:44:59Z</time></trkpt><trkpt lat="46.18837704147401" lon="10.194249311158982"><ele>1715.75</ele><time>2026-04-27T12:45:00Z</time></trkpt><trkpt lat="46.18838349051067" lon="10.19440381331519"><ele>1717.5</ele><time>2026-04-27T12:45:01Z</time></trkpt><trkpt lat="46.18839133608222" lon="10.194589969730577"><ele>1719.25</ele><time>2026-04-27T12:45:02Z</time></trkpt><trkpt lat="46.188395180692986" lon="10.194790858387355"><ele>1721.0</ele><time>2026-04-27T12:45:03Z</time></trkpt><trkpt lat="46.1883905144194" lon="10.194997261315102"><ele>1724.6666666666665</ele><time>2026-04-27T12:45:04Z</time></trkpt><trkpt lat="46.1883789090601" lon="10.195215256270131"><ele>1728.3333333333335</ele><time>2026-04-27T12:45:05Z</time></trkpt><trkpt lat="46.18836564449103" lon="10.195450281921302"><ele>1732.0</ele><time>2026-04-27T12:45:06Z</time></trkpt><trkpt lat="46.188364147787766" lon="10.195700892194303"><ele>1736.3333333333335</ele><time>2026-04-27T12:45:07Z</time></trkpt><trkpt lat="46.1883302775244" lon="10.19595009787362"><ele>1740.6666666666665</ele><time>2026-04-27T12:45:08Z</time></trkpt><trkpt lat="46.188302697777964" lon="10.1962100948361"><ele>1745.0</ele><time>2026-04-27T12:45:09Z</time></trkpt><trkpt lat="46.188274438264614" lon="10.196470595669517"><ele>1749.3333333333333</ele><time>2026-04-27T12:45:10Z</time></trkpt><trkpt lat="46.18824237819051" lon="10.196719146738147"><ele>1753.6666666666665</ele><time>2026-04-27T12:45:11Z</time></trkpt><trkpt lat="46.18820117918903" lon="10.19697122794564"><ele>1758.0</ele><time>2026-04-27T12:45:12Z</time></trkpt><trkpt lat="46.188149204341805" lon="10.197217135433654"><ele>1755.0</ele><time>2026-04-27T12:45:13Z</time></trkpt><trkpt lat="46.18809836810134" lon="10.197419842300109"><ele>1752.0000000000002</ele><time>2026-04-27T12:45:14Z</time></trkpt><trkpt lat="46.18806561068928" lon="10.197565432502316"><ele>1749.0000000000002</ele><time>2026-04-27T12:45:15Z</time></trkpt><trkpt lat="46.18805144680393" lon="10.19767488663248"><ele>1746.0</ele><time>2026-04-27T12:45:16Z</time></trkpt><trkpt lat="46.1880262148925" lon="10.197759606244654"><ele>1743.0</ele><time>2026-04-27T12:45:17Z</time></trkpt><trkpt lat="46.18802874320649" lon="10.197929148909434"><ele>1743.0</ele><time>2026-04-27T12:45:19Z</time></trkpt><trkpt lat="46.18804965655497" lon="10.198036244951552"><ele>1743.0000000000002</ele><time>2026-04-27T12:45:20Z</time></trkpt><trkpt lat="46.18805171952845" lon="10.198166784390764"><ele>1743.0000000000002</ele><time>2026-04-27T12:45:21Z</time></trkpt><trkpt lat="46.18804823831731" lon="10.198320646404504"><ele>1743.0</ele><time>2026-04-27T12:45:22Z</time></trkpt><trkpt lat="46.1880428762069" lon="10.198500376147459"><ele>1743.0</ele><time>2026-04-27T12:45:23Z</time></trkpt><trkpt lat="46.188032459635636" lon="10.198698485356253"><ele>1746.6666666666665</ele><time>2026-04-27T12:45:24Z</time></trkpt><trkpt lat="46.188016821064615" lon="10.198900285320187"><ele>1750.3333333333333</ele><time>2026-04-27T12:45:25Z</time></trkpt><trkpt lat="46.18798409165021" lon="10.19911828338917"><ele>1754.0</ele><time>2026-04-27T12:45:26Z</time></trkpt><trkpt lat="46.18796814565232" lon="10.199343632021465"><ele>1754.6666666666665</ele><time>2026-04-27T12:45:27Z</time></trkpt><trkpt lat="46.1879482398231" lon="10.199581224239703"><ele>1755.3333333333335</ele><time>2026-04-27T12:45:28Z</time></trkpt><trkpt lat="46.18793496375833" lon="10.199796807375089"><ele>1756.0</ele><time>2026-04-27T12:45:29Z</time></trkpt><trkpt lat="46.18792996380208" lon="10.199995981664253"><ele>1756.0</ele><time>2026-04-27T12:45:30Z</time></trkpt><trkpt lat="46.187931939437064" lon="10.200172946844255"><ele>1756.0</ele><time>2026-04-27T12:45:31Z</time></trkpt><trkpt lat="46.18795865597868" lon="10.200364581194595"><ele>1756.0</ele><time>2026-04-27T12:45:32Z</time></trkpt><trkpt lat="46.18797817125995" lon="10.200543683907645"><ele>1756.0</ele><time>2026-04-27T12:45:33Z</time></trkpt><trkpt lat="46.18800625780246" lon="10.200727548193514"><ele>1756.1999999999998</ele><time>2026-04-27T12:45:34Z</time></trkpt><trkpt lat="46.18803018421417" lon="10.200882590641678"><ele>1756.3999999999999</ele><time>2026-04-27T12:45:35Z</time></trkpt><trkpt lat="46.18805351371189" lon="10.20100825402953"><ele>1756.6</ele><time>2026-04-27T12:45:36Z</time></trkpt><trkpt lat="46.188102021773524" lon="10.201144829526545"><ele>1756.8</ele><time>2026-04-27T12:45:37Z</time></trkpt><trkpt lat="46.18816473066429" lon="10.201272845822313"><ele>1757.0</ele><time>2026-04-27T12:45:38Z</time></trkpt><trkpt lat="46.18821414825806" lon="10.201401487964468"><ele>1762.6</ele><time>2026-04-27T12:45:39Z</time></trkpt><trkpt lat="46.18821071418258" lon="10.20157030478635"><ele>1768.1999999999998</ele><time>2026-04-27T12:45:40Z</time></trkpt><trkpt lat="46.188226281995256" lon="10.201709919153227"><ele>1773.8</ele><time>2026-04-27T12:45:41Z</time></trkpt><trkpt lat="46.188230874895346" lon="10.201855652197159"><ele>1779.4</ele><time>2026-04-27T12:45:42Z</time></trkpt><trkpt lat="46.1882297988408" lon="10.202010136179439"><ele>1785.0</ele><time>2026-04-27T12:45:43Z</time></trkpt><trkpt lat="46.1882136561024" lon="10.202143015050657"><ele>1782.2</ele><time>2026-04-27T12:45:44Z</time></trkpt><trkpt lat="46.18816768697843" lon="10.20229067258253"><ele>1779.4</ele><time>2026-04-27T12:45:45Z</time></trkpt><trkpt lat="46.18812453629933" lon="10.202424466597865"><ele>1776.6</ele><time>2026-04-27T12:45:46Z</time></trkpt><trkpt lat="46.18810678163472" lon="10.202547190674915"><ele>1773.8</ele><time>2026-04-27T12:45:47Z</time></trkpt><trkpt lat="46.18806716854926" lon="10.202634686581655"><ele>1771.0</ele><time>2026-04-27T12:45:48Z</time></trkpt><trkpt lat="46.188044708632916" lon="10.202750618203822"><ele>1771.0</ele><time>2026-04-27T12:45:49Z</time></trkpt><trkpt lat="46.188045117652436" lon="10.202888787277027"><ele>1771.0</ele><time>2026-04-27T12:45:50Z</time></trkpt><trkpt lat="46.18801149527192" lon="10.203037252024043"><ele>1771.0</ele><time>2026-04-27T12:45:51Z</time></trkpt><trkpt lat="46.18800920778951" lon="10.203197767528403"><ele>1771.0</ele><time>2026-04-27T12:45:52Z</time></trkpt><trkpt lat="46.18798938068329" lon="10.203380057895773"><ele>1771.0</ele><time>2026-04-27T12:45:53Z</time></trkpt><trkpt lat="46.18795558070323" lon="10.20356750913977"><ele>1772.25</ele><time>2026-04-27T12:45:54Z</time></trkpt><trkpt lat="46.18791365587227" lon="10.203755330392116"><ele>1773.5</ele><time>2026-04-27T12:45:55Z</time></trkpt><trkpt lat="46.18786576453264" lon="10.203951068664178"><ele>1774.75</ele><time>2026-04-27T12:45:56Z</time></trkpt><trkpt lat="46.187809974964665" lon="10.204143579617416"><ele>1776.0</ele><time>2026-04-27T12:45:57Z</time></trkpt><trkpt lat="46.18777163142588" lon="10.204312693798064"><ele>1776.8</ele><time>2026-04-27T12:45:58Z</time></trkpt><trkpt lat="46.18776926525661" lon="10.2044934479136"><ele>1777.6</ele><time>2026-04-27T12:45:59Z</time></trkpt><trkpt lat="46.1877593752515" lon="10.204631972823364"><ele>1778.4</ele><time>2026-04-27T12:46:00Z</time></trkpt><trkpt lat="46.18775488106179" lon="10.204795154318134"><ele>1779.2</ele><time>2026-04-27T12:46:01Z</time></trkpt><trkpt lat="46.18775169538952" lon="10.204955003402219"><ele>1780.0</ele><time>2026-04-27T12:46:02Z</time></trkpt><trkpt lat="46.18773860502198" lon="10.205124732998305"><ele>1780.5</ele><time>2026-04-27T12:46:03Z</time></trkpt><trkpt lat="46.18774516716658" lon="10.205301139795651"><ele>1781.0</ele><time>2026-04-27T12:46:04Z</time></trkpt><trkpt lat="46.18775730326271" lon="10.205485621454603"><ele>1781.5</ele><time>2026-04-27T12:46:05Z</time></trkpt><trkpt lat="46.18778512999236" lon="10.205672062505814"><ele>1782.0</ele><time>2026-04-27T12:46:06Z</time></trkpt><trkpt lat="46.187799202400754" lon="10.205863129809378"><ele>1782.25</ele><time>2026-04-27T12:46:07Z</time></trkpt><trkpt lat="46.18782528145443" lon="10.206061306970753"><ele>1782.5</ele><time>2026-04-27T12:46:08Z</time></trkpt><trkpt lat="46.187855957168765" lon="10.206255734024316"><ele>1782.75</ele><time>2026-04-27T12:46:09Z</time></trkpt><trkpt lat="46.187874742843924" lon="10.206454279494828"><ele>1783.0</ele><time>2026-04-27T12:46:10Z</time></trkpt><trkpt lat="46.18788288221222" lon="10.206652984119286"><ele>1783.0</ele><time>2026-04-27T12:46:11Z</time></trkpt><trkpt lat="46.18788564137915" lon="10.206853705315574"><ele>1783.0</ele><time>2026-04-27T12:46:12Z</time></trkpt><trkpt lat="46.18788447808837" lon="10.207032110421839"><ele>1783.0</ele><time>2026-04-27T12:46:13Z</time></trkpt><trkpt lat="46.18789265984276" lon="10.20719554815692"><ele>1783.0</ele><time>2026-04-27T12:46:14Z</time></trkpt><trkpt lat="46.187887227214546" lon="10.207317043985189"><ele>1783.4</ele><time>2026-04-27T12:46:15Z</time></trkpt><trkpt lat="46.18788392550794" lon="10.207469512289611"><ele>1783.8000000000002</ele><time>2026-04-27T12:46:17Z</time></trkpt><trkpt lat="46.187872181087194" lon="10.207586110428956"><ele>1784.2</ele><time>2026-04-27T12:46:20Z</time></trkpt><trkpt lat="46.187797547867724" lon="10.207582232526107"><ele>1784.6</ele><time>2026-04-27T12:46:21Z</time></trkpt><trkpt lat="46.18770615393888" lon="10.207598732103406"><ele>1785.0</ele><time>2026-04-27T12:46:23Z</time></trkpt><trkpt lat="46.1875898783471" lon="10.207644828520458"><ele>1785.0</ele><time>2026-04-27T12:46:25Z</time></trkpt><trkpt lat="46.18752721129889" lon="10.20768188164029"><ele>1785.0</ele><time>2026-04-27T12:46:26Z</time></trkpt><trkpt lat="46.18745925267338" lon="10.20773134486126"><ele>1785.0</ele><time>2026-04-27T12:46:27Z</time></trkpt><trkpt lat="46.18739674980282" lon="10.207781498409416"><ele>1785.0</ele><time>2026-04-27T12:46:28Z</time></trkpt><trkpt lat="46.18734483823721" lon="10.20785031681121"><ele>1785.0</ele><time>2026-04-27T12:46:29Z</time></trkpt><trkpt lat="46.18730529851017" lon="10.207938119414269"><ele>1785.0</ele><time>2026-04-27T12:46:30Z</time></trkpt><trkpt lat="46.18725875064839" lon="10.208009309851816"><ele>1785.0</ele><time>2026-04-27T12:46:31Z</time></trkpt><trkpt lat="46.18721950859873" lon="10.208085089881008"><ele>1786.2</ele><time>2026-04-27T12:46:32Z</time></trkpt><trkpt lat="46.187156461456816" lon="10.208238305823125"><ele>1787.4</ele><time>2026-04-27T12:46:34Z</time></trkpt><trkpt lat="46.18712509673665" lon="10.208318375557717"><ele>1788.6</ele><time>2026-04-27T12:46:35Z</time></trkpt><trkpt lat="46.187079795999374" lon="10.208490104034095"><ele>1789.8</ele><time>2026-04-27T12:46:37Z</time></trkpt><trkpt lat="46.18706277991686" lon="10.20858596870221"><ele>1791.0</ele><time>2026-04-27T12:46:38Z</time></trkpt><trkpt lat="46.18704432490786" lon="10.208682785097155"><ele>1791.0</ele><time>2026-04-27T12:46:39Z</time></trkpt><trkpt lat="46.187032252439785" lon="10.208777870502194"><ele>1791.0</ele><time>2026-04-27T12:46:40Z</time></trkpt><trkpt lat="46.18701768715819" lon="10.208887851732001"><ele>1791.0</ele><time>2026-04-27T12:46:41Z</time></trkpt><trkpt lat="46.18700871345528" lon="10.209016242001814"><ele>1791.0</ele><time>2026-04-27T12:46:42Z</time></trkpt><trkpt lat="46.18700032838188" lon="10.2091337867185"><ele>1791.0</ele><time>2026-04-27T12:46:43Z</time></trkpt><trkpt lat="46.18699581784344" lon="10.20924847138576"><ele>1791.0</ele><time>2026-04-27T12:46:44Z</time></trkpt><trkpt lat="46.18698719219345" lon="10.20935716639874"><ele>1790.857142857143</ele><time>2026-04-27T12:46:45Z</time></trkpt><trkpt lat="46.18697546318785" lon="10.209468380903914"><ele>1790.7142857142858</ele><time>2026-04-27T12:46:46Z</time></trkpt><trkpt lat="46.1869601048823" lon="10.209576909826637"><ele>1790.5714285714284</ele><time>2026-04-27T12:46:47Z</time></trkpt><trkpt lat="46.186938639561454" lon="10.209676195762219"><ele>1790.4285714285716</ele><time>2026-04-27T12:46:48Z</time></trkpt><trkpt lat="46.18692929245312" lon="10.209768110933812"><ele>1790.2857142857144</ele><time>2026-04-27T12:46:49Z</time></trkpt><trkpt lat="46.18691232167383" lon="10.209864000538625"><ele>1790.142857142857</ele><time>2026-04-27T12:46:50Z</time></trkpt><trkpt lat="46.18688395255353" lon="10.209948167359556"><ele>1790.0</ele><time>2026-04-27T12:46:51Z</time></trkpt><trkpt lat="46.186851485543755" lon="10.210036321975561"><ele>1790.0</ele><time>2026-04-27T12:46:52Z</time></trkpt><trkpt lat="46.18681855081576" lon="10.210125842835971"><ele>1790.0</ele><time>2026-04-27T12:46:53Z</time></trkpt><trkpt lat="46.1867820548807" lon="10.210209148098143"><ele>1790.0</ele><time>2026-04-27T12:46:54Z</time></trkpt><trkpt lat="46.186738230396074" lon="10.210290489927065"><ele>1790.0</ele><time>2026-04-27T12:46:55Z</time></trkpt><trkpt lat="46.186697265128835" lon="10.21038322766324"><ele>1790.0</ele><time>2026-04-27T12:46:56Z</time></trkpt><trkpt lat="46.186666639168116" lon="10.210473622027553"><ele>1790.0</ele><time>2026-04-27T12:46:57Z</time></trkpt><trkpt lat="46.186610680986036" lon="10.210540116979217"><ele>1790.0</ele><time>2026-04-27T12:46:58Z</time></trkpt><trkpt lat="46.18662875801714" lon="10.210672531767809"><ele>1789.8</ele><time>2026-04-27T12:46:59Z</time></trkpt><trkpt lat="46.186599631781405" lon="10.21077239047197"><ele>1789.6</ele><time>2026-04-27T12:47:00Z</time></trkpt><trkpt lat="46.186566613714426" lon="10.210935209551952"><ele>1789.4</ele><time>2026-04-27T12:47:02Z</time></trkpt><trkpt lat="46.18650270763225" lon="10.211083701219684"><ele>1789.2</ele><time>2026-04-27T12:47:04Z</time></trkpt><trkpt lat="46.186441666323866" lon="10.211239135402627"><ele>1789.0</ele><time>2026-04-27T12:47:06Z</time></trkpt><trkpt lat="46.18638022854195" lon="10.211390085391722"><ele>1793.0</ele><time>2026-04-27T12:47:08Z</time></trkpt><trkpt lat="46.186331642760834" lon="10.211549435046066"><ele>1797.0</ele><time>2026-04-27T12:47:10Z</time></trkpt><trkpt lat="46.18627480114921" lon="10.211640215665566"><ele>1801.0</ele><time>2026-04-27T12:47:12Z</time></trkpt><trkpt lat="46.18619935518635" lon="10.211745116964856"><ele>1805.0</ele><time>2026-04-27T12:47:14Z</time></trkpt><trkpt lat="46.18615445966376" lon="10.211827746168442"><ele>1809.0</ele><time>2026-04-27T12:47:15Z</time></trkpt><trkpt lat="46.18612349908428" lon="10.211914552525275"><ele>1809.0</ele><time>2026-04-27T12:47:16Z</time></trkpt><trkpt lat="46.18608888397469" lon="10.21206311200755"><ele>1809.0</ele><time>2026-04-27T12:47:18Z</time></trkpt><trkpt lat="46.18604277619879" lon="10.212158779545184"><ele>1809.0</ele><time>2026-04-27T12:47:19Z</time></trkpt><trkpt lat="46.18599749444298" lon="10.212310443632607"><ele>1809.0</ele><time>2026-04-27T12:47:21Z</time></trkpt><trkpt lat="46.18592156618918" lon="10.212444024573752"><ele>1809.0</ele><time>2026-04-27T12:47:23Z</time></trkpt><trkpt lat="46.185818212423655" lon="10.212550148997163"><ele>1810.0</ele><time>2026-04-27T12:47:25Z</time></trkpt><trkpt lat="46.185764471904854" lon="10.212621641346995"><ele>1811.0000000000002</ele><time>2026-04-27T12:47:26Z</time></trkpt><trkpt lat="46.18570691912494" lon="10.2127001492367"><ele>1812.0</ele><time>2026-04-27T12:47:27Z</time></trkpt><trkpt lat="46.18566416326095" lon="10.212784686849888"><ele>1813.0</ele><time>2026-04-27T12:47:28Z</time></trkpt><trkpt lat="46.18560919930102" lon="10.212848792672238"><ele>1814.0000000000002</ele><time>2026-04-27T12:47:29Z</time></trkpt><trkpt lat="46.185570223119164" lon="10.212940793132653"><ele>1815.0</ele><time>2026-04-27T12:47:30Z</time></trkpt><trkpt lat="46.18554424363614" lon="10.213024929723423"><ele>1816.0</ele><time>2026-04-27T12:47:31Z</time></trkpt><trkpt lat="46.18551392787399" lon="10.21310483354283"><ele>1810.6</ele><time>2026-04-27T12:47:32Z</time></trkpt><trkpt lat="46.18543597811482" lon="10.213232294339045"><ele>1805.1999999999998</ele><time>2026-04-27T12:47:34Z</time></trkpt><trkpt lat="46.185355133579385" lon="10.2133182313555"><ele>1799.8000000000002</ele><time>2026-04-27T12:47:36Z</time></trkpt><trkpt lat="46.18527526838498" lon="10.213398179583416"><ele>1794.4</ele><time>2026-04-27T12:47:38Z</time></trkpt><trkpt lat="46.18516400565355" lon="10.213453846682821"><ele>1789.0</ele><time>2026-04-27T12:47:40Z</time></trkpt><trkpt lat="46.18510458130803" lon="10.213487453252684"><ele>1789.0</ele><time>2026-04-27T12:47:41Z</time></trkpt><trkpt lat="46.18503995676855" lon="10.213524000772892"><ele>1789.0</ele><time>2026-04-27T12:47:42Z</time></trkpt><trkpt lat="46.1849330248301" lon="10.213576944431145"><ele>1789.0</ele><time>2026-04-27T12:47:44Z</time></trkpt><trkpt lat="46.18482842586773" lon="10.213609899920675"><ele>1789.0</ele><time>2026-04-27T12:47:46Z</time></trkpt><trkpt lat="46.18474860210255" lon="10.213635613917546"><ele>1789.0</ele><time>2026-04-27T12:47:48Z</time></trkpt><trkpt lat="46.18465787421455" lon="10.21368438545698"><ele>1791.8000000000002</ele><time>2026-04-27T12:47:50Z</time></trkpt><trkpt lat="46.18454465865582" lon="10.213759657051193"><ele>1794.6000000000001</ele><time>2026-04-27T12:47:52Z</time></trkpt><trkpt lat="46.18448530567334" lon="10.2137983646059"><ele>1797.4</ele><time>2026-04-27T12:47:53Z</time></trkpt><trkpt lat="46.18437456269644" lon="10.213859906891518"><ele>1800.2</ele><time>2026-04-27T12:47:55Z</time></trkpt><trkpt lat="46.184251929988534" lon="10.213939136417597"><ele>1803.0</ele><time>2026-04-27T12:47:57Z</time></trkpt><trkpt lat="46.18418201537504" lon="10.213936542277615"><ele>1803.0</ele><time>2026-04-27T12:47:58Z</time></trkpt><trkpt lat="46.184066011307955" lon="10.213960686088345"><ele>1803.0000000000002</ele><time>2026-04-27T12:48:00Z</time></trkpt><trkpt lat="46.183999841401025" lon="10.213968901554397"><ele>1803.0000000000002</ele><time>2026-04-27T12:48:01Z</time></trkpt><trkpt lat="46.18392509668457" lon="10.213976454908178"><ele>1803.0</ele><time>2026-04-27T12:48:02Z</time></trkpt><trkpt lat="46.18383886234321" lon="10.213996598761433"><ele>1803.0</ele><time>2026-04-27T12:48:04Z</time></trkpt><trkpt lat="46.183699112653656" lon="10.21398508329881"><ele>1801.4</ele><time>2026-04-27T12:48:06Z</time></trkpt><trkpt lat="46.18359463166741" lon="10.213973339907215"><ele>1799.8000000000002</ele><time>2026-04-27T12:48:08Z</time></trkpt><trkpt lat="46.183526326544666" lon="10.213959987269966"><ele>1798.2</ele><time>2026-04-27T12:48:10Z</time></trkpt><trkpt lat="46.183410156728264" lon="10.213934387372744"><ele>1796.6</ele><time>2026-04-27T12:48:12Z</time></trkpt><trkpt lat="46.18331247587336" lon="10.213847365955635"><ele>1795.0</ele><time>2026-04-27T12:48:14Z</time></trkpt><trkpt lat="46.18325820598795" lon="10.213797862559025"><ele>1788.4</ele><time>2026-04-27T12:48:15Z</time></trkpt><trkpt lat="46.183174285917175" lon="10.213714334945625"><ele>1781.8</ele><time>2026-04-27T12:48:17Z</time></trkpt><trkpt lat="46.18308953796724" lon="10.213609383181213"><ele>1775.1999999999998</ele><time>2026-04-27T12:48:19Z</time></trkpt><trkpt lat="46.18304473665593" lon="10.213542862677517"><ele>1768.6</ele><time>2026-04-27T12:48:20Z</time></trkpt><trkpt lat="46.18297620670751" lon="10.213402477146682"><ele>1762.0</ele><time>2026-04-27T12:48:22Z</time></trkpt><trkpt lat="46.18291934523192" lon="10.213339092504873"><ele>1762.0</ele><time>2026-04-27T12:48:23Z</time></trkpt><trkpt lat="46.18283571361155" lon="10.213203623323762"><ele>1761.9999999999998</ele><time>2026-04-27T12:48:25Z</time></trkpt><trkpt lat="46.1827490718147" lon="10.21305007430838"><ele>1761.9999999999998</ele><time>2026-04-27T12:48:27Z</time></trkpt><trkpt lat="46.18270506819875" lon="10.212982976444081"><ele>1762.0</ele><time>2026-04-27T12:48:28Z</time></trkpt><trkpt lat="46.182633832898084" lon="10.212862582295587"><ele>1762.0</ele><time>2026-04-27T12:48:30Z</time></trkpt><trkpt lat="46.18258178306493" lon="10.212772955573712"><ele>1761.0000000000002</ele><time>2026-04-27T12:48:32Z</time></trkpt><trkpt lat="46.182563692195494" lon="10.212641430504464"><ele>1760.0</ele><time>2026-04-27T12:48:34Z</time></trkpt><trkpt lat="46.1825237871111" lon="10.212531569246027"><ele>1759.0</ele><time>2026-04-27T12:48:36Z</time></trkpt><trkpt lat="46.18248860893623" lon="10.212391599719346"><ele>1758.0</ele><time>2026-04-27T12:48:38Z</time></trkpt><trkpt lat="46.18244504316483" lon="10.212258974625177"><ele>1757.0000000000002</ele><time>2026-04-27T12:48:40Z</time></trkpt><trkpt lat="46.18241009413206" lon="10.212181790753911"><ele>1756.0</ele><time>2026-04-27T12:48:41Z</time></trkpt><trkpt lat="46.182335613118575" lon="10.212031544629737"><ele>1756.0</ele><time>2026-04-27T12:48:43Z</time></trkpt><trkpt lat="46.18228925936409" lon="10.211951623550839"><ele>1756.0</ele><time>2026-04-27T12:48:44Z</time></trkpt><trkpt lat="46.18220629220659" lon="10.211848129818803"><ele>1756.0</ele><time>2026-04-27T12:48:46Z</time></trkpt><trkpt lat="46.18214275871941" lon="10.211784499562132"><ele>1756.0</ele><time>2026-04-27T12:48:49Z</time></trkpt><trkpt lat="46.182124078660316" lon="10.21166881001678"><ele>1756.0</ele><time>2026-04-27T12:49:24Z</time></trkpt><trkpt lat="46.182084135400174" lon="10.211514538706746"><ele>1760.6</ele><time>2026-04-27T12:49:26Z</time></trkpt><trkpt lat="46.182043812293465" lon="10.211370658324887"><ele>1765.1999999999998</ele><time>2026-04-27T12:49:28Z</time></trkpt><trkpt lat="46.18200052109613" lon="10.211242432685436"><ele>1769.8000000000002</ele><time>2026-04-27T12:49:30Z</time></trkpt><trkpt lat="46.18194146267392" lon="10.211104066877137"><ele>1774.4</ele><time>2026-04-27T12:49:32Z</time></trkpt><trkpt lat="46.181904249852806" lon="10.211030058319178"><ele>1779.0</ele><time>2026-04-27T12:49:33Z</time></trkpt><trkpt lat="46.181847274603044" lon="10.210876586464611"><ele>1779.0</ele><time>2026-04-27T12:49:35Z</time></trkpt><trkpt lat="46.18178376472792" lon="10.210711813031413"><ele>1779.0</ele><time>2026-04-27T12:49:37Z</time></trkpt><trkpt lat="46.181707638946826" lon="10.210664626636209"><ele>1779.0</ele><time>2026-04-27T12:49:38Z</time></trkpt><trkpt lat="46.18165602140245" lon="10.210536349428667"><ele>1779.0</ele><time>2026-04-27T12:49:40Z</time></trkpt><trkpt lat="46.18160329405628" lon="10.210472037126936"><ele>1779.0</ele><time>2026-04-27T12:49:41Z</time></trkpt><trkpt lat="46.181574270975396" lon="10.21035358507874"><ele>1778.3333333333333</ele><time>2026-04-27T12:49:42Z</time></trkpt><trkpt lat="46.18154200141036" lon="10.21026858629187"><ele>1777.6666666666665</ele><time>2026-04-27T12:49:43Z</time></trkpt><trkpt lat="46.181511282467135" lon="10.21018360675419"><ele>1777.0</ele><time>2026-04-27T12:49:44Z</time></trkpt><trkpt lat="46.18148052703169" lon="10.210099116934849"><ele>1776.3333333333333</ele><time>2026-04-27T12:49:45Z</time></trkpt><trkpt lat="46.181412811831365" lon="10.209959758809298"><ele>1775.6666666666665</ele><time>2026-04-27T12:49:47Z</time></trkpt><trkpt lat="46.18137442063568" lon="10.209884103409298"><ele>1775.0</ele><time>2026-04-27T12:49:48Z</time></trkpt><trkpt lat="46.18130463013042" lon="10.209781695195439"><ele>1775.0</ele><time>2026-04-27T12:49:50Z</time></trkpt><trkpt lat="46.181247179791406" lon="10.209661964572856"><ele>1775.0</ele><time>2026-04-27T12:49:52Z</time></trkpt><trkpt lat="46.181188444056616" lon="10.209501314744891"><ele>1775.0</ele><time>2026-04-27T12:49:54Z</time></trkpt><trkpt lat="46.181156311552876" lon="10.209407947836146"><ele>1775.0</ele><time>2026-04-27T12:49:55Z</time></trkpt><trkpt lat="46.181130629008734" lon="10.209321495708982"><ele>1775.0</ele><time>2026-04-27T12:49:56Z</time></trkpt><trkpt lat="46.18110546837268" lon="10.209146495133737"><ele>1774.9999999999998</ele><time>2026-04-27T12:49:58Z</time></trkpt><trkpt lat="46.18109320202797" lon="10.209055992190642"><ele>1775.0</ele><time>2026-04-27T12:49:59Z</time></trkpt><trkpt lat="46.18108832885816" lon="10.208957219759696"><ele>1775.0</ele><time>2026-04-27T12:50:00Z</time></trkpt><trkpt lat="46.181055625802365" lon="10.208860366139493"><ele>1775.0</ele><time>2026-04-27T12:50:01Z</time></trkpt><trkpt lat="46.181016047704595" lon="10.208770876961296"><ele>1774.9999999999998</ele><time>2026-04-27T12:50:02Z</time></trkpt><trkpt lat="46.18096044558192" lon="10.208628259526646"><ele>1775.0</ele><time>2026-04-27T12:50:04Z</time></trkpt><trkpt lat="46.18091271334456" lon="10.208459685533866"><ele>1776.1666666666665</ele><time>2026-04-27T12:50:06Z</time></trkpt><trkpt lat="46.1808850250047" lon="10.208375029820337"><ele>1777.3333333333333</ele><time>2026-04-27T12:50:07Z</time></trkpt><trkpt lat="46.18085700651553" lon="10.208286022702046"><ele>1778.5</ele><time>2026-04-27T12:50:08Z</time></trkpt><trkpt lat="46.18080003204565" lon="10.208106052513232"><ele>1779.6666666666665</ele><time>2026-04-27T12:50:10Z</time></trkpt><trkpt lat="46.18077283054449" lon="10.208006265656344"><ele>1780.8333333333333</ele><time>2026-04-27T12:50:11Z</time></trkpt><trkpt lat="46.18074582804355" lon="10.207908964742266"><ele>1782.0</ele><time>2026-04-27T12:50:12Z</time></trkpt><trkpt lat="46.1807302777003" lon="10.207810610542762"><ele>1783.3999999999999</ele><time>2026-04-27T12:50:13Z</time></trkpt><trkpt lat="46.18070308784057" lon="10.207724652466482"><ele>1784.7999999999997</ele><time>2026-04-27T12:50:14Z</time></trkpt><trkpt lat="46.18067376757181" lon="10.207639798362434"><ele>1786.2</ele><time>2026-04-27T12:50:15Z</time></trkpt><trkpt lat="46.180601901171734" lon="10.20749406231966"><ele>1787.6</ele><time>2026-04-27T12:50:17Z</time></trkpt><trkpt lat="46.18051464078545" lon="10.20738682200813"><ele>1789.0</ele><time>2026-04-27T12:50:19Z</time></trkpt><trkpt lat="46.18047112507722" lon="10.207286644190374"><ele>1782.8000000000002</ele><time>2026-04-27T12:50:21Z</time></trkpt><trkpt lat="46.18042430636309" lon="10.207191317582438"><ele>1776.6000000000001</ele><time>2026-04-27T12:50:23Z</time></trkpt><trkpt lat="46.18040602470492" lon="10.207041404671285"><ele>1770.4</ele><time>2026-04-27T12:50:25Z</time></trkpt><trkpt lat="46.18040454287773" lon="10.206924145492943"><ele>1764.2</ele><time>2026-04-27T12:50:27Z</time></trkpt><trkpt lat="46.18042298135009" lon="10.206778850997644"><ele>1758.0</ele><time>2026-04-27T12:50:29Z</time></trkpt><trkpt lat="46.180449227057174" lon="10.206647534332113"><ele>1758.0</ele><time>2026-04-27T12:50:31Z</time></trkpt><trkpt lat="46.18046998137233" lon="10.206500099327474"><ele>1758.0000000000002</ele><time>2026-04-27T12:50:33Z</time></trkpt><trkpt lat="46.18047839517388" lon="10.206328291077929"><ele>1758.0000000000002</ele><time>2026-04-27T12:50:35Z</time></trkpt><trkpt lat="46.180493793224564" lon="10.206177898801783"><ele>1758.0</ele><time>2026-04-27T12:50:37Z</time></trkpt><trkpt lat="46.18049542814905" lon="10.206078599195473"><ele>1758.0</ele><time>2026-04-27T12:50:38Z</time></trkpt><trkpt lat="46.18049864401914" lon="10.205906331971434"><ele>1757.2</ele><time>2026-04-27T12:50:40Z</time></trkpt><trkpt lat="46.180498758241306" lon="10.205736809272087"><ele>1756.4</ele><time>2026-04-27T12:50:42Z</time></trkpt><trkpt lat="46.180492029516884" lon="10.20564455465553"><ele>1755.6000000000001</ele><time>2026-04-27T12:50:44Z</time></trkpt><trkpt lat="46.180459854276144" lon="10.2054976683843"><ele>1754.8000000000002</ele><time>2026-04-27T12:51:33Z</time></trkpt><trkpt lat="46.18044256808737" lon="10.205406440494054"><ele>1754.0</ele><time>2026-04-27T12:51:34Z</time></trkpt><trkpt lat="46.180423078052115" lon="10.205227121132541"><ele>1753.9999999999998</ele><time>2026-04-27T12:51:36Z</time></trkpt><trkpt lat="46.18041565330406" lon="10.205128886052092"><ele>1754.0</ele><time>2026-04-27T12:51:37Z</time></trkpt><trkpt lat="46.18041101984563" lon="10.205029559325936"><ele>1754.0</ele><time>2026-04-27T12:51:38Z</time></trkpt><trkpt lat="46.18042867318951" lon="10.204881915866244"><ele>1754.0</ele><time>2026-04-27T12:51:40Z</time></trkpt><trkpt lat="46.18041772231118" lon="10.204781833615217"><ele>1753.9999999999998</ele><time>2026-04-27T12:51:42Z</time></trkpt><trkpt lat="46.18044436054614" lon="10.204659278405037"><ele>1754.0</ele><time>2026-04-27T12:51:44Z</time></trkpt><trkpt lat="46.18046955642345" lon="10.204506907896835"><ele>1754.0</ele><time>2026-04-27T12:51:46Z</time></trkpt><trkpt lat="46.18048190288784" lon="10.204416338019838"><ele>1754.0</ele><time>2026-04-27T12:51:47Z</time></trkpt><trkpt lat="46.18048183739069" lon="10.204318962317041"><ele>1754.0</ele><time>2026-04-27T12:51:48Z</time></trkpt><trkpt lat="46.18049061204126" lon="10.204162658420701"><ele>1754.0</ele><time>2026-04-27T12:51:50Z</time></trkpt><trkpt lat="46.18046189727835" lon="10.204010221460422"><ele>1754.0</ele><time>2026-04-27T12:51:52Z</time></trkpt><trkpt lat="46.180426580835565" lon="10.203865909075745"><ele>1754.5</ele><time>2026-04-27T12:51:54Z</time></trkpt><trkpt lat="46.18037651769851" lon="10.203710991560639"><ele>1755.0</ele><time>2026-04-27T12:51:56Z</time></trkpt><trkpt lat="46.18034215371585" lon="10.203547382998439"><ele>1755.5</ele><time>2026-04-27T12:51:58Z</time></trkpt><trkpt lat="46.1803044027704" lon="10.203386523380281"><ele>1756.0</ele><time>2026-04-27T12:52:00Z</time></trkpt><trkpt lat="46.180277515431776" lon="10.203227543025013"><ele>1756.75</ele><time>2026-04-27T12:52:02Z</time></trkpt><trkpt lat="46.180257948846865" lon="10.203049991691346"><ele>1757.5</ele><time>2026-04-27T12:52:04Z</time></trkpt><trkpt lat="46.18022558723234" lon="10.202858659581413"><ele>1758.25</ele><time>2026-04-27T12:52:06Z</time></trkpt><trkpt lat="46.18019573638519" lon="10.20268583675355"><ele>1759.0</ele><time>2026-04-27T12:52:08Z</time></trkpt><trkpt lat="46.18015971170648" lon="10.202525498756135"><ele>1759.0</ele><time>2026-04-27T12:52:10Z</time></trkpt><trkpt lat="46.180136457699156" lon="10.20237731853304"><ele>1759.0</ele><time>2026-04-27T12:52:12Z</time></trkpt><trkpt lat="46.180112014402994" lon="10.20222082224609"><ele>1759.0</ele><time>2026-04-27T12:52:14Z</time></trkpt><trkpt lat="46.180090788734475" lon="10.202053568984539"><ele>1759.0</ele><time>2026-04-27T12:52:16Z</time></trkpt><trkpt lat="46.1800835433821" lon="10.201870260453044"><ele>1758.5000000000002</ele><time>2026-04-27T12:52:18Z</time></trkpt><trkpt lat="46.180082260568284" lon="10.201766316930138"><ele>1758.0</ele><time>2026-04-27T12:52:19Z</time></trkpt><trkpt lat="46.180084297749374" lon="10.201669334024574"><ele>1757.5</ele><time>2026-04-27T12:52:20Z</time></trkpt><trkpt lat="46.18008422030679" lon="10.201571356109644"><ele>1757.0</ele><time>2026-04-27T12:52:21Z</time></trkpt><trkpt lat="46.18008101940344" lon="10.201418394952427"><ele>1756.5000000000002</ele><time>2026-04-27T12:52:23Z</time></trkpt><trkpt lat="46.180075863069995" lon="10.201327623582161"><ele>1756.0</ele><time>2026-04-27T12:52:24Z</time></trkpt><trkpt lat="46.180083729966576" lon="10.20117128530229"><ele>1755.6</ele><time>2026-04-27T12:52:26Z</time></trkpt><trkpt lat="46.18010008029598" lon="10.201027792108933"><ele>1755.1999999999998</ele><time>2026-04-27T12:52:28Z</time></trkpt><trkpt lat="46.18013715980676" lon="10.20090088686454"><ele>1754.8000000000002</ele><time>2026-04-27T12:52:30Z</time></trkpt><trkpt lat="46.18015412132932" lon="10.200765605779038"><ele>1754.4</ele><time>2026-04-27T12:52:32Z</time></trkpt><trkpt lat="46.18013697663466" lon="10.200596946420726"><ele>1754.0</ele><time>2026-04-27T12:52:34Z</time></trkpt><trkpt lat="46.180125409746005" lon="10.200501017294986"><ele>1754.6666666666665</ele><time>2026-04-27T12:52:35Z</time></trkpt><trkpt lat="46.18011104088253" lon="10.200409379074431"><ele>1755.3333333333333</ele><time>2026-04-27T12:52:36Z</time></trkpt><trkpt lat="46.18008166716489" lon="10.200327222068797"><ele>1756.0</ele><time>2026-04-27T12:52:37Z</time></trkpt><trkpt lat="46.18004904831745" lon="10.200162700679147"><ele>1756.6666666666665</ele><time>2026-04-27T12:52:39Z</time></trkpt><trkpt lat="46.18003479212179" lon="10.200052488139265"><ele>1757.3333333333333</ele><time>2026-04-27T12:52:41Z</time></trkpt><trkpt lat="46.179995635524456" lon="10.199903808868095"><ele>1758.0</ele><time>2026-04-27T12:52:43Z</time></trkpt><trkpt lat="46.179967308989" lon="10.19982109185702"><ele>1759.6000000000001</ele><time>2026-04-27T12:52:44Z</time></trkpt><trkpt lat="46.179919662695205" lon="10.199758043489958"><ele>1761.2000000000003</ele><time>2026-04-27T12:52:45Z</time></trkpt><trkpt lat="46.179856033729735" lon="10.199603741125527"><ele>1762.8</ele><time>2026-04-27T12:52:47Z</time></trkpt><trkpt lat="46.17980615195935" lon="10.199471898284614"><ele>1764.4</ele><time>2026-04-27T12:52:49Z</time></trkpt><trkpt lat="46.179737140243226" lon="10.199338690545497"><ele>1766.0</ele><time>2026-04-27T12:52:51Z</time></trkpt><trkpt lat="46.17967218789788" lon="10.199247224762093"><ele>1761.4</ele><time>2026-04-27T12:52:53Z</time></trkpt><trkpt lat="46.17960969722951" lon="10.199130520839995"><ele>1756.8</ele><time>2026-04-27T12:52:55Z</time></trkpt><trkpt lat="46.17954530542868" lon="10.198985629500404"><ele>1752.2000000000003</ele><time>2026-04-27T12:52:57Z</time></trkpt><trkpt lat="46.17950074509602" lon="10.198870076148676"><ele>1747.6000000000001</ele><time>2026-04-27T12:52:59Z</time></trkpt><trkpt lat="46.179478686986435" lon="10.198772501325193"><ele>1743.0</ele><time>2026-04-27T12:53:00Z</time></trkpt><trkpt lat="46.17944909863033" lon="10.198667823626213"><ele>1743.0</ele><time>2026-04-27T12:53:01Z</time></trkpt><trkpt lat="46.17943719258142" lon="10.198574858300136"><ele>1743.0</ele><time>2026-04-27T12:53:02Z</time></trkpt><trkpt lat="46.179416022802776" lon="10.198408441856113"><ele>1743.0</ele><time>2026-04-27T12:53:04Z</time></trkpt><trkpt lat="46.17940919629479" lon="10.198289962330945"><ele>1743.0</ele><time>2026-04-27T12:53:05Z</time></trkpt><trkpt lat="46.179387124005444" lon="10.198172494415296"><ele>1743.0</ele><time>2026-04-27T12:53:06Z</time></trkpt><trkpt lat="46.17936615294734" lon="10.198086191362284"><ele>1743.0</ele><time>2026-04-27T12:53:07Z</time></trkpt><trkpt lat="46.17930101462708" lon="10.197944463414645"><ele>1743.6000000000001</ele><time>2026-04-27T12:53:09Z</time></trkpt><trkpt lat="46.17926484523445" lon="10.19786966270825"><ele>1744.2000000000003</ele><time>2026-04-27T12:53:10Z</time></trkpt><trkpt lat="46.17925912674162" lon="10.197772749899114"><ele>1744.8</ele><time>2026-04-27T12:53:11Z</time></trkpt><trkpt lat="46.17917880896679" lon="10.1976285652795"><ele>1745.4</ele><time>2026-04-27T12:53:13Z</time></trkpt><trkpt lat="46.17911421267784" lon="10.197488086877204"><ele>1746.0</ele><time>2026-04-27T12:53:15Z</time></trkpt><trkpt lat="46.179093816015246" lon="10.197380545235248"><ele>1746.0</ele><time>2026-04-27T12:53:17Z</time></trkpt><trkpt lat="46.179083958340364" lon="10.197218079729502"><ele>1746.0</ele><time>2026-04-27T12:53:19Z</time></trkpt><trkpt lat="46.17906278471853" lon="10.197067962687937"><ele>1746.0</ele><time>2026-04-27T12:53:21Z</time></trkpt><trkpt lat="46.179033760099834" lon="10.196909759866974"><ele>1746.0</ele><time>2026-04-27T12:53:23Z</time></trkpt><trkpt lat="46.17899537139994" lon="10.196767742252005"><ele>1746.0</ele><time>2026-04-27T12:53:26Z</time></trkpt><trkpt lat="46.178986245866454" lon="10.196653677650104"><ele>1744.6666666666667</ele><time>2026-04-27T12:53:28Z</time></trkpt><trkpt lat="46.1789797620995" lon="10.196546295657328"><ele>1743.3333333333335</ele><time>2026-04-27T12:53:30Z</time></trkpt><trkpt lat="46.17894798342124" lon="10.196444069844272"><ele>1742.0</ele><time>2026-04-27T12:53:32Z</time></trkpt><trkpt lat="46.17892513857873" lon="10.196301190764599"><ele>1740.6666666666667</ele><time>2026-04-27T12:53:34Z</time></trkpt><trkpt lat="46.17887267862059" lon="10.196237504788344"><ele>1739.3333333333335</ele><time>2026-04-27T12:53:35Z</time></trkpt><trkpt lat="46.178825237800666" lon="10.196130734981168"><ele>1738.0</ele><time>2026-04-27T12:53:37Z</time></trkpt><trkpt lat="46.178799307840215" lon="10.195994120246302"><ele>1737.6666666666667</ele><time>2026-04-27T12:53:39Z</time></trkpt><trkpt lat="46.17878873151636" lon="10.195868399985887"><ele>1737.3333333333335</ele><time>2026-04-27T12:53:41Z</time></trkpt><trkpt lat="46.17878027265992" lon="10.195765741727413"><ele>1737.0</ele><time>2026-04-27T12:53:43Z</time></trkpt><trkpt lat="46.17876981784265" lon="10.195635781949663"><ele>1736.6666666666665</ele><time>2026-04-27T12:53:46Z</time></trkpt><trkpt lat="46.17879218158232" lon="10.195540754736518"><ele>1736.3333333333333</ele><time>2026-04-27T12:53:48Z</time></trkpt><trkpt lat="46.178855845703886" lon="10.195450008785384"><ele>1736.0</ele><time>2026-04-27T12:53:50Z</time></trkpt><trkpt lat="46.178937911182544" lon="10.195381194308073"><ele>1736.0</ele><time>2026-04-27T12:53:52Z</time></trkpt><trkpt lat="46.179017375876214" lon="10.19530800127655"><ele>1736.0</ele><time>2026-04-27T12:53:54Z</time></trkpt><trkpt lat="46.17908419094257" lon="10.195226621773585"><ele>1736.0</ele><time>2026-04-27T12:53:56Z</time></trkpt><trkpt lat="46.17916565905398" lon="10.195158481476247"><ele>1736.0</ele><time>2026-04-27T12:53:58Z</time></trkpt><trkpt lat="46.17921900505613" lon="10.195037890801393"><ele>1736.0</ele><time>2026-04-27T12:54:00Z</time></trkpt><trkpt lat="46.17927719400856" lon="10.194937847690571"><ele>1733.8</ele><time>2026-04-27T12:54:02Z</time></trkpt><trkpt lat="46.17928854754253" lon="10.194796808395907"><ele>1731.6</ele><time>2026-04-27T12:54:04Z</time></trkpt><trkpt lat="46.17929374854489" lon="10.194659742433762"><ele>1729.4</ele><time>2026-04-27T12:54:06Z</time></trkpt><trkpt lat="46.17930553039239" lon="10.194526764548177"><ele>1727.2</ele><time>2026-04-27T12:54:08Z</time></trkpt><trkpt lat="46.17933936451912" lon="10.194398315669405"><ele>1725.0</ele><time>2026-04-27T12:54:10Z</time></trkpt><trkpt lat="46.179389041511094" lon="10.194271793579519"><ele>1725.0</ele><time>2026-04-27T12:54:12Z</time></trkpt><trkpt lat="46.17943399535815" lon="10.194170200251087"><ele>1725.0</ele><time>2026-04-27T12:54:14Z</time></trkpt><trkpt lat="46.179474743092854" lon="10.194041404393458"><ele>1725.0</ele><time>2026-04-27T12:54:16Z</time></trkpt><trkpt lat="46.17951253473584" lon="10.193959866770436"><ele>1725.0</ele><time>2026-04-27T12:54:18Z</time></trkpt><trkpt lat="46.17952820442555" lon="10.193824809378944"><ele>1725.0</ele><time>2026-04-27T12:54:20Z</time></trkpt><trkpt lat="46.179541996172254" lon="10.19365836212253"><ele>1722.6</ele><time>2026-04-27T12:54:22Z</time></trkpt><trkpt lat="46.17955753536424" lon="10.193493988968424"><ele>1720.2</ele><time>2026-04-27T12:54:24Z</time></trkpt><trkpt lat="46.17956431466004" lon="10.193344054295908"><ele>1717.8000000000002</ele><time>2026-04-27T12:54:26Z</time></trkpt><trkpt lat="46.17957439936914" lon="10.193246606814764"><ele>1715.4</ele><time>2026-04-27T12:54:28Z</time></trkpt><trkpt lat="46.1795789310686" lon="10.193127621116428"><ele>1713.0</ele><time>2026-04-27T12:54:30Z</time></trkpt><trkpt lat="46.17958821826066" lon="10.192991141709083"><ele>1711.8333333333333</ele><time>2026-04-27T12:54:32Z</time></trkpt><trkpt lat="46.17958485182278" lon="10.192864297090681"><ele>1710.6666666666665</ele><time>2026-04-27T12:54:34Z</time></trkpt><trkpt lat="46.17955114244353" lon="10.192742449209502"><ele>1709.5</ele><time>2026-04-27T12:54:36Z</time></trkpt><trkpt lat="46.17949792638276" lon="10.192666907935909"><ele>1708.3333333333333</ele><time>2026-04-27T12:54:38Z</time></trkpt><trkpt lat="46.17951012950497" lon="10.19253252950162"><ele>1707.1666666666665</ele><time>2026-04-27T12:54:41Z</time></trkpt><trkpt lat="46.179564153126634" lon="10.192465283747898"><ele>1706.0</ele><time>2026-04-27T12:54:43Z</time></trkpt><trkpt lat="46.17963206390799" lon="10.192422072374175"><ele>1706.0</ele><time>2026-04-27T12:54:45Z</time></trkpt><trkpt lat="46.179713108410134" lon="10.1923871618438"><ele>1706.0</ele><time>2026-04-27T12:54:47Z</time></trkpt><trkpt lat="46.179792330447825" lon="10.192351920318249"><ele>1706.0</ele><time>2026-04-27T12:54:49Z</time></trkpt><trkpt lat="46.17987801940985" lon="10.192316566717627"><ele>1706.0</ele><time>2026-04-27T12:54:51Z</time></trkpt><trkpt lat="46.179963190364425" lon="10.192246097226898"><ele>1706.0</ele><time>2026-04-27T12:54:53Z</time></trkpt><trkpt lat="46.18004231665619" lon="10.192146041498154"><ele>1706.1666666666665</ele><time>2026-04-27T12:54:55Z</time></trkpt><trkpt lat="46.1800662748332" lon="10.192025548802915"><ele>1706.3333333333333</ele><time>2026-04-27T12:54:57Z</time></trkpt><trkpt lat="46.18003744518316" lon="10.19192243780822"><ele>1706.5</ele><time>2026-04-27T12:54:59Z</time></trkpt><trkpt lat="46.179985253689715" lon="10.191860957869409"><ele>1706.6666666666665</ele><time>2026-04-27T12:55:01Z</time></trkpt><trkpt lat="46.17990993934961" lon="10.191812193887488"><ele>1706.8333333333333</ele><time>2026-04-27T12:55:03Z</time></trkpt><trkpt lat="46.179804768222944" lon="10.19179662004653"><ele>1707.0</ele><time>2026-04-27T12:55:05Z</time></trkpt><trkpt lat="46.179704267008994" lon="10.191774954237221"><ele>1707.0</ele><time>2026-04-27T12:55:07Z</time></trkpt><trkpt lat="46.17962359811875" lon="10.19173468591028"><ele>1706.9999999999998</ele><time>2026-04-27T12:55:09Z</time></trkpt><trkpt lat="46.17954671168082" lon="10.191696571960483"><ele>1706.9999999999998</ele><time>2026-04-27T12:55:11Z</time></trkpt><trkpt lat="46.17945503885308" lon="10.191628363997664"><ele>1707.0</ele><time>2026-04-27T12:55:13Z</time></trkpt><trkpt lat="46.1793537772203" lon="10.191521023467052"><ele>1707.0</ele><time>2026-04-27T12:55:15Z</time></trkpt><trkpt lat="46.17930195330361" lon="10.19145777931488"><ele>1706.3333333333333</ele><time>2026-04-27T12:55:16Z</time></trkpt><trkpt lat="46.17925243963601" lon="10.191397354457552"><ele>1705.6666666666665</ele><time>2026-04-27T12:55:17Z</time></trkpt><trkpt lat="46.17920281759064" lon="10.191334134158009"><ele>1705.0</ele><time>2026-04-27T12:55:18Z</time></trkpt><trkpt lat="46.17910242094732" lon="10.191203834490379"><ele>1704.3333333333333</ele><time>2026-04-27T12:55:20Z</time></trkpt><trkpt lat="46.17904486465845" lon="10.191134221253373"><ele>1703.6666666666665</ele><time>2026-04-27T12:55:21Z</time></trkpt><trkpt lat="46.17898705494582" lon="10.19106920900761"><ele>1703.0</ele><time>2026-04-27T12:55:22Z</time></trkpt><trkpt lat="46.17892557248008" lon="10.191004318932482"><ele>1703.0</ele><time>2026-04-27T12:55:23Z</time></trkpt><trkpt lat="46.178858651411566" lon="10.190939438619944"><ele>1703.0</ele><time>2026-04-27T12:55:24Z</time></trkpt><trkpt lat="46.17879751054528" lon="10.190888862335258"><ele>1703.0</ele><time>2026-04-27T12:55:25Z</time></trkpt><trkpt lat="46.178689453687" lon="10.190830999087735"><ele>1703.0</ele><time>2026-04-27T12:55:27Z</time></trkpt><trkpt lat="46.178582608696566" lon="10.19080571156502"><ele>1703.0</ele><time>2026-04-27T12:55:29Z</time></trkpt><trkpt lat="46.17847766731817" lon="10.190739850794138"><ele>1703.0</ele><time>2026-04-27T12:55:31Z</time></trkpt><trkpt lat="46.17837099650033" lon="10.190688046514987"><ele>1703.0</ele><time>2026-04-27T12:55:33Z</time></trkpt><trkpt lat="46.178275136834365" lon="10.190626545981988"><ele>1703.0</ele><time>2026-04-27T12:55:35Z</time></trkpt><trkpt lat="46.17818578888083" lon="10.190532336056233"><ele>1703.0</ele><time>2026-04-27T12:55:37Z</time></trkpt><trkpt lat="46.17813478420163" lon="10.190406430394576"><ele>1703.0</ele><time>2026-04-27T12:55:39Z</time></trkpt><trkpt lat="46.17809120939797" lon="10.190257231340292"><ele>1701.8333333333333</ele><time>2026-04-27T12:55:41Z</time></trkpt><trkpt lat="46.178045401841764" lon="10.190096028803643"><ele>1700.6666666666665</ele><time>2026-04-27T12:55:43Z</time></trkpt><trkpt lat="46.178040598713025" lon="10.189991746310694"><ele>1699.5</ele><time>2026-04-27T12:55:44Z</time></trkpt><trkpt lat="46.178015603129595" lon="10.189885849783556"><ele>1698.3333333333335</ele><time>2026-04-27T12:55:45Z</time></trkpt><trkpt lat="46.177985788203976" lon="10.189781876594072"><ele>1697.1666666666667</ele><time>2026-04-27T12:55:46Z</time></trkpt><trkpt lat="46.17796874773132" lon="10.189673366311343"><ele>1696.0</ele><time>2026-04-27T12:55:47Z</time></trkpt><trkpt lat="46.177952230276695" lon="10.189583467882155"><ele>1695.8333333333335</ele><time>2026-04-27T12:55:48Z</time></trkpt><trkpt lat="46.177937697393" lon="10.189494158151561"><ele>1695.6666666666667</ele><time>2026-04-27T12:55:49Z</time></trkpt><trkpt lat="46.17792665118026" lon="10.189396609950569"><ele>1695.5</ele><time>2026-04-27T12:55:50Z</time></trkpt><trkpt lat="46.177912049400284" lon="10.189302731373182"><ele>1695.3333333333335</ele><time>2026-04-27T12:55:51Z</time></trkpt><trkpt lat="46.1778907485812" lon="10.189146748168625"><ele>1695.1666666666667</ele><time>2026-04-27T12:55:53Z</time></trkpt><trkpt lat="46.17788655489297" lon="10.188998315720834"><ele>1695.0</ele><time>2026-04-27T12:55:55Z</time></trkpt><trkpt lat="46.177911124951194" lon="10.188830988602428"><ele>1693.6666666666667</ele><time>2026-04-27T12:55:57Z</time></trkpt><trkpt lat="46.17792807693376" lon="10.188739215369722"><ele>1692.3333333333335</ele><time>2026-04-27T12:55:58Z</time></trkpt><trkpt lat="46.17795510175312" lon="10.188643277744694"><ele>1691.0</ele><time>2026-04-27T12:55:59Z</time></trkpt><trkpt lat="46.177988896001125" lon="10.188531077414169"><ele>1689.6666666666667</ele><time>2026-04-27T12:56:00Z</time></trkpt><trkpt lat="46.17801296361279" lon="10.18842361880939"><ele>1688.3333333333335</ele><time>2026-04-27T12:56:01Z</time></trkpt><trkpt lat="46.17802756278216" lon="10.188305646823977"><ele>1687.0</ele><time>2026-04-27T12:56:02Z</time></trkpt><trkpt lat="46.17803259077293" lon="10.188182279740214"><ele>1686.1666666666667</ele><time>2026-04-27T12:56:03Z</time></trkpt><trkpt lat="46.17805428230613" lon="10.188072171473435"><ele>1685.3333333333335</ele><time>2026-04-27T12:56:04Z</time></trkpt><trkpt lat="46.178059380227815" lon="10.187965104293566"><ele>1684.5</ele><time>2026-04-27T12:56:05Z</time></trkpt><trkpt lat="46.17806500204967" lon="10.187854386892896"><ele>1683.6666666666665</ele><time>2026-04-27T12:56:06Z</time></trkpt><trkpt lat="46.17806584050025" lon="10.187747833862264"><ele>1682.8333333333333</ele><time>2026-04-27T12:56:07Z</time></trkpt><trkpt lat="46.178051849303664" lon="10.18763609002963"><ele>1682.0</ele><time>2026-04-27T12:56:08Z</time></trkpt><trkpt lat="46.1780608697326" lon="10.187509536765383"><ele>1681.9999999999998</ele><time>2026-04-27T12:56:09Z</time></trkpt><trkpt lat="46.17806521314769" lon="10.187409964315492"><ele>1682.0</ele><time>2026-04-27T12:56:10Z</time></trkpt><trkpt lat="46.17807104702665" lon="10.187310210944684"><ele>1682.0</ele><time>2026-04-27T12:56:11Z</time></trkpt><trkpt lat="46.17807077773105" lon="10.187214164005024"><ele>1682.0</ele><time>2026-04-27T12:56:12Z</time></trkpt><trkpt lat="46.178095271279155" lon="10.18706908171477"><ele>1681.9999999999998</ele><time>2026-04-27T12:56:14Z</time></trkpt><trkpt lat="46.17811067481637" lon="10.186934470167516"><ele>1682.0</ele><time>2026-04-27T12:56:16Z</time></trkpt><trkpt lat="46.17814964909375" lon="10.186791532872805"><ele>1681.3333333333333</ele><time>2026-04-27T12:56:18Z</time></trkpt><trkpt lat="46.17818461967913" lon="10.186693667757192"><ele>1680.6666666666665</ele><time>2026-04-27T12:56:20Z</time></trkpt><trkpt lat="46.17819451885528" lon="10.186580801920464"><ele>1680.0</ele><time>2026-04-27T12:56:22Z</time></trkpt><trkpt lat="46.17821730613912" lon="10.18644741406538"><ele>1679.3333333333335</ele><time>2026-04-27T12:56:24Z</time></trkpt><trkpt lat="46.17823003198663" lon="10.186312781770877"><ele>1678.6666666666667</ele><time>2026-04-27T12:56:26Z</time></trkpt><trkpt lat="46.17822569333292" lon="10.186172675094854"><ele>1678.0</ele><time>2026-04-27T12:56:28Z</time></trkpt><trkpt lat="46.17823123685346" lon="10.185993092344528"><ele>1680.1666666666667</ele><time>2026-04-27T12:56:30Z</time></trkpt><trkpt lat="46.17821169275183" lon="10.185906446462116"><ele>1682.3333333333335</ele><time>2026-04-27T12:56:31Z</time></trkpt><trkpt lat="46.17821845086275" lon="10.185814371008226"><ele>1684.5</ele><time>2026-04-27T12:56:32Z</time></trkpt><trkpt lat="46.17819584072453" lon="10.18566465916151"><ele>1686.6666666666665</ele><time>2026-04-27T12:56:34Z</time></trkpt><trkpt lat="46.178191955030435" lon="10.185513993874885"><ele>1688.8333333333333</ele><time>2026-04-27T12:56:36Z</time></trkpt><trkpt lat="46.17821250430293" lon="10.185416132633344"><ele>1691.0</ele><time>2026-04-27T12:56:38Z</time></trkpt><trkpt lat="46.17823397861394" lon="10.185317264831095"><ele>1690.9999999999998</ele><time>2026-04-27T12:56:40Z</time></trkpt><trkpt lat="46.17823161079082" lon="10.185208344394235"><ele>1691.0</ele><time>2026-04-27T12:56:42Z</time></trkpt><trkpt lat="46.178168833485415" lon="10.185175244352891"><ele>1691.0</ele><time>2026-04-27T12:56:44Z</time></trkpt><trkpt lat="46.178060339156595" lon="10.185139271216132"><ele>1691.0</ele><time>2026-04-27T12:56:46Z</time></trkpt><trkpt lat="46.17796911007236" lon="10.185151331738759"><ele>1690.9999999999998</ele><time>2026-04-27T12:56:48Z</time></trkpt><trkpt lat="46.17790030844633" lon="10.185156138145228"><ele>1691.0</ele><time>2026-04-27T12:56:50Z</time></trkpt><trkpt lat="46.17784269317577" lon="10.1850765933514"><ele>1687.9999999999998</ele><time>2026-04-27T12:56:53Z</time></trkpt><trkpt lat="46.1778200650106" lon="10.184970799819435"><ele>1685.0</ele><time>2026-04-27T12:56:55Z</time></trkpt><trkpt lat="46.17782315885232" lon="10.184867193754126"><ele>1682.0</ele><time>2026-04-27T12:56:57Z</time></trkpt><trkpt lat="46.17782504741334" lon="10.184740717067182"><ele>1679.0</ele><time>2026-04-27T12:56:59Z</time></trkpt><trkpt lat="46.17783566532897" lon="10.184602780940514"><ele>1675.9999999999998</ele><time>2026-04-27T12:57:01Z</time></trkpt><trkpt lat="46.177869285666716" lon="10.184488762758637"><ele>1673.0</ele><time>2026-04-27T12:57:03Z</time></trkpt><trkpt lat="46.17786280570907" lon="10.184352667400196"><ele>1671.8333333333333</ele><time>2026-04-27T12:57:05Z</time></trkpt><trkpt lat="46.17786731950276" lon="10.184243403586148"><ele>1670.6666666666665</ele><time>2026-04-27T12:57:07Z</time></trkpt><trkpt lat="46.177870139218626" lon="10.184126752405486"><ele>1669.5</ele><time>2026-04-27T12:57:09Z</time></trkpt><trkpt lat="46.177882816170765" lon="10.184025484074192"><ele>1668.3333333333335</ele><time>2026-04-27T12:57:11Z</time></trkpt><trkpt lat="46.177905405903424" lon="10.183895044819097"><ele>1667.1666666666667</ele><time>2026-04-27T12:57:14Z</time></trkpt><trkpt lat="46.177869481665006" lon="10.18377852009731"><ele>1666.0</ele><time>2026-04-27T12:57:17Z</time></trkpt><trkpt lat="46.17787482951511" lon="10.183871565884163"><ele>1666.0</ele><time>2026-04-27T12:57:37Z</time></trkpt><trkpt lat="46.177782662632254" lon="10.18401859935574"><ele>1666.0</ele><time>2026-04-27T12:57:38Z</time></trkpt><trkpt lat="46.17774631306984" lon="10.184141033889784"><ele>1666.0</ele><time>2026-04-27T12:57:40Z</time></trkpt><trkpt lat="46.17772704879536" lon="10.184285661963974"><ele>1666.0</ele><time>2026-04-27T12:57:42Z</time></trkpt><trkpt lat="46.177699838974846" lon="10.18441856712514"><ele>1666.0</ele><time>2026-04-27T12:57:44Z</time></trkpt><trkpt lat="46.177657141042936" lon="10.18452060832979"><ele>1666.0</ele><time>2026-04-27T12:57:47Z</time></trkpt><trkpt lat="46.17762403169637" lon="10.184635727674207"><ele>1666.0</ele><time>2026-04-27T12:57:50Z</time></trkpt><trkpt lat="46.17755319881068" lon="10.18466826961061"><ele>1666.0</ele><time>2026-04-27T12:57:55Z</time></trkpt><trkpt lat="46.177600742140875" lon="10.18460412567079"><ele>1666.0</ele><time>2026-04-27T12:58:00Z</time></trkpt><trkpt lat="46.17767370410487" lon="10.184538944738023"><ele>1666.0</ele><time>2026-04-27T12:58:03Z</time></trkpt><trkpt lat="46.17762500245251" lon="10.184269745553053"><ele>1666.0000000000002</ele><time>2026-04-27T12:58:06Z</time></trkpt><trkpt lat="46.1776363636599" lon="10.184166990236273"><ele>1666.0</ele><time>2026-04-27T12:58:08Z</time></trkpt><trkpt lat="46.177620170956104" lon="10.184025237002233"><ele>1666.0</ele><time>2026-04-27T12:58:10Z</time></trkpt><trkpt lat="46.17762439034077" lon="10.183905376191426"><ele>1666.0</ele><time>2026-04-27T12:58:12Z</time></trkpt><trkpt lat="46.17764168417723" lon="10.183767806142228"><ele>1666.0000000000002</ele><time>2026-04-27T12:58:15Z</time></trkpt><trkpt lat="46.177634548349914" lon="10.18363213729717"><ele>1666.0</ele><time>2026-04-27T12:58:17Z</time></trkpt><trkpt lat="46.177610684835315" lon="10.183493999887276"><ele>1664.6</ele><time>2026-04-27T12:58:19Z</time></trkpt><trkpt lat="46.17761013257957" lon="10.183371625460149"><ele>1663.1999999999998</ele><time>2026-04-27T12:58:21Z</time></trkpt><trkpt lat="46.17761375679896" lon="10.18323227495459"><ele>1661.8000000000002</ele><time>2026-04-27T12:58:23Z</time></trkpt><trkpt lat="46.17765565165199" lon="10.183077764122954"><ele>1660.4</ele><time>2026-04-27T12:58:25Z</time></trkpt><trkpt lat="46.177695782758946" lon="10.182932634420716"><ele>1659.0</ele><time>2026-04-27T12:58:27Z</time></trkpt><trkpt lat="46.17771727993734" lon="10.182786198888328"><ele>1658.0</ele><time>2026-04-27T12:58:29Z</time></trkpt><trkpt lat="46.17774187658944" lon="10.182636326474404"><ele>1657.0</ele><time>2026-04-27T12:58:31Z</time></trkpt><trkpt lat="46.1777366805906" lon="10.182541354084082"><ele>1656.0</ele><time>2026-04-27T12:58:32Z</time></trkpt><trkpt lat="46.17772747068376" lon="10.182403000577834"><ele>1655.0</ele><time>2026-04-27T12:58:34Z</time></trkpt><trkpt lat="46.177720540796784" lon="10.182310949126542"><ele>1654.0</ele><time>2026-04-27T12:58:35Z</time></trkpt><trkpt lat="46.17773537929816" lon="10.182152406065642"><ele>1653.0</ele><time>2026-04-27T12:58:37Z</time></trkpt><trkpt lat="46.17773074774883" lon="10.181996516592514"><ele>1653.2</ele><time>2026-04-27T12:58:39Z</time></trkpt><trkpt lat="46.17771416272617" lon="10.181829758576725"><ele>1653.4</ele><time>2026-04-27T12:58:41Z</time></trkpt><trkpt lat="46.177708059350486" lon="10.181703815117547"><ele>1653.6000000000001</ele><time>2026-04-27T12:58:43Z</time></trkpt><trkpt lat="46.177677172398354" lon="10.18160290657956"><ele>1653.8000000000002</ele><time>2026-04-27T12:58:45Z</time></trkpt><trkpt lat="46.1776525434483" lon="10.181465473271121"><ele>1654.0</ele><time>2026-04-27T12:58:47Z</time></trkpt><trkpt lat="46.177603543347864" lon="10.18132802162945"><ele>1654.0</ele><time>2026-04-27T12:58:49Z</time></trkpt><trkpt lat="46.17754487263252" lon="10.181202288312388"><ele>1654.0</ele><time>2026-04-27T12:58:51Z</time></trkpt><trkpt lat="46.177504571534286" lon="10.181095152793564"><ele>1654.0</ele><time>2026-04-27T12:58:53Z</time></trkpt><trkpt lat="46.17747807097794" lon="10.180992156862667"><ele>1654.0</ele><time>2026-04-27T12:58:55Z</time></trkpt><trkpt lat="46.1774521666013" lon="10.180857913972961"><ele>1654.0</ele><time>2026-04-27T12:58:57Z</time></trkpt><trkpt lat="46.177432849550435" lon="10.180722539662405"><ele>1654.8000000000002</ele><time>2026-04-27T12:58:59Z</time></trkpt><trkpt lat="46.17742352233942" lon="10.180588104971024"><ele>1655.6000000000001</ele><time>2026-04-27T12:59:01Z</time></trkpt><trkpt lat="46.17741226850618" lon="10.180443740830775"><ele>1656.4</ele><time>2026-04-27T12:59:03Z</time></trkpt><trkpt lat="46.17738969775741" lon="10.180313982183636"><ele>1657.2</ele><time>2026-04-27T12:59:05Z</time></trkpt><trkpt lat="46.17733899827292" lon="10.180182076380628"><ele>1658.0</ele><time>2026-04-27T12:59:07Z</time></trkpt><trkpt lat="46.17729343154401" lon="10.180061415783337"><ele>1653.142857142857</ele><time>2026-04-27T12:59:09Z</time></trkpt><trkpt lat="46.17725635454387" lon="10.179949972798168"><ele>1648.2857142857142</ele><time>2026-04-27T12:59:11Z</time></trkpt><trkpt lat="46.17721645331252" lon="10.179865932890612"><ele>1643.4285714285716</ele><time>2026-04-27T12:59:13Z</time></trkpt><trkpt lat="46.17717457357714" lon="10.179785528103778"><ele>1638.5714285714284</ele><time>2026-04-27T12:59:15Z</time></trkpt><trkpt lat="46.17713219930205" lon="10.179705282148923"><ele>1633.7142857142858</ele><time>2026-04-27T12:59:17Z</time></trkpt><trkpt lat="46.177091227198126" lon="10.17961730153584"><ele>1628.857142857143</ele><time>2026-04-27T12:59:19Z</time></trkpt><trkpt lat="46.1770886127995" lon="10.179518578702558"><ele>1624.0</ele><time>2026-04-27T12:59:22Z</time></trkpt><trkpt lat="46.177075115634004" lon="10.17940567731887"><ele>1624.0000000000002</ele><time>2026-04-27T12:59:24Z</time></trkpt><trkpt lat="46.17706511129163" lon="10.179312448191144"><ele>1624.0</ele><time>2026-04-27T12:59:27Z</time></trkpt><trkpt lat="46.17693277767363" lon="10.17929440176764"><ele>1624.0</ele><time>2026-04-27T12:59:33Z</time></trkpt><trkpt lat="46.1768814573204" lon="10.179423198248426"><ele>1624.0</ele><time>2026-04-27T12:59:35Z</time></trkpt><trkpt lat="46.17685575122427" lon="10.179512607337974"><ele>1624.0000000000002</ele><time>2026-04-27T12:59:37Z</time></trkpt><trkpt lat="46.17683209522988" lon="10.17961096627014"><ele>1624.0</ele><time>2026-04-27T12:59:39Z</time></trkpt><trkpt lat="46.176813740450044" lon="10.179711839641218"><ele>1624.0000000000002</ele><time>2026-04-27T12:59:41Z</time></trkpt><trkpt lat="46.17681241940074" lon="10.179815516734418"><ele>1624.0</ele><time>2026-04-27T12:59:43Z</time></trkpt><trkpt lat="46.17680238217551" lon="10.179934057819976"><ele>1624.0</ele><time>2026-04-27T12:59:45Z</time></trkpt><trkpt lat="46.17680940637668" lon="10.180040047211584"><ele>1624.0</ele><time>2026-04-27T12:59:47Z</time></trkpt><trkpt lat="46.176835821486975" lon="10.180125123820268"><ele>1624.0000000000002</ele><time>2026-04-27T12:59:49Z</time></trkpt><trkpt lat="46.17682326078588" lon="10.180256324981269"><ele>1624.0</ele><time>2026-04-27T12:59:52Z</time></trkpt><trkpt lat="46.176755323228534" lon="10.18026873698751"><ele>1624.0</ele><time>2026-04-27T12:59:56Z</time></trkpt><trkpt lat="46.1767093159974" lon="10.180171941722568"><ele>1624.0</ele><time>2026-04-27T13:00:00Z</time></trkpt><trkpt lat="46.176674389815865" lon="10.180078864923349"><ele>1624.0</ele><time>2026-04-27T13:00:02Z</time></trkpt><trkpt lat="46.176654488744624" lon="10.179936091996105"><ele>1624.0</ele><time>2026-04-27T13:00:04Z</time></trkpt><trkpt lat="46.17665380675959" lon="10.179770877269553"><ele>1624.0</ele><time>2026-04-27T13:00:06Z</time></trkpt><trkpt lat="46.17666511827602" lon="10.179606173378751"><ele>1624.0000000000002</ele><time>2026-04-27T13:00:08Z</time></trkpt><trkpt lat="46.17665416891525" lon="10.179516299544582"><ele>1624.0</ele><time>2026-04-27T13:00:09Z</time></trkpt><trkpt lat="46.1766822222329" lon="10.17937673789711"><ele>1624.0</ele><time>2026-04-27T13:00:11Z</time></trkpt><trkpt lat="46.17668399003386" lon="10.179235405147367"><ele>1624.0</ele><time>2026-04-27T13:00:13Z</time></trkpt><trkpt lat="46.17670672898831" lon="10.179143708875785"><ele>1624.0000000000002</ele><time>2026-04-27T13:00:14Z</time></trkpt><trkpt lat="46.176727157577304" lon="10.17899284392837"><ele>1624.0</ele><time>2026-04-27T13:00:16Z</time></trkpt><trkpt lat="46.17674742080139" lon="10.178879299630237"><ele>1623.0000000000002</ele><time>2026-04-27T13:00:18Z</time></trkpt><trkpt lat="46.176773674938715" lon="10.178735377300274"><ele>1622.0</ele><time>2026-04-27T13:00:20Z</time></trkpt><trkpt lat="46.17680133304372" lon="10.178649791735426"><ele>1621.0</ele><time>2026-04-27T13:00:21Z</time></trkpt><trkpt lat="46.176818773277816" lon="10.178553388117631"><ele>1620.0</ele><time>2026-04-27T13:00:22Z</time></trkpt><trkpt lat="46.17683509835272" lon="10.17845912722658"><ele>1619.0000000000002</ele><time>2026-04-27T13:00:23Z</time></trkpt><trkpt lat="46.176855504513036" lon="10.178341302348679"><ele>1618.0</ele><time>2026-04-27T13:00:25Z</time></trkpt><trkpt lat="46.17686119613611" lon="10.178235565768416"><ele>1617.2</ele><time>2026-04-27T13:00:26Z</time></trkpt><trkpt lat="46.17689808999399" lon="10.178087197450298"><ele>1616.4</ele><time>2026-04-27T13:00:28Z</time></trkpt><trkpt lat="46.17693369092365" lon="10.177928721862774"><ele>1615.6000000000001</ele><time>2026-04-27T13:00:30Z</time></trkpt><trkpt lat="46.17697070572686" lon="10.177761424994237"><ele>1614.8000000000002</ele><time>2026-04-27T13:00:32Z</time></trkpt><trkpt lat="46.17699511078096" lon="10.177657090803494"><ele>1614.0</ele><time>2026-04-27T13:00:33Z</time></trkpt><trkpt lat="46.17701194640664" lon="10.17756034980229"><ele>1614.0</ele><time>2026-04-27T13:00:34Z</time></trkpt><trkpt lat="46.177041013019775" lon="10.177472678467035"><ele>1614.0</ele><time>2026-04-27T13:00:35Z</time></trkpt><trkpt lat="46.17705700247281" lon="10.177382746473226"><ele>1614.0</ele><time>2026-04-27T13:00:36Z</time></trkpt><trkpt lat="46.17707151932803" lon="10.177214375095033"><ele>1614.0</ele><time>2026-04-27T13:00:38Z</time></trkpt><trkpt lat="46.1771018322386" lon="10.177068969949103"><ele>1614.0</ele><time>2026-04-27T13:00:40Z</time></trkpt><trkpt lat="46.17710456339104" lon="10.176967616803381"><ele>1614.0</ele><time>2026-04-27T13:00:41Z</time></trkpt><trkpt lat="46.177123242372474" lon="10.176795782547826"><ele>1613.8000000000002</ele><time>2026-04-27T13:00:43Z</time></trkpt><trkpt lat="46.177130042124304" lon="10.17666888859259"><ele>1613.6000000000001</ele><time>2026-04-27T13:00:45Z</time></trkpt><trkpt lat="46.17711335730039" lon="10.17655870998213"><ele>1613.4</ele><time>2026-04-27T13:00:48Z</time></trkpt><trkpt lat="46.177052444107474" lon="10.176467779435017"><ele>1613.2</ele><time>2026-04-27T13:00:50Z</time></trkpt><trkpt lat="46.17695780854967" lon="10.176502744277236"><ele>1613.0</ele><time>2026-04-27T13:00:52Z</time></trkpt><trkpt lat="46.176900230238125" lon="10.176659782042481"><ele>1613.6000000000001</ele><time>2026-04-27T13:00:54Z</time></trkpt><trkpt lat="46.17683653347777" lon="10.176778025233382"><ele>1614.2</ele><time>2026-04-27T13:00:56Z</time></trkpt><trkpt lat="46.17677196954376" lon="10.176880429302038"><ele>1614.8</ele><time>2026-04-27T13:00:58Z</time></trkpt><trkpt lat="46.17670097934691" lon="10.177022223805928"><ele>1615.4</ele><time>2026-04-27T13:01:00Z</time></trkpt><trkpt lat="46.17665013687743" lon="10.177085873226003"><ele>1616.0</ele><time>2026-04-27T13:01:01Z</time></trkpt><trkpt lat="46.17659884114125" lon="10.177143682922948"><ele>1616.0</ele><time>2026-04-27T13:01:02Z</time></trkpt><trkpt lat="46.17651968052235" lon="10.177278274886072"><ele>1616.0</ele><time>2026-04-27T13:01:04Z</time></trkpt><trkpt lat="46.176457753022696" lon="10.177428203819263"><ele>1616.0</ele><time>2026-04-27T13:01:06Z</time></trkpt><trkpt lat="46.17641701519249" lon="10.17749981092409"><ele>1616.0</ele><time>2026-04-27T13:01:07Z</time></trkpt><trkpt lat="46.17635481562507" lon="10.177628491018794"><ele>1616.0</ele><time>2026-04-27T13:01:09Z</time></trkpt><trkpt lat="46.17629667525716" lon="10.17774713998544"><ele>1611.0</ele><time>2026-04-27T13:01:11Z</time></trkpt><trkpt lat="46.17622350452482" lon="10.17784287079995"><ele>1606.0</ele><time>2026-04-27T13:01:13Z</time></trkpt><trkpt lat="46.17615310627807" lon="10.177960833258485"><ele>1601.0</ele><time>2026-04-27T13:01:15Z</time></trkpt><trkpt lat="46.17609602021078" lon="10.178079471523413"><ele>1596.0</ele><time>2026-04-27T13:01:17Z</time></trkpt><trkpt lat="46.176001400593506" lon="10.178164950691047"><ele>1591.0</ele><time>2026-04-27T13:01:19Z</time></trkpt><trkpt lat="46.1759287873756" lon="10.178236402121351"><ele>1591.0000000000002</ele><time>2026-04-27T13:01:21Z</time></trkpt><trkpt lat="46.175872151601396" lon="10.178320062126028"><ele>1591.0</ele><time>2026-04-27T13:01:24Z</time></trkpt><trkpt lat="46.17581107179538" lon="10.178281252993958"><ele>1591.0</ele><time>2026-04-27T13:01:26Z</time></trkpt><trkpt lat="46.17575362913709" lon="10.178165260006493"><ele>1591.0</ele><time>2026-04-27T13:01:30Z</time></trkpt><trkpt lat="46.17577912541914" lon="10.178053002781096"><ele>1591.0000000000002</ele><time>2026-04-27T13:01:32Z</time></trkpt><trkpt lat="46.17578981843481" lon="10.177935214619014"><ele>1591.0</ele><time>2026-04-27T13:01:34Z</time></trkpt><trkpt lat="46.17580946548998" lon="10.177769876257178"><ele>1591.0</ele><time>2026-04-27T13:01:36Z</time></trkpt><trkpt lat="46.17583369031932" lon="10.177636005106427"><ele>1591.0</ele><time>2026-04-27T13:01:38Z</time></trkpt><trkpt lat="46.17585091025356" lon="10.177496346583355"><ele>1591.0</ele><time>2026-04-27T13:01:40Z</time></trkpt><trkpt lat="46.17585023580911" lon="10.177338619331902"><ele>1591.0</ele><time>2026-04-27T13:01:42Z</time></trkpt><trkpt lat="46.17586504216272" lon="10.177178518463066"><ele>1591.0</ele><time>2026-04-27T13:01:44Z</time></trkpt><trkpt lat="46.17586373647956" lon="10.177007697013515"><ele>1591.4</ele><time>2026-04-27T13:01:46Z</time></trkpt><trkpt lat="46.17585228049255" lon="10.176831912666708"><ele>1591.8</ele><time>2026-04-27T13:01:48Z</time></trkpt><trkpt lat="46.17583311954718" lon="10.176677573902436"><ele>1592.2</ele><time>2026-04-27T13:01:50Z</time></trkpt><trkpt lat="46.17582950764725" lon="10.17651830321415"><ele>1592.6000000000001</ele><time>2026-04-27T13:01:52Z</time></trkpt><trkpt lat="46.175816552970865" lon="10.176394154679906"><ele>1593.0</ele><time>2026-04-27T13:01:54Z</time></trkpt><trkpt lat="46.175803021268145" lon="10.176302339526483"><ele>1591.8000000000002</ele><time>2026-04-27T13:01:56Z</time></trkpt><trkpt lat="46.17573422256771" lon="10.176207834899786"><ele>1590.6</ele><time>2026-04-27T13:01:59Z</time></trkpt><trkpt lat="46.175633400640905" lon="10.17623036247236"><ele>1589.4</ele><time>2026-04-27T13:02:01Z</time></trkpt><trkpt lat="46.17553886276761" lon="10.176331281289386"><ele>1588.1999999999998</ele><time>2026-04-27T13:02:03Z</time></trkpt><trkpt lat="46.175490853082415" lon="10.176425286263644"><ele>1587.0</ele><time>2026-04-27T13:02:04Z</time></trkpt><trkpt lat="46.17544858459229" lon="10.176556753002577"><ele>1584.0</ele><time>2026-04-27T13:02:06Z</time></trkpt><trkpt lat="46.17540820819092" lon="10.176707539589692"><ele>1581.0</ele><time>2026-04-27T13:02:08Z</time></trkpt><trkpt lat="46.175371917159815" lon="10.176842176346048"><ele>1578.0</ele><time>2026-04-27T13:02:10Z</time></trkpt><trkpt lat="46.175341175513694" lon="10.176986034760548"><ele>1575.0</ele><time>2026-04-27T13:02:12Z</time></trkpt><trkpt lat="46.1753018027358" lon="10.177151037066862"><ele>1572.0</ele><time>2026-04-27T13:02:14Z</time></trkpt><trkpt lat="46.175287873616924" lon="10.177290516535834"><ele>1572.1666666666667</ele><time>2026-04-27T13:02:16Z</time></trkpt><trkpt lat="46.17528797969555" lon="10.17742442227129"><ele>1572.3333333333335</ele><time>2026-04-27T13:02:18Z</time></trkpt><trkpt lat="46.1752751111698" lon="10.177522929680542"><ele>1572.5</ele><time>2026-04-27T13:02:20Z</time></trkpt><trkpt lat="46.17521294861296" lon="10.17759695784422"><ele>1572.6666666666667</ele><time>2026-04-27T13:02:23Z</time></trkpt><trkpt lat="46.175130584491406" lon="10.177577569673032"><ele>1572.8333333333335</ele><time>2026-04-27T13:02:26Z</time></trkpt><trkpt lat="46.175084944708075" lon="10.177507591857733"><ele>1573.0</ele><time>2026-04-27T13:02:28Z</time></trkpt><trkpt lat="46.17507044582515" lon="10.177393821903634"><ele>1572.8333333333335</ele><time>2026-04-27T13:02:30Z</time></trkpt><trkpt lat="46.17504604706184" lon="10.17728143601893"><ele>1572.6666666666667</ele><time>2026-04-27T13:02:32Z</time></trkpt><trkpt lat="46.17502588269026" lon="10.177166112055156"><ele>1572.5</ele><time>2026-04-27T13:02:34Z</time></trkpt><trkpt lat="46.175010502777084" lon="10.177050839411821"><ele>1572.3333333333335</ele><time>2026-04-27T13:02:36Z</time></trkpt><trkpt lat="46.17499624246994" lon="10.176934983249337"><ele>1572.1666666666667</ele><time>2026-04-27T13:02:38Z</time></trkpt><trkpt lat="46.17498577937687" lon="10.17679967702915"><ele>1572.0</ele><time>2026-04-27T13:02:40Z</time></trkpt><trkpt lat="46.174989591289304" lon="10.176683900708055"><ele>1572.0</ele><time>2026-04-27T13:02:42Z</time></trkpt><trkpt lat="46.17499373177221" lon="10.176573901947233"><ele>1572.0</ele><time>2026-04-27T13:02:44Z</time></trkpt><trkpt lat="46.175036654578804" lon="10.176476001011084"><ele>1572.0</ele><time>2026-04-27T13:02:46Z</time></trkpt><trkpt lat="46.17506494507035" lon="10.17635856816397"><ele>1572.0</ele><time>2026-04-27T13:02:48Z</time></trkpt><trkpt lat="46.17512941022336" lon="10.1762789103085"><ele>1572.0</ele><time>2026-04-27T13:02:50Z</time></trkpt><trkpt lat="46.17519709591366" lon="10.176171240062308"><ele>1572.0</ele><time>2026-04-27T13:02:52Z</time></trkpt><trkpt lat="46.17524280353204" lon="10.176102249097005"><ele>1572.8</ele><time>2026-04-27T13:02:53Z</time></trkpt><trkpt lat="46.17532107658955" lon="10.175979616605904"><ele>1573.6</ele><time>2026-04-27T13:02:55Z</time></trkpt><trkpt lat="46.175378589712814" lon="10.175873503303682"><ele>1574.3999999999999</ele><time>2026-04-27T13:02:57Z</time></trkpt><trkpt lat="46.17541669246744" lon="10.175794769396248"><ele>1575.1999999999998</ele><time>2026-04-27T13:02:59Z</time></trkpt><trkpt lat="46.17540479988121" lon="10.175681113735449"><ele>1576.0</ele><time>2026-04-27T13:03:02Z</time></trkpt><trkpt lat="46.175191857907016" lon="10.17574692382294"><ele>1576.0</ele><time>2026-04-27T13:03:12Z</time></trkpt><trkpt lat="46.175121963325815" lon="10.175826170670486"><ele>1576.0</ele><time>2026-04-27T13:03:13Z</time></trkpt><trkpt lat="46.1750423106763" lon="10.175911091603895"><ele>1576.0</ele><time>2026-04-27T13:03:14Z</time></trkpt><trkpt lat="46.17497104084197" lon="10.175981466445236"><ele>1576.0</ele><time>2026-04-27T13:03:15Z</time></trkpt><trkpt lat="46.17488068141227" lon="10.176033639665626"><ele>1576.0</ele><time>2026-04-27T13:03:16Z</time></trkpt><trkpt lat="46.17478395588878" lon="10.176082627852368"><ele>1574.4</ele><time>2026-04-27T13:03:17Z</time></trkpt><trkpt lat="46.17469242150121" lon="10.176125510569923"><ele>1572.8</ele><time>2026-04-27T13:03:18Z</time></trkpt><trkpt lat="46.174590718912064" lon="10.176167202651307"><ele>1571.2</ele><time>2026-04-27T13:03:19Z</time></trkpt><trkpt lat="46.174480533161635" lon="10.176208215818496"><ele>1569.6000000000001</ele><time>2026-04-27T13:03:20Z</time></trkpt><trkpt lat="46.174378833180384" lon="10.17620219463242"><ele>1568.0</ele><time>2026-04-27T13:03:21Z</time></trkpt><trkpt lat="46.17428348855146" lon="10.17621426668627"><ele>1568.0</ele><time>2026-04-27T13:03:22Z</time></trkpt><trkpt lat="46.174204425362106" lon="10.176216783785376"><ele>1568.0</ele><time>2026-04-27T13:03:23Z</time></trkpt><trkpt lat="46.1741251854743" lon="10.176203554937361"><ele>1568.0</ele><time>2026-04-27T13:03:24Z</time></trkpt><trkpt lat="46.17404698827794" lon="10.176152859709331"><ele>1568.0</ele><time>2026-04-27T13:03:25Z</time></trkpt><trkpt lat="46.173922503682434" lon="10.1760840571211"><ele>1568.0</ele><time>2026-04-27T13:03:26Z</time></trkpt><trkpt lat="46.173817518158984" lon="10.176042797887714"><ele>1564.2</ele><time>2026-04-27T13:03:27Z</time></trkpt><trkpt lat="46.173731661294546" lon="10.176028825253855"><ele>1560.4</ele><time>2026-04-27T13:03:28Z</time></trkpt><trkpt lat="46.173637499687715" lon="10.175946554304868"><ele>1556.6000000000001</ele><time>2026-04-27T13:03:30Z</time></trkpt><trkpt lat="46.17359965084729" lon="10.175752970270599"><ele>1552.8000000000002</ele><time>2026-04-27T13:03:32Z</time></trkpt><trkpt lat="46.17356864276173" lon="10.175634076845753"><ele>1549.0</ele><time>2026-04-27T13:03:33Z</time></trkpt><trkpt lat="46.1735628581802" lon="10.175490591187746"><ele>1549.0</ele><time>2026-04-27T13:03:34Z</time></trkpt><trkpt lat="46.17357052127741" lon="10.175320268059128"><ele>1549.0</ele><time>2026-04-27T13:03:35Z</time></trkpt><trkpt lat="46.17357609398486" lon="10.175109235917446"><ele>1549.0</ele><time>2026-04-27T13:03:36Z</time></trkpt><trkpt lat="46.17357200842496" lon="10.17489146797206"><ele>1549.0</ele><time>2026-04-27T13:03:37Z</time></trkpt><trkpt lat="46.17357454760098" lon="10.174676292414743"><ele>1547.0</ele><time>2026-04-27T13:03:38Z</time></trkpt><trkpt lat="46.17357313343689" lon="10.174434149805831"><ele>1545.0</ele><time>2026-04-27T13:03:39Z</time></trkpt><trkpt lat="46.173576309368514" lon="10.17420386298697"><ele>1543.0</ele><time>2026-04-27T13:03:40Z</time></trkpt><trkpt lat="46.17357747098467" lon="10.174013837505273"><ele>1542.8000000000002</ele><time>2026-04-27T13:03:41Z</time></trkpt><trkpt lat="46.17359509018899" lon="10.173843542486795"><ele>1542.6</ele><time>2026-04-27T13:03:42Z</time></trkpt><trkpt lat="46.17361643179166" lon="10.173691363020247"><ele>1542.4</ele><time>2026-04-27T13:03:43Z</time></trkpt><trkpt lat="46.17363133249175" lon="10.173555671351803"><ele>1542.1999999999998</ele><time>2026-04-27T13:03:44Z</time></trkpt><trkpt lat="46.17365976768165" lon="10.173410041215321"><ele>1542.0</ele><time>2026-04-27T13:03:45Z</time></trkpt><trkpt lat="46.173711322970604" lon="10.173301186245766"><ele>1542.0</ele><time>2026-04-27T13:03:46Z</time></trkpt><trkpt lat="46.17376289977879" lon="10.173195929703017"><ele>1542.0</ele><time>2026-04-27T13:03:47Z</time></trkpt><trkpt lat="46.17378372010377" lon="10.173100368763592"><ele>1542.0</ele><time>2026-04-27T13:03:48Z</time></trkpt><trkpt lat="46.17375271597077" lon="10.172995004802148"><ele>1542.0</ele><time>2026-04-27T13:03:49Z</time></trkpt><trkpt lat="46.1737144293245" lon="10.172916285822721"><ele>1542.0</ele><time>2026-04-27T13:03:50Z</time></trkpt><trkpt lat="46.17365918697576" lon="10.17285748385702"><ele>1542.0</ele><time>2026-04-27T13:03:51Z</time></trkpt><trkpt lat="46.173580575611716" lon="10.172817288947195"><ele>1543.6</ele><time>2026-04-27T13:03:52Z</time></trkpt><trkpt lat="46.173507540883726" lon="10.172779500022951"><ele>1545.1999999999998</ele><time>2026-04-27T13:03:53Z</time></trkpt><trkpt lat="46.17339852733318" lon="10.172761262566773"><ele>1546.8</ele><time>2026-04-27T13:03:54Z</time></trkpt><trkpt lat="46.173289351952306" lon="10.172780861241758"><ele>1548.4</ele><time>2026-04-27T13:03:55Z</time></trkpt><trkpt lat="46.17317694031718" lon="10.172776874785303"><ele>1550.0</ele><time>2026-04-27T13:03:56Z</time></trkpt><trkpt lat="46.173067637482994" lon="10.172733267677305"><ele>1545.1666666666665</ele><time>2026-04-27T13:03:58Z</time></trkpt><trkpt lat="46.17298995994761" lon="10.172632008161301"><ele>1540.3333333333333</ele><time>2026-04-27T13:04:00Z</time></trkpt><trkpt lat="46.172951046975804" lon="10.172535970089466"><ele>1535.5</ele><time>2026-04-27T13:04:01Z</time></trkpt><trkpt lat="46.17293080125781" lon="10.17243135883007"><ele>1530.6666666666665</ele><time>2026-04-27T13:04:02Z</time></trkpt><trkpt lat="46.17292115034899" lon="10.172320766965779"><ele>1525.8333333333333</ele><time>2026-04-27T13:04:03Z</time></trkpt><trkpt lat="46.17291812978079" lon="10.172197091071267"><ele>1521.0</ele><time>2026-04-27T13:04:04Z</time></trkpt><trkpt lat="46.172922847962305" lon="10.172046124016948"><ele>1520.75</ele><time>2026-04-27T13:04:05Z</time></trkpt><trkpt lat="46.17295246934775" lon="10.171881354126771"><ele>1520.5</ele><time>2026-04-27T13:04:06Z</time></trkpt><trkpt lat="46.172979046261716" lon="10.171731008803775"><ele>1520.25</ele><time>2026-04-27T13:04:07Z</time></trkpt><trkpt lat="46.17300912343764" lon="10.171599270468608"><ele>1520.0</ele><time>2026-04-27T13:04:08Z</time></trkpt><trkpt lat="46.17306960011789" lon="10.17141979454545"><ele>1519.75</ele><time>2026-04-27T13:04:09Z</time></trkpt><trkpt lat="46.17313505261812" lon="10.171239723505112"><ele>1519.5</ele><time>2026-04-27T13:04:10Z</time></trkpt><trkpt lat="46.173200879403595" lon="10.1710567153866"><ele>1519.25</ele><time>2026-04-27T13:04:11Z</time></trkpt><trkpt lat="46.17326394553099" lon="10.170870445475053"><ele>1519.0</ele><time>2026-04-27T13:04:12Z</time></trkpt><trkpt lat="46.17331184592022" lon="10.170680909288848"><ele>1526.0</ele><time>2026-04-27T13:04:13Z</time></trkpt><trkpt lat="46.173340871838995" lon="10.170518272563607"><ele>1533.0</ele><time>2026-04-27T13:04:14Z</time></trkpt><trkpt lat="46.17334933183128" lon="10.17033086407572"><ele>1540.0</ele><time>2026-04-27T13:04:15Z</time></trkpt><trkpt lat="46.173379735282225" lon="10.170170665037928"><ele>1547.0</ele><time>2026-04-27T13:04:16Z</time></trkpt><trkpt lat="46.17334977090294" lon="10.16999116781147"><ele>1547.5</ele><time>2026-04-27T13:04:17Z</time></trkpt><trkpt lat="46.17333038825862" lon="10.169811594270273"><ele>1548.0</ele><time>2026-04-27T13:04:18Z</time></trkpt><trkpt lat="46.17329705598831" lon="10.169649758928138"><ele>1548.5</ele><time>2026-04-27T13:04:19Z</time></trkpt><trkpt lat="46.17324030677169" lon="10.16949868023566"><ele>1549.0</ele><time>2026-04-27T13:04:20Z</time></trkpt><trkpt lat="46.173188262577916" lon="10.169374848839954"><ele>1544.5000000000002</ele><time>2026-04-27T13:04:21Z</time></trkpt><trkpt lat="46.173148500405375" lon="10.169267776111147"><ele>1540.0</ele><time>2026-04-27T13:04:22Z</time></trkpt><trkpt lat="46.173147939779284" lon="10.16917466988763"><ele>1535.5</ele><time>2026-04-27T13:04:23Z</time></trkpt><trkpt lat="46.17314791211111" lon="10.169075019734509"><ele>1531.0</ele><time>2026-04-27T13:04:24Z</time></trkpt><trkpt lat="46.173141655922656" lon="10.168939973407259"><ele>1526.5</ele><time>2026-04-27T13:04:25Z</time></trkpt><trkpt lat="46.1731506084218" lon="10.168790548908817"><ele>1522.0</ele><time>2026-04-27T13:04:26Z</time></trkpt><trkpt lat="46.173148353644805" lon="10.168637394485836"><ele>1522.0</ele><time>2026-04-27T13:04:27Z</time></trkpt><trkpt lat="46.1731195484545" lon="10.168493044991678"><ele>1522.0</ele><time>2026-04-27T13:04:28Z</time></trkpt><trkpt lat="46.17307368794146" lon="10.16833959076508"><ele>1522.0</ele><time>2026-04-27T13:04:29Z</time></trkpt><trkpt lat="46.17301552582955" lon="10.168180347094713"><ele>1522.0</ele><time>2026-04-27T13:04:30Z</time></trkpt><trkpt lat="46.172983266218544" lon="10.168048023314782"><ele>1522.0</ele><time>2026-04-27T13:04:31Z</time></trkpt><trkpt lat="46.1729672372027" lon="10.16794581171365"><ele>1523.1999999999998</ele><time>2026-04-27T13:04:32Z</time></trkpt><trkpt lat="46.17295934619845" lon="10.167829341765128"><ele>1524.4</ele><time>2026-04-27T13:04:33Z</time></trkpt><trkpt lat="46.17296365483445" lon="10.167697092482175"><ele>1525.6</ele><time>2026-04-27T13:04:34Z</time></trkpt><trkpt lat="46.17297131821426" lon="10.167535769807662"><ele>1526.8000000000002</ele><time>2026-04-27T13:04:35Z</time></trkpt><trkpt lat="46.17297035596122" lon="10.167352383906193"><ele>1528.0</ele><time>2026-04-27T13:04:36Z</time></trkpt><trkpt lat="46.17296924314725" lon="10.167156267277916"><ele>1529.2</ele><time>2026-04-27T13:04:37Z</time></trkpt><trkpt lat="46.17297187951267" lon="10.166952436530282"><ele>1530.4</ele><time>2026-04-27T13:04:38Z</time></trkpt><trkpt lat="46.17297577162606" lon="10.166768078965795"><ele>1531.6000000000001</ele><time>2026-04-27T13:04:39Z</time></trkpt><trkpt lat="46.17297385206992" lon="10.166632592841646"><ele>1532.8000000000002</ele><time>2026-04-27T13:04:40Z</time></trkpt><trkpt lat="46.17297569662356" lon="10.166530176562892"><ele>1534.0</ele><time>2026-04-27T13:04:41Z</time></trkpt><trkpt lat="46.1729263007031" lon="10.166379395438778"><ele>1535.1666666666665</ele><time>2026-04-27T13:04:43Z</time></trkpt><trkpt lat="46.1728681066149" lon="10.166318750129216"><ele>1536.3333333333333</ele><time>2026-04-27T13:04:44Z</time></trkpt><trkpt lat="46.17278414246104" lon="10.16629951460386"><ele>1537.5</ele><time>2026-04-27T13:04:45Z</time></trkpt><trkpt lat="46.17270390008574" lon="10.16626553743407"><ele>1538.6666666666665</ele><time>2026-04-27T13:04:46Z</time></trkpt><trkpt lat="46.17261977401235" lon="10.166223238880916"><ele>1539.8333333333333</ele><time>2026-04-27T13:04:47Z</time></trkpt><trkpt lat="46.17253905563835" lon="10.166186364932052"><ele>1541.0</ele><time>2026-04-27T13:04:48Z</time></trkpt><trkpt lat="46.1724656100716" lon="10.16617648465478"><ele>1540.9999999999998</ele><time>2026-04-27T13:04:49Z</time></trkpt><trkpt lat="46.172398075236785" lon="10.166157548967087"><ele>1541.0</ele><time>2026-04-27T13:04:50Z</time></trkpt><trkpt lat="46.172329941738916" lon="10.16625037862254"><ele>1541.0</ele><time>2026-04-27T13:04:51Z</time></trkpt><trkpt lat="46.172281475813065" lon="10.166343125330723"><ele>1541.0</ele><time>2026-04-27T13:04:52Z</time></trkpt><trkpt lat="46.17227519151067" lon="10.166479495021528"><ele>1540.9999999999998</ele><time>2026-04-27T13:04:53Z</time></trkpt><trkpt lat="46.172268380713874" lon="10.166595937784164"><ele>1541.0</ele><time>2026-04-27T13:04:54Z</time></trkpt><trkpt lat="46.17227074767325" lon="10.166715939944709"><ele>1538.6</ele><time>2026-04-27T13:04:55Z</time></trkpt><trkpt lat="46.172258368565416" lon="10.16684236066561"><ele>1536.1999999999998</ele><time>2026-04-27T13:04:56Z</time></trkpt><trkpt lat="46.17221489463739" lon="10.166952035174592"><ele>1533.8000000000002</ele><time>2026-04-27T13:04:57Z</time></trkpt><trkpt lat="46.172193777426415" lon="10.167087708172422"><ele>1531.4</ele><time>2026-04-27T13:04:58Z</time></trkpt><trkpt lat="46.172134707601536" lon="10.167214037500642"><ele>1529.0</ele><time>2026-04-27T13:04:59Z</time></trkpt><trkpt lat="46.172097581733766" lon="10.16737308382477"><ele>1527.6666666666667</ele><time>2026-04-27T13:05:00Z</time></trkpt><trkpt lat="46.172041904089106" lon="10.167505840968571"><ele>1526.3333333333335</ele><time>2026-04-27T13:05:01Z</time></trkpt><trkpt lat="46.171997282836415" lon="10.167608012527696"><ele>1525.0</ele><time>2026-04-27T13:05:02Z</time></trkpt><trkpt lat="46.17195186123635" lon="10.167673985950149"><ele>1523.6666666666667</ele><time>2026-04-27T13:05:03Z</time></trkpt><trkpt lat="46.17189920609541" lon="10.1677340408043"><ele>1522.3333333333333</ele><time>2026-04-27T13:05:04Z</time></trkpt><trkpt lat="46.17182593920485" lon="10.167796653315094"><ele>1521.0</ele><time>2026-04-27T13:05:05Z</time></trkpt><trkpt lat="46.17172157653789" lon="10.167836434192488"><ele>1521.0</ele><time>2026-04-27T13:05:06Z</time></trkpt><trkpt lat="46.17161752808646" lon="10.167918462309522"><ele>1521.0</ele><time>2026-04-27T13:05:07Z</time></trkpt><trkpt lat="46.17151120308957" lon="10.167992037534464"><ele>1521.0</ele><time>2026-04-27T13:05:08Z</time></trkpt><trkpt lat="46.17142023533108" lon="10.168057727709426"><ele>1521.0</ele><time>2026-04-27T13:05:09Z</time></trkpt><trkpt lat="46.17133412981988" lon="10.168124245483881"><ele>1521.0</ele><time>2026-04-27T13:05:10Z</time></trkpt><trkpt lat="46.171272928220354" lon="10.168236346055577"><ele>1516.6</ele><time>2026-04-27T13:05:11Z</time></trkpt><trkpt lat="46.17119482400609" lon="10.16835916412679"><ele>1512.1999999999998</ele><time>2026-04-27T13:05:12Z</time></trkpt><trkpt lat="46.171123970840306" lon="10.1684945815139"><ele>1507.8000000000002</ele><time>2026-04-27T13:05:13Z</time></trkpt><trkpt lat="46.171067662888014" lon="10.168602615250673"><ele>1503.4</ele><time>2026-04-27T13:05:14Z</time></trkpt><trkpt lat="46.17099985089342" lon="10.168693131144094"><ele>1499.0</ele><time>2026-04-27T13:05:16Z</time></trkpt><trkpt lat="46.170920338568635" lon="10.16864349116553"><ele>1499.0</ele><time>2026-04-27T13:05:18Z</time></trkpt><trkpt lat="46.17087205718668" lon="10.168497532850372"><ele>1499.0</ele><time>2026-04-27T13:05:20Z</time></trkpt><trkpt lat="46.17084268903261" lon="10.168391341903337"><ele>1499.0</ele><time>2026-04-27T13:05:21Z</time></trkpt><trkpt lat="46.17079548020701" lon="10.168273974029429"><ele>1499.0</ele><time>2026-04-27T13:05:22Z</time></trkpt><trkpt lat="46.17077164834644" lon="10.168163178783294"><ele>1499.0</ele><time>2026-04-27T13:05:23Z</time></trkpt><trkpt lat="46.17075572173325" lon="10.168053048626415"><ele>1499.0</ele><time>2026-04-27T13:05:24Z</time></trkpt><trkpt lat="46.17077522725129" lon="10.167825394442845"><ele>1499.25</ele><time>2026-04-27T13:05:26Z</time></trkpt><trkpt lat="46.17078834678818" lon="10.167662192378538"><ele>1499.5</ele><time>2026-04-27T13:05:27Z</time></trkpt><trkpt lat="46.17080198139696" lon="10.167487175705286"><ele>1499.75</ele><time>2026-04-27T13:05:28Z</time></trkpt><trkpt lat="46.170807872031126" lon="10.16729234762125"><ele>1500.0</ele><time>2026-04-27T13:05:29Z</time></trkpt><trkpt lat="46.170848273344106" lon="10.16712522261412"><ele>1500.0</ele><time>2026-04-27T13:05:30Z</time></trkpt><trkpt lat="46.17088949919921" lon="10.16700693512974"><ele>1500.0</ele><time>2026-04-27T13:05:31Z</time></trkpt><trkpt lat="46.17091806955118" lon="10.16689172615465"><ele>1500.0</ele><time>2026-04-27T13:05:32Z</time></trkpt><trkpt lat="46.170925615043515" lon="10.166773213913475"><ele>1500.0</ele><time>2026-04-27T13:05:33Z</time></trkpt><trkpt lat="46.17087350660071" lon="10.166659343484334"><ele>1500.0</ele><time>2026-04-27T13:05:34Z</time></trkpt><trkpt lat="46.17082394712976" lon="10.16652664843985"><ele>1500.2</ele><time>2026-04-27T13:05:35Z</time></trkpt><trkpt lat="46.17077424956558" lon="10.166388048060526"><ele>1500.4</ele><time>2026-04-27T13:05:36Z</time></trkpt><trkpt lat="46.17077306245076" lon="10.166227439060144"><ele>1500.6</ele><time>2026-04-27T13:05:37Z</time></trkpt><trkpt lat="46.17077117617191" lon="10.166053370974709"><ele>1500.8</ele><time>2026-04-27T13:05:38Z</time></trkpt><trkpt lat="46.17075656306555" lon="10.165897406228252"><ele>1501.0</ele><time>2026-04-27T13:05:39Z</time></trkpt><trkpt lat="46.17072720716111" lon="10.165769622620282"><ele>1496.4</ele><time>2026-04-27T13:05:40Z</time></trkpt><trkpt lat="46.170685239279535" lon="10.165654678804989"><ele>1491.8</ele><time>2026-04-27T13:05:41Z</time></trkpt><trkpt lat="46.17059810748699" lon="10.165564450879273"><ele>1487.2</ele><time>2026-04-27T13:05:42Z</time></trkpt><trkpt lat="46.17052015402744" lon="10.165457598625602"><ele>1482.6000000000001</ele><time>2026-04-27T13:05:43Z</time></trkpt><trkpt lat="46.17043440760422" lon="10.165341686545982"><ele>1478.0</ele><time>2026-04-27T13:05:44Z</time></trkpt><trkpt lat="46.1703572513425" lon="10.16522764732641"><ele>1478.0</ele><time>2026-04-27T13:05:45Z</time></trkpt><trkpt lat="46.170296641810026" lon="10.16511173508662"><ele>1478.0</ele><time>2026-04-27T13:05:46Z</time></trkpt><trkpt lat="46.17026507778855" lon="10.164972283138546"><ele>1478.0</ele><time>2026-04-27T13:05:47Z</time></trkpt><trkpt lat="46.17020352386566" lon="10.164853221522351"><ele>1478.0</ele><time>2026-04-27T13:05:48Z</time></trkpt><trkpt lat="46.17015043197234" lon="10.164731462911304"><ele>1478.0</ele><time>2026-04-27T13:05:49Z</time></trkpt><trkpt lat="46.17009721073415" lon="10.164627617024031"><ele>1478.6000000000001</ele><time>2026-04-27T13:05:50Z</time></trkpt><trkpt lat="46.170062111133426" lon="10.164531254074918"><ele>1479.2</ele><time>2026-04-27T13:05:51Z</time></trkpt><trkpt lat="46.170069460422454" lon="10.164425379054792"><ele>1479.8</ele><time>2026-04-27T13:05:52Z</time></trkpt><trkpt lat="46.17005185717801" lon="10.16429097285229"><ele>1480.4</ele><time>2026-04-27T13:05:53Z</time></trkpt><trkpt lat="46.1700288276495" lon="10.164124628869986"><ele>1481.0</ele><time>2026-04-27T13:05:54Z</time></trkpt><trkpt lat="46.170000154109545" lon="10.163932011116067"><ele>1481.8</ele><time>2026-04-27T13:05:55Z</time></trkpt><trkpt lat="46.16997162532845" lon="10.16376308998837"><ele>1482.6</ele><time>2026-04-27T13:05:56Z</time></trkpt><trkpt lat="46.16993064467973" lon="10.16362899946225"><ele>1483.4</ele><time>2026-04-27T13:05:57Z</time></trkpt><trkpt lat="46.169908201045416" lon="10.163514251130934"><ele>1484.2</ele><time>2026-04-27T13:05:58Z</time></trkpt><trkpt lat="46.16982683775463" lon="10.16343961666005"><ele>1485.0</ele><time>2026-04-27T13:05:59Z</time></trkpt><trkpt lat="46.16975910397142" lon="10.163347290242744"><ele>1478.6</ele><time>2026-04-27T13:06:00Z</time></trkpt><trkpt lat="46.16971765870186" lon="10.163253030677522"><ele>1472.2</ele><time>2026-04-27T13:06:01Z</time></trkpt><trkpt lat="46.169715496699396" lon="10.163131291042193"><ele>1465.8000000000002</ele><time>2026-04-27T13:06:02Z</time></trkpt><trkpt lat="46.16970063695166" lon="10.162979272507034"><ele>1459.4</ele><time>2026-04-27T13:06:03Z</time></trkpt><trkpt lat="46.16968079920652" lon="10.162805478236946"><ele>1453.0</ele><time>2026-04-27T13:06:04Z</time></trkpt><trkpt lat="46.16965823249211" lon="10.16260404898555"><ele>1453.0</ele><time>2026-04-27T13:06:05Z</time></trkpt><trkpt lat="46.16963723317548" lon="10.162391260985524"><ele>1453.0</ele><time>2026-04-27T13:06:06Z</time></trkpt><trkpt lat="46.169616604503126" lon="10.162166397310488"><ele>1453.0</ele><time>2026-04-27T13:06:07Z</time></trkpt><trkpt lat="46.16959563985157" lon="10.161933947074852"><ele>1455.0</ele><time>2026-04-27T13:06:08Z</time></trkpt><trkpt lat="46.16956523538293" lon="10.16170887958909"><ele>1457.0</ele><time>2026-04-27T13:06:09Z</time></trkpt><trkpt lat="46.16954769349783" lon="10.161476606517605"><ele>1459.0</ele><time>2026-04-27T13:06:10Z</time></trkpt><trkpt lat="46.169540070860634" lon="10.16125169167891"><ele>1459.75</ele><time>2026-04-27T13:06:11Z</time></trkpt><trkpt lat="46.16953705565295" lon="10.161030845647538"><ele>1460.5</ele><time>2026-04-27T13:06:12Z</time></trkpt><trkpt lat="46.16952937135342" lon="10.160813832538906"><ele>1461.25</ele><time>2026-04-27T13:06:13Z</time></trkpt><trkpt lat="46.16952096538952" lon="10.160628416144126"><ele>1462.0</ele><time>2026-04-27T13:06:14Z</time></trkpt><trkpt lat="46.16950798540164" lon="10.160484806758209"><ele>1462.3333333333333</ele><time>2026-04-27T13:06:15Z</time></trkpt><trkpt lat="46.169505659197036" lon="10.16038430185389"><ele>1462.6666666666665</ele><time>2026-04-27T13:06:16Z</time></trkpt><trkpt lat="46.16950025540583" lon="10.160273817413092"><ele>1463.0</ele><time>2026-04-27T13:06:18Z</time></trkpt><trkpt lat="46.1694246057306" lon="10.160213379391815"><ele>1463.3333333333333</ele><time>2026-04-27T13:06:20Z</time></trkpt><trkpt lat="46.16934893290119" lon="10.160344850326355"><ele>1463.6666666666667</ele><time>2026-04-27T13:06:22Z</time></trkpt><trkpt lat="46.16933416880128" lon="10.160450109437324"><ele>1464.0</ele><time>2026-04-27T13:06:23Z</time></trkpt><trkpt lat="46.16931494011625" lon="10.160579842458167"><ele>1463.6</ele><time>2026-04-27T13:06:24Z</time></trkpt><trkpt lat="46.16929557312402" lon="10.160739054409017"><ele>1463.2</ele><time>2026-04-27T13:06:25Z</time></trkpt><trkpt lat="46.169281185379695" lon="10.160905781284738"><ele>1462.8</ele><time>2026-04-27T13:06:26Z</time></trkpt><trkpt lat="46.169265348299355" lon="10.161045306993783"><ele>1462.3999999999999</ele><time>2026-04-27T13:06:27Z</time></trkpt><trkpt lat="46.16925525457179" lon="10.161141644985321"><ele>1462.0</ele><time>2026-04-27T13:06:28Z</time></trkpt><trkpt lat="46.16920498409494" lon="10.161232500901574"><ele>1462.0</ele><time>2026-04-27T13:06:30Z</time></trkpt><trkpt lat="46.169107048414425" lon="10.161227543841752"><ele>1462.0</ele><time>2026-04-27T13:06:32Z</time></trkpt><trkpt lat="46.169026595882436" lon="10.16110111034906"><ele>1462.0</ele><time>2026-04-27T13:06:34Z</time></trkpt><trkpt lat="46.16897818766839" lon="10.160930947780631"><ele>1462.0</ele><time>2026-04-27T13:06:36Z</time></trkpt><trkpt lat="46.16899270910786" lon="10.160810197103936"><ele>1462.0</ele><time>2026-04-27T13:06:37Z</time></trkpt><trkpt lat="46.168993125096726" lon="10.16067145490333"><ele>1462.3999999999999</ele><time>2026-04-27T13:06:38Z</time></trkpt><trkpt lat="46.168980922274244" lon="10.160507579912258"><ele>1462.8</ele><time>2026-04-27T13:06:39Z</time></trkpt><trkpt lat="46.16898605479393" lon="10.160341666948623"><ele>1463.2</ele><time>2026-04-27T13:06:40Z</time></trkpt><trkpt lat="46.16902993791934" lon="10.160190731957444"><ele>1463.6</ele><time>2026-04-27T13:06:41Z</time></trkpt><trkpt lat="46.16905911116762" lon="10.16004288702768"><ele>1464.0</ele><time>2026-04-27T13:06:42Z</time></trkpt><trkpt lat="46.16907331797008" lon="10.159902487031108"><ele>1465.2</ele><time>2026-04-27T13:06:43Z</time></trkpt><trkpt lat="46.169058966577275" lon="10.159771999541345"><ele>1466.4</ele><time>2026-04-27T13:06:44Z</time></trkpt><trkpt lat="46.16902288528662" lon="10.159656750331633"><ele>1467.6</ele><time>2026-04-27T13:06:45Z</time></trkpt><trkpt lat="46.168945261800104" lon="10.159574038842402"><ele>1468.8</ele><time>2026-04-27T13:06:46Z</time></trkpt><trkpt lat="46.168851507876454" lon="10.159537547945837"><ele>1470.0</ele><time>2026-04-27T13:06:47Z</time></trkpt><trkpt lat="46.16876763157016" lon="10.15947273095633"><ele>1464.5</ele><time>2026-04-27T13:06:48Z</time></trkpt><trkpt lat="46.16871976867753" lon="10.159364497023201"><ele>1459.0</ele><time>2026-04-27T13:06:49Z</time></trkpt><trkpt lat="46.16866949652402" lon="10.159270982563049"><ele>1453.5</ele><time>2026-04-27T13:06:50Z</time></trkpt><trkpt lat="46.1686284802238" lon="10.159192665906787"><ele>1448.0</ele><time>2026-04-27T13:06:51Z</time></trkpt><trkpt lat="46.168628189256275" lon="10.159095717567341"><ele>1442.5</ele><time>2026-04-27T13:06:52Z</time></trkpt><trkpt lat="46.16863944732207" lon="10.158904593941067"><ele>1437.0</ele><time>2026-04-27T13:06:54Z</time></trkpt><trkpt lat="46.1686543308907" lon="10.158787195530127"><ele>1436.0</ele><time>2026-04-27T13:06:55Z</time></trkpt><trkpt lat="46.16866417995582" lon="10.15866638455277"><ele>1435.0</ele><time>2026-04-27T13:06:56Z</time></trkpt><trkpt lat="46.168715405206804" lon="10.158551928271228"><ele>1434.0</ele><time>2026-04-27T13:06:57Z</time></trkpt><trkpt lat="46.16875664757015" lon="10.158435724050047"><ele>1433.0</ele><time>2026-04-27T13:06:58Z</time></trkpt><trkpt lat="46.16881202505769" lon="10.158306123435626"><ele>1432.0</ele><time>2026-04-27T13:06:59Z</time></trkpt><trkpt lat="46.168859662839665" lon="10.158148746019336"><ele>1434.0</ele><time>2026-04-27T13:07:00Z</time></trkpt><trkpt lat="46.16893200518886" lon="10.158033067284688"><ele>1436.0</ele><time>2026-04-27T13:07:01Z</time></trkpt><trkpt lat="46.16899714234477" lon="10.15791919049275"><ele>1438.0</ele><time>2026-04-27T13:07:02Z</time></trkpt><trkpt lat="46.169077678501836" lon="10.157807421467052"><ele>1440.0</ele><time>2026-04-27T13:07:03Z</time></trkpt><trkpt lat="46.16917099333809" lon="10.157684652032765"><ele>1442.0</ele><time>2026-04-27T13:07:04Z</time></trkpt><trkpt lat="46.16926788708845" lon="10.157539257374884"><ele>1443.5</ele><time>2026-04-27T13:07:05Z</time></trkpt><trkpt lat="46.169350935020184" lon="10.15736585371208"><ele>1445.0</ele><time>2026-04-27T13:07:06Z</time></trkpt><trkpt lat="46.169441386266435" lon="10.157206538855169"><ele>1446.5</ele><time>2026-04-27T13:07:07Z</time></trkpt><trkpt lat="46.16952319643326" lon="10.15703745238867"><ele>1448.0</ele><time>2026-04-27T13:07:08Z</time></trkpt><trkpt lat="46.16960737407298" lon="10.156905601591745"><ele>1448.0</ele><time>2026-04-27T13:07:09Z</time></trkpt><trkpt lat="46.169663866320185" lon="10.15682842961705"><ele>1448.0</ele><time>2026-04-27T13:07:10Z</time></trkpt><trkpt lat="46.169729673464715" lon="10.156756885713799"><ele>1448.0</ele><time>2026-04-27T13:07:11Z</time></trkpt><trkpt lat="46.169799194337216" lon="10.156665044833423"><ele>1448.0</ele><time>2026-04-27T13:07:13Z</time></trkpt><trkpt lat="46.169805826854066" lon="10.156533272070481"><ele>1448.0</ele><time>2026-04-27T13:07:15Z</time></trkpt><trkpt lat="46.169734455104255" lon="10.15643137180687"><ele>1448.0</ele><time>2026-04-27T13:07:17Z</time></trkpt><trkpt lat="46.169671822295165" lon="10.15649804157361"><ele>1448.0</ele><time>2026-04-27T13:07:18Z</time></trkpt><trkpt lat="46.169592648358076" lon="10.156640311562896"><ele>1448.0</ele><time>2026-04-27T13:07:20Z</time></trkpt><trkpt lat="46.169541336473145" lon="10.156719808848147"><ele>1448.0</ele><time>2026-04-27T13:07:21Z</time></trkpt><trkpt lat="46.16946972712468" lon="10.15681699433493"><ele>1448.0</ele><time>2026-04-27T13:07:22Z</time></trkpt><trkpt lat="46.16938617598264" lon="10.156933519071053"><ele>1448.0</ele><time>2026-04-27T13:07:23Z</time></trkpt><trkpt lat="46.16930165956192" lon="10.157057695243807"><ele>1448.0</ele><time>2026-04-27T13:07:24Z</time></trkpt><trkpt lat="46.16923582444052" lon="10.157157736590586"><ele>1448.0</ele><time>2026-04-27T13:07:25Z</time></trkpt><trkpt lat="46.16918917131671" lon="10.15722074971032"><ele>1448.0</ele><time>2026-04-27T13:07:26Z</time></trkpt><trkpt lat="46.1691265826427" lon="10.157247873103747"><ele>1448.0</ele><time>2026-04-27T13:07:28Z</time></trkpt><trkpt lat="46.169068834229876" lon="10.15714683586796"><ele>1448.0</ele><time>2026-04-27T13:07:31Z</time></trkpt><trkpt lat="46.16905614289182" lon="10.157002673207895"><ele>1448.0</ele><time>2026-04-27T13:07:34Z</time></trkpt><trkpt lat="46.16906361459902" lon="10.156898652658763"><ele>1448.0</ele><time>2026-04-27T13:07:35Z</time></trkpt><trkpt lat="46.169093427171966" lon="10.1568139062208"><ele>1448.0</ele><time>2026-04-27T13:07:36Z</time></trkpt><trkpt lat="46.16913860346283" lon="10.15673913966927"><ele>1448.0</ele><time>2026-04-27T13:07:37Z</time></trkpt><trkpt lat="46.169200646228" lon="10.156655382875398"><ele>1448.0</ele><time>2026-04-27T13:07:38Z</time></trkpt><trkpt lat="46.16926891294086" lon="10.156553959914397"><ele>1448.0</ele><time>2026-04-27T13:07:39Z</time></trkpt><trkpt lat="46.16934911084495" lon="10.156428199365546"><ele>1448.0</ele><time>2026-04-27T13:07:40Z</time></trkpt><trkpt lat="46.16943699459627" lon="10.156283967541812"><ele>1452.0</ele><time>2026-04-27T13:07:41Z</time></trkpt><trkpt lat="46.16952798031354" lon="10.156147292565315"><ele>1456.0</ele><time>2026-04-27T13:07:42Z</time></trkpt><trkpt lat="46.169624206909475" lon="10.156008563648864"><ele>1460.0</ele><time>2026-04-27T13:07:43Z</time></trkpt><trkpt lat="46.16970494580576" lon="10.15589511299034"><ele>1464.0</ele><time>2026-04-27T13:07:44Z</time></trkpt><trkpt lat="46.16978041661675" lon="10.155793090795072"><ele>1465.6</ele><time>2026-04-27T13:07:45Z</time></trkpt><trkpt lat="46.16984067939566" lon="10.155672354164453"><ele>1467.2</ele><time>2026-04-27T13:07:46Z</time></trkpt><trkpt lat="46.16988211751679" lon="10.155549710470245"><ele>1468.8</ele><time>2026-04-27T13:07:47Z</time></trkpt><trkpt lat="46.16992970968894" lon="10.155426183042717"><ele>1470.3999999999999</ele><time>2026-04-27T13:07:48Z</time></trkpt><trkpt lat="46.16996216219413" lon="10.155292062994999"><ele>1472.0</ele><time>2026-04-27T13:07:49Z</time></trkpt><trkpt lat="46.16999507689238" lon="10.155154077967902"><ele>1466.0</ele><time>2026-04-27T13:07:50Z</time></trkpt><trkpt lat="46.17001923216703" lon="10.155012706369808"><ele>1460.0</ele><time>2026-04-27T13:07:51Z</time></trkpt><trkpt lat="46.170035359284114" lon="10.154867082738123"><ele>1454.0</ele><time>2026-04-27T13:07:52Z</time></trkpt><trkpt lat="46.1700438397334" lon="10.15469837057688"><ele>1448.0</ele><time>2026-04-27T13:07:53Z</time></trkpt><trkpt lat="46.170021488154624" lon="10.154531026820159"><ele>1442.0</ele><time>2026-04-27T13:07:54Z</time></trkpt><trkpt lat="46.169998302962505" lon="10.154362439989931"><ele>1442.75</ele><time>2026-04-27T13:07:55Z</time></trkpt><trkpt lat="46.16995756428045" lon="10.154199408045116"><ele>1443.5</ele><time>2026-04-27T13:07:56Z</time></trkpt><trkpt lat="46.16992425815664" lon="10.154032652402716"><ele>1444.25</ele><time>2026-04-27T13:07:57Z</time></trkpt><trkpt lat="46.169863457790406" lon="10.153873594651701"><ele>1445.0</ele><time>2026-04-27T13:07:58Z</time></trkpt><trkpt lat="46.16979879613867" lon="10.153710005905456"><ele>1445.0</ele><time>2026-04-27T13:07:59Z</time></trkpt><trkpt lat="46.16974072008886" lon="10.1535366843113"><ele>1445.0</ele><time>2026-04-27T13:08:00Z</time></trkpt><trkpt lat="46.16968991753694" lon="10.153353192534263"><ele>1445.0</ele><time>2026-04-27T13:08:01Z</time></trkpt><trkpt lat="46.169600263906254" lon="10.153183821687596"><ele>1445.0</ele><time>2026-04-27T13:08:02Z</time></trkpt><trkpt lat="46.169491324626975" lon="10.152978753276813"><ele>1437.5</ele><time>2026-04-27T13:08:03Z</time></trkpt><trkpt lat="46.169398572629134" lon="10.152818441488023"><ele>1430.0</ele><time>2026-04-27T13:08:04Z</time></trkpt><trkpt lat="46.16931756541085" lon="10.152685513201584"><ele>1422.5</ele><time>2026-04-27T13:08:05Z</time></trkpt><trkpt lat="46.16923918246943" lon="10.152542524886073"><ele>1415.0</ele><time>2026-04-27T13:08:06Z</time></trkpt><trkpt lat="46.16913481800071" lon="10.152402335241298"><ele>1414.25</ele><time>2026-04-27T13:08:07Z</time></trkpt><trkpt lat="46.169045220108124" lon="10.152246411570719"><ele>1413.5</ele><time>2026-04-27T13:08:08Z</time></trkpt><trkpt lat="46.168954178829225" lon="10.152104724060772"><ele>1412.75</ele><time>2026-04-27T13:08:09Z</time></trkpt><trkpt lat="46.16884114481285" lon="10.151968203760203"><ele>1412.0</ele><time>2026-04-27T13:08:10Z</time></trkpt><trkpt lat="46.16873209451754" lon="10.151835543610385"><ele>1412.0</ele><time>2026-04-27T13:08:11Z</time></trkpt><trkpt lat="46.16861782234302" lon="10.151704946846989"><ele>1412.0</ele><time>2026-04-27T13:08:12Z</time></trkpt><trkpt lat="46.16851943707447" lon="10.151559861222909"><ele>1412.0</ele><time>2026-04-27T13:08:13Z</time></trkpt><trkpt lat="46.16839389473915" lon="10.151446572526588"><ele>1412.0</ele><time>2026-04-27T13:08:14Z</time></trkpt><trkpt lat="46.16828359461287" lon="10.15131262732728"><ele>1407.1999999999998</ele><time>2026-04-27T13:08:15Z</time></trkpt><trkpt lat="46.16818349245922" lon="10.151195929917732"><ele>1402.4</ele><time>2026-04-27T13:08:16Z</time></trkpt><trkpt lat="46.1680904446333" lon="10.151102045043242"><ele>1397.6</ele><time>2026-04-27T13:08:17Z</time></trkpt><trkpt lat="46.16799994440057" lon="10.151035090057686"><ele>1392.8000000000002</ele><time>2026-04-27T13:08:18Z</time></trkpt><trkpt lat="46.16792203042369" lon="10.150997662112523"><ele>1388.0</ele><time>2026-04-27T13:08:19Z</time></trkpt><trkpt lat="46.16785498490454" lon="10.150967185580205"><ele>1388.0</ele><time>2026-04-27T13:08:20Z</time></trkpt><trkpt lat="46.16776606258559" lon="10.150863635639755"><ele>1388.0</ele><time>2026-04-27T13:08:22Z</time></trkpt><trkpt lat="46.16780816273845" lon="10.150784767071167"><ele>1388.0</ele><time>2026-04-27T13:08:25Z</time></trkpt><trkpt lat="46.167900673937304" lon="10.150747868474548"><ele>1388.0</ele><time>2026-04-27T13:08:27Z</time></trkpt><trkpt lat="46.16797147566225" lon="10.150764919293403"><ele>1388.0</ele><time>2026-04-27T13:08:28Z</time></trkpt><trkpt lat="46.16804710987752" lon="10.150814270868961"><ele>1388.0</ele><time>2026-04-27T13:08:29Z</time></trkpt><trkpt lat="46.16815088696082" lon="10.150879649755678"><ele>1385.25</ele><time>2026-04-27T13:08:30Z</time></trkpt><trkpt lat="46.16827240001031" lon="10.150912139293562"><ele>1382.5</ele><time>2026-04-27T13:08:31Z</time></trkpt><trkpt lat="46.168406169760026" lon="10.15095549512557"><ele>1379.75</ele><time>2026-04-27T13:08:32Z</time></trkpt><trkpt lat="46.168568299999414" lon="10.151009405910955"><ele>1377.0</ele><time>2026-04-27T13:08:33Z</time></trkpt><trkpt lat="46.168741699554886" lon="10.151084805029983"><ele>1377.0</ele><time>2026-04-27T13:08:34Z</time></trkpt><trkpt lat="46.16889753777604" lon="10.15118072686427"><ele>1377.0</ele><time>2026-04-27T13:08:35Z</time></trkpt><trkpt lat="46.16905036287545" lon="10.151289292698355"><ele>1377.0</ele><time>2026-04-27T13:08:36Z</time></trkpt><trkpt lat="46.169197734269325" lon="10.151393193706712"><ele>1378.25</ele><time>2026-04-27T13:08:37Z</time></trkpt><trkpt lat="46.16932875113535" lon="10.151503084079273"><ele>1379.5</ele><time>2026-04-27T13:08:38Z</time></trkpt><trkpt lat="46.169437420214805" lon="10.151589855154826"><ele>1380.75</ele><time>2026-04-27T13:08:39Z</time></trkpt><trkpt lat="46.1695272338753" lon="10.151665687887634"><ele>1382.0</ele><time>2026-04-27T13:08:40Z</time></trkpt><trkpt lat="46.16962028248355" lon="10.151761959796273"><ele>1382.0</ele><time>2026-04-27T13:08:41Z</time></trkpt><trkpt lat="46.169712534918126" lon="10.151874023484364"><ele>1382.0</ele><time>2026-04-27T13:08:42Z</time></trkpt><trkpt lat="46.169793019256524" lon="10.151994913077647"><ele>1382.0</ele><time>2026-04-27T13:08:43Z</time></trkpt><trkpt lat="46.16986380744457" lon="10.152121375899176"><ele>1382.0</ele><time>2026-04-27T13:08:44Z</time></trkpt><trkpt lat="46.16995066259577" lon="10.152226998948631"><ele>1379.0</ele><time>2026-04-27T13:08:45Z</time></trkpt><trkpt lat="46.17005913139577" lon="10.152321301138407"><ele>1376.0</ele><time>2026-04-27T13:08:46Z</time></trkpt><trkpt lat="46.17019456496168" lon="10.152409504733834"><ele>1373.0</ele><time>2026-04-27T13:08:47Z</time></trkpt><trkpt lat="46.1703346510032" lon="10.152505911272813"><ele>1370.0</ele><time>2026-04-27T13:08:48Z</time></trkpt><trkpt lat="46.17048363116693" lon="10.152644039595481"><ele>1370.0</ele><time>2026-04-27T13:08:49Z</time></trkpt><trkpt lat="46.17061981874867" lon="10.152779547464336"><ele>1370.0</ele><time>2026-04-27T13:08:50Z</time></trkpt><trkpt lat="46.17077676467148" lon="10.152909924326563"><ele>1370.0</ele><time>2026-04-27T13:08:51Z</time></trkpt><trkpt lat="46.17091974101683" lon="10.153059533248884"><ele>1365.6666666666667</ele><time>2026-04-27T13:08:52Z</time></trkpt><trkpt lat="46.171073601507715" lon="10.153194563108883"><ele>1361.3333333333333</ele><time>2026-04-27T13:08:53Z</time></trkpt><trkpt lat="46.171209050140554" lon="10.15332480673509"><ele>1357.0</ele><time>2026-04-27T13:08:54Z</time></trkpt><trkpt lat="46.1713360460473" lon="10.153432963804242"><ele>1357.0</ele><time>2026-04-27T13:08:55Z</time></trkpt><trkpt lat="46.17145787070225" lon="10.153498582304893"><ele>1357.0</ele><time>2026-04-27T13:08:56Z</time></trkpt><trkpt lat="46.171589988214734" lon="10.153580061839007"><ele>1357.0</ele><time>2026-04-27T13:08:57Z</time></trkpt><trkpt lat="46.17172333045573" lon="10.153636577468255"><ele>1357.0</ele><time>2026-04-27T13:08:58Z</time></trkpt><trkpt lat="46.171833986366636" lon="10.153679651913789"><ele>1351.25</ele><time>2026-04-27T13:08:59Z</time></trkpt><trkpt lat="46.1719274591941" lon="10.153724560815425"><ele>1345.5</ele><time>2026-04-27T13:09:00Z</time></trkpt><trkpt lat="46.17202009700136" lon="10.153789581247073"><ele>1339.75</ele><time>2026-04-27T13:09:01Z</time></trkpt><trkpt lat="46.172123050049834" lon="10.153889201671873"><ele>1334.0</ele><time>2026-04-27T13:09:02Z</time></trkpt><trkpt lat="46.172229867054625" lon="10.154016113384051"><ele>1333.25</ele><time>2026-04-27T13:09:03Z</time></trkpt><trkpt lat="46.172327851308346" lon="10.15413775936233"><ele>1332.5</ele><time>2026-04-27T13:09:04Z</time></trkpt><trkpt lat="46.172442023058466" lon="10.154212793637845"><ele>1331.75</ele><time>2026-04-27T13:09:05Z</time></trkpt><trkpt lat="46.17256306231536" lon="10.154270976234645"><ele>1331.0</ele><time>2026-04-27T13:09:06Z</time></trkpt><trkpt lat="46.1727002692663" lon="10.154325493634818"><ele>1331.0</ele><time>2026-04-27T13:09:07Z</time></trkpt><trkpt lat="46.17287286858094" lon="10.154374388177077"><ele>1331.0</ele><time>2026-04-27T13:09:08Z</time></trkpt><trkpt lat="46.17301881611255" lon="10.154391368863969"><ele>1331.0</ele><time>2026-04-27T13:09:09Z</time></trkpt><trkpt lat="46.173147894706744" lon="10.154433816744435"><ele>1324.25</ele><time>2026-04-27T13:09:10Z</time></trkpt><trkpt lat="46.17326336179809" lon="10.154483475351526"><ele>1317.5</ele><time>2026-04-27T13:09:11Z</time></trkpt><trkpt lat="46.1733752168086" lon="10.154576722730775"><ele>1310.75</ele><time>2026-04-27T13:09:12Z</time></trkpt><trkpt lat="46.17351997793877" lon="10.154689485534941"><ele>1304.0</ele><time>2026-04-27T13:09:13Z</time></trkpt><trkpt lat="46.173668170972164" lon="10.154775118607258"><ele>1303.6666666666667</ele><time>2026-04-27T13:09:14Z</time></trkpt><trkpt lat="46.17385207245181" lon="10.15488720015616"><ele>1303.3333333333333</ele><time>2026-04-27T13:09:15Z</time></trkpt><trkpt lat="46.17403324121908" lon="10.154992412517805"><ele>1303.0</ele><time>2026-04-27T13:09:16Z</time></trkpt><trkpt lat="46.174220886201674" lon="10.155118474787864"><ele>1303.0</ele><time>2026-04-27T13:09:17Z</time></trkpt><trkpt lat="46.17441045468367" lon="10.15523260209481"><ele>1303.0</ele><time>2026-04-27T13:09:18Z</time></trkpt><trkpt lat="46.174583270391295" lon="10.155356412956861"><ele>1303.0</ele><time>2026-04-27T13:09:19Z</time></trkpt><trkpt lat="46.17471905129566" lon="10.155434408840833"><ele>1303.0</ele><time>2026-04-27T13:09:20Z</time></trkpt><trkpt lat="46.174848321412576" lon="10.155514207728693"><ele>1303.0</ele><time>2026-04-27T13:09:21Z</time></trkpt><trkpt lat="46.17495281989574" lon="10.155575883808543"><ele>1303.0</ele><time>2026-04-27T13:09:22Z</time></trkpt><trkpt lat="46.17506242256293" lon="10.155643519830958"><ele>1303.0</ele><time>2026-04-27T13:09:23Z</time></trkpt><trkpt lat="46.17515363364545" lon="10.15573948520492"><ele>1302.75</ele><time>2026-04-27T13:09:24Z</time></trkpt><trkpt lat="46.17525214841426" lon="10.155837694841292"><ele>1302.5</ele><time>2026-04-27T13:09:25Z</time></trkpt><trkpt lat="46.17534348942704" lon="10.155935003850203"><ele>1302.25</ele><time>2026-04-27T13:09:26Z</time></trkpt><trkpt lat="46.17542884953603" lon="10.156038372594582"><ele>1302.0</ele><time>2026-04-27T13:09:27Z</time></trkpt><trkpt lat="46.175505200501306" lon="10.156146741976372"><ele>1302.0</ele><time>2026-04-27T13:09:28Z</time></trkpt><trkpt lat="46.1755904460897" lon="10.156251262738175"><ele>1302.0</ele><time>2026-04-27T13:09:29Z</time></trkpt><trkpt lat="46.175675265688355" lon="10.156349828653639"><ele>1302.0</ele><time>2026-04-27T13:09:30Z</time></trkpt><trkpt lat="46.17576102521984" lon="10.15645184035287"><ele>1302.0</ele><time>2026-04-27T13:09:31Z</time></trkpt><trkpt lat="46.17582348827491" lon="10.156544588301564"><ele>1302.0</ele><time>2026-04-27T13:09:32Z</time></trkpt><trkpt lat="46.17589016084999" lon="10.156594007608604"><ele>1300.3999999999999</ele><time>2026-04-27T13:09:33Z</time></trkpt><trkpt lat="46.17598301808417" lon="10.156612480628128"><ele>1298.8</ele><time>2026-04-27T13:09:35Z</time></trkpt><trkpt lat="46.17605624949136" lon="10.156509919582186"><ele>1297.2</ele><time>2026-04-27T13:09:37Z</time></trkpt><trkpt lat="46.17606153202241" lon="10.156344060316139"><ele>1295.6</ele><time>2026-04-27T13:09:39Z</time></trkpt><trkpt lat="46.17601979607229" lon="10.156233077189667"><ele>1294.0</ele><time>2026-04-27T13:09:40Z</time></trkpt><trkpt lat="46.175965332993314" lon="10.156104562926748"><ele>1291.5</ele><time>2026-04-27T13:09:41Z</time></trkpt><trkpt lat="46.17588091551116" lon="10.1559719388222"><ele>1289.0</ele><time>2026-04-27T13:09:42Z</time></trkpt><trkpt lat="46.175806745202294" lon="10.155816534865101"><ele>1286.5</ele><time>2026-04-27T13:09:43Z</time></trkpt><trkpt lat="46.17573014192683" lon="10.155643899254017"><ele>1284.0</ele><time>2026-04-27T13:09:44Z</time></trkpt><trkpt lat="46.17563388394174" lon="10.155468748637174"><ele>1284.0</ele><time>2026-04-27T13:09:45Z</time></trkpt><trkpt lat="46.17554858679675" lon="10.15530258241865"><ele>1284.0</ele><time>2026-04-27T13:09:46Z</time></trkpt><trkpt lat="46.1754777339508" lon="10.155133040612741"><ele>1284.0</ele><time>2026-04-27T13:09:47Z</time></trkpt><trkpt lat="46.17540433041539" lon="10.154971058740747"><ele>1284.0</ele><time>2026-04-27T13:09:48Z</time></trkpt><trkpt lat="46.17533415197254" lon="10.154796693640566"><ele>1278.75</ele><time>2026-04-27T13:09:49Z</time></trkpt><trkpt lat="46.175244699083024" lon="10.154651891807502"><ele>1273.5</ele><time>2026-04-27T13:09:50Z</time></trkpt><trkpt lat="46.17516943086772" lon="10.154523752318385"><ele>1268.25</ele><time>2026-04-27T13:09:51Z</time></trkpt><trkpt lat="46.1751002227487" lon="10.154373213871157"><ele>1263.0</ele><time>2026-04-27T13:09:52Z</time></trkpt><trkpt lat="46.17501851845581" lon="10.154261454163919"><ele>1263.0</ele><time>2026-04-27T13:09:53Z</time></trkpt><trkpt lat="46.17492432906629" lon="10.15416970223463"><ele>1263.0</ele><time>2026-04-27T13:09:54Z</time></trkpt><trkpt lat="46.174811719281195" lon="10.154082995368382"><ele>1263.0</ele><time>2026-04-27T13:09:55Z</time></trkpt><trkpt lat="46.174686684592174" lon="10.153979502444288"><ele>1263.0</ele><time>2026-04-27T13:09:56Z</time></trkpt><trkpt lat="46.17457066894523" lon="10.153869815978037"><ele>1261.75</ele><time>2026-04-27T13:09:57Z</time></trkpt><trkpt lat="46.174465096049374" lon="10.153748837070756"><ele>1260.5</ele><time>2026-04-27T13:09:58Z</time></trkpt><trkpt lat="46.1743637812545" lon="10.153610636615486"><ele>1259.25</ele><time>2026-04-27T13:09:59Z</time></trkpt><trkpt lat="46.17427272375115" lon="10.15346679852775"><ele>1258.0</ele><time>2026-04-27T13:10:00Z</time></trkpt><trkpt lat="46.17418838611871" lon="10.153315233251673"><ele>1256.75</ele><time>2026-04-27T13:10:01Z</time></trkpt><trkpt lat="46.17410780414055" lon="10.153187766547894"><ele>1255.5</ele><time>2026-04-27T13:10:02Z</time></trkpt><trkpt lat="46.174014378848064" lon="10.15306364338268"><ele>1254.25</ele><time>2026-04-27T13:10:03Z</time></trkpt><trkpt lat="46.173897219536634" lon="10.15294342686724"><ele>1253.0</ele><time>2026-04-27T13:10:04Z</time></trkpt><trkpt lat="46.17378325821926" lon="10.152832136628852"><ele>1253.0</ele><time>2026-04-27T13:10:05Z</time></trkpt><trkpt lat="46.17367361294624" lon="10.1527226371573"><ele>1253.0</ele><time>2026-04-27T13:10:06Z</time></trkpt><trkpt lat="46.17356864610028" lon="10.152607735608603"><ele>1253.0</ele><time>2026-04-27T13:10:07Z</time></trkpt><trkpt lat="46.17347308351573" lon="10.152493677933993"><ele>1253.0</ele><time>2026-04-27T13:10:08Z</time></trkpt><trkpt lat="46.17339519886858" lon="10.15239310727996"><ele>1254.6</ele><time>2026-04-27T13:10:09Z</time></trkpt><trkpt lat="46.17333368155716" lon="10.152301667264322"><ele>1256.1999999999998</ele><time>2026-04-27T13:10:10Z</time></trkpt><trkpt lat="46.173265688434505" lon="10.152209301945545"><ele>1257.8</ele><time>2026-04-27T13:10:11Z</time></trkpt><trkpt lat="46.173219137755524" lon="10.152090081262765"><ele>1259.3999999999999</ele><time>2026-04-27T13:10:12Z</time></trkpt><trkpt lat="46.17318645245008" lon="10.151954212205665"><ele>1261.0</ele><time>2026-04-27T13:10:13Z</time></trkpt><trkpt lat="46.17318208010191" lon="10.151809296783034"><ele>1261.0</ele><time>2026-04-27T13:10:14Z</time></trkpt><trkpt lat="46.173176835586716" lon="10.151650121833242"><ele>1261.0</ele><time>2026-04-27T13:10:15Z</time></trkpt><trkpt lat="46.1731617241793" lon="10.151469758933905"><ele>1261.0</ele><time>2026-04-27T13:10:16Z</time></trkpt><trkpt lat="46.17312023000121" lon="10.151295308035749"><ele>1261.0</ele><time>2026-04-27T13:10:17Z</time></trkpt><trkpt lat="46.1730772667903" lon="10.151149505684582"><ele>1256.3999999999999</ele><time>2026-04-27T13:10:18Z</time></trkpt><trkpt lat="46.17303443434034" lon="10.151030617733573"><ele>1251.8</ele><time>2026-04-27T13:10:19Z</time></trkpt><trkpt lat="46.17298079690392" lon="10.150927014971291"><ele>1247.1999999999998</ele><time>2026-04-27T13:10:20Z</time></trkpt><trkpt lat="46.172911943111785" lon="10.150822150250471"><ele>1242.6</ele><time>2026-04-27T13:10:21Z</time></trkpt><trkpt lat="46.17282765332122" lon="10.150728452220593"><ele>1238.0</ele><time>2026-04-27T13:10:22Z</time></trkpt><trkpt lat="46.17272993789569" lon="10.150628885615474"><ele>1237.5</ele><time>2026-04-27T13:10:23Z</time></trkpt><trkpt lat="46.17263047961752" lon="10.150517134071965"><ele>1237.0</ele><time>2026-04-27T13:10:24Z</time></trkpt><trkpt lat="46.1725218493753" lon="10.15039877940721"><ele>1236.5</ele><time>2026-04-27T13:10:25Z</time></trkpt><trkpt lat="46.172410044498456" lon="10.150267933236625"><ele>1236.0</ele><time>2026-04-27T13:10:26Z</time></trkpt><trkpt lat="46.17229141708135" lon="10.15015484265609"><ele>1236.0</ele><time>2026-04-27T13:10:27Z</time></trkpt><trkpt lat="46.1721778189628" lon="10.15004557345145"><ele>1236.0</ele><time>2026-04-27T13:10:28Z</time></trkpt><trkpt lat="46.17206869566954" lon="10.149927448287364"><ele>1236.0</ele><time>2026-04-27T13:10:29Z</time></trkpt><trkpt lat="46.17197048817063" lon="10.149799840098732"><ele>1236.0</ele><time>2026-04-27T13:10:30Z</time></trkpt><trkpt lat="46.171875316111844" lon="10.14969875667201"><ele>1231.3333333333333</ele><time>2026-04-27T13:10:31Z</time></trkpt><trkpt lat="46.17180610552223" lon="10.149627645913453"><ele>1226.6666666666667</ele><time>2026-04-27T13:10:32Z</time></trkpt><trkpt lat="46.17176008197074" lon="10.149555721713366"><ele>1222.0</ele><time>2026-04-27T13:10:33Z</time></trkpt><trkpt lat="46.17170583542761" lon="10.149488022382526"><ele>1217.3333333333335</ele><time>2026-04-27T13:10:35Z</time></trkpt><trkpt lat="46.1717543765714" lon="10.149406539489616"><ele>1212.6666666666667</ele><time>2026-04-27T13:10:37Z</time></trkpt><trkpt lat="46.17182150645213" lon="10.149353323668144"><ele>1208.0</ele><time>2026-04-27T13:10:39Z</time></trkpt><trkpt lat="46.17194180429066" lon="10.149396733957966"><ele>1208.0</ele><time>2026-04-27T13:10:41Z</time></trkpt><trkpt lat="46.17200619462256" lon="10.149419723378857"><ele>1208.0</ele><time>2026-04-27T13:10:42Z</time></trkpt><trkpt lat="46.17211040473239" lon="10.149465228390776"><ele>1208.0</ele><time>2026-04-27T13:10:44Z</time></trkpt><trkpt lat="46.172164951939514" lon="10.149530784849743"><ele>1208.0</ele><time>2026-04-27T13:10:45Z</time></trkpt><trkpt lat="46.172218148676876" lon="10.149623334640683"><ele>1208.0</ele><time>2026-04-27T13:10:46Z</time></trkpt><trkpt lat="46.17228637956613" lon="10.149727243882829"><ele>1208.0</ele><time>2026-04-27T13:10:47Z</time></trkpt><trkpt lat="46.17237123893934" lon="10.14982212998046"><ele>1208.0</ele><time>2026-04-27T13:10:48Z</time></trkpt><trkpt lat="46.172460017792545" lon="10.14989858073139"><ele>1208.0</ele><time>2026-04-27T13:10:49Z</time></trkpt><trkpt lat="46.17256245395795" lon="10.14995350927159"><ele>1208.0</ele><time>2026-04-27T13:10:50Z</time></trkpt><trkpt lat="46.17266362825445" lon="10.149978406965605"><ele>1208.0</ele><time>2026-04-27T13:10:51Z</time></trkpt><trkpt lat="46.17276320332613" lon="10.150006325596413"><ele>1208.0</ele><time>2026-04-27T13:10:52Z</time></trkpt><trkpt lat="46.17285374347622" lon="10.15003650419575"><ele>1208.0</ele><time>2026-04-27T13:10:53Z</time></trkpt><trkpt lat="46.17295976154849" lon="10.150061919999759"><ele>1208.0</ele><time>2026-04-27T13:10:54Z</time></trkpt><trkpt lat="46.17307400662404" lon="10.150110877768153"><ele>1208.0</ele><time>2026-04-27T13:10:55Z</time></trkpt><trkpt lat="46.173140566743434" lon="10.150122721467111"><ele>1208.0</ele><time>2026-04-27T13:10:56Z</time></trkpt><trkpt lat="46.1732033306616" lon="10.150140945077228"><ele>1208.0</ele><time>2026-04-27T13:10:57Z</time></trkpt><trkpt lat="46.17327295857067" lon="10.150130502048691"><ele>1208.0</ele><time>2026-04-27T13:10:59Z</time></trkpt><trkpt lat="46.17331141433409" lon="10.150033683514302"><ele>1204.4</ele><time>2026-04-27T13:11:01Z</time></trkpt><trkpt lat="46.17326776936937" lon="10.149901892602475"><ele>1200.8</ele><time>2026-04-27T13:11:03Z</time></trkpt><trkpt lat="46.17318261949193" lon="10.149844224107788"><ele>1197.2</ele><time>2026-04-27T13:11:04Z</time></trkpt><trkpt lat="46.17309105948599" lon="10.149761183070355"><ele>1193.6</ele><time>2026-04-27T13:11:05Z</time></trkpt><trkpt lat="46.17302663662693" lon="10.149666821274472"><ele>1190.0</ele><time>2026-04-27T13:11:06Z</time></trkpt><trkpt lat="46.172957015794225" lon="10.149553614431326"><ele>1189.2</ele><time>2026-04-27T13:11:07Z</time></trkpt><trkpt lat="46.1728806306785" lon="10.14944782667929"><ele>1188.4</ele><time>2026-04-27T13:11:08Z</time></trkpt><trkpt lat="46.17280543239798" lon="10.149350762999486"><ele>1187.6</ele><time>2026-04-27T13:11:09Z</time></trkpt><trkpt lat="46.17274244489669" lon="10.149259298130104"><ele>1186.8</ele><time>2026-04-27T13:11:10Z</time></trkpt><trkpt lat="46.17270103937622" lon="10.149181113035798"><ele>1186.0</ele><time>2026-04-27T13:11:11Z</time></trkpt><trkpt lat="46.17265193453861" lon="10.14900863754549"><ele>1183.8571428571427</ele><time>2026-04-27T13:11:13Z</time></trkpt><trkpt lat="46.17263814199342" lon="10.148909479482821"><ele>1181.7142857142858</ele><time>2026-04-27T13:11:14Z</time></trkpt><trkpt lat="46.17262085451996" lon="10.148810352981082"><ele>1179.5714285714284</ele><time>2026-04-27T13:11:15Z</time></trkpt><trkpt lat="46.17260087617805" lon="10.148695797023713"><ele>1177.4285714285713</ele><time>2026-04-27T13:11:16Z</time></trkpt><trkpt lat="46.17258310073081" lon="10.148603817742432"><ele>1175.2857142857142</ele><time>2026-04-27T13:11:17Z</time></trkpt><trkpt lat="46.172555117607786" lon="10.148513441937315"><ele>1173.142857142857</ele><time>2026-04-27T13:11:18Z</time></trkpt><trkpt lat="46.17251922090055" lon="10.14842811862321"><ele>1171.0</ele><time>2026-04-27T13:11:19Z</time></trkpt><trkpt lat="46.172462157322656" lon="10.148365613169453"><ele>1171.0</ele><time>2026-04-27T13:11:20Z</time></trkpt><trkpt lat="46.17239406778753" lon="10.148330832891238"><ele>1171.0</ele><time>2026-04-27T13:11:21Z</time></trkpt><trkpt lat="46.172335780856585" lon="10.14827789851449"><ele>1171.0</ele><time>2026-04-27T13:11:22Z</time></trkpt><trkpt lat="46.17228326020058" lon="10.148224990674235"><ele>1171.0</ele><time>2026-04-27T13:11:23Z</time></trkpt><trkpt lat="46.1722302075255" lon="10.148163187512422"><ele>1171.0</ele><time>2026-04-27T13:11:24Z</time></trkpt><trkpt lat="46.17213732208738" lon="10.148004852661682"><ele>1171.0</ele><time>2026-04-27T13:11:26Z</time></trkpt><trkpt lat="46.172087939936034" lon="10.147929614034553"><ele>1170.0</ele><time>2026-04-27T13:11:27Z</time></trkpt><trkpt lat="46.172031436435326" lon="10.147845724857122"><ele>1169.0</ele><time>2026-04-27T13:11:28Z</time></trkpt><trkpt lat="46.171976063751046" lon="10.147794186999976"><ele>1168.0</ele><time>2026-04-27T13:11:29Z</time></trkpt><trkpt lat="46.171910650294336" lon="10.147667984841684"><ele>1167.0</ele><time>2026-04-27T13:11:31Z</time></trkpt><trkpt lat="46.17187785376624" lon="10.147589264847753"><ele>1166.0</ele><time>2026-04-27T13:11:33Z</time></trkpt><trkpt lat="46.17191965213907" lon="10.147473736064335"><ele>1165.0</ele><time>2026-04-27T13:11:36Z</time></trkpt><trkpt lat="46.17199694472211" lon="10.147479097159016"><ele>1165.0</ele><time>2026-04-27T13:11:38Z</time></trkpt><trkpt lat="46.17207640714496" lon="10.147520095273949"><ele>1165.0</ele><time>2026-04-27T13:11:40Z</time></trkpt><trkpt lat="46.172174479119214" lon="10.1475396310123"><ele>1165.0</ele><time>2026-04-27T13:11:42Z</time></trkpt><trkpt lat="46.172282829111005" lon="10.147578916256373"><ele>1165.0</ele><time>2026-04-27T13:11:44Z</time></trkpt><trkpt lat="46.17234202124327" lon="10.147611519843986"><ele>1165.0</ele><time>2026-04-27T13:11:45Z</time></trkpt><trkpt lat="46.17240580036867" lon="10.14764233349088"><ele>1165.0</ele><time>2026-04-27T13:11:46Z</time></trkpt><trkpt lat="46.172480930980406" lon="10.147678449637887"><ele>1162.8333333333333</ele><time>2026-04-27T13:11:47Z</time></trkpt><trkpt lat="46.17255158403274" lon="10.147701907284759"><ele>1160.6666666666665</ele><time>2026-04-27T13:11:48Z</time></trkpt><trkpt lat="46.172624213664186" lon="10.147711553653915"><ele>1158.5</ele><time>2026-04-27T13:11:49Z</time></trkpt><trkpt lat="46.17269252699731" lon="10.147702200115317"><ele>1156.3333333333333</ele><time>2026-04-27T13:11:50Z</time></trkpt><trkpt lat="46.17280064366841" lon="10.147682896291538"><ele>1154.1666666666667</ele><time>2026-04-27T13:11:52Z</time></trkpt><trkpt lat="46.17290152647348" lon="10.14769337509168"><ele>1152.0</ele><time>2026-04-27T13:11:54Z</time></trkpt><trkpt lat="46.17300432553972" lon="10.147760608965985"><ele>1152.0</ele><time>2026-04-27T13:11:56Z</time></trkpt><trkpt lat="46.17311048428547" lon="10.147842512228793"><ele>1152.0</ele><time>2026-04-27T13:11:58Z</time></trkpt><trkpt lat="46.17320557993762" lon="10.147934410395337"><ele>1152.0</ele><time>2026-04-27T13:12:00Z</time></trkpt><trkpt lat="46.173262404223586" lon="10.147990612353327"><ele>1152.0</ele><time>2026-04-27T13:12:01Z</time></trkpt><trkpt lat="46.17331347308752" lon="10.148062110584544"><ele>1152.0</ele><time>2026-04-27T13:12:02Z</time></trkpt><trkpt lat="46.173370617023984" lon="10.148143260263497"><ele>1152.5</ele><time>2026-04-27T13:12:03Z</time></trkpt><trkpt lat="46.173428269031504" lon="10.148219264430438"><ele>1153.0</ele><time>2026-04-27T13:12:04Z</time></trkpt><trkpt lat="46.17348440902646" lon="10.14828342060264"><ele>1153.5</ele><time>2026-04-27T13:12:05Z</time></trkpt><trkpt lat="46.173542606072346" lon="10.148364158678591"><ele>1154.0</ele><time>2026-04-27T13:12:06Z</time></trkpt><trkpt lat="46.17359685061575" lon="10.148445163414463"><ele>1154.5</ele><time>2026-04-27T13:12:07Z</time></trkpt><trkpt lat="46.173648640246896" lon="10.148520343240202"><ele>1155.0</ele><time>2026-04-27T13:12:08Z</time></trkpt><trkpt lat="46.17370658651649" lon="10.14858272224377"><ele>1155.0</ele><time>2026-04-27T13:12:10Z</time></trkpt><trkpt lat="46.17377547632873" lon="10.148555276207398"><ele>1155.0</ele><time>2026-04-27T13:12:12Z</time></trkpt><trkpt lat="46.17381230345536" lon="10.14840578315684"><ele>1155.0</ele><time>2026-04-27T13:12:14Z</time></trkpt><trkpt lat="46.173786256294214" lon="10.148307181529187"><ele>1155.0</ele><time>2026-04-27T13:12:15Z</time></trkpt><trkpt lat="46.173764942670054" lon="10.14819892045541"><ele>1155.0</ele><time>2026-04-27T13:12:16Z</time></trkpt><trkpt lat="46.173726622152664" lon="10.148057566761484"><ele>1155.0</ele><time>2026-04-27T13:12:17Z</time></trkpt><trkpt lat="46.173673074027214" lon="10.147927043365621"><ele>1151.8</ele><time>2026-04-27T13:12:18Z</time></trkpt><trkpt lat="46.173619187338296" lon="10.147803722912144"><ele>1148.6</ele><time>2026-04-27T13:12:19Z</time></trkpt><trkpt lat="46.17356240881229" lon="10.14767168967375"><ele>1145.4</ele><time>2026-04-27T13:12:20Z</time></trkpt><trkpt lat="46.17350676195184" lon="10.14753689567914"><ele>1142.2</ele><time>2026-04-27T13:12:21Z</time></trkpt><trkpt lat="46.173455868057815" lon="10.147399547460939"><ele>1139.0</ele><time>2026-04-27T13:12:22Z</time></trkpt><trkpt lat="46.1734119306361" lon="10.14725896970664"><ele>1136.3333333333335</ele><time>2026-04-27T13:12:23Z</time></trkpt><trkpt lat="46.17338484035187" lon="10.147108033555476"><ele>1133.6666666666667</ele><time>2026-04-27T13:12:24Z</time></trkpt><trkpt lat="46.17337222368886" lon="10.146982966103213"><ele>1131.0</ele><time>2026-04-27T13:12:25Z</time></trkpt><trkpt lat="46.17336256049943" lon="10.146877265837801"><ele>1128.3333333333333</ele><time>2026-04-27T13:12:26Z</time></trkpt><trkpt lat="46.17335675975015" lon="10.146767657262775"><ele>1125.6666666666665</ele><time>2026-04-27T13:12:27Z</time></trkpt><trkpt lat="46.17332963448395" lon="10.146642916593299"><ele>1123.0</ele><time>2026-04-27T13:12:28Z</time></trkpt><trkpt lat="46.17328441657097" lon="10.146510690890102"><ele>1119.8</ele><time>2026-04-27T13:12:29Z</time></trkpt><trkpt lat="46.173240792037475" lon="10.14637426091812"><ele>1116.6</ele><time>2026-04-27T13:12:30Z</time></trkpt><trkpt lat="46.173199848166156" lon="10.14624721502938"><ele>1113.4</ele><time>2026-04-27T13:12:31Z</time></trkpt><trkpt lat="46.173156687703724" lon="10.146113291265836"><ele>1110.2</ele><time>2026-04-27T13:12:32Z</time></trkpt><trkpt lat="46.1731171148815" lon="10.146004671999163"><ele>1107.0</ele><time>2026-04-27T13:12:33Z</time></trkpt><trkpt lat="46.173041465061864" lon="10.145876163440517"><ele>1107.0</ele><time>2026-04-27T13:12:35Z</time></trkpt><trkpt lat="46.17297817317888" lon="10.14585190390679"><ele>1107.0</ele><time>2026-04-27T13:12:36Z</time></trkpt><trkpt lat="46.172884702638285" lon="10.145882296348809"><ele>1107.0</ele><time>2026-04-27T13:12:37Z</time></trkpt><trkpt lat="46.17279361845544" lon="10.145844659539053"><ele>1107.0</ele><time>2026-04-27T13:12:38Z</time></trkpt><trkpt lat="46.1727060084253" lon="10.145811055250967"><ele>1107.0</ele><time>2026-04-27T13:12:39Z</time></trkpt><trkpt lat="46.172635820472955" lon="10.145773273582968"><ele>1107.0</ele><time>2026-04-27T13:12:40Z</time></trkpt><trkpt lat="46.172575436799896" lon="10.145734113654461"><ele>1106.1666666666667</ele><time>2026-04-27T13:12:41Z</time></trkpt><trkpt lat="46.17250948412831" lon="10.145642971053045"><ele>1105.3333333333333</ele><time>2026-04-27T13:12:43Z</time></trkpt><trkpt lat="46.17248858247421" lon="10.145476302661525"><ele>1104.5</ele><time>2026-04-27T13:12:45Z</time></trkpt><trkpt lat="46.172473773331895" lon="10.145368217646862"><ele>1103.6666666666665</ele><time>2026-04-27T13:12:46Z</time></trkpt><trkpt lat="46.17244268827774" lon="10.145263038444929"><ele>1102.8333333333333</ele><time>2026-04-27T13:12:47Z</time></trkpt><trkpt lat="46.1723931859551" lon="10.145168352084987"><ele>1102.0</ele><time>2026-04-27T13:12:48Z</time></trkpt><trkpt lat="46.17234214013023" lon="10.145067022926954"><ele>1102.0</ele><time>2026-04-27T13:12:49Z</time></trkpt><trkpt lat="46.17228560574769" lon="10.144967650586404"><ele>1102.0</ele><time>2026-04-27T13:12:50Z</time></trkpt><trkpt lat="46.17221671686488" lon="10.144873049475224"><ele>1102.0</ele><time>2026-04-27T13:12:51Z</time></trkpt><trkpt lat="46.17213713600463" lon="10.144793495746958"><ele>1102.0</ele><time>2026-04-27T13:12:52Z</time></trkpt><trkpt lat="46.172067181972956" lon="10.144713613558297"><ele>1102.0</ele><time>2026-04-27T13:12:53Z</time></trkpt><trkpt lat="46.17201454127358" lon="10.144622862385814"><ele>1098.6666666666665</ele><time>2026-04-27T13:12:54Z</time></trkpt><trkpt lat="46.171964848518556" lon="10.14452977969711"><ele>1095.3333333333333</ele><time>2026-04-27T13:12:55Z</time></trkpt><trkpt lat="46.17191806682272" lon="10.144441923240457"><ele>1092.0</ele><time>2026-04-27T13:12:56Z</time></trkpt><trkpt lat="46.17186260173009" lon="10.144378983084067"><ele>1088.6666666666667</ele><time>2026-04-27T13:12:57Z</time></trkpt><trkpt lat="46.17180481391566" lon="10.144332437250934"><ele>1085.3333333333335</ele><time>2026-04-27T13:12:58Z</time></trkpt><trkpt lat="46.17173052649928" lon="10.144301990633368"><ele>1082.0</ele><time>2026-04-27T13:12:59Z</time></trkpt><trkpt lat="46.17164236381388" lon="10.144275494330353"><ele>1082.0</ele><time>2026-04-27T13:13:00Z</time></trkpt><trkpt lat="46.171552370123" lon="10.144245655505216"><ele>1082.0</ele><time>2026-04-27T13:13:01Z</time></trkpt><trkpt lat="46.17147768615597" lon="10.144189984026124"><ele>1082.0</ele><time>2026-04-27T13:13:02Z</time></trkpt><trkpt lat="46.17141352011254" lon="10.144108502479865"><ele>1082.0</ele><time>2026-04-27T13:13:03Z</time></trkpt><trkpt lat="46.171368311165864" lon="10.144009439849697"><ele>1082.0</ele><time>2026-04-27T13:13:04Z</time></trkpt><trkpt lat="46.17130154107381" lon="10.143905516727155"><ele>1082.0</ele><time>2026-04-27T13:13:05Z</time></trkpt><trkpt lat="46.17121098662191" lon="10.143813603172594"><ele>1079.75</ele><time>2026-04-27T13:13:06Z</time></trkpt><trkpt lat="46.171113595273326" lon="10.143735251760335"><ele>1077.5</ele><time>2026-04-27T13:13:07Z</time></trkpt><trkpt lat="46.171010113020955" lon="10.143666538378014"><ele>1075.25</ele><time>2026-04-27T13:13:08Z</time></trkpt><trkpt lat="46.17090665991107" lon="10.143595483146386"><ele>1073.0</ele><time>2026-04-27T13:13:09Z</time></trkpt><trkpt lat="46.17080596277793" lon="10.14352362659384"><ele>1073.0</ele><time>2026-04-27T13:13:10Z</time></trkpt><trkpt lat="46.17071846297366" lon="10.143451989322099"><ele>1073.0</ele><time>2026-04-27T13:13:11Z</time></trkpt><trkpt lat="46.170629582911566" lon="10.14338802103764"><ele>1073.0</ele><time>2026-04-27T13:13:12Z</time></trkpt><trkpt lat="46.17054384104101" lon="10.143353965903385"><ele>1073.0</ele><time>2026-04-27T13:13:13Z</time></trkpt><trkpt lat="46.17046310747216" lon="10.143309597241615"><ele>1073.0</ele><time>2026-04-27T13:13:14Z</time></trkpt><trkpt lat="46.17038753368671" lon="10.14326473237771"><ele>1069.8</ele><time>2026-04-27T13:13:15Z</time></trkpt><trkpt lat="46.17031499543786" lon="10.143207275840162"><ele>1066.6</ele><time>2026-04-27T13:13:16Z</time></trkpt><trkpt lat="46.17022449804612" lon="10.14312490644661"><ele>1063.4</ele><time>2026-04-27T13:13:17Z</time></trkpt><trkpt lat="46.17012911484622" lon="10.143034697870208"><ele>1060.2</ele><time>2026-04-27T13:13:18Z</time></trkpt><trkpt lat="46.170037831654206" lon="10.142952928762828"><ele>1057.0</ele><time>2026-04-27T13:13:19Z</time></trkpt><trkpt lat="46.16992962482048" lon="10.142861878695879"><ele>1060.5</ele><time>2026-04-27T13:13:20Z</time></trkpt><trkpt lat="46.169821678218064" lon="10.142799282571357"><ele>1064.0</ele><time>2026-04-27T13:13:21Z</time></trkpt><trkpt lat="46.16972177879842" lon="10.14272433358717"><ele>1067.5</ele><time>2026-04-27T13:13:22Z</time></trkpt><trkpt lat="46.1696260763192" lon="10.14263589722802"><ele>1071.0</ele><time>2026-04-27T13:13:23Z</time></trkpt><trkpt lat="46.16951150772072" lon="10.142565695541991"><ele>1071.0</ele><time>2026-04-27T13:13:24Z</time></trkpt><trkpt lat="46.16939622414615" lon="10.142493470645148"><ele>1071.0</ele><time>2026-04-27T13:13:25Z</time></trkpt><trkpt lat="46.16928786007239" lon="10.14242066110208"><ele>1071.0</ele><time>2026-04-27T13:13:26Z</time></trkpt><trkpt lat="46.16919651298642" lon="10.142347218254548"><ele>1071.0</ele><time>2026-04-27T13:13:27Z</time></trkpt><trkpt lat="46.16914005005878" lon="10.142294847279828"><ele>1071.0</ele><time>2026-04-27T13:13:28Z</time></trkpt><trkpt lat="46.169092989155665" lon="10.142210172129555"><ele>1071.3999999999999</ele><time>2026-04-27T13:13:29Z</time></trkpt><trkpt lat="46.16905505461229" lon="10.142103360891232"><ele>1071.8</ele><time>2026-04-27T13:13:30Z</time></trkpt><trkpt lat="46.1689988570391" lon="10.14197519072439"><ele>1072.1999999999998</ele><time>2026-04-27T13:13:31Z</time></trkpt><trkpt lat="46.16893014809991" lon="10.141844535744005"><ele>1072.6</ele><time>2026-04-27T13:13:32Z</time></trkpt><trkpt lat="46.16884801179899" lon="10.14171536788337"><ele>1073.0</ele><time>2026-04-27T13:13:33Z</time></trkpt><trkpt lat="46.168757744593684" lon="10.141608802572334"><ele>1073.0</ele><time>2026-04-27T13:13:34Z</time></trkpt><trkpt lat="46.168691597439" lon="10.141529394459143"><ele>1073.0</ele><time>2026-04-27T13:13:35Z</time></trkpt><trkpt lat="46.16862179402577" lon="10.141432239747205"><ele>1073.0</ele><time>2026-04-27T13:13:37Z</time></trkpt><trkpt lat="46.1686999026262" lon="10.14139088591939"><ele>1073.0</ele><time>2026-04-27T13:13:41Z</time></trkpt><trkpt lat="46.16881767170758" lon="10.141480614967486"><ele>1073.0</ele><time>2026-04-27T13:13:43Z</time></trkpt><trkpt lat="46.16891527119506" lon="10.141556013640583"><ele>1066.25</ele><time>2026-04-27T13:13:44Z</time></trkpt><trkpt lat="46.169046091980135" lon="10.141637503665827"><ele>1059.5</ele><time>2026-04-27T13:13:45Z</time></trkpt><trkpt lat="46.16915554035498" lon="10.141718407919722"><ele>1052.75</ele><time>2026-04-27T13:13:46Z</time></trkpt><trkpt lat="46.16925054471198" lon="10.14181073617422"><ele>1046.0</ele><time>2026-04-27T13:13:47Z</time></trkpt><trkpt lat="46.16933870427571" lon="10.141892813526358"><ele>1046.0</ele><time>2026-04-27T13:13:48Z</time></trkpt><trkpt lat="46.16940732845139" lon="10.141955313383301"><ele>1046.0</ele><time>2026-04-27T13:13:49Z</time></trkpt><trkpt lat="46.169486826442224" lon="10.141996445839897"><ele>1046.0</ele><time>2026-04-27T13:13:51Z</time></trkpt><trkpt lat="46.16954466031289" lon="10.141951661100935"><ele>1046.0</ele><time>2026-04-27T13:13:54Z</time></trkpt><trkpt lat="46.169527141331635" lon="10.141794701908747"><ele>1046.0</ele><time>2026-04-27T13:13:55Z</time></trkpt><trkpt lat="46.16946626219639" lon="10.141725532665866"><ele>1046.0</ele><time>2026-04-27T13:13:56Z</time></trkpt><trkpt lat="46.16939257846688" lon="10.141632209037597"><ele>1042.6</ele><time>2026-04-27T13:13:57Z</time></trkpt><trkpt lat="46.16932248839385" lon="10.141516980852684"><ele>1039.1999999999998</ele><time>2026-04-27T13:13:58Z</time></trkpt><trkpt lat="46.16926775904804" lon="10.141400520249395"><ele>1035.8000000000002</ele><time>2026-04-27T13:13:59Z</time></trkpt><trkpt lat="46.16921892353465" lon="10.141267891481847"><ele>1032.4</ele><time>2026-04-27T13:14:00Z</time></trkpt><trkpt lat="46.16917086691977" lon="10.14113377630966"><ele>1029.0</ele><time>2026-04-27T13:14:01Z</time></trkpt><trkpt lat="46.16912370067724" lon="10.14099340443166"><ele>1029.0</ele><time>2026-04-27T13:14:02Z</time></trkpt><trkpt lat="46.16907502018774" lon="10.140847224198774"><ele>1029.0</ele><time>2026-04-27T13:14:03Z</time></trkpt><trkpt lat="46.16902717827808" lon="10.140695888094346"><ele>1029.0</ele><time>2026-04-27T13:14:04Z</time></trkpt><trkpt lat="46.16898364460434" lon="10.140546230341924"><ele>1029.0</ele><time>2026-04-27T13:14:05Z</time></trkpt><trkpt lat="46.16893961179186" lon="10.14038739330196"><ele>1028.75</ele><time>2026-04-27T13:14:06Z</time></trkpt><trkpt lat="46.168897907182554" lon="10.140222193814955"><ele>1028.5</ele><time>2026-04-27T13:14:07Z</time></trkpt><trkpt lat="46.1688593774515" lon="10.140063284236508"><ele>1028.25</ele><time>2026-04-27T13:14:08Z</time></trkpt><trkpt lat="46.16882190295507" lon="10.139888328586597"><ele>1028.0</ele><time>2026-04-27T13:14:09Z</time></trkpt><trkpt lat="46.168779157253354" lon="10.13971127454651"><ele>1028.0</ele><time>2026-04-27T13:14:10Z</time></trkpt><trkpt lat="46.168741716032834" lon="10.13950671598522"><ele>1028.0</ele><time>2026-04-27T13:14:11Z</time></trkpt><trkpt lat="46.16870220868681" lon="10.139309719159428"><ele>1028.0</ele><time>2026-04-27T13:14:12Z</time></trkpt><trkpt lat="46.1686608473281" lon="10.13915144765018"><ele>1028.0</ele><time>2026-04-27T13:14:13Z</time></trkpt><trkpt lat="46.16861658825409" lon="10.139027301686651"><ele>1025.6</ele><time>2026-04-27T13:14:14Z</time></trkpt><trkpt lat="46.168606761024265" lon="10.13891231886409"><ele>1023.1999999999999</ele><time>2026-04-27T13:14:15Z</time></trkpt><trkpt lat="46.168590687515355" lon="10.13878420754633"><ele>1020.8</ele><time>2026-04-27T13:14:16Z</time></trkpt><trkpt lat="46.16858165134867" lon="10.138637312914218"><ele>1018.4</ele><time>2026-04-27T13:14:17Z</time></trkpt><trkpt lat="46.16857277681157" lon="10.138458017695973"><ele>1016.0</ele><time>2026-04-27T13:14:18Z</time></trkpt><trkpt lat="46.16856038346705" lon="10.138277019334389"><ele>1013.25</ele><time>2026-04-27T13:14:19Z</time></trkpt><trkpt lat="46.16854160936575" lon="10.138079896232139"><ele>1010.5</ele><time>2026-04-27T13:14:20Z</time></trkpt><trkpt lat="46.168513687261715" lon="10.137886699382623"><ele>1007.75</ele><time>2026-04-27T13:14:21Z</time></trkpt><trkpt lat="46.168486528899564" lon="10.137713259849749"><ele>1005.0</ele><time>2026-04-27T13:14:22Z</time></trkpt><trkpt lat="46.16844954219166" lon="10.137566201398574"><ele>1005.0</ele><time>2026-04-27T13:14:23Z</time></trkpt><trkpt lat="46.16844217533129" lon="10.137430669610955"><ele>1005.0</ele><time>2026-04-27T13:14:24Z</time></trkpt><trkpt lat="46.168430735474494" lon="10.137328545058228"><ele>1005.0</ele><time>2026-04-27T13:14:25Z</time></trkpt><trkpt lat="46.16839951462712" lon="10.137227467136428"><ele>1005.0</ele><time>2026-04-27T13:14:27Z</time></trkpt><trkpt lat="46.16846101766719" lon="10.137178848863556"><ele>1005.0</ele><time>2026-04-27T13:14:29Z</time></trkpt><trkpt lat="46.16854102655652" lon="10.137198769040925"><ele>1005.0</ele><time>2026-04-27T13:14:32Z</time></trkpt><trkpt lat="46.16858433330075" lon="10.137367992511315"><ele>1005.0</ele><time>2026-04-27T13:14:34Z</time></trkpt><trkpt lat="46.16860111696854" lon="10.137484017406528"><ele>1005.0</ele><time>2026-04-27T13:14:35Z</time></trkpt><trkpt lat="46.16863936512195" lon="10.137609462569321"><ele>1005.0</ele><time>2026-04-27T13:14:36Z</time></trkpt><trkpt lat="46.16868085571755" lon="10.137703302429195"><ele>1005.0</ele><time>2026-04-27T13:14:37Z</time></trkpt><trkpt lat="46.16874515509474" lon="10.13780271764603"><ele>1005.0</ele><time>2026-04-27T13:14:38Z</time></trkpt><trkpt lat="46.168801660037985" lon="10.137891824985394"><ele>1005.0</ele><time>2026-04-27T13:14:39Z</time></trkpt><trkpt lat="46.16885716627468" lon="10.137994864366831"><ele>1005.0</ele><time>2026-04-27T13:14:40Z</time></trkpt><trkpt lat="46.16888964281667" lon="10.138113539267986"><ele>1005.0</ele><time>2026-04-27T13:14:41Z</time></trkpt><trkpt lat="46.16893730617076" lon="10.138217293443411"><ele>1005.0</ele><time>2026-04-27T13:14:42Z</time></trkpt><trkpt lat="46.16897194303522" lon="10.138311900513337"><ele>1005.0</ele><time>2026-04-27T13:14:43Z</time></trkpt><trkpt lat="46.169024386679716" lon="10.138380613834801"><ele>1005.0</ele><time>2026-04-27T13:14:44Z</time></trkpt><trkpt lat="46.169094780732756" lon="10.138425721826502"><ele>1005.0</ele><time>2026-04-27T13:14:45Z</time></trkpt><trkpt lat="46.1691676738395" lon="10.138480642651306"><ele>1000.5</ele><time>2026-04-27T13:14:46Z</time></trkpt><trkpt lat="46.169235037445624" lon="10.138528019805394"><ele>996.0</ele><time>2026-04-27T13:14:47Z</time></trkpt><trkpt lat="46.16933990307658" lon="10.138653743456896"><ele>991.5</ele><time>2026-04-27T13:14:49Z</time></trkpt><trkpt lat="46.16941261898526" lon="10.138770414613623"><ele>987.0</ele><time>2026-04-27T13:14:50Z</time></trkpt><trkpt lat="46.16951073837548" lon="10.13890316872606"><ele>989.0</ele><time>2026-04-27T13:14:51Z</time></trkpt><trkpt lat="46.16959563345397" lon="10.139064644160829"><ele>991.0</ele><time>2026-04-27T13:14:52Z</time></trkpt><trkpt lat="46.1696698783953" lon="10.139242545741427"><ele>993.0</ele><time>2026-04-27T13:14:53Z</time></trkpt><trkpt lat="46.16973735594916" lon="10.139366643639342"><ele>995.0</ele><time>2026-04-27T13:14:54Z</time></trkpt><trkpt lat="46.16977919847972" lon="10.139437090732569"><ele>995.0000000000001</ele><time>2026-04-27T13:14:55Z</time></trkpt><trkpt lat="46.16983907737159" lon="10.139501132830796"><ele>995.0</ele><time>2026-04-27T13:14:58Z</time></trkpt><trkpt lat="46.16992142974392" lon="10.139516119444643"><ele>995.0</ele><time>2026-04-27T13:15:00Z</time></trkpt><trkpt lat="46.17004025671529" lon="10.139453239858508"><ele>995.0</ele><time>2026-04-27T13:15:02Z</time></trkpt><trkpt lat="46.17011269444831" lon="10.139387995212603"><ele>995.0000000000001</ele><time>2026-04-27T13:15:03Z</time></trkpt><trkpt lat="46.17018516626199" lon="10.13934522483419"><ele>995.0</ele><time>2026-04-27T13:15:04Z</time></trkpt><trkpt lat="46.170256309788364" lon="10.139284163282698"><ele>989.4</ele><time>2026-04-27T13:15:05Z</time></trkpt><trkpt lat="46.17032046334713" lon="10.139229000386635"><ele>983.8</ele><time>2026-04-27T13:15:06Z</time></trkpt><trkpt lat="46.17039242222507" lon="10.139154557816383"><ele>978.2</ele><time>2026-04-27T13:15:07Z</time></trkpt><trkpt lat="46.17045474060948" lon="10.139083328907988"><ele>972.6</ele><time>2026-04-27T13:15:08Z</time></trkpt><trkpt lat="46.17057109214638" lon="10.139073232425396"><ele>967.0</ele><time>2026-04-27T13:15:10Z</time></trkpt><trkpt lat="46.17069871806502" lon="10.139092913657699"><ele>964.2</ele><time>2026-04-27T13:15:12Z</time></trkpt><trkpt lat="46.17079201971769" lon="10.139158030451817"><ele>961.4000000000001</ele><time>2026-04-27T13:15:13Z</time></trkpt><trkpt lat="46.17088269050932" lon="10.139221252888568"><ele>958.5999999999999</ele><time>2026-04-27T13:15:14Z</time></trkpt><trkpt lat="46.17094397096239" lon="10.139255513890758"><ele>955.8</ele><time>2026-04-27T13:15:15Z</time></trkpt><trkpt lat="46.17103675065349" lon="10.139378296362267"><ele>953.0</ele><time>2026-04-27T13:15:17Z</time></trkpt><trkpt lat="46.171073634953615" lon="10.139471758142745"><ele>953.0000000000001</ele><time>2026-04-27T13:15:18Z</time></trkpt><trkpt lat="46.171105598794725" lon="10.13957683978571"><ele>953.0</ele><time>2026-04-27T13:15:19Z</time></trkpt><trkpt lat="46.17113505423319" lon="10.139699691952323"><ele>953.0</ele><time>2026-04-27T13:15:20Z</time></trkpt><trkpt lat="46.17115921354382" lon="10.139825524152181"><ele>953.0</ele><time>2026-04-27T13:15:21Z</time></trkpt><trkpt lat="46.1711767658725" lon="10.139945509060576"><ele>953.0000000000001</ele><time>2026-04-27T13:15:22Z</time></trkpt><trkpt lat="46.1712057906537" lon="10.140071157968194"><ele>953.0</ele><time>2026-04-27T13:15:23Z</time></trkpt><trkpt lat="46.17123288153092" lon="10.14018178821059"><ele>950.8</ele><time>2026-04-27T13:15:24Z</time></trkpt><trkpt lat="46.17132770968284" lon="10.140282596634377"><ele>948.5999999999999</ele><time>2026-04-27T13:15:26Z</time></trkpt><trkpt lat="46.171439358603536" lon="10.140325559585794"><ele>946.4000000000001</ele><time>2026-04-27T13:15:28Z</time></trkpt><trkpt lat="46.17154802461706" lon="10.140356552767631"><ele>944.2</ele><time>2026-04-27T13:15:30Z</time></trkpt><trkpt lat="46.17161632288491" lon="10.140351803696637"><ele>942.0</ele><time>2026-04-27T13:15:31Z</time></trkpt><trkpt lat="46.17169291230245" lon="10.140340449264285"><ele>942.0</ele><time>2026-04-27T13:15:32Z</time></trkpt><trkpt lat="46.17178154080851" lon="10.140317585140522"><ele>942.0</ele><time>2026-04-27T13:15:33Z</time></trkpt><trkpt lat="46.171870498271716" lon="10.140286206888"><ele>942.0</ele><time>2026-04-27T13:15:34Z</time></trkpt><trkpt lat="46.17196111596667" lon="10.14023214351967"><ele>942.0</ele><time>2026-04-27T13:15:35Z</time></trkpt><trkpt lat="46.17205484272683" lon="10.140230437368272"><ele>942.0</ele><time>2026-04-27T13:15:36Z</time></trkpt><trkpt lat="46.17214230480092" lon="10.140209091734627"><ele>942.0</ele><time>2026-04-27T13:15:37Z</time></trkpt><trkpt lat="46.17222095941668" lon="10.14019843711675"><ele>942.0</ele><time>2026-04-27T13:15:38Z</time></trkpt><trkpt lat="46.17229560812787" lon="10.14020241711606"><ele>942.0</ele><time>2026-04-27T13:15:39Z</time></trkpt><trkpt lat="46.17239125482602" lon="10.140226390419977"><ele>942.0</ele><time>2026-04-27T13:15:40Z</time></trkpt><trkpt lat="46.172508195380544" lon="10.140272310100556"><ele>942.0</ele><time>2026-04-27T13:15:41Z</time></trkpt><trkpt lat="46.172637596863545" lon="10.140327653417964"><ele>940.5</ele><time>2026-04-27T13:15:42Z</time></trkpt><trkpt lat="46.17277348468238" lon="10.140385582729994"><ele>939.0</ele><time>2026-04-27T13:15:43Z</time></trkpt><trkpt lat="46.172903690893044" lon="10.140442874601074"><ele>937.5</ele><time>2026-04-27T13:15:44Z</time></trkpt><trkpt lat="46.17300320937577" lon="10.140482346340011"><ele>936.0</ele><time>2026-04-27T13:15:45Z</time></trkpt><trkpt lat="46.17310012502192" lon="10.140506258329914"><ele>936.0</ele><time>2026-04-27T13:15:46Z</time></trkpt><trkpt lat="46.1731867462203" lon="10.140514885545171"><ele>936.0</ele><time>2026-04-27T13:15:47Z</time></trkpt><trkpt lat="46.17326292209503" lon="10.140503218338143"><ele>936.0</ele><time>2026-04-27T13:15:48Z</time></trkpt><trkpt lat="46.17336121004701" lon="10.14052090801466"><ele>936.0</ele><time>2026-04-27T13:15:49Z</time></trkpt><trkpt lat="46.1734364392187" lon="10.140472423160487"><ele>936.0</ele><time>2026-04-27T13:15:50Z</time></trkpt><trkpt lat="46.17352064915862" lon="10.140418010360834"><ele>936.0</ele><time>2026-04-27T13:15:51Z</time></trkpt><trkpt lat="46.17359639293999" lon="10.14038955345206"><ele>933.1999999999999</ele><time>2026-04-27T13:15:52Z</time></trkpt><trkpt lat="46.17367269020707" lon="10.14037971260411"><ele>930.3999999999999</ele><time>2026-04-27T13:15:54Z</time></trkpt><trkpt lat="46.17379895294957" lon="10.140370290813493"><ele>927.6</ele><time>2026-04-27T13:15:56Z</time></trkpt><trkpt lat="46.17388193075771" lon="10.14040698088596"><ele>924.8</ele><time>2026-04-27T13:15:57Z</time></trkpt><trkpt lat="46.173984808616886" lon="10.140440284569438"><ele>922.0</ele><time>2026-04-27T13:15:58Z</time></trkpt><trkpt lat="46.17405709591748" lon="10.140488795000161"><ele>926.75</ele><time>2026-04-27T13:15:59Z</time></trkpt><trkpt lat="46.17418393294391" lon="10.140568421134713"><ele>931.5</ele><time>2026-04-27T13:16:01Z</time></trkpt><trkpt lat="46.174290355535994" lon="10.14064088203099"><ele>936.25</ele><time>2026-04-27T13:16:02Z</time></trkpt><trkpt lat="46.17441007619578" lon="10.140722654448558"><ele>941.0</ele><time>2026-04-27T13:16:03Z</time></trkpt><trkpt lat="46.17455277408895" lon="10.140801456762524"><ele>941.0</ele><time>2026-04-27T13:16:04Z</time></trkpt><trkpt lat="46.17468633507729" lon="10.140911349255017"><ele>941.0</ele><time>2026-04-27T13:16:05Z</time></trkpt><trkpt lat="46.17482449570372" lon="10.140988921263487"><ele>941.0</ele><time>2026-04-27T13:16:06Z</time></trkpt><trkpt lat="46.17494974443186" lon="10.141076936576136"><ele>941.0</ele><time>2026-04-27T13:16:07Z</time></trkpt><trkpt lat="46.17507351399531" lon="10.14114647496968"><ele>934.1999999999999</ele><time>2026-04-27T13:16:08Z</time></trkpt><trkpt lat="46.17517681644521" lon="10.14119060342445"><ele>927.3999999999999</ele><time>2026-04-27T13:16:09Z</time></trkpt><trkpt lat="46.17528905484835" lon="10.141214291334093"><ele>920.6</ele><time>2026-04-27T13:16:10Z</time></trkpt><trkpt lat="46.175361834337856" lon="10.14127618858919"><ele>913.8</ele><time>2026-04-27T13:16:11Z</time></trkpt><trkpt lat="46.17546414426808" lon="10.141274287419796"><ele>907.0</ele><time>2026-04-27T13:16:13Z</time></trkpt><trkpt lat="46.17545968818369" lon="10.141143572524987"><ele>907.0</ele><time>2026-04-27T13:16:17Z</time></trkpt><trkpt lat="46.175366095544206" lon="10.141047388631078"><ele>907.0</ele><time>2026-04-27T13:16:19Z</time></trkpt><trkpt lat="46.175310897475576" lon="10.140940897339357"><ele>907.0</ele><time>2026-04-27T13:16:20Z</time></trkpt><trkpt lat="46.17522893923324" lon="10.140817850129686"><ele>907.0</ele><time>2026-04-27T13:16:21Z</time></trkpt><trkpt lat="46.17516268003289" lon="10.14071169165117"><ele>907.0</ele><time>2026-04-27T13:16:22Z</time></trkpt><trkpt lat="46.175101806693824" lon="10.140594907890671"><ele>905.8</ele><time>2026-04-27T13:16:23Z</time></trkpt><trkpt lat="46.175037637765975" lon="10.14045575115004"><ele>904.6</ele><time>2026-04-27T13:16:24Z</time></trkpt><trkpt lat="46.17496237876969" lon="10.140326328343082"><ele>903.3999999999999</ele><time>2026-04-27T13:16:25Z</time></trkpt><trkpt lat="46.17488301572421" lon="10.140242892521373"><ele>902.1999999999999</ele><time>2026-04-27T13:16:26Z</time></trkpt><trkpt lat="46.17483490461914" lon="10.14015985441587"><ele>901.0</ele><time>2026-04-27T13:16:27Z</time></trkpt><trkpt lat="46.17477523308474" lon="10.140103379002586"><ele>901.0</ele><time>2026-04-27T13:16:28Z</time></trkpt><trkpt lat="46.17469290662853" lon="10.14004044248551"><ele>900.9999999999999</ele><time>2026-04-27T13:16:29Z</time></trkpt><trkpt lat="46.174583730287765" lon="10.139978658036396"><ele>900.9999999999999</ele><time>2026-04-27T13:16:30Z</time></trkpt><trkpt lat="46.174484183698866" lon="10.13988458960875"><ele>901.0</ele><time>2026-04-27T13:16:31Z</time></trkpt><trkpt lat="46.17438324511765" lon="10.13980613923168"><ele>901.0</ele><time>2026-04-27T13:16:32Z</time></trkpt><trkpt lat="46.17428581134158" lon="10.139732340295081"><ele>898.9999999999999</ele><time>2026-04-27T13:16:33Z</time></trkpt><trkpt lat="46.17419439920235" lon="10.139664250159642"><ele>897.0</ele><time>2026-04-27T13:16:34Z</time></trkpt><trkpt lat="46.174109311444795" lon="10.139632468233932"><ele>895.0</ele><time>2026-04-27T13:16:35Z</time></trkpt><trkpt lat="46.174048052955484" lon="10.139590272748618"><ele>893.0</ele><time>2026-04-27T13:16:36Z</time></trkpt><trkpt lat="46.173968936309755" lon="10.139574553389064"><ele>890.9999999999999</ele><time>2026-04-27T13:16:37Z</time></trkpt><trkpt lat="46.17389032673951" lon="10.13953987908243"><ele>889.0</ele><time>2026-04-27T13:16:38Z</time></trkpt><trkpt lat="46.173820233833155" lon="10.13952906073655"><ele>888.9999999999999</ele><time>2026-04-27T13:16:39Z</time></trkpt><trkpt lat="46.173753934168374" lon="10.139516390437263"><ele>889.0</ele><time>2026-04-27T13:16:40Z</time></trkpt><trkpt lat="46.173679087694396" lon="10.139499541305717"><ele>889.0</ele><time>2026-04-27T13:16:41Z</time></trkpt><trkpt lat="46.173577319770196" lon="10.139484549952792"><ele>889.0</ele><time>2026-04-27T13:16:42Z</time></trkpt><trkpt lat="46.17348723443928" lon="10.139427338492027"><ele>888.9999999999999</ele><time>2026-04-27T13:16:43Z</time></trkpt><trkpt lat="46.17341206705033" lon="10.139367717545946"><ele>889.0</ele><time>2026-04-27T13:16:44Z</time></trkpt><trkpt lat="46.1733712089739" lon="10.139286377369716"><ele>889.0</ele><time>2026-04-27T13:16:45Z</time></trkpt><trkpt lat="46.173319763282564" lon="10.13916967992316"><ele>889.0000000000001</ele><time>2026-04-27T13:16:47Z</time></trkpt><trkpt lat="46.17328099709325" lon="10.139044407547809"><ele>889.0000000000001</ele><time>2026-04-27T13:16:49Z</time></trkpt><trkpt lat="46.17328463147351" lon="10.138946965957691"><ele>889.0</ele><time>2026-04-27T13:16:50Z</time></trkpt><trkpt lat="46.173287037685036" lon="10.138813963222482"><ele>889.0</ele><time>2026-04-27T13:16:51Z</time></trkpt><trkpt lat="46.17329669846525" lon="10.138656919375874"><ele>884.0</ele><time>2026-04-27T13:16:52Z</time></trkpt><trkpt lat="46.17329002038949" lon="10.138480860975333"><ele>879.0</ele><time>2026-04-27T13:16:53Z</time></trkpt><trkpt lat="46.17328040787465" lon="10.13828849068001"><ele>874.0</ele><time>2026-04-27T13:16:54Z</time></trkpt><trkpt lat="46.173273129184565" lon="10.138105832260267"><ele>869.0</ele><time>2026-04-27T13:16:55Z</time></trkpt><trkpt lat="46.173271077801466" lon="10.137923418043453"><ele>867.4000000000001</ele><time>2026-04-27T13:16:56Z</time></trkpt><trkpt lat="46.17327167550348" lon="10.137742692342878"><ele>865.8000000000001</ele><time>2026-04-27T13:16:57Z</time></trkpt><trkpt lat="46.17328784346296" lon="10.137581057273213"><ele>864.1999999999999</ele><time>2026-04-27T13:16:58Z</time></trkpt><trkpt lat="46.17328914120859" lon="10.137447195431635"><ele>862.5999999999999</ele><time>2026-04-27T13:16:59Z</time></trkpt><trkpt lat="46.173247730946734" lon="10.137339972623481"><ele>861.0</ele><time>2026-04-27T13:17:00Z</time></trkpt><trkpt lat="46.17320081115012" lon="10.137243250130757"><ele>862.4</ele><time>2026-04-27T13:17:01Z</time></trkpt><trkpt lat="46.173142876618996" lon="10.137180077853296"><ele>863.8</ele><time>2026-04-27T13:17:02Z</time></trkpt><trkpt lat="46.17313415211258" lon="10.137066477775882"><ele>865.1999999999999</ele><time>2026-04-27T13:17:04Z</time></trkpt><trkpt lat="46.17322177878965" lon="10.137008105563469"><ele>866.5999999999999</ele><time>2026-04-27T13:17:06Z</time></trkpt><trkpt lat="46.173343055205684" lon="10.137077518847743"><ele>868.0</ele><time>2026-04-27T13:17:08Z</time></trkpt><trkpt lat="46.1734253799647" lon="10.137158258797735"><ele>866.8333333333333</ele><time>2026-04-27T13:17:09Z</time></trkpt><trkpt lat="46.17350315825135" lon="10.137222801009216"><ele>865.6666666666666</ele><time>2026-04-27T13:17:10Z</time></trkpt><trkpt lat="46.17356603073455" lon="10.137275904811286"><ele>864.5</ele><time>2026-04-27T13:17:11Z</time></trkpt><trkpt lat="46.17360606668188" lon="10.137356710174291"><ele>863.3333333333333</ele><time>2026-04-27T13:17:12Z</time></trkpt><trkpt lat="46.17365291816043" lon="10.137423407778368"><ele>862.1666666666666</ele><time>2026-04-27T13:17:13Z</time></trkpt><trkpt lat="46.1736839128869" lon="10.137558765378845"><ele>861.0</ele><time>2026-04-27T13:17:14Z</time></trkpt><trkpt lat="46.173714670338626" lon="10.13774134088436"><ele>861.0</ele><time>2026-04-27T13:17:15Z</time></trkpt><trkpt lat="46.17376502459369" lon="10.137931984835518"><ele>861.0</ele><time>2026-04-27T13:17:16Z</time></trkpt><trkpt lat="46.173819812313724" lon="10.138136339653533"><ele>861.0</ele><time>2026-04-27T13:17:17Z</time></trkpt><trkpt lat="46.17387312895411" lon="10.138339273395138"><ele>861.0</ele><time>2026-04-27T13:17:18Z</time></trkpt><trkpt lat="46.173920144925134" lon="10.13852805783311"><ele>862.5999999999999</ele><time>2026-04-27T13:17:19Z</time></trkpt><trkpt lat="46.173959473572275" lon="10.138687373967675"><ele>864.1999999999999</ele><time>2026-04-27T13:17:20Z</time></trkpt><trkpt lat="46.17398753689317" lon="10.138813469334965"><ele>865.8000000000001</ele><time>2026-04-27T13:17:21Z</time></trkpt><trkpt lat="46.17399508059013" lon="10.13890826678601"><ele>867.4000000000001</ele><time>2026-04-27T13:17:22Z</time></trkpt><trkpt lat="46.174079541973434" lon="10.13901407770403"><ele>869.0</ele><time>2026-04-27T13:17:24Z</time></trkpt><trkpt lat="46.17419071947012" lon="10.13902203632607"><ele>865.1666666666667</ele><time>2026-04-27T13:17:26Z</time></trkpt><trkpt lat="46.17423890515509" lon="10.138951327294183"><ele>861.3333333333334</ele><time>2026-04-27T13:17:27Z</time></trkpt><trkpt lat="46.17425755481214" lon="10.13884796695587"><ele>857.5</ele><time>2026-04-27T13:17:28Z</time></trkpt><trkpt lat="46.17426405386041" lon="10.138736741818466"><ele>853.6666666666667</ele><time>2026-04-27T13:17:29Z</time></trkpt><trkpt lat="46.17427234894301" lon="10.138610395983713"><ele>849.8333333333334</ele><time>2026-04-27T13:17:30Z</time></trkpt><trkpt lat="46.17426340094838" lon="10.138448203306401"><ele>846.0</ele><time>2026-04-27T13:17:31Z</time></trkpt><trkpt lat="46.17426739659337" lon="10.138266645420702"><ele>842.6666666666667</ele><time>2026-04-27T13:17:32Z</time></trkpt><trkpt lat="46.17428902108431" lon="10.13806427926553"><ele>839.3333333333334</ele><time>2026-04-27T13:17:33Z</time></trkpt><trkpt lat="46.17429887656344" lon="10.13784054395881"><ele>836.0</ele><time>2026-04-27T13:17:34Z</time></trkpt><trkpt lat="46.174297470902694" lon="10.13759547730245"><ele>834.0</ele><time>2026-04-27T13:17:35Z</time></trkpt><trkpt lat="46.174295102311056" lon="10.13737094971441"><ele>832.0</ele><time>2026-04-27T13:17:36Z</time></trkpt><trkpt lat="46.174288353368105" lon="10.137158166364863"><ele>830.0</ele><time>2026-04-27T13:17:37Z</time></trkpt><trkpt lat="46.17428413140608" lon="10.136947141711873"><ele>828.0</ele><time>2026-04-27T13:17:38Z</time></trkpt><trkpt lat="46.17428263552766" lon="10.136766373445466"><ele>828.0</ele><time>2026-04-27T13:17:39Z</time></trkpt><trkpt lat="46.17427978182532" lon="10.136635247629723"><ele>828.0</ele><time>2026-04-27T13:17:40Z</time></trkpt><trkpt lat="46.17426411673464" lon="10.13651910650773"><ele>828.0</ele><time>2026-04-27T13:17:41Z</time></trkpt><trkpt lat="46.17423003883313" lon="10.136411132221435"><ele>828.0</ele><time>2026-04-27T13:17:42Z</time></trkpt><trkpt lat="46.17416988745509" lon="10.13631297034862"><ele>828.0</ele><time>2026-04-27T13:17:43Z</time></trkpt><trkpt lat="46.174094396679685" lon="10.13620292070324"><ele>826.5</ele><time>2026-04-27T13:17:44Z</time></trkpt><trkpt lat="46.17399653785138" lon="10.136060638341789"><ele>825.0</ele><time>2026-04-27T13:17:45Z</time></trkpt><trkpt lat="46.17390175124635" lon="10.135917956601672"><ele>823.5</ele><time>2026-04-27T13:17:46Z</time></trkpt><trkpt lat="46.17378912721839" lon="10.135764401760477"><ele>822.0</ele><time>2026-04-27T13:17:47Z</time></trkpt><trkpt lat="46.17369758322413" lon="10.135646582080147"><ele>822.0</ele><time>2026-04-27T13:17:48Z</time></trkpt><trkpt lat="46.17364876574988" lon="10.135557465818357"><ele>822.0</ele><time>2026-04-27T13:17:49Z</time></trkpt><trkpt lat="46.17360210077143" lon="10.135461563165345"><ele>822.0</ele><time>2026-04-27T13:17:50Z</time></trkpt><trkpt lat="46.17357500980776" lon="10.13533676429587"><ele>822.0</ele><time>2026-04-27T13:17:51Z</time></trkpt><trkpt lat="46.17356173364319" lon="10.135193198379483"><ele>822.0</ele><time>2026-04-27T13:17:52Z</time></trkpt><trkpt lat="46.173550219414615" lon="10.135006755172192"><ele>818.25</ele><time>2026-04-27T13:17:53Z</time></trkpt><trkpt lat="46.173524795800006" lon="10.134819136247904"><ele>814.5</ele><time>2026-04-27T13:17:54Z</time></trkpt><trkpt lat="46.1734978339941" lon="10.134638952128427"><ele>810.75</ele><time>2026-04-27T13:17:55Z</time></trkpt><trkpt lat="46.17349067226571" lon="10.134461119913581"><ele>807.0</ele><time>2026-04-27T13:17:56Z</time></trkpt><trkpt lat="46.173461259407034" lon="10.134305444871334"><ele>807.0</ele><time>2026-04-27T13:17:57Z</time></trkpt><trkpt lat="46.173434015513465" lon="10.134186559357513"><ele>807.0</ele><time>2026-04-27T13:17:58Z</time></trkpt><trkpt lat="46.17340185768096" lon="10.134081804175771"><ele>807.0</ele><time>2026-04-27T13:17:59Z</time></trkpt><trkpt lat="46.17334334345883" lon="10.133990390708032"><ele>807.0</ele><time>2026-04-27T13:18:00Z</time></trkpt><trkpt lat="46.17326138298431" lon="10.133912748730994"><ele>807.0</ele><time>2026-04-27T13:18:01Z</time></trkpt><trkpt lat="46.17315785944949" lon="10.133849552289371"><ele>804.5</ele><time>2026-04-27T13:18:02Z</time></trkpt><trkpt lat="46.173037144395515" lon="10.13381362080566"><ele>802.0</ele><time>2026-04-27T13:18:03Z</time></trkpt><trkpt lat="46.17290723007235" lon="10.13377293218535"><ele>799.5</ele><time>2026-04-27T13:18:04Z</time></trkpt><trkpt lat="46.17277463570305" lon="10.133738118656769"><ele>797.0</ele><time>2026-04-27T13:18:05Z</time></trkpt><trkpt lat="46.17265809606" lon="10.133657957007939"><ele>797.0</ele><time>2026-04-27T13:18:06Z</time></trkpt><trkpt lat="46.17256348929516" lon="10.133620467504104"><ele>797.0</ele><time>2026-04-27T13:18:07Z</time></trkpt><trkpt lat="46.17248268915119" lon="10.133592045167905"><ele>797.0</ele><time>2026-04-27T13:18:08Z</time></trkpt><trkpt lat="46.17239230331815" lon="10.133519824612387"><ele>797.0</ele><time>2026-04-27T13:18:09Z</time></trkpt><trkpt lat="46.172319742168774" lon="10.133376333376207"><ele>797.0</ele><time>2026-04-27T13:18:10Z</time></trkpt><trkpt lat="46.17221600718013" lon="10.133259691034082"><ele>794.0</ele><time>2026-04-27T13:18:11Z</time></trkpt><trkpt lat="46.17212532774498" lon="10.133116254912377"><ele>791.0</ele><time>2026-04-27T13:18:12Z</time></trkpt><trkpt lat="46.172037522596035" lon="10.132967373709485"><ele>788.0</ele><time>2026-04-27T13:18:13Z</time></trkpt><trkpt lat="46.171949788192094" lon="10.13283257125959"><ele>785.0</ele><time>2026-04-27T13:18:14Z</time></trkpt><trkpt lat="46.171870227466556" lon="10.132727916206708"><ele>785.0000000000001</ele><time>2026-04-27T13:18:15Z</time></trkpt><trkpt lat="46.17178981804477" lon="10.132659427049093"><ele>785.0</ele><time>2026-04-27T13:18:16Z</time></trkpt><trkpt lat="46.1716808048498" lon="10.13259606742196"><ele>785.0</ele><time>2026-04-27T13:18:18Z</time></trkpt><trkpt lat="46.17162269447058" lon="10.132635250453172"><ele>785.0</ele><time>2026-04-27T13:18:19Z</time></trkpt><trkpt lat="46.1715620712749" lon="10.13269828044032"><ele>785.0000000000001</ele><time>2026-04-27T13:18:20Z</time></trkpt><trkpt lat="46.171511082716044" lon="10.132818781416008"><ele>785.0</ele><time>2026-04-27T13:18:21Z</time></trkpt><trkpt lat="46.171448076840186" lon="10.132903479467075"><ele>784.6</ele><time>2026-04-27T13:18:22Z</time></trkpt><trkpt lat="46.17133807625673" lon="10.132932290676646"><ele>784.2</ele><time>2026-04-27T13:18:24Z</time></trkpt><trkpt lat="46.17125913037533" lon="10.132880344930802"><ele>783.8</ele><time>2026-04-27T13:18:25Z</time></trkpt><trkpt lat="46.17117984242278" lon="10.132856988530428"><ele>783.4</ele><time>2026-04-27T13:18:26Z</time></trkpt><trkpt lat="46.171078373242786" lon="10.132791140104299"><ele>783.0</ele><time>2026-04-27T13:18:28Z</time></trkpt><trkpt lat="46.17097549629349" lon="10.132798665153407"><ele>783.0</ele><time>2026-04-27T13:18:29Z</time></trkpt><trkpt lat="46.1708516158819" lon="10.13282448792973"><ele>783.0</ele><time>2026-04-27T13:18:30Z</time></trkpt><trkpt lat="46.17074001976146" lon="10.132861466693319"><ele>783.0</ele><time>2026-04-27T13:18:31Z</time></trkpt><trkpt lat="46.17066790014377" lon="10.13291746171925"><ele>783.0</ele><time>2026-04-27T13:18:32Z</time></trkpt><trkpt lat="46.17060217820073" lon="10.132926930793497"><ele>783.0</ele><time>2026-04-27T13:18:34Z</time></trkpt><trkpt lat="46.17056865709727" lon="10.132849870125392"><ele>783.0</ele><time>2026-04-27T13:18:36Z</time></trkpt><trkpt lat="46.17060926464458" lon="10.13274607259544"><ele>783.0</ele><time>2026-04-27T13:18:38Z</time></trkpt><trkpt lat="46.170652970934874" lon="10.132674202059206"><ele>783.0</ele><time>2026-04-27T13:18:40Z</time></trkpt><trkpt lat="46.17077474795887" lon="10.132714373033583"><ele>783.0</ele><time>2026-04-27T13:18:42Z</time></trkpt><trkpt lat="46.17086085334196" lon="10.132703827784493"><ele>783.0</ele><time>2026-04-27T13:18:43Z</time></trkpt><trkpt lat="46.17098606975062" lon="10.13267395468524"><ele>783.0</ele><time>2026-04-27T13:18:44Z</time></trkpt><trkpt lat="46.17112388679996" lon="10.132579927806912"><ele>783.0</ele><time>2026-04-27T13:18:45Z</time></trkpt><trkpt lat="46.17126099643115" lon="10.13247034387633"><ele>783.0</ele><time>2026-04-27T13:18:46Z</time></trkpt><trkpt lat="46.17140949264735" lon="10.132350007660898"><ele>776.75</ele><time>2026-04-27T13:18:47Z</time></trkpt><trkpt lat="46.17153973811867" lon="10.132249193634157"><ele>770.5</ele><time>2026-04-27T13:18:48Z</time></trkpt><trkpt lat="46.17164056305033" lon="10.132182935850208"><ele>764.25</ele><time>2026-04-27T13:18:49Z</time></trkpt><trkpt lat="46.17173291128494" lon="10.132164282531786"><ele>758.0</ele><time>2026-04-27T13:18:50Z</time></trkpt><trkpt lat="46.17183287869799" lon="10.13219853816307"><ele>758.0</ele><time>2026-04-27T13:18:51Z</time></trkpt><trkpt lat="46.171960543516725" lon="10.13228559775729"><ele>758.0</ele><time>2026-04-27T13:18:52Z</time></trkpt><trkpt lat="46.17206513950979" lon="10.132387856194434"><ele>758.0</ele><time>2026-04-27T13:18:53Z</time></trkpt><trkpt lat="46.17224034403182" lon="10.13248702574838"><ele>763.6666666666666</ele><time>2026-04-27T13:18:54Z</time></trkpt><trkpt lat="46.172415267678524" lon="10.13253945216187"><ele>769.3333333333333</ele><time>2026-04-27T13:18:55Z</time></trkpt><trkpt lat="46.17260871330989" lon="10.132575286142465"><ele>775.0</ele><time>2026-04-27T13:18:56Z</time></trkpt><trkpt lat="46.172808554247425" lon="10.132605485163957"><ele>775.0</ele><time>2026-04-27T13:18:57Z</time></trkpt><trkpt lat="46.17302881749624" lon="10.132636201062427"><ele>775.0</ele><time>2026-04-27T13:18:58Z</time></trkpt><trkpt lat="46.17323627693418" lon="10.132662495622066"><ele>775.0</ele><time>2026-04-27T13:18:59Z</time></trkpt><trkpt lat="46.173430134259036" lon="10.132680387684056"><ele>770.3333333333333</ele><time>2026-04-27T13:19:00Z</time></trkpt><trkpt lat="46.17360833241665" lon="10.132689946400486"><ele>765.6666666666666</ele><time>2026-04-27T13:19:01Z</time></trkpt><trkpt lat="46.17378033166134" lon="10.13265204986482"><ele>761.0</ele><time>2026-04-27T13:19:02Z</time></trkpt><trkpt lat="46.17393554449585" lon="10.132645575160867"><ele>758.25</ele><time>2026-04-27T13:19:03Z</time></trkpt><trkpt lat="46.17406433275236" lon="10.132599376374268"><ele>755.5</ele><time>2026-04-27T13:19:04Z</time></trkpt><trkpt lat="46.17418038988367" lon="10.132592807656838"><ele>752.75</ele><time>2026-04-27T13:19:05Z</time></trkpt><trkpt lat="46.1742968474055" lon="10.132624828148707"><ele>750.0</ele><time>2026-04-27T13:19:06Z</time></trkpt><trkpt lat="46.17441415814832" lon="10.132711038753207"><ele>750.0</ele><time>2026-04-27T13:19:07Z</time></trkpt><trkpt lat="46.17453502280859" lon="10.13285240622018"><ele>750.0</ele><time>2026-04-27T13:19:08Z</time></trkpt><trkpt lat="46.174667467339724" lon="10.132995018063557"><ele>750.0</ele><time>2026-04-27T13:19:09Z</time></trkpt><trkpt lat="46.17480833721102" lon="10.133143883715332"><ele>750.0</ele><time>2026-04-27T13:19:10Z</time></trkpt><trkpt lat="46.17493164225502" lon="10.133278458425018"><ele>750.0</ele><time>2026-04-27T13:19:11Z</time></trkpt><trkpt lat="46.175049229202415" lon="10.133454894509205"><ele>750.0</ele><time>2026-04-27T13:19:12Z</time></trkpt><trkpt lat="46.175168757133676" lon="10.133670356136438"><ele>750.0</ele><time>2026-04-27T13:19:13Z</time></trkpt><trkpt lat="46.17529138603035" lon="10.133892643029007"><ele>750.0</ele><time>2026-04-27T13:19:14Z</time></trkpt><trkpt lat="46.175405120889415" lon="10.134060080398926"><ele>750.0</ele><time>2026-04-27T13:19:15Z</time></trkpt><trkpt lat="46.17548199735685" lon="10.134178491247196"><ele>754.0</ele><time>2026-04-27T13:19:16Z</time></trkpt><trkpt lat="46.17554715109627" lon="10.134304583815235"><ele>758.0</ele><time>2026-04-27T13:19:17Z</time></trkpt><trkpt lat="46.17557825721622" lon="10.13446801445556"><ele>762.0</ele><time>2026-04-27T13:19:18Z</time></trkpt><trkpt lat="46.17558827613591" lon="10.13467034109959"><ele>766.0</ele><time>2026-04-27T13:19:19Z</time></trkpt><trkpt lat="46.17559826451385" lon="10.134901628939504"><ele>770.0</ele><time>2026-04-27T13:19:20Z</time></trkpt><trkpt lat="46.17562498199509" lon="10.135151642178664"><ele>774.0</ele><time>2026-04-27T13:19:21Z</time></trkpt><trkpt lat="46.175652673271415" lon="10.13541446712426"><ele>778.0</ele><time>2026-04-27T13:19:22Z</time></trkpt><trkpt lat="46.17564773263253" lon="10.135653360579344"><ele>780.0</ele><time>2026-04-27T13:19:23Z</time></trkpt><trkpt lat="46.17564779910976" lon="10.135855070692843"><ele>782.0</ele><time>2026-04-27T13:19:24Z</time></trkpt><trkpt lat="46.17562791940803" lon="10.136047842756208"><ele>784.0</ele><time>2026-04-27T13:19:25Z</time></trkpt><trkpt lat="46.17565133535345" lon="10.136218785082377"><ele>786.0</ele><time>2026-04-27T13:19:26Z</time></trkpt><trkpt lat="46.17571005916623" lon="10.136418198394663"><ele>774.5</ele><time>2026-04-27T13:19:27Z</time></trkpt><trkpt lat="46.17577979515473" lon="10.136595255367752"><ele>763.0</ele><time>2026-04-27T13:19:28Z</time></trkpt><trkpt lat="46.175830668195914" lon="10.13674731573046"><ele>751.5</ele><time>2026-04-27T13:19:29Z</time></trkpt><trkpt lat="46.17583924385923" lon="10.136898228422025"><ele>740.0</ele><time>2026-04-27T13:19:30Z</time></trkpt><trkpt lat="46.1758017431435" lon="10.137047266078579"><ele>740.0</ele><time>2026-04-27T13:19:31Z</time></trkpt><trkpt lat="46.175768761097956" lon="10.137185900411913"><ele>740.0</ele><time>2026-04-27T13:19:32Z</time></trkpt><trkpt lat="46.17577357114411" lon="10.137302519965642"><ele>740.0</ele><time>2026-04-27T13:19:33Z</time></trkpt><trkpt lat="46.175805608173256" lon="10.137403347633743"><ele>740.0</ele><time>2026-04-27T13:19:34Z</time></trkpt><trkpt lat="46.17589436026587" lon="10.13746553454732"><ele>740.0</ele><time>2026-04-27T13:19:35Z</time></trkpt><trkpt lat="46.17599610688854" lon="10.137507144572494"><ele>742.75</ele><time>2026-04-27T13:19:36Z</time></trkpt><trkpt lat="46.17610971725994" lon="10.137539093353206"><ele>745.5</ele><time>2026-04-27T13:19:37Z</time></trkpt><trkpt lat="46.17622909880462" lon="10.13760675469686"><ele>748.25</ele><time>2026-04-27T13:19:38Z</time></trkpt><trkpt lat="46.17636998764843" lon="10.137705194202427"><ele>751.0</ele><time>2026-04-27T13:19:39Z</time></trkpt><trkpt lat="46.17649363625537" lon="10.137812196388548"><ele>740.3333333333334</ele><time>2026-04-27T13:19:40Z</time></trkpt><trkpt lat="46.176653182734135" lon="10.137902095372915"><ele>729.6666666666666</ele><time>2026-04-27T13:19:41Z</time></trkpt><trkpt lat="46.176860536756784" lon="10.137917834480493"><ele>719.0</ele><time>2026-04-27T13:19:42Z</time></trkpt><trkpt lat="46.177042984558575" lon="10.137918316419682"><ele>719.0</ele><time>2026-04-27T13:19:43Z</time></trkpt><trkpt lat="46.17720658668604" lon="10.137925174299191"><ele>719.0</ele><time>2026-04-27T13:19:44Z</time></trkpt><trkpt lat="46.177330516243416" lon="10.137955920893024"><ele>719.0</ele><time>2026-04-27T13:19:45Z</time></trkpt><trkpt lat="46.17744268511128" lon="10.138037180068258"><ele>719.0</ele><time>2026-04-27T13:19:46Z</time></trkpt><trkpt lat="46.17755472234323" lon="10.138159667690383"><ele>722.5</ele><time>2026-04-27T13:19:47Z</time></trkpt><trkpt lat="46.17768047907953" lon="10.138268261353547"><ele>726.0</ele><time>2026-04-27T13:19:48Z</time></trkpt><trkpt lat="46.17779905092501" lon="10.13833238664995"><ele>729.5</ele><time>2026-04-27T13:19:49Z</time></trkpt><trkpt lat="46.17787823519403" lon="10.138373889902047"><ele>733.0</ele><time>2026-04-27T13:19:50Z</time></trkpt><trkpt lat="46.17800589227103" lon="10.138317719103702"><ele>727.0</ele><time>2026-04-27T13:19:52Z</time></trkpt><trkpt lat="46.178031214650844" lon="10.138201165890084"><ele>721.0</ele><time>2026-04-27T13:19:53Z</time></trkpt><trkpt lat="46.17805380628725" lon="10.138094079619108"><ele>715.0</ele><time>2026-04-27T13:19:54Z</time></trkpt><trkpt lat="46.17800794005241" lon="10.137968066821598"><ele>709.0</ele><time>2026-04-27T13:19:54.999Z</time></trkpt><trkpt lat="46.177914160193474" lon="10.137882697260808"><ele>703.0</ele><time>2026-04-27T13:19:55.999Z</time></trkpt><trkpt lat="46.177796939277734" lon="10.137899433439326"><ele>703.0</ele><time>2026-04-27T13:19:56.999Z</time></trkpt><trkpt lat="46.17768830430925" lon="10.137890195725538"><ele>703.0</ele><time>2026-04-27T13:19:57.999Z</time></trkpt><trkpt lat="46.17756228180627" lon="10.13785438566216"><ele>703.0</ele><time>2026-04-27T13:19:58.999Z</time></trkpt><trkpt lat="46.17743586816043" lon="10.13772955536927"><ele>703.0</ele><time>2026-04-27T13:19:59.999Z</time></trkpt><trkpt lat="46.17728125780316" lon="10.13766019672522"><ele>703.0</ele><time>2026-04-27T13:20:00.999Z</time></trkpt><trkpt lat="46.177135036457464" lon="10.137587330684662"><ele>703.0</ele><time>2026-04-27T13:20:01.999Z</time></trkpt><trkpt lat="46.17702410366453" lon="10.137549766306034"><ele>703.0</ele><time>2026-04-27T13:20:02.999Z</time></trkpt><trkpt lat="46.17693615565317" lon="10.13747940968601"><ele>703.0</ele><time>2026-04-27T13:20:03.999Z</time></trkpt><trkpt lat="46.17685530519321" lon="10.13730391636668"><ele>703.0</ele><time>2026-04-27T13:20:04.999Z</time></trkpt><trkpt lat="46.17675198501809" lon="10.137139539829358"><ele>703.0</ele><time>2026-04-27T13:20:05.999Z</time></trkpt><trkpt lat="46.176642109427526" lon="10.1370237730573"><ele>703.0</ele><time>2026-04-27T13:20:06.999Z</time></trkpt><trkpt lat="46.17653757573189" lon="10.136934950834707"><ele>703.0</ele><time>2026-04-27T13:20:07.999Z</time></trkpt><trkpt lat="46.17645109331363" lon="10.136863553937824"><ele>710.4</ele><time>2026-04-27T13:20:08.999Z</time></trkpt><trkpt lat="46.17641543747869" lon="10.136748623846914"><ele>717.8</ele><time>2026-04-27T13:20:09.999Z</time></trkpt><trkpt lat="46.17639089103454" lon="10.136661852453182"><ele>725.2</ele><time>2026-04-27T13:20:10.999Z</time></trkpt><trkpt lat="46.17641320022991" lon="10.136530284414054"><ele>732.6</ele><time>2026-04-27T13:20:11.999Z</time></trkpt><trkpt lat="46.17644593078319" lon="10.136376043660448"><ele>740.0</ele><time>2026-04-27T13:20:12.999Z</time></trkpt><trkpt lat="46.17650728949037" lon="10.136249015856242"><ele>730.5</ele><time>2026-04-27T13:20:13.999Z</time></trkpt><trkpt lat="46.176605614565155" lon="10.136125562961212"><ele>721.0</ele><time>2026-04-27T13:20:14.999Z</time></trkpt><trkpt lat="46.17670516270356" lon="10.136010500888776"><ele>711.5</ele><time>2026-04-27T13:20:16Z</time></trkpt><trkpt lat="46.176773929210434" lon="10.135864284009259"><ele>702.0</ele><time>2026-04-27T13:20:17Z</time></trkpt><trkpt lat="46.17680258937609" lon="10.135670993143773"><ele>702.0</ele><time>2026-04-27T13:20:18Z</time></trkpt><trkpt lat="46.1768255814046" lon="10.135452482247842"><ele>702.0</ele><time>2026-04-27T13:20:19Z</time></trkpt><trkpt lat="46.17685961311137" lon="10.135210326921914"><ele>702.0</ele><time>2026-04-27T13:20:20Z</time></trkpt><trkpt lat="46.176896658752966" lon="10.134968017726015"><ele>698.75</ele><time>2026-04-27T13:20:21Z</time></trkpt><trkpt lat="46.17692391785786" lon="10.134751600677726"><ele>695.5</ele><time>2026-04-27T13:20:22Z</time></trkpt><trkpt lat="46.17693764013376" lon="10.134593002146275"><ele>692.25</ele><time>2026-04-27T13:20:23Z</time></trkpt><trkpt lat="46.176919982943176" lon="10.134462936285729"><ele>689.0</ele><time>2026-04-27T13:20:24Z</time></trkpt><trkpt lat="46.17685953676109" lon="10.134328165587617"><ele>689.0</ele><time>2026-04-27T13:20:25Z</time></trkpt><trkpt lat="46.176777287671904" lon="10.134213441218943"><ele>689.0</ele><time>2026-04-27T13:20:26Z</time></trkpt><trkpt lat="46.176681578232476" lon="10.134124425338593"><ele>689.0</ele><time>2026-04-27T13:20:27Z</time></trkpt><trkpt lat="46.17656244306996" lon="10.13405678397555"><ele>689.0</ele><time>2026-04-27T13:20:28Z</time></trkpt><trkpt lat="46.1764680714121" lon="10.133995956295724"><ele>686.0</ele><time>2026-04-27T13:20:29Z</time></trkpt><trkpt lat="46.17641098135374" lon="10.133924510689083"><ele>683.0</ele><time>2026-04-27T13:20:30Z</time></trkpt><trkpt lat="46.17639231067889" lon="10.133808328115947"><ele>680.0</ele><time>2026-04-27T13:20:31Z</time></trkpt><trkpt lat="46.1764072530042" lon="10.133677043379306"><ele>677.0</ele><time>2026-04-27T13:20:32Z</time></trkpt><trkpt lat="46.17647624517035" lon="10.13355192192899"><ele>674.0</ele><time>2026-04-27T13:20:33Z</time></trkpt><trkpt lat="46.176526688839814" lon="10.133379874279647"><ele>674.0</ele><time>2026-04-27T13:20:34Z</time></trkpt><trkpt lat="46.17654169008947" lon="10.13325138517555"><ele>674.0</ele><time>2026-04-27T13:20:35Z</time></trkpt><trkpt lat="46.17651967179501" lon="10.133082635599264"><ele>674.0</ele><time>2026-04-27T13:20:36Z</time></trkpt><trkpt lat="46.17649118278573" lon="10.132885256160375"><ele>674.0</ele><time>2026-04-27T13:20:37Z</time></trkpt><trkpt lat="46.176458642028656" lon="10.132698448085913"><ele>676.25</ele><time>2026-04-27T13:20:38Z</time></trkpt><trkpt lat="46.17640820803138" lon="10.132548576343885"><ele>678.5</ele><time>2026-04-27T13:20:39Z</time></trkpt><trkpt lat="46.176331887308265" lon="10.132413600164085"><ele>680.75</ele><time>2026-04-27T13:20:40Z</time></trkpt><trkpt lat="46.17623746804984" lon="10.132289155839633"><ele>683.0</ele><time>2026-04-27T13:20:41Z</time></trkpt><trkpt lat="46.176158505111154" lon="10.132166877514308"><ele>683.0</ele><time>2026-04-27T13:20:42Z</time></trkpt><trkpt lat="46.1761075493511" lon="10.13201995752375"><ele>683.0</ele><time>2026-04-27T13:20:43Z</time></trkpt><trkpt lat="46.17610240144253" lon="10.131836912634864"><ele>683.0</ele><time>2026-04-27T13:20:44Z</time></trkpt><trkpt lat="46.17609702717599" lon="10.131632605689461"><ele>683.0</ele><time>2026-04-27T13:20:45Z</time></trkpt><trkpt lat="46.17606014181255" lon="10.131418054517484"><ele>677.25</ele><time>2026-04-27T13:20:46Z</time></trkpt><trkpt lat="46.176016743323906" lon="10.131185106275835"><ele>671.5</ele><time>2026-04-27T13:20:47Z</time></trkpt><trkpt lat="46.17597515050528" lon="10.130969456016253"><ele>665.75</ele><time>2026-04-27T13:20:48Z</time></trkpt><trkpt lat="46.17594597656113" lon="10.130804313123532"><ele>660.0</ele><time>2026-04-27T13:20:49Z</time></trkpt><trkpt lat="46.175884420782495" lon="10.130675215696757"><ele>659.6666666666666</ele><time>2026-04-27T13:20:50Z</time></trkpt><trkpt lat="46.175784748107034" lon="10.130557180910326"><ele>659.3333333333333</ele><time>2026-04-27T13:20:51Z</time></trkpt><trkpt lat="46.175662840258155" lon="10.13043845057494"><ele>659.0</ele><time>2026-04-27T13:20:52Z</time></trkpt><trkpt lat="46.175515713629565" lon="10.130303412124263"><ele>659.0</ele><time>2026-04-27T13:20:53Z</time></trkpt><trkpt lat="46.175378729535964" lon="10.130169181786947"><ele>659.0</ele><time>2026-04-27T13:20:54Z</time></trkpt><trkpt lat="46.17526661659396" lon="10.130056353048023"><ele>659.0</ele><time>2026-04-27T13:20:55Z</time></trkpt><trkpt lat="46.1751781580495" lon="10.129967113869492"><ele>659.0</ele><time>2026-04-27T13:20:56Z</time></trkpt><trkpt lat="46.175121999171445" lon="10.129898940606052"><ele>659.0</ele><time>2026-04-27T13:20:57Z</time></trkpt><trkpt lat="46.17504775058337" lon="10.129814920740039"><ele>659.0</ele><time>2026-04-27T13:20:59Z</time></trkpt><trkpt lat="46.17510299720596" lon="10.129726063152697"><ele>659.0</ele><time>2026-04-27T13:21:02Z</time></trkpt><trkpt lat="46.17518317772268" lon="10.129784163531449"><ele>659.0</ele><time>2026-04-27T13:21:04Z</time></trkpt><trkpt lat="46.17526310347257" lon="10.129859882036806"><ele>659.0</ele><time>2026-04-27T13:21:05Z</time></trkpt><trkpt lat="46.17536912700613" lon="10.129926921467364"><ele>659.0</ele><time>2026-04-27T13:21:06Z</time></trkpt><trkpt lat="46.17549427971057" lon="10.130039197885552"><ele>659.0</ele><time>2026-04-27T13:21:07Z</time></trkpt><trkpt lat="46.17561396688515" lon="10.130189172321977"><ele>659.0</ele><time>2026-04-27T13:21:08Z</time></trkpt><trkpt lat="46.17574467422956" lon="10.130349250616657"><ele>653.0</ele><time>2026-04-27T13:21:09Z</time></trkpt><trkpt lat="46.17585349074395" lon="10.130458853863942"><ele>647.0</ele><time>2026-04-27T13:21:10Z</time></trkpt><trkpt lat="46.17594007599375" lon="10.130571114842715"><ele>641.0</ele><time>2026-04-27T13:21:11Z</time></trkpt><trkpt lat="46.176045018545175" lon="10.130655654777945"><ele>635.0</ele><time>2026-04-27T13:21:12Z</time></trkpt><trkpt lat="46.17616749685649" lon="10.13067641737859"><ele>635.0</ele><time>2026-04-27T13:21:13Z</time></trkpt><trkpt lat="46.17629345149952" lon="10.130677878824129"><ele>635.0</ele><time>2026-04-27T13:21:14Z</time></trkpt><trkpt lat="46.17640434121913" lon="10.130686868921394"><ele>635.0</ele><time>2026-04-27T13:21:15Z</time></trkpt><trkpt lat="46.17649358238071" lon="10.130723357267334"><ele>635.0</ele><time>2026-04-27T13:21:16Z</time></trkpt><trkpt lat="46.1765802984978" lon="10.130795587655959"><ele>635.0</ele><time>2026-04-27T13:21:17Z</time></trkpt><trkpt lat="46.17664925632618" lon="10.130922074697414"><ele>634.5</ele><time>2026-04-27T13:21:18Z</time></trkpt><trkpt lat="46.17673918143639" lon="10.13106572483935"><ele>634.0</ele><time>2026-04-27T13:21:19Z</time></trkpt><trkpt lat="46.176850568247616" lon="10.13122203929251"><ele>633.5</ele><time>2026-04-27T13:21:20Z</time></trkpt><trkpt lat="46.176945874148885" lon="10.131379539628508"><ele>633.0</ele><time>2026-04-27T13:21:21Z</time></trkpt><trkpt lat="46.17701433691887" lon="10.131515227942922"><ele>637.25</ele><time>2026-04-27T13:21:22Z</time></trkpt><trkpt lat="46.177057662140655" lon="10.131638107897466"><ele>641.5</ele><time>2026-04-27T13:21:23Z</time></trkpt><trkpt lat="46.17706360526166" lon="10.131788431176838"><ele>645.75</ele><time>2026-04-27T13:21:24Z</time></trkpt><trkpt lat="46.177093778805904" lon="10.131970592416712"><ele>650.0</ele><time>2026-04-27T13:21:25Z</time></trkpt><trkpt lat="46.17711173611209" lon="10.13218525681396"><ele>652.75</ele><time>2026-04-27T13:21:26Z</time></trkpt><trkpt lat="46.17713946930673" lon="10.132406195217568"><ele>655.5</ele><time>2026-04-27T13:21:27Z</time></trkpt><trkpt lat="46.17716603210035" lon="10.132579521450392"><ele>658.25</ele><time>2026-04-27T13:21:28Z</time></trkpt><trkpt lat="46.17722449923266" lon="10.132732585060284"><ele>661.0</ele><time>2026-04-27T13:21:29Z</time></trkpt><trkpt lat="46.17730839831407" lon="10.132873731871047"><ele>652.6666666666667</ele><time>2026-04-27T13:21:30Z</time></trkpt><trkpt lat="46.17741105744671" lon="10.13301719752666"><ele>644.3333333333334</ele><time>2026-04-27T13:21:31Z</time></trkpt><trkpt lat="46.177517468283256" lon="10.133204504597419"><ele>636.0</ele><time>2026-04-27T13:21:32Z</time></trkpt><trkpt lat="46.177635712869446" lon="10.133366643021922"><ele>636.0</ele><time>2026-04-27T13:21:33Z</time></trkpt><trkpt lat="46.17777296940809" lon="10.133462220498087"><ele>636.0</ele><time>2026-04-27T13:21:34Z</time></trkpt><trkpt lat="46.177895788414794" lon="10.133551121715685"><ele>636.0</ele><time>2026-04-27T13:21:35Z</time></trkpt><trkpt lat="46.17798893088612" lon="10.133634475145154"><ele>636.0</ele><time>2026-04-27T13:21:36Z</time></trkpt><trkpt lat="46.17804823679789" lon="10.133698926324882"><ele>636.0</ele><time>2026-04-27T13:21:37Z</time></trkpt><trkpt lat="46.17807183546841" lon="10.133785689270532"><ele>636.0</ele><time>2026-04-27T13:21:38Z</time></trkpt><trkpt lat="46.17806471878313" lon="10.133886511660366"><ele>636.0</ele><time>2026-04-27T13:21:39Z</time></trkpt><trkpt lat="46.178051767542485" lon="10.13399692819424"><ele>636.0</ele><time>2026-04-27T13:21:40Z</time></trkpt><trkpt lat="46.17805891691327" lon="10.13409393577229"><ele>636.0</ele><time>2026-04-27T13:21:41Z</time></trkpt><trkpt lat="46.178086392408524" lon="10.1341849064641"><ele>636.0</ele><time>2026-04-27T13:21:42Z</time></trkpt><trkpt lat="46.17817008440073" lon="10.134231801431993"><ele>636.0</ele><time>2026-04-27T13:21:43Z</time></trkpt><trkpt lat="46.17827738482175" lon="10.134239354547708"><ele>631.0</ele><time>2026-04-27T13:21:44Z</time></trkpt><trkpt lat="46.178383420942986" lon="10.134284520176612"><ele>626.0</ele><time>2026-04-27T13:21:45Z</time></trkpt><trkpt lat="46.17847764617576" lon="10.134403196089815"><ele>621.0</ele><time>2026-04-27T13:21:46Z</time></trkpt><trkpt lat="46.17858123169906" lon="10.134544342416577"><ele>616.0</ele><time>2026-04-27T13:21:47Z</time></trkpt><trkpt lat="46.17869594080487" lon="10.134714021420042"><ele>616.0</ele><time>2026-04-27T13:21:48Z</time></trkpt><trkpt lat="46.178811780522025" lon="10.134850172351372"><ele>616.0</ele><time>2026-04-27T13:21:49Z</time></trkpt><trkpt lat="46.17889435616824" lon="10.134970345899784"><ele>616.0</ele><time>2026-04-27T13:21:50Z</time></trkpt><trkpt lat="46.17902982955275" lon="10.135045160936388"><ele>616.0</ele><time>2026-04-27T13:21:51Z</time></trkpt><trkpt lat="46.179191694421576" lon="10.135107877151105"><ele>613.3333333333334</ele><time>2026-04-27T13:21:52Z</time></trkpt><trkpt lat="46.179361696110284" lon="10.13517598049393"><ele>610.6666666666666</ele><time>2026-04-27T13:21:53Z</time></trkpt><trkpt lat="46.17954810292264" lon="10.135250248346985"><ele>608.0</ele><time>2026-04-27T13:21:54Z</time></trkpt><trkpt lat="46.17973625031395" lon="10.135331513401061"><ele>605.25</ele><time>2026-04-27T13:21:55Z</time></trkpt><trkpt lat="46.17989082651378" lon="10.135394042132384"><ele>602.5</ele><time>2026-04-27T13:21:56Z</time></trkpt><trkpt lat="46.18001663415957" lon="10.135443961436374"><ele>599.75</ele><time>2026-04-27T13:21:57Z</time></trkpt><trkpt lat="46.180110135242565" lon="10.135470499335455"><ele>597.0</ele><time>2026-04-27T13:21:58Z</time></trkpt><trkpt lat="46.18018309895815" lon="10.135478792180828"><ele>597.0</ele><time>2026-04-27T13:21:59Z</time></trkpt><trkpt lat="46.18024778287253" lon="10.135482231387478"><ele>597.0</ele><time>2026-04-27T13:22:00Z</time></trkpt><trkpt lat="46.18032670391047" lon="10.135437074552017"><ele>597.0</ele><time>2026-04-27T13:22:01.999Z</time></trkpt><trkpt lat="46.18034909397372" lon="10.135275104347512"><ele>597.0</ele><time>2026-04-27T13:22:03.999Z</time></trkpt><trkpt lat="46.18023970874029" lon="10.135143547626408"><ele>597.0</ele><time>2026-04-27T13:22:05.999Z</time></trkpt><trkpt lat="46.18013255884514" lon="10.135109105315589"><ele>597.0</ele><time>2026-04-27T13:22:06.999Z</time></trkpt><trkpt lat="46.180020633287036" lon="10.135045310859065"><ele>597.0</ele><time>2026-04-27T13:22:07.999Z</time></trkpt><trkpt lat="46.17989990479708" lon="10.13498398272226"><ele>597.0</ele><time>2026-04-27T13:22:08.999Z</time></trkpt><trkpt lat="46.179793040436756" lon="10.134891989462519"><ele>597.0</ele><time>2026-04-27T13:22:09.999Z</time></trkpt><trkpt lat="46.17971886475196" lon="10.134769979842462"><ele>596.3333333333334</ele><time>2026-04-27T13:22:10.999Z</time></trkpt><trkpt lat="46.17962094062815" lon="10.134609233584424"><ele>595.6666666666667</ele><time>2026-04-27T13:22:11.999Z</time></trkpt><trkpt lat="46.17951492698024" lon="10.134435534230278"><ele>595.0</ele><time>2026-04-27T13:22:12.999Z</time></trkpt><trkpt lat="46.17941237117412" lon="10.134278509888157"><ele>595.0</ele><time>2026-04-27T13:22:13.999Z</time></trkpt><trkpt lat="46.17931612063194" lon="10.134150846465326"><ele>595.0</ele><time>2026-04-27T13:22:14.999Z</time></trkpt><trkpt lat="46.179249037575005" lon="10.134020380073954"><ele>595.0</ele><time>2026-04-27T13:22:15.999Z</time></trkpt><trkpt lat="46.17917899434399" lon="10.133875180899496"><ele>595.0</ele><time>2026-04-27T13:22:16.999Z</time></trkpt><trkpt lat="46.1791219821549" lon="10.13369336236703"><ele>595.75</ele><time>2026-04-27T13:22:17.999Z</time></trkpt><trkpt lat="46.17907450009279" lon="10.133514553534445"><ele>596.5</ele><time>2026-04-27T13:22:18.999Z</time></trkpt><trkpt lat="46.179001881217694" lon="10.133372222388312"><ele>597.25</ele><time>2026-04-27T13:22:19.999Z</time></trkpt><trkpt lat="46.178903755943914" lon="10.133271631128828"><ele>598.0</ele><time>2026-04-27T13:22:20.999Z</time></trkpt><trkpt lat="46.1788234378555" lon="10.133181674567787"><ele>598.0</ele><time>2026-04-27T13:22:21.999Z</time></trkpt><trkpt lat="46.17878509843197" lon="10.133077415619757"><ele>598.0</ele><time>2026-04-27T13:22:23Z</time></trkpt><trkpt lat="46.17880269466728" lon="10.132930037654331"><ele>598.0</ele><time>2026-04-27T13:22:24Z</time></trkpt><trkpt lat="46.17879449884225" lon="10.132750882301297"><ele>598.0</ele><time>2026-04-27T13:22:25Z</time></trkpt><trkpt lat="46.17879675661959" lon="10.132547499097035"><ele>595.0</ele><time>2026-04-27T13:22:26Z</time></trkpt><trkpt lat="46.17879011286664" lon="10.132328651303268"><ele>592.0</ele><time>2026-04-27T13:22:27Z</time></trkpt><trkpt lat="46.1787686370137" lon="10.132095884241714"><ele>589.0</ele><time>2026-04-27T13:22:28Z</time></trkpt><trkpt lat="46.17874033522705" lon="10.131881810446144"><ele>589.0</ele><time>2026-04-27T13:22:29Z</time></trkpt><trkpt lat="46.178695064191025" lon="10.131675506550543"><ele>589.0</ele><time>2026-04-27T13:22:30Z</time></trkpt><trkpt lat="46.178645429835335" lon="10.131438901729814"><ele>589.0</ele><time>2026-04-27T13:22:31Z</time></trkpt><trkpt lat="46.1786109325815" lon="10.131184044374907"><ele>585.3333333333334</ele><time>2026-04-27T13:22:32Z</time></trkpt><trkpt lat="46.17858072216854" lon="10.130916624673228"><ele>581.6666666666666</ele><time>2026-04-27T13:22:33Z</time></trkpt><trkpt lat="46.17855389601796" lon="10.130670534610493"><ele>578.0</ele><time>2026-04-27T13:22:34Z</time></trkpt><trkpt lat="46.178506913456914" lon="10.130448756478788"><ele>575.0</ele><time>2026-04-27T13:22:35Z</time></trkpt><trkpt lat="46.17843915705322" lon="10.130257004095071"><ele>572.0</ele><time>2026-04-27T13:22:36Z</time></trkpt><trkpt lat="46.178382911768686" lon="10.130093991605067"><ele>569.0</ele><time>2026-04-27T13:22:37Z</time></trkpt><trkpt lat="46.178385164504654" lon="10.129897588294007"><ele>566.0</ele><time>2026-04-27T13:22:38Z</time></trkpt><trkpt lat="46.17837194617816" lon="10.129702021801034"><ele>564.0</ele><time>2026-04-27T13:22:39Z</time></trkpt><trkpt lat="46.178347648602866" lon="10.129513812602344"><ele>562.0</ele><time>2026-04-27T13:22:40Z</time></trkpt><trkpt lat="46.178299366224635" lon="10.129370313763271"><ele>560.0</ele><time>2026-04-27T13:22:41Z</time></trkpt><trkpt lat="46.17827505921066" lon="10.129246673411114"><ele>558.0</ele><time>2026-04-27T13:22:42Z</time></trkpt><trkpt lat="46.17824511439294" lon="10.129117284864021"><ele>556.0</ele><time>2026-04-27T13:22:44Z</time></trkpt><trkpt lat="46.17832637671774" lon="10.129104010912803"><ele>556.0</ele><time>2026-04-27T13:22:47Z</time></trkpt><trkpt lat="46.178395317726455" lon="10.129279548051628"><ele>556.0</ele><time>2026-04-27T13:22:49Z</time></trkpt><trkpt lat="46.17842759439901" lon="10.129430143788989"><ele>556.0</ele><time>2026-04-27T13:22:50Z</time></trkpt><trkpt lat="46.17846319022146" lon="10.129612919841007"><ele>556.0</ele><time>2026-04-27T13:22:51Z</time></trkpt><trkpt lat="46.178505753203204" lon="10.12982525404823"><ele>558.5</ele><time>2026-04-27T13:22:52Z</time></trkpt><trkpt lat="46.17854509035769" lon="10.130017211807102"><ele>561.0</ele><time>2026-04-27T13:22:53Z</time></trkpt><trkpt lat="46.17862588421823" lon="10.13016903155957"><ele>563.5</ele><time>2026-04-27T13:22:54Z</time></trkpt><trkpt lat="46.17872393085405" lon="10.13029437657548"><ele>566.0</ele><time>2026-04-27T13:22:55Z</time></trkpt><trkpt lat="46.17880928109324" lon="10.130428714295782"><ele>566.0</ele><time>2026-04-27T13:22:56Z</time></trkpt><trkpt lat="46.178850388082274" lon="10.13054714324945"><ele>566.0</ele><time>2026-04-27T13:22:57Z</time></trkpt><trkpt lat="46.17887377729453" lon="10.130707595325957"><ele>566.0</ele><time>2026-04-27T13:22:58Z</time></trkpt><trkpt lat="46.17890683281836" lon="10.13086097353924"><ele>566.0</ele><time>2026-04-27T13:22:59Z</time></trkpt><trkpt lat="46.17895749944618" lon="10.131008448541783"><ele>566.0</ele><time>2026-04-27T13:23:00Z</time></trkpt><trkpt lat="46.17907060144588" lon="10.131149436489522"><ele>565.0</ele><time>2026-04-27T13:23:01Z</time></trkpt><trkpt lat="46.17916661333752" lon="10.131319814343628"><ele>564.0</ele><time>2026-04-27T13:23:02Z</time></trkpt><trkpt lat="46.17927812187509" lon="10.131446560047626"><ele>563.0</ele><time>2026-04-27T13:23:03Z</time></trkpt><trkpt lat="46.179349074272096" lon="10.131527360692823"><ele>562.0</ele><time>2026-04-27T13:23:04Z</time></trkpt><trkpt lat="46.17942312198911" lon="10.131569808086963"><ele>562.0</ele><time>2026-04-27T13:23:05Z</time></trkpt><trkpt lat="46.17950295408456" lon="10.131563101006185"><ele>562.0</ele><time>2026-04-27T13:23:06Z</time></trkpt><trkpt lat="46.17957372071056" lon="10.131499354265419"><ele>562.0</ele><time>2026-04-27T13:23:07Z</time></trkpt><trkpt lat="46.17962450675229" lon="10.131391268820773"><ele>562.0</ele><time>2026-04-27T13:23:08Z</time></trkpt><trkpt lat="46.179674515847665" lon="10.131251233122327"><ele>562.0</ele><time>2026-04-27T13:23:09Z</time></trkpt><trkpt lat="46.17971720860124" lon="10.131088019572795"><ele>559.8000000000001</ele><time>2026-04-27T13:23:10Z</time></trkpt><trkpt lat="46.17976764178376" lon="10.130920553703636"><ele>557.6</ele><time>2026-04-27T13:23:11Z</time></trkpt><trkpt lat="46.17981905828031" lon="10.13078423798416"><ele>555.4000000000001</ele><time>2026-04-27T13:23:12Z</time></trkpt><trkpt lat="46.1798827899501" lon="10.130681592704082"><ele>553.2</ele><time>2026-04-27T13:23:13Z</time></trkpt><trkpt lat="46.179970174084545" lon="10.13058621732683"><ele>551.0</ele><time>2026-04-27T13:23:14Z</time></trkpt><trkpt lat="46.18007570053345" lon="10.130472921562701"><ele>547.6</ele><time>2026-04-27T13:23:15Z</time></trkpt><trkpt lat="46.18017982500531" lon="10.130374513489478"><ele>544.2</ele><time>2026-04-27T13:23:16Z</time></trkpt><trkpt lat="46.1802893989841" lon="10.130336225529147"><ele>540.8</ele><time>2026-04-27T13:23:17Z</time></trkpt><trkpt lat="46.18037527415586" lon="10.130290036283705"><ele>537.4</ele><time>2026-04-27T13:23:18Z</time></trkpt><trkpt lat="46.18044171470402" lon="10.130246190553555"><ele>534.0</ele><time>2026-04-27T13:23:19Z</time></trkpt><trkpt lat="46.18048484662916" lon="10.130135057473455"><ele>534.0</ele><time>2026-04-27T13:23:20Z</time></trkpt><trkpt lat="46.18051419559889" lon="10.129989445381165"><ele>534.0</ele><time>2026-04-27T13:23:21Z</time></trkpt><trkpt lat="46.18058226444938" lon="10.12991048720316"><ele>534.0</ele><time>2026-04-27T13:23:22Z</time></trkpt><trkpt lat="46.18064249423175" lon="10.129821439346456"><ele>534.0</ele><time>2026-04-27T13:23:23Z</time></trkpt><trkpt lat="46.18069750846117" lon="10.12973357655903"><ele>534.0</ele><time>2026-04-27T13:23:24Z</time></trkpt><trkpt lat="46.18070584154796" lon="10.129615122381669"><ele>534.0</ele><time>2026-04-27T13:23:25Z</time></trkpt><trkpt lat="46.18069637936554" lon="10.129453436420738"><ele>532.25</ele><time>2026-04-27T13:23:26Z</time></trkpt><trkpt lat="46.18069097542663" lon="10.1292696221641"><ele>530.5</ele><time>2026-04-27T13:23:27Z</time></trkpt><trkpt lat="46.180689107956844" lon="10.129061731249363"><ele>528.75</ele><time>2026-04-27T13:23:28Z</time></trkpt><trkpt lat="46.18067656286956" lon="10.128853963132915"><ele>527.0</ele><time>2026-04-27T13:23:29Z</time></trkpt><trkpt lat="46.18066382547763" lon="10.12868164109617"><ele>527.0</ele><time>2026-04-27T13:23:30Z</time></trkpt><trkpt lat="46.18065370927564" lon="10.128567562467339"><ele>527.0</ele><time>2026-04-27T13:23:31Z</time></trkpt><trkpt lat="46.18069354785322" lon="10.128452342965446"><ele>527.0</ele><time>2026-04-27T13:23:34Z</time></trkpt><trkpt lat="46.18076796673071" lon="10.128471847796106"><ele>527.0</ele><time>2026-04-27T13:23:36Z</time></trkpt><trkpt lat="46.180775247482764" lon="10.12860048457714"><ele>527.0</ele><time>2026-04-27T13:23:38Z</time></trkpt><trkpt lat="46.180745763294645" lon="10.128741810821454"><ele>527.0</ele><time>2026-04-27T13:23:39Z</time></trkpt><trkpt lat="46.18073259017252" lon="10.128885704496666"><ele>525.0</ele><time>2026-04-27T13:23:40Z</time></trkpt><trkpt lat="46.18075243083237" lon="10.129051483676944"><ele>523.0</ele><time>2026-04-27T13:23:41Z</time></trkpt><trkpt lat="46.180796513068906" lon="10.129221300149569"><ele>521.0</ele><time>2026-04-27T13:23:42Z</time></trkpt><trkpt lat="46.180851576726624" lon="10.129361681448938"><ele>519.0</ele><time>2026-04-27T13:23:43Z</time></trkpt><trkpt lat="46.18084857437237" lon="10.129496965146023"><ele>517.0</ele><time>2026-04-27T13:23:44Z</time></trkpt><trkpt lat="46.18082939021758" lon="10.129675434901888"><ele>517.0</ele><time>2026-04-27T13:23:45Z</time></trkpt><trkpt lat="46.18083312452431" lon="10.129886943742838"><ele>517.0</ele><time>2026-04-27T13:23:46Z</time></trkpt><trkpt lat="46.18087325597204" lon="10.130115377676134"><ele>517.0</ele><time>2026-04-27T13:23:47Z</time></trkpt><trkpt lat="46.18095731279172" lon="10.130341916369364"><ele>517.3333333333334</ele><time>2026-04-27T13:23:48Z</time></trkpt><trkpt lat="46.18101169184324" lon="10.130579320527536"><ele>517.6666666666666</ele><time>2026-04-27T13:23:49Z</time></trkpt><trkpt lat="46.18101613998079" lon="10.130813272954766"><ele>518.0</ele><time>2026-04-27T13:23:50Z</time></trkpt><trkpt lat="46.181055546498776" lon="10.13103672743777"><ele>518.75</ele><time>2026-04-27T13:23:51Z</time></trkpt><trkpt lat="46.18109455252512" lon="10.131251515786692"><ele>519.5</ele><time>2026-04-27T13:23:52Z</time></trkpt><trkpt lat="46.18115145340198" lon="10.131448343674009"><ele>520.25</ele><time>2026-04-27T13:23:53Z</time></trkpt><trkpt lat="46.18120547526175" lon="10.131607182110258"><ele>521.0</ele><time>2026-04-27T13:23:54Z</time></trkpt><trkpt lat="46.181269698273795" lon="10.13174848713147"><ele>524.3333333333333</ele><time>2026-04-27T13:23:55Z</time></trkpt><trkpt lat="46.181353459433275" lon="10.131896065193276"><ele>527.6666666666666</ele><time>2026-04-27T13:23:56Z</time></trkpt><trkpt lat="46.181449811475616" lon="10.132065016891032"><ele>531.0</ele><time>2026-04-27T13:23:57Z</time></trkpt><trkpt lat="46.18157708036746" lon="10.132248071277075"><ele>524.0</ele><time>2026-04-27T13:23:58Z</time></trkpt><trkpt lat="46.18169096973433" lon="10.132437490261443"><ele>517.0</ele><time>2026-04-27T13:23:59Z</time></trkpt><trkpt lat="46.18184652409797" lon="10.13260661644634"><ele>510.0</ele><time>2026-04-27T13:24:00Z</time></trkpt><trkpt lat="46.18203256715969" lon="10.132798930585523"><ele>510.0</ele><time>2026-04-27T13:24:01Z</time></trkpt><trkpt lat="46.182216304271144" lon="10.132988879002067"><ele>510.0</ele><time>2026-04-27T13:24:02Z</time></trkpt><trkpt lat="46.18236320824703" lon="10.133148092707495"><ele>510.0</ele><time>2026-04-27T13:24:03Z</time></trkpt><trkpt lat="46.18247251196508" lon="10.133261013639283"><ele>506.6</ele><time>2026-04-27T13:24:04Z</time></trkpt><trkpt lat="46.182568358088446" lon="10.133352124659611"><ele>503.2</ele><time>2026-04-27T13:24:05Z</time></trkpt><trkpt lat="46.18268212112026" lon="10.133416925803855"><ele>499.79999999999995</ele><time>2026-04-27T13:24:06Z</time></trkpt><trkpt lat="46.182787862785844" lon="10.133447483811711"><ele>496.4</ele><time>2026-04-27T13:24:06.999Z</time></trkpt><trkpt lat="46.182871000690966" lon="10.133479592567156"><ele>493.0</ele><time>2026-04-27T13:24:07.999Z</time></trkpt><trkpt lat="46.18294430010144" lon="10.133546597112868"><ele>493.0</ele><time>2026-04-27T13:24:08.999Z</time></trkpt><trkpt lat="46.18299328292156" lon="10.133647845536224"><ele>493.0</ele><time>2026-04-27T13:24:09.999Z</time></trkpt><trkpt lat="46.1830387717649" lon="10.133782317048817"><ele>493.0</ele><time>2026-04-27T13:24:10.999Z</time></trkpt><trkpt lat="46.18307687373814" lon="10.133959486642047"><ele>493.0</ele><time>2026-04-27T13:24:11.999Z</time></trkpt><trkpt lat="46.18313199731657" lon="10.134150387343324"><ele>487.0</ele><time>2026-04-27T13:24:12.999Z</time></trkpt><trkpt lat="46.18321601941914" lon="10.13434491807397"><ele>481.0</ele><time>2026-04-27T13:24:13.999Z</time></trkpt><trkpt lat="46.18329881208094" lon="10.134535807524362"><ele>475.0</ele><time>2026-04-27T13:24:14.999Z</time></trkpt><trkpt lat="46.1833796458002" lon="10.134697340367696"><ele>475.0</ele><time>2026-04-27T13:24:15.999Z</time></trkpt><trkpt lat="46.18348457844334" lon="10.134839403919898"><ele>475.0</ele><time>2026-04-27T13:24:16.999Z</time></trkpt><trkpt lat="46.18360627676701" lon="10.134976130790422"><ele>475.0</ele><time>2026-04-27T13:24:17.999Z</time></trkpt><trkpt lat="46.18370702198159" lon="10.135082609540175"><ele>475.0</ele><time>2026-04-27T13:24:18.999Z</time></trkpt><trkpt lat="46.183763446569095" lon="10.135160606131453"><ele>472.33333333333337</ele><time>2026-04-27T13:24:19.999Z</time></trkpt><trkpt lat="46.183793625608615" lon="10.13524992537547"><ele>469.6666666666667</ele><time>2026-04-27T13:24:20.999Z</time></trkpt><trkpt lat="46.183814668787285" lon="10.13537455976386"><ele>467.0</ele><time>2026-04-27T13:24:21.999Z</time></trkpt><trkpt lat="46.18382921012215" lon="10.13550036433274"><ele>464.33333333333337</ele><time>2026-04-27T13:24:22.999Z</time></trkpt><trkpt lat="46.18387616075513" lon="10.135579437500372"><ele>461.6666666666667</ele><time>2026-04-27T13:24:23.999Z</time></trkpt><trkpt lat="46.18395320654953" lon="10.135632271680704"><ele>459.0</ele><time>2026-04-27T13:24:24.999Z</time></trkpt><trkpt lat="46.18405593792417" lon="10.135679155973223"><ele>461.0</ele><time>2026-04-27T13:24:25.999Z</time></trkpt><trkpt lat="46.184165934992755" lon="10.135783393874062"><ele>463.0</ele><time>2026-04-27T13:24:26.999Z</time></trkpt><trkpt lat="46.18430116097612" lon="10.135856266958982"><ele>465.0</ele><time>2026-04-27T13:24:27.999Z</time></trkpt><trkpt lat="46.18443869480848" lon="10.135962529564608"><ele>467.0</ele><time>2026-04-27T13:24:28.999Z</time></trkpt><trkpt lat="46.18458929643541" lon="10.136082563930918"><ele>467.0</ele><time>2026-04-27T13:24:29.999Z</time></trkpt><trkpt lat="46.184734785477765" lon="10.136189632407648"><ele>467.0</ele><time>2026-04-27T13:24:30.999Z</time></trkpt><trkpt lat="46.184853351002275" lon="10.136277504319288"><ele>467.0</ele><time>2026-04-27T13:24:31.999Z</time></trkpt><trkpt lat="46.18494454907496" lon="10.136322505621091"><ele>467.0</ele><time>2026-04-27T13:24:33Z</time></trkpt><trkpt lat="46.185038786958934" lon="10.136331573267956"><ele>464.5</ele><time>2026-04-27T13:24:34Z</time></trkpt><trkpt lat="46.18515016258594" lon="10.136296363417152"><ele>462.0</ele><time>2026-04-27T13:24:35Z</time></trkpt><trkpt lat="46.18527883963367" lon="10.136253278868523"><ele>459.5</ele><time>2026-04-27T13:24:36Z</time></trkpt><trkpt lat="46.18542749274816" lon="10.13622081840428"><ele>457.0</ele><time>2026-04-27T13:24:37Z</time></trkpt><trkpt lat="46.18556737537841" lon="10.13619176249428"><ele>457.00000000000006</ele><time>2026-04-27T13:24:38Z</time></trkpt><trkpt lat="46.18567533443692" lon="10.136188375445728"><ele>457.0</ele><time>2026-04-27T13:24:39Z</time></trkpt><trkpt lat="46.18576634539725" lon="10.136199888006866"><ele>457.0</ele><time>2026-04-27T13:24:40Z</time></trkpt><trkpt lat="46.18583266985995" lon="10.136209158454092"><ele>457.0</ele><time>2026-04-27T13:24:41Z</time></trkpt><trkpt lat="46.1859368100779" lon="10.136205432980281"><ele>457.00000000000006</ele><time>2026-04-27T13:24:43Z</time></trkpt><trkpt lat="46.18596852440761" lon="10.136115345561883"><ele>457.0</ele><time>2026-04-27T13:24:45Z</time></trkpt><trkpt lat="46.185909919449465" lon="10.136024292741496"><ele>457.0</ele><time>2026-04-27T13:24:46Z</time></trkpt><trkpt lat="46.18578409192089" lon="10.135994367151508"><ele>457.00000000000006</ele><time>2026-04-27T13:24:48Z</time></trkpt><trkpt lat="46.18570048029218" lon="10.135978409931"><ele>457.00000000000006</ele><time>2026-04-27T13:24:49Z</time></trkpt><trkpt lat="46.1856142762483" lon="10.135915190967344"><ele>457.0</ele><time>2026-04-27T13:24:50Z</time></trkpt><trkpt lat="46.18555303115674" lon="10.135804044126058"><ele>457.0</ele><time>2026-04-27T13:24:51Z</time></trkpt><trkpt lat="46.18551091356497" lon="10.13569865629207"><ele>454.75</ele><time>2026-04-27T13:24:52Z</time></trkpt><trkpt lat="46.18547467783639" lon="10.135572285363445"><ele>452.5</ele><time>2026-04-27T13:24:53Z</time></trkpt><trkpt lat="46.18541995153002" lon="10.135416058432767"><ele>450.25</ele><time>2026-04-27T13:24:54Z</time></trkpt><trkpt lat="46.185374860897824" lon="10.135243239899719"><ele>448.0</ele><time>2026-04-27T13:24:55Z</time></trkpt><trkpt lat="46.1853251895987" lon="10.135063754615151"><ele>448.0</ele><time>2026-04-27T13:24:56Z</time></trkpt><trkpt lat="46.18526926485303" lon="10.134922353022164"><ele>447.99999999999994</ele><time>2026-04-27T13:24:57Z</time></trkpt><trkpt lat="46.185206156754255" lon="10.134801650810687"><ele>447.99999999999994</ele><time>2026-04-27T13:24:58Z</time></trkpt><trkpt lat="46.185153995901366" lon="10.134712197854737"><ele>448.0</ele><time>2026-04-27T13:24:59Z</time></trkpt><trkpt lat="46.18510466290643" lon="10.134594912452407"><ele>448.0</ele><time>2026-04-27T13:25:01Z</time></trkpt><trkpt lat="46.185126209610615" lon="10.134486436931855"><ele>446.6666666666667</ele><time>2026-04-27T13:25:03Z</time></trkpt><trkpt lat="46.18522358379011" lon="10.134395684067592"><ele>445.33333333333337</ele><time>2026-04-27T13:25:05Z</time></trkpt><trkpt lat="46.18528440009082" lon="10.134346569107308"><ele>444.0</ele><time>2026-04-27T13:25:06Z</time></trkpt><trkpt lat="46.18534920734332" lon="10.134309302425011"><ele>442.66666666666663</ele><time>2026-04-27T13:25:07Z</time></trkpt><trkpt lat="46.185428591407" lon="10.134326128224647"><ele>441.3333333333333</ele><time>2026-04-27T13:25:09Z</time></trkpt><trkpt lat="46.18551168037158" lon="10.134379599031675"><ele>440.0</ele><time>2026-04-27T13:25:11Z</time></trkpt><trkpt lat="46.18557830754109" lon="10.134423574576427"><ele>440.0</ele><time>2026-04-27T13:25:12Z</time></trkpt><trkpt lat="46.18564992064673" lon="10.134480378960559"><ele>440.0</ele><time>2026-04-27T13:25:13Z</time></trkpt><trkpt lat="46.18577450022852" lon="10.13457050409395"><ele>440.0</ele><time>2026-04-27T13:25:14Z</time></trkpt><trkpt lat="46.185891779058686" lon="10.134654269468248"><ele>440.0</ele><time>2026-04-27T13:25:15Z</time></trkpt><trkpt lat="46.186010635287175" lon="10.134768044848622"><ele>439.75</ele><time>2026-04-27T13:25:16Z</time></trkpt><trkpt lat="46.18612067766072" lon="10.134826294172615"><ele>439.5</ele><time>2026-04-27T13:25:17Z</time></trkpt><trkpt lat="46.186237072222696" lon="10.134902615556546"><ele>439.25</ele><time>2026-04-27T13:25:18Z</time></trkpt><trkpt lat="46.186334745757655" lon="10.134991351243677"><ele>439.0</ele><time>2026-04-27T13:25:19Z</time></trkpt><trkpt lat="46.186417554297336" lon="10.13506071427528"><ele>439.0</ele><time>2026-04-27T13:25:20Z</time></trkpt><trkpt lat="46.18651007956424" lon="10.135142239497185"><ele>439.0</ele><time>2026-04-27T13:25:21Z</time></trkpt><trkpt lat="46.18660394574683" lon="10.135217232179185"><ele>439.0</ele><time>2026-04-27T13:25:22Z</time></trkpt><trkpt lat="46.18673356178959" lon="10.135288279397905"><ele>439.0</ele><time>2026-04-27T13:25:23Z</time></trkpt><trkpt lat="46.18683068114272" lon="10.13537855684365"><ele>436.4</ele><time>2026-04-27T13:25:24Z</time></trkpt><trkpt lat="46.18691600299736" lon="10.135450659124535"><ele>433.79999999999995</ele><time>2026-04-27T13:25:25Z</time></trkpt><trkpt lat="46.186980458658134" lon="10.135484464257633"><ele>431.20000000000005</ele><time>2026-04-27T13:25:26Z</time></trkpt><trkpt lat="46.18708256322122" lon="10.135410492166123"><ele>428.6</ele><time>2026-04-27T13:25:28Z</time></trkpt><trkpt lat="46.187092411598286" lon="10.135230179383193"><ele>426.0</ele><time>2026-04-27T13:25:30Z</time></trkpt><trkpt lat="46.18704606041329" lon="10.13512895724604"><ele>426.0</ele><time>2026-04-27T13:25:31Z</time></trkpt><trkpt lat="46.18698200939704" lon="10.135013040950467"><ele>426.0</ele><time>2026-04-27T13:25:32Z</time></trkpt><trkpt lat="46.18689956522661" lon="10.134882863078397"><ele>426.0</ele><time>2026-04-27T13:25:33Z</time></trkpt><trkpt lat="46.18683554519854" lon="10.13473525530927"><ele>426.0</ele><time>2026-04-27T13:25:34Z</time></trkpt><trkpt lat="46.18680155330309" lon="10.134585344765151"><ele>425.4</ele><time>2026-04-27T13:25:35Z</time></trkpt><trkpt lat="46.18677703705117" lon="10.13446551733636"><ele>424.8</ele><time>2026-04-27T13:25:36Z</time></trkpt><trkpt lat="46.1867581094323" lon="10.134333030558519"><ele>424.2</ele><time>2026-04-27T13:25:37Z</time></trkpt><trkpt lat="46.18675348116429" lon="10.134176894867045"><ele>423.59999999999997</ele><time>2026-04-27T13:25:38Z</time></trkpt><trkpt lat="46.186762000659364" lon="10.134008647845546"><ele>423.0</ele><time>2026-04-27T13:25:39Z</time></trkpt><trkpt lat="46.18677983876141" lon="10.133823768484788"><ele>421.75</ele><time>2026-04-27T13:25:40Z</time></trkpt><trkpt lat="46.18681388963955" lon="10.13366656474834"><ele>420.5</ele><time>2026-04-27T13:25:41Z</time></trkpt><trkpt lat="46.18686176019454" lon="10.133520929287956"><ele>419.25</ele><time>2026-04-27T13:25:42Z</time></trkpt><trkpt lat="46.18692469210636" lon="10.133377631107228"><ele>418.0</ele><time>2026-04-27T13:25:43Z</time></trkpt><trkpt lat="46.18699693201201" lon="10.133224162766929"><ele>416.5</ele><time>2026-04-27T13:25:44Z</time></trkpt><trkpt lat="46.187069257704046" lon="10.133050514269215"><ele>415.0</ele><time>2026-04-27T13:25:45Z</time></trkpt><trkpt lat="46.187143898653204" lon="10.132864260240197"><ele>413.5</ele><time>2026-04-27T13:25:46Z</time></trkpt><trkpt lat="46.18722179216133" lon="10.132666450577307"><ele>412.0</ele><time>2026-04-27T13:25:47Z</time></trkpt><trkpt lat="46.1873024681468" lon="10.132468509651389"><ele>408.33333333333337</ele><time>2026-04-27T13:25:48Z</time></trkpt><trkpt lat="46.187383608472445" lon="10.132271378648232"><ele>404.66666666666663</ele><time>2026-04-27T13:25:49Z</time></trkpt><trkpt lat="46.18746133231842" lon="10.13208613264301"><ele>401.0</ele><time>2026-04-27T13:25:50Z</time></trkpt><trkpt lat="46.18753668720051" lon="10.131907746574363"><ele>401.0</ele><time>2026-04-27T13:25:51Z</time></trkpt><trkpt lat="46.18761025635876" lon="10.131735037752787"><ele>401.0</ele><time>2026-04-27T13:25:52Z</time></trkpt><trkpt lat="46.18768223494686" lon="10.131563945548587"><ele>401.0</ele><time>2026-04-27T13:25:53Z</time></trkpt><trkpt lat="46.18775201213197" lon="10.13139806614123"><ele>401.0</ele><time>2026-04-27T13:25:54Z</time></trkpt><trkpt lat="46.18782203762176" lon="10.131243924713665"><ele>400.3333333333333</ele><time>2026-04-27T13:25:55Z</time></trkpt><trkpt lat="46.1878879475852" lon="10.131101459046135"><ele>399.66666666666663</ele><time>2026-04-27T13:25:56Z</time></trkpt><trkpt lat="46.18794726804684" lon="10.130985144714487"><ele>399.0</ele><time>2026-04-27T13:25:57Z</time></trkpt><trkpt lat="46.188006490875765" lon="10.130894492106586"><ele>398.33333333333337</ele><time>2026-04-27T13:25:58Z</time></trkpt><trkpt lat="46.18806105954928" lon="10.130822574757222"><ele>397.6666666666667</ele><time>2026-04-27T13:25:59Z</time></trkpt><trkpt lat="46.188113718897505" lon="10.130755338590099"><ele>397.0</ele><time>2026-04-27T13:26:00Z</time></trkpt><trkpt lat="46.188164033684245" lon="10.130699044834477"><ele>396.8</ele><time>2026-04-27T13:26:01Z</time></trkpt><trkpt lat="46.18826677983473" lon="10.130641586538855"><ele>396.6</ele><time>2026-04-27T13:26:03Z</time></trkpt><trkpt lat="46.188380096067995" lon="10.130557562026524"><ele>396.40000000000003</ele><time>2026-04-27T13:26:05Z</time></trkpt><trkpt lat="46.18841901303773" lon="10.130465644567076"><ele>396.20000000000005</ele><time>2026-04-27T13:26:06Z</time></trkpt><trkpt lat="46.18843160674277" lon="10.130357398953944"><ele>396.0</ele><time>2026-04-27T13:26:07Z</time></trkpt><trkpt lat="46.188432365270145" lon="10.130248103765652"><ele>396.0</ele><time>2026-04-27T13:26:08Z</time></trkpt><trkpt lat="46.188487967680146" lon="10.130127960631725"><ele>396.0</ele><time>2026-04-27T13:26:10Z</time></trkpt><trkpt lat="46.18860346171728" lon="10.130149097071707"><ele>396.0</ele><time>2026-04-27T13:26:12Z</time></trkpt><trkpt lat="46.18868019187782" lon="10.130200907918182"><ele>396.0</ele><time>2026-04-27T13:26:12.999Z</time></trkpt><trkpt lat="46.188773831947586" lon="10.130288071803621"><ele>396.0</ele><time>2026-04-27T13:26:13.999Z</time></trkpt><trkpt lat="46.18888681325597" lon="10.13040129675467"><ele>396.0</ele><time>2026-04-27T13:26:14.999Z</time></trkpt><trkpt lat="46.18901479020319" lon="10.130526774357621"><ele>396.0</ele><time>2026-04-27T13:26:15.999Z</time></trkpt><trkpt lat="46.189157879451976" lon="10.130670041600368"><ele>396.0</ele><time>2026-04-27T13:26:16.999Z</time></trkpt><trkpt lat="46.18929199741638" lon="10.130836770950584"><ele>396.0</ele><time>2026-04-27T13:26:17.999Z</time></trkpt><trkpt lat="46.18944269418525" lon="10.130991540602455"><ele>396.0</ele><time>2026-04-27T13:26:18.999Z</time></trkpt><trkpt lat="46.18960541838706" lon="10.13115866275429"><ele>396.0</ele><time>2026-04-27T13:26:19.999Z</time></trkpt><trkpt lat="46.18979264348769" lon="10.131346248852651"><ele>395.5</ele><time>2026-04-27T13:26:20.999Z</time></trkpt><trkpt lat="46.189982686203" lon="10.131535930129095"><ele>395.0</ele><time>2026-04-27T13:26:21.999Z</time></trkpt><trkpt lat="46.190178754233216" lon="10.131734204639283"><ele>395.0</ele><time>2026-04-27T13:26:22.999Z</time></trkpt><trkpt lat="46.19038391830865" lon="10.131941677561313"><ele>395.0</ele><time>2026-04-27T13:26:23.999Z</time></trkpt><trkpt lat="46.19060105966058" lon="10.132161262548514"><ele>395.0</ele><time>2026-04-27T13:26:24.999Z</time></trkpt><trkpt lat="46.19082450128745" lon="10.132387321141307"><ele>395.0</ele><time>2026-04-27T13:26:25.999Z</time></trkpt><trkpt lat="46.19104880952955" lon="10.132615949783363"><ele>395.0</ele><time>2026-04-27T13:26:26.999Z</time></trkpt><trkpt lat="46.191286917610554" lon="10.1328306964869"><ele>395.0</ele><time>2026-04-27T13:26:27.999Z</time></trkpt><trkpt lat="46.19150742661823" lon="10.133064083409739"><ele>395.5</ele><time>2026-04-27T13:26:28.999Z</time></trkpt><trkpt lat="46.19171256557739" lon="10.133271879076695"><ele>396.0</ele><time>2026-04-27T13:26:29.999Z</time></trkpt><trkpt lat="46.191903822253146" lon="10.133465735883183"><ele>396.0</ele><time>2026-04-27T13:26:30.999Z</time></trkpt><trkpt lat="46.19208244150163" lon="10.133648408537741"><ele>396.0</ele><time>2026-04-27T13:26:31.999Z</time></trkpt><trkpt lat="46.19225460453537" lon="10.133825778733378"><ele>396.0</ele><time>2026-04-27T13:26:32.999Z</time></trkpt><trkpt lat="46.1924264338686" lon="10.1340066395363"><ele>396.0</ele><time>2026-04-27T13:26:33.999Z</time></trkpt><trkpt lat="46.192602745989" lon="10.134189208268275"><ele>396.0</ele><time>2026-04-27T13:26:35Z</time></trkpt><trkpt lat="46.192768090120246" lon="10.134356353249004"><ele>396.0</ele><time>2026-04-27T13:26:36Z</time></trkpt><trkpt lat="46.19290492623445" lon="10.134493896749417"><ele>396.0</ele><time>2026-04-27T13:26:37Z</time></trkpt><trkpt lat="46.19301829798418" lon="10.13460664047355"><ele>396.0</ele><time>2026-04-27T13:26:38Z</time></trkpt><trkpt lat="46.19313130088268" lon="10.134724278046026"><ele>396.0</ele><time>2026-04-27T13:26:39Z</time></trkpt><trkpt lat="46.19324572206091" lon="10.134853458246875"><ele>396.0</ele><time>2026-04-27T13:26:40Z</time></trkpt><trkpt lat="46.19336174293938" lon="10.135009763871938"><ele>396.75</ele><time>2026-04-27T13:26:41Z</time></trkpt><trkpt lat="46.19347404349419" lon="10.135174786361288"><ele>397.5</ele><time>2026-04-27T13:26:42Z</time></trkpt><trkpt lat="46.19356895532497" lon="10.135327318906171"><ele>398.25</ele><time>2026-04-27T13:26:43Z</time></trkpt><trkpt lat="46.19365510947619" lon="10.135468697283034"><ele>399.0</ele><time>2026-04-27T13:26:44Z</time></trkpt><trkpt lat="46.19373220738325" lon="10.13559717200363"><ele>399.0</ele><time>2026-04-27T13:26:45Z</time></trkpt><trkpt lat="46.19381475290138" lon="10.135724766461609"><ele>399.0</ele><time>2026-04-27T13:26:46Z</time></trkpt><trkpt lat="46.1939104538857" lon="10.13587209128385"><ele>399.0</ele><time>2026-04-27T13:26:47Z</time></trkpt><trkpt lat="46.19402304146726" lon="10.136024725940143"><ele>399.0</ele><time>2026-04-27T13:26:48Z</time></trkpt><trkpt lat="46.19412738526427" lon="10.136216044534487"><ele>399.0</ele><time>2026-04-27T13:26:49Z</time></trkpt><trkpt lat="46.194247041204264" lon="10.136403939247101"><ele>399.0</ele><time>2026-04-27T13:26:50Z</time></trkpt><trkpt lat="46.19437167834181" lon="10.136602301170422"><ele>399.0</ele><time>2026-04-27T13:26:51Z</time></trkpt><trkpt lat="46.19450235208723" lon="10.136811485343177"><ele>399.0</ele><time>2026-04-27T13:26:52Z</time></trkpt><trkpt lat="46.194640635438425" lon="10.1370265229624"><ele>399.0</ele><time>2026-04-27T13:26:53Z</time></trkpt><trkpt lat="46.19479173317295" lon="10.137227521028322"><ele>399.0</ele><time>2026-04-27T13:26:54Z</time></trkpt><trkpt lat="46.194937925211214" lon="10.13746675545667"><ele>400.0</ele><time>2026-04-27T13:26:55Z</time></trkpt><trkpt lat="46.19508736475903" lon="10.137719115551553"><ele>401.0</ele><time>2026-04-27T13:26:56Z</time></trkpt><trkpt lat="46.19524073115472" lon="10.137981172072013"><ele>401.5</ele><time>2026-04-27T13:26:57Z</time></trkpt><trkpt lat="46.195391540466574" lon="10.138231440941434"><ele>402.0</ele><time>2026-04-27T13:26:58Z</time></trkpt><trkpt lat="46.19554086972579" lon="10.138470983934633"><ele>402.33333333333337</ele><time>2026-04-27T13:26:59Z</time></trkpt><trkpt lat="46.19568531939007" lon="10.138703606900455"><ele>402.6666666666667</ele><time>2026-04-27T13:27:00Z</time></trkpt><trkpt lat="46.1958336459285" lon="10.138935257844462"><ele>403.0</ele><time>2026-04-27T13:27:01Z</time></trkpt><trkpt lat="46.19598778462538" lon="10.139178536338841"><ele>404.5</ele><time>2026-04-27T13:27:02Z</time></trkpt><trkpt lat="46.196150075737364" lon="10.139435443500057"><ele>406.0</ele><time>2026-04-27T13:27:03Z</time></trkpt><trkpt lat="46.19631691008009" lon="10.139688182971785"><ele>406.0</ele><time>2026-04-27T13:27:04Z</time></trkpt><trkpt lat="46.196490085922754" lon="10.13994905894381"><ele>406.0</ele><time>2026-04-27T13:27:05Z</time></trkpt><trkpt lat="46.19666396252048" lon="10.140214438425016"><ele>405.5</ele><time>2026-04-27T13:27:06Z</time></trkpt><trkpt lat="46.196827340618576" lon="10.140471484474247"><ele>405.0</ele><time>2026-04-27T13:27:07Z</time></trkpt><trkpt lat="46.19697747209515" lon="10.140708629676562"><ele>405.0</ele><time>2026-04-27T13:27:08Z</time></trkpt><trkpt lat="46.19711739599291" lon="10.140935096956786"><ele>405.0</ele><time>2026-04-27T13:27:09Z</time></trkpt><trkpt lat="46.19725068199826" lon="10.141151055615058"><ele>405.0</ele><time>2026-04-27T13:27:10Z</time></trkpt><trkpt lat="46.197379188037715" lon="10.141359809997468"><ele>404.33333333333337</ele><time>2026-04-27T13:27:11Z</time></trkpt><trkpt lat="46.19749781003608" lon="10.141556365792853"><ele>403.6666666666667</ele><time>2026-04-27T13:27:12Z</time></trkpt><trkpt lat="46.19760757110411" lon="10.141755233171708"><ele>403.0</ele><time>2026-04-27T13:27:13Z</time></trkpt><trkpt lat="46.197705715591624" lon="10.141947988786926"><ele>403.0</ele><time>2026-04-27T13:27:14Z</time></trkpt><trkpt lat="46.19779342424436" lon="10.142133182774426"><ele>403.0</ele><time>2026-04-27T13:27:15Z</time></trkpt><trkpt lat="46.19786821867956" lon="10.142292060181312"><ele>403.0</ele><time>2026-04-27T13:27:16Z</time></trkpt><trkpt lat="46.197930912818876" lon="10.142434833135427"><ele>403.0</ele><time>2026-04-27T13:27:17Z</time></trkpt><trkpt lat="46.19798227742597" lon="10.142551784240343"><ele>403.4</ele><time>2026-04-27T13:27:18Z</time></trkpt><trkpt lat="46.19802122018511" lon="10.142643442828561"><ele>403.79999999999995</ele><time>2026-04-27T13:27:19Z</time></trkpt><trkpt lat="46.1980720813022" lon="10.142774314460702"><ele>404.2</ele><time>2026-04-27T13:27:21Z</time></trkpt><trkpt lat="46.19815373731338" lon="10.142955789621181"><ele>404.6</ele><time>2026-04-27T13:27:23Z</time></trkpt><trkpt lat="46.19822769786276" lon="10.143089919450956"><ele>405.0</ele><time>2026-04-27T13:27:24Z</time></trkpt><trkpt lat="46.19832368609963" lon="10.143267821252053"><ele>405.33333333333337</ele><time>2026-04-27T13:27:25Z</time></trkpt><trkpt lat="46.19843506422657" lon="10.143494470985953"><ele>405.6666666666667</ele><time>2026-04-27T13:27:26Z</time></trkpt><trkpt lat="46.198548869462584" lon="10.143730056663573"><ele>406.0</ele><time>2026-04-27T13:27:27Z</time></trkpt><trkpt lat="46.19868075653004" lon="10.143989701201091"><ele>411.0</ele><time>2026-04-27T13:27:28Z</time></trkpt><trkpt lat="46.19882508691971" lon="10.144271418423651"><ele>416.0</ele><time>2026-04-27T13:27:29Z</time></trkpt><trkpt lat="46.198958475325014" lon="10.144534013885043"><ele>414.0</ele><time>2026-04-27T13:27:30Z</time></trkpt><trkpt lat="46.19907766724802" lon="10.144769130904043"><ele>412.0</ele><time>2026-04-27T13:27:31Z</time></trkpt><trkpt lat="46.19919531367649" lon="10.144993807885132"><ele>410.0</ele><time>2026-04-27T13:27:32Z</time></trkpt><trkpt lat="46.19931827849161" lon="10.145215300675483"><ele>410.0</ele><time>2026-04-27T13:27:33Z</time></trkpt><trkpt lat="46.19944961576931" lon="10.145411963681552"><ele>410.0</ele><time>2026-04-27T13:27:34Z</time></trkpt><trkpt lat="46.19958134465518" lon="10.145586491477074"><ele>410.0</ele><time>2026-04-27T13:27:35Z</time></trkpt><trkpt lat="46.19972176745846" lon="10.145744196166099"><ele>409.0</ele><time>2026-04-27T13:27:36Z</time></trkpt><trkpt lat="46.19988219504178" lon="10.145893779878945"><ele>408.0</ele><time>2026-04-27T13:27:37Z</time></trkpt><trkpt lat="46.20005384470106" lon="10.146082052684621"><ele>407.0</ele><time>2026-04-27T13:27:38Z</time></trkpt><trkpt lat="46.20025215486619" lon="10.146258838541216"><ele>407.0</ele><time>2026-04-27T13:27:39Z</time></trkpt><trkpt lat="46.20046620072787" lon="10.146423397530267"><ele>407.0</ele><time>2026-04-27T13:27:40Z</time></trkpt><trkpt lat="46.20066700726014" lon="10.146616162935413"><ele>406.66666666666663</ele><time>2026-04-27T13:27:41Z</time></trkpt><trkpt lat="46.20085355648242" lon="10.14679000928817"><ele>406.33333333333337</ele><time>2026-04-27T13:27:42Z</time></trkpt><trkpt lat="46.2010273503865" lon="10.146945768942963"><ele>406.0</ele><time>2026-04-27T13:27:43Z</time></trkpt><trkpt lat="46.20119190390045" lon="10.14708855393755"><ele>406.0</ele><time>2026-04-27T13:27:44Z</time></trkpt><trkpt lat="46.20134144357344" lon="10.147234266890166"><ele>406.0</ele><time>2026-04-27T13:27:45.001Z</time></trkpt><trkpt lat="46.20147743435104" lon="10.14739043746737"><ele>406.0</ele><time>2026-04-27T13:27:46.001Z</time></trkpt><trkpt lat="46.201609244017526" lon="10.147577883652337"><ele>406.0</ele><time>2026-04-27T13:27:47.001Z</time></trkpt><trkpt lat="46.20173733880659" lon="10.147795862204545"><ele>406.0</ele><time>2026-04-27T13:27:48.001Z</time></trkpt><trkpt lat="46.20186881416622" lon="10.148031711440375"><ele>406.0</ele><time>2026-04-27T13:27:49.001Z</time></trkpt><trkpt lat="46.202004150794664" lon="10.148264267695719"><ele>406.33333333333337</ele><time>2026-04-27T13:27:50.001Z</time></trkpt><trkpt lat="46.20214266206174" lon="10.14850885151768"><ele>406.66666666666663</ele><time>2026-04-27T13:27:51.001Z</time></trkpt><trkpt lat="46.20226738013653" lon="10.148734153487098"><ele>407.0</ele><time>2026-04-27T13:27:52.001Z</time></trkpt><trkpt lat="46.2023815540453" lon="10.148939404532456"><ele>407.0</ele><time>2026-04-27T13:27:53.001Z</time></trkpt><trkpt lat="46.202491270264886" lon="10.149127797955442"><ele>407.0</ele><time>2026-04-27T13:27:54.001Z</time></trkpt><trkpt lat="46.202591937146344" lon="10.149309811706125"><ele>407.0</ele><time>2026-04-27T13:27:55.001Z</time></trkpt><trkpt lat="46.20268726831984" lon="10.149485498925506"><ele>407.0</ele><time>2026-04-27T13:27:56.001Z</time></trkpt><trkpt lat="46.202781638155116" lon="10.149662673141925"><ele>407.0</ele><time>2026-04-27T13:27:57.001Z</time></trkpt><trkpt lat="46.20286615318468" lon="10.149841314164854"><ele>407.0</ele><time>2026-04-27T13:27:58.001Z</time></trkpt><trkpt lat="46.202938485990416" lon="10.15002246217708"><ele>407.0</ele><time>2026-04-27T13:27:59.001Z</time></trkpt><trkpt lat="46.20300216303063" lon="10.150206128421852"><ele>408.0</ele><time>2026-04-27T13:28:00.001Z</time></trkpt><trkpt lat="46.20305918429332" lon="10.150413373596178"><ele>409.0</ele><time>2026-04-27T13:28:01.001Z</time></trkpt><trkpt lat="46.20310863532193" lon="10.150641053773466"><ele>410.0</ele><time>2026-04-27T13:28:02.001Z</time></trkpt><trkpt lat="46.20316449490271" lon="10.150876083593106"><ele>410.0</ele><time>2026-04-27T13:28:03.001Z</time></trkpt><trkpt lat="46.203229646067285" lon="10.15111607349425"><ele>410.0</ele><time>2026-04-27T13:28:04.001Z</time></trkpt><trkpt lat="46.203298184473084" lon="10.151330185945705"><ele>410.0</ele><time>2026-04-27T13:28:05.001Z</time></trkpt><trkpt lat="46.20338347510664" lon="10.1515216267652"><ele>410.66666666666663</ele><time>2026-04-27T13:28:06.001Z</time></trkpt><trkpt lat="46.203512451964826" lon="10.151683361135486"><ele>411.33333333333337</ele><time>2026-04-27T13:28:07.001Z</time></trkpt><trkpt lat="46.20364875757291" lon="10.151806236433316"><ele>412.0</ele><time>2026-04-27T13:28:08.001Z</time></trkpt><trkpt lat="46.20379585594183" lon="10.151895689841641"><ele>412.0</ele><time>2026-04-27T13:28:09.001Z</time></trkpt><trkpt lat="46.20394223494527" lon="10.151975178729591"><ele>412.0</ele><time>2026-04-27T13:28:10.001Z</time></trkpt><trkpt lat="46.2040758699466" lon="10.152073371333978"><ele>412.0</ele><time>2026-04-27T13:28:11.001Z</time></trkpt><trkpt lat="46.20419851152188" lon="10.152207212553385"><ele>411.33333333333337</ele><time>2026-04-27T13:28:12.001Z</time></trkpt><trkpt lat="46.20431720067165" lon="10.152357187560309"><ele>410.66666666666663</ele><time>2026-04-27T13:28:13.001Z</time></trkpt><trkpt lat="46.204421972890124" lon="10.152551564657934"><ele>410.0</ele><time>2026-04-27T13:28:14.001Z</time></trkpt><trkpt lat="46.204533216227894" lon="10.152748237887394"><ele>410.0</ele><time>2026-04-27T13:28:15.001Z</time></trkpt><trkpt lat="46.204657895530346" lon="10.152963959493395"><ele>410.0</ele><time>2026-04-27T13:28:16.001Z</time></trkpt><trkpt lat="46.20479827817081" lon="10.153197460238355"><ele>410.0</ele><time>2026-04-27T13:28:17.001Z</time></trkpt><trkpt lat="46.204953755708196" lon="10.153444662053353"><ele>410.5</ele><time>2026-04-27T13:28:18.001Z</time></trkpt><trkpt lat="46.205117247149815" lon="10.153682753894575"><ele>411.0</ele><time>2026-04-27T13:28:18.999Z</time></trkpt><trkpt lat="46.205266599695825" lon="10.153940733608811"><ele>411.5</ele><time>2026-04-27T13:28:19.999Z</time></trkpt><trkpt lat="46.205412961166196" lon="10.154202430255578"><ele>412.0</ele><time>2026-04-27T13:28:20.999Z</time></trkpt><trkpt lat="46.205563503583825" lon="10.15447487965444"><ele>413.0</ele><time>2026-04-27T13:28:21.999Z</time></trkpt><trkpt lat="46.20571853719494" lon="10.154745897847468"><ele>414.0</ele><time>2026-04-27T13:28:22.999Z</time></trkpt><trkpt lat="46.20587223723242" lon="10.155011616997236"><ele>414.0</ele><time>2026-04-27T13:28:23.999Z</time></trkpt><trkpt lat="46.20602346713052" lon="10.155276188384892"><ele>414.0</ele><time>2026-04-27T13:28:24.999Z</time></trkpt><trkpt lat="46.2061718497435" lon="10.155540512001497"><ele>414.0</ele><time>2026-04-27T13:28:25.999Z</time></trkpt><trkpt lat="46.20631540547767" lon="10.155790219222412"><ele>414.0</ele><time>2026-04-27T13:28:26.999Z</time></trkpt><trkpt lat="46.2064446723136" lon="10.156021283527418"><ele>414.0</ele><time>2026-04-27T13:28:27.999Z</time></trkpt><trkpt lat="46.20656737138754" lon="10.156239767920354"><ele>414.33333333333337</ele><time>2026-04-27T13:28:28.999Z</time></trkpt><trkpt lat="46.20668326445819" lon="10.156449711407213"><ele>414.6666666666667</ele><time>2026-04-27T13:28:29.999Z</time></trkpt><trkpt lat="46.20680668071301" lon="10.15666459583347"><ele>415.0</ele><time>2026-04-27T13:28:30.999Z</time></trkpt><trkpt lat="46.206937592746606" lon="10.15688588605974"><ele>415.33333333333337</ele><time>2026-04-27T13:28:31.999Z</time></trkpt><trkpt lat="46.20707355904712" lon="10.157113719165082"><ele>415.66666666666663</ele><time>2026-04-27T13:28:32.999Z</time></trkpt><trkpt lat="46.207208623192244" lon="10.157347669024679"><ele>416.0</ele><time>2026-04-27T13:28:33.999Z</time></trkpt><trkpt lat="46.20734891864659" lon="10.15759000008258"><ele>417.0</ele><time>2026-04-27T13:28:34.999Z</time></trkpt><trkpt lat="46.207495818985464" lon="10.157834521506878"><ele>418.0</ele><time>2026-04-27T13:28:35.999Z</time></trkpt><trkpt lat="46.20764528780317" lon="10.158085660297868"><ele>417.5</ele><time>2026-04-27T13:28:36.999Z</time></trkpt><trkpt lat="46.20779782575412" lon="10.158343724517838"><ele>417.0</ele><time>2026-04-27T13:28:37.999Z</time></trkpt><trkpt lat="46.207952103609095" lon="10.158606611005418"><ele>417.0</ele><time>2026-04-27T13:28:38.999Z</time></trkpt><trkpt lat="46.20810819584528" lon="10.15887650045365"><ele>417.0</ele><time>2026-04-27T13:28:39.999Z</time></trkpt><trkpt lat="46.20826414238001" lon="10.159152675484561"><ele>419.0</ele><time>2026-04-27T13:28:40.999Z</time></trkpt><trkpt lat="46.20842128678135" lon="10.159429217370604"><ele>421.0</ele><time>2026-04-27T13:28:42Z</time></trkpt><trkpt lat="46.20858091407848" lon="10.159706776522459"><ele>420.0</ele><time>2026-04-27T13:28:43Z</time></trkpt><trkpt lat="46.20874255422995" lon="10.159985048590777"><ele>419.0</ele><time>2026-04-27T13:28:44Z</time></trkpt><trkpt lat="46.20889197502817" lon="10.160285940764101"><ele>419.5</ele><time>2026-04-27T13:28:45Z</time></trkpt><trkpt lat="46.209050809476224" lon="10.160566050898346"><ele>420.0</ele><time>2026-04-27T13:28:46Z</time></trkpt><trkpt lat="46.209199009949124" lon="10.160823568985606"><ele>420.0</ele><time>2026-04-27T13:28:47Z</time></trkpt><trkpt lat="46.20933709692125" lon="10.161062729428057"><ele>420.0</ele><time>2026-04-27T13:28:48Z</time></trkpt><trkpt lat="46.20946737171605" lon="10.161290274122482"><ele>420.0</ele><time>2026-04-27T13:28:49Z</time></trkpt><trkpt lat="46.20959326466174" lon="10.161510425849633"><ele>420.33333333333337</ele><time>2026-04-27T13:28:50Z</time></trkpt><trkpt lat="46.209717887191985" lon="10.161728910904232"><ele>420.6666666666667</ele><time>2026-04-27T13:28:51Z</time></trkpt><trkpt lat="46.20984302406026" lon="10.161948503810107"><ele>421.0</ele><time>2026-04-27T13:28:52Z</time></trkpt><trkpt lat="46.20997356467702" lon="10.162143440229933"><ele>421.0</ele><time>2026-04-27T13:28:53Z</time></trkpt><trkpt lat="46.21006806955001" lon="10.162346152358085"><ele>421.0</ele><time>2026-04-27T13:28:54Z</time></trkpt><trkpt lat="46.21017340062594" lon="10.162502535244062"><ele>421.0</ele><time>2026-04-27T13:28:55Z</time></trkpt><trkpt lat="46.21026187892548" lon="10.16266697389477"><ele>421.33333333333337</ele><time>2026-04-27T13:28:56Z</time></trkpt><trkpt lat="46.21034969966697" lon="10.162827106430402"><ele>421.66666666666663</ele><time>2026-04-27T13:28:57Z</time></trkpt><trkpt lat="46.21044358596628" lon="10.162999945188073"><ele>422.0</ele><time>2026-04-27T13:28:58Z</time></trkpt><trkpt lat="46.21054335456242" lon="10.163180631046261"><ele>421.66666666666663</ele><time>2026-04-27T13:28:59Z</time></trkpt><trkpt lat="46.2106477775281" lon="10.163363596804713"><ele>421.33333333333337</ele><time>2026-04-27T13:29:00Z</time></trkpt><trkpt lat="46.2107515558114" lon="10.163553553117245"><ele>421.0</ele><time>2026-04-27T13:29:01Z</time></trkpt><trkpt lat="46.21085203157153" lon="10.163733153128694"><ele>421.0</ele><time>2026-04-27T13:29:02Z</time></trkpt><trkpt lat="46.21094783384157" lon="10.163903764917034"><ele>421.0</ele><time>2026-04-27T13:29:03Z</time></trkpt><trkpt lat="46.21103362554464" lon="10.16405327447033"><ele>421.0</ele><time>2026-04-27T13:29:04Z</time></trkpt><trkpt lat="46.211096498651976" lon="10.164168857536135"><ele>421.0</ele><time>2026-04-27T13:29:05Z</time></trkpt><trkpt lat="46.2111510173017" lon="10.164267378143151"><ele>421.00000000000006</ele><time>2026-04-27T13:29:06Z</time></trkpt><trkpt lat="46.21120560308452" lon="10.164366255879179"><ele>421.0</ele><time>2026-04-27T13:29:08Z</time></trkpt><trkpt lat="46.211343584839845" lon="10.164286841621225"><ele>421.0</ele><time>2026-04-27T13:29:12Z</time></trkpt><trkpt lat="46.21140020098648" lon="10.164213426069734"><ele>421.0</ele><time>2026-04-27T13:29:13Z</time></trkpt><trkpt lat="46.211452688545855" lon="10.164156843581688"><ele>421.00000000000006</ele><time>2026-04-27T13:29:14Z</time></trkpt><trkpt lat="46.21150938324431" lon="10.164096626506653"><ele>421.0</ele><time>2026-04-27T13:29:17Z</time></trkpt><trkpt lat="46.21140407807087" lon="10.16389559771748"><ele>421.0</ele><time>2026-04-27T13:29:19Z</time></trkpt><trkpt lat="46.21132364838299" lon="10.163777472561224"><ele>421.0</ele><time>2026-04-27T13:29:20Z</time></trkpt><trkpt lat="46.211233170587626" lon="10.163622876011654"><ele>421.0</ele><time>2026-04-27T13:29:21Z</time></trkpt><trkpt lat="46.21111314450507" lon="10.163411133706866"><ele>421.0</ele><time>2026-04-27T13:29:22Z</time></trkpt><trkpt lat="46.21098545758006" lon="10.163185982267505"><ele>422.0</ele><time>2026-04-27T13:29:23Z</time></trkpt><trkpt lat="46.210833630442266" lon="10.162934065201897"><ele>423.0</ele><time>2026-04-27T13:29:24Z</time></trkpt><trkpt lat="46.210676316127866" lon="10.16266094865849"><ele>422.5</ele><time>2026-04-27T13:29:25Z</time></trkpt><trkpt lat="46.21052193690871" lon="10.1623933376902"><ele>422.0</ele><time>2026-04-27T13:29:26Z</time></trkpt><trkpt lat="46.21038370220186" lon="10.162140174652443"><ele>422.0</ele><time>2026-04-27T13:29:27Z</time></trkpt><trkpt lat="46.2102545395647" lon="10.161916760576293"><ele>422.0</ele><time>2026-04-27T13:29:28Z</time></trkpt><trkpt lat="46.210139513501865" lon="10.161710946477854"><ele>422.0</ele><time>2026-04-27T13:29:29Z</time></trkpt><trkpt lat="46.21003192127767" lon="10.161521345950208"><ele>422.0</ele><time>2026-04-27T13:29:30Z</time></trkpt><trkpt lat="46.209933574189385" lon="10.161343445650587"><ele>422.0</ele><time>2026-04-27T13:29:31Z</time></trkpt><trkpt lat="46.2098367344622" lon="10.16118287967152"><ele>422.0</ele><time>2026-04-27T13:29:32Z</time></trkpt><trkpt lat="46.20974726351385" lon="10.161038254249709"><ele>422.0</ele><time>2026-04-27T13:29:33Z</time></trkpt><trkpt lat="46.20966985809333" lon="10.160896332633678"><ele>421.8333333333333</ele><time>2026-04-27T13:29:34Z</time></trkpt><trkpt lat="46.20959325004389" lon="10.16076355847493"><ele>421.66666666666663</ele><time>2026-04-27T13:29:35Z</time></trkpt><trkpt lat="46.20955198747946" lon="10.160659919266918"><ele>421.5</ele><time>2026-04-27T13:29:36Z</time></trkpt><trkpt lat="46.209536488368485" lon="10.160567612187943"><ele>421.33333333333337</ele><time>2026-04-27T13:29:37Z</time></trkpt><trkpt lat="46.20954498768625" lon="10.160463082849851"><ele>421.1666666666667</ele><time>2026-04-27T13:29:38Z</time></trkpt><trkpt lat="46.20956726678486" lon="10.160352744656942"><ele>421.0</ele><time>2026-04-27T13:29:39Z</time></trkpt><trkpt lat="46.20961368702135" lon="10.160246366079788"><ele>421.0</ele><time>2026-04-27T13:29:40Z</time></trkpt><trkpt lat="46.20964198492069" lon="10.160135134942937"><ele>421.0</ele><time>2026-04-27T13:29:41Z</time></trkpt><trkpt lat="46.20978029416025" lon="10.160077944114954"><ele>421.0</ele><time>2026-04-27T13:29:42.001Z</time></trkpt><trkpt lat="46.20989092131415" lon="10.159983257086447"><ele>421.0</ele><time>2026-04-27T13:29:43.001Z</time></trkpt><trkpt lat="46.21001421576769" lon="10.159867536498895"><ele>421.33333333333337</ele><time>2026-04-27T13:29:44.001Z</time></trkpt><trkpt lat="46.210136862696025" lon="10.159742307015017"><ele>421.66666666666663</ele><time>2026-04-27T13:29:45.001Z</time></trkpt><trkpt lat="46.2102745076042" lon="10.159602504257505"><ele>422.0</ele><time>2026-04-27T13:29:46.001Z</time></trkpt><trkpt lat="46.21041670038816" lon="10.159457100553823"><ele>422.0</ele><time>2026-04-27T13:29:47.001Z</time></trkpt><trkpt lat="46.210565377659314" lon="10.159313780378708"><ele>422.0</ele><time>2026-04-27T13:29:48.001Z</time></trkpt><trkpt lat="46.21068751682685" lon="10.159198469210317"><ele>422.0</ele><time>2026-04-27T13:29:49.001Z</time></trkpt><trkpt lat="46.210775922302226" lon="10.15911446820342"><ele>422.0</ele><time>2026-04-27T13:29:50.001Z</time></trkpt><trkpt lat="46.21083739851117" lon="10.15905798773624"><ele>421.8</ele><time>2026-04-27T13:29:51.001Z</time></trkpt><trkpt lat="46.210936963624604" lon="10.158991788727938"><ele>421.6</ele><time>2026-04-27T13:29:53.001Z</time></trkpt><trkpt lat="46.21101248978573" lon="10.158997001461643"><ele>421.40000000000003</ele><time>2026-04-27T13:29:55.001Z</time></trkpt><trkpt lat="46.21111100256483" lon="10.159039329487413"><ele>421.20000000000005</ele><time>2026-04-27T13:29:57.001Z</time></trkpt><trkpt lat="46.211143632504815" lon="10.159183557298512"><ele>421.0</ele><time>2026-04-27T13:29:58.001Z</time></trkpt><trkpt lat="46.211182547930214" lon="10.159294288056635"><ele>421.0</ele><time>2026-04-27T13:29:59.001Z</time></trkpt><trkpt lat="46.21121512300064" lon="10.159394274773756"><ele>421.0</ele><time>2026-04-27T13:30:00.001Z</time></trkpt><trkpt lat="46.2112405532512" lon="10.159479745784052"><ele>421.0</ele><time>2026-04-27T13:30:01.001Z</time></trkpt><trkpt lat="46.21127296475248" lon="10.159558223959735"><ele>421.0</ele><time>2026-04-27T13:30:02.001Z</time></trkpt><trkpt lat="46.211193411366935" lon="10.15975277446377"><ele>421.0</ele><time>2026-04-27T13:30:03.001Z</time></trkpt><trkpt lat="46.21118767705575" lon="10.1599214664567"><ele>421.25</ele><time>2026-04-27T13:30:04.001Z</time></trkpt><trkpt lat="46.21119591157325" lon="10.160081175080233"><ele>421.5</ele><time>2026-04-27T13:30:05.001Z</time></trkpt><trkpt lat="46.2112174989362" lon="10.16025222311016"><ele>421.75</ele><time>2026-04-27T13:30:06.001Z</time></trkpt><trkpt lat="46.21124589795481" lon="10.160421588898753"><ele>422.0</ele><time>2026-04-27T13:30:07.001Z</time></trkpt><trkpt lat="46.2112837458714" lon="10.160591308448618"><ele>422.20000000000005</ele><time>2026-04-27T13:30:08.001Z</time></trkpt><trkpt lat="46.21131942450011" lon="10.160756473125492"><ele>422.4</ele><time>2026-04-27T13:30:09.001Z</time></trkpt><trkpt lat="46.21135917041105" lon="10.16090967428051"><ele>422.6</ele><time>2026-04-27T13:30:10.001Z</time></trkpt><trkpt lat="46.211390191470116" lon="10.16104833578234"><ele>422.79999999999995</ele><time>2026-04-27T13:30:11.001Z</time></trkpt><trkpt lat="46.211420473001624" lon="10.161175971286088"><ele>423.0</ele><time>2026-04-27T13:30:12.001Z</time></trkpt><trkpt lat="46.21145400228802" lon="10.161283194515702"><ele>423.0</ele><time>2026-04-27T13:30:13.001Z</time></trkpt><trkpt lat="46.2114866945689" lon="10.16137712562726"><ele>423.0</ele><time>2026-04-27T13:30:14.001Z</time></trkpt><trkpt lat="46.211535918406454" lon="10.161509739823773"><ele>422.0</ele><time>2026-04-27T13:30:16.001Z</time></trkpt><trkpt lat="46.211570866198315" lon="10.161598431010175"><ele>423.0</ele><time>2026-04-27T13:30:18.001Z</time></trkpt><trkpt lat="46.21160729351266" lon="10.161692017737955"><ele>423.0</ele><time>2026-04-27T13:30:21.001Z</time></trkpt></trkseg></trk></gpx>